<?xml version='1.0' encoding='UTF-8'?><gpx version="1.1" creator="JPX - https://github.com/jenetics/jpx" xmlns="http://www.topografix.com/GPX/1/1"><trk><trkseg><trkpt lat="40.41971265859269" lon="15.094658529252811"><ele>478.0</ele><time>2026-04-19T08:11:00Z</time></trkpt><trkpt lat="40.41970904982538" lon="15.094830010408039"><ele>477.99999999999994</ele><time>2026-04-19T08:11:02Z</time></trkpt><trkpt lat="40.4197324208826" lon="15.094940001542804"><ele>477.99999999999994</ele><time>2026-04-19T08:11:03Z</time></trkpt><trkpt lat="40.4197494831534" lon="15.095059067605279"><ele>478.0</ele><time>2026-04-19T08:11:04Z</time></trkpt><trkpt lat="40.419742905135344" lon="15.09519304206933"><ele>478.0</ele><time>2026-04-19T08:11:05Z</time></trkpt><trkpt lat="40.41972425611496" lon="15.095327332596762"><ele>480.5</ele><time>2026-04-19T08:11:06Z</time></trkpt><trkpt lat="40.41971518560079" lon="15.095490363674456"><ele>483.0</ele><time>2026-04-19T08:11:07Z</time></trkpt><trkpt lat="40.419717477302285" lon="15.095667733932837"><ele>485.5</ele><time>2026-04-19T08:11:08Z</time></trkpt><trkpt lat="40.41971943722803" lon="15.09585100118848"><ele>488.0</ele><time>2026-04-19T08:11:09Z</time></trkpt><trkpt lat="40.419724058465846" lon="15.096027093041998"><ele>489.75</ele><time>2026-04-19T08:11:10Z</time></trkpt><trkpt lat="40.41972904914612" lon="15.096196210144532"><ele>491.5</ele><time>2026-04-19T08:11:11Z</time></trkpt><trkpt lat="40.41972941492907" lon="15.096360195537113"><ele>493.25</ele><time>2026-04-19T08:11:12Z</time></trkpt><trkpt lat="40.419722640261156" lon="15.096528006801712"><ele>495.0</ele><time>2026-04-19T08:11:13Z</time></trkpt><trkpt lat="40.41971477752473" lon="15.09668718235432"><ele>497.75</ele><time>2026-04-19T08:11:14Z</time></trkpt><trkpt lat="40.419710017602334" lon="15.096836865375028"><ele>500.5</ele><time>2026-04-19T08:11:15Z</time></trkpt><trkpt lat="40.41971409027728" lon="15.096986504171836"><ele>503.25</ele><time>2026-04-19T08:11:16Z</time></trkpt><trkpt lat="40.41971950089378" lon="15.097131797742076"><ele>506.0</ele><time>2026-04-19T08:11:17Z</time></trkpt><trkpt lat="40.41973196651933" lon="15.09728765748272"><ele>507.75</ele><time>2026-04-19T08:11:18Z</time></trkpt><trkpt lat="40.419740541570576" lon="15.097450756221583"><ele>509.5</ele><time>2026-04-19T08:11:19Z</time></trkpt><trkpt lat="40.4197469920632" lon="15.097613344810838"><ele>511.25</ele><time>2026-04-19T08:11:20Z</time></trkpt><trkpt lat="40.4197262049804" lon="15.097771235357861"><ele>513.0</ele><time>2026-04-19T08:11:21Z</time></trkpt><trkpt lat="40.41968472335641" lon="15.097923386709063"><ele>513.1999999999999</ele><time>2026-04-19T08:11:22Z</time></trkpt><trkpt lat="40.41964864223663" lon="15.098051002591248"><ele>513.4</ele><time>2026-04-19T08:11:23Z</time></trkpt><trkpt lat="40.419633147740896" lon="15.098184033018006"><ele>513.5999999999999</ele><time>2026-04-19T08:11:24Z</time></trkpt><trkpt lat="40.419645409039035" lon="15.098325265978609"><ele>513.8</ele><time>2026-04-19T08:11:25Z</time></trkpt><trkpt lat="40.419673271053846" lon="15.09847836818154"><ele>514.0</ele><time>2026-04-19T08:11:26Z</time></trkpt><trkpt lat="40.419703640106405" lon="15.09864496621308"><ele>516.5</ele><time>2026-04-19T08:11:27Z</time></trkpt><trkpt lat="40.419728357243784" lon="15.098822846554347"><ele>519.0</ele><time>2026-04-19T08:11:28Z</time></trkpt><trkpt lat="40.41974610147532" lon="15.098987097591358"><ele>521.5</ele><time>2026-04-19T08:11:29Z</time></trkpt><trkpt lat="40.41976584097708" lon="15.099140077469015"><ele>524.0</ele><time>2026-04-19T08:11:30Z</time></trkpt><trkpt lat="40.41977852051755" lon="15.099287394044664"><ele>525.8</ele><time>2026-04-19T08:11:31Z</time></trkpt><trkpt lat="40.41978862004158" lon="15.099410350738768"><ele>527.5999999999999</ele><time>2026-04-19T08:11:32Z</time></trkpt><trkpt lat="40.419814669808474" lon="15.099563047258544"><ele>529.4</ele><time>2026-04-19T08:11:33Z</time></trkpt><trkpt lat="40.41984038441837" lon="15.099689713329148"><ele>531.1999999999999</ele><time>2026-04-19T08:11:34Z</time></trkpt><trkpt lat="40.419879417155165" lon="15.099798374370607"><ele>533.0</ele><time>2026-04-19T08:11:35Z</time></trkpt><trkpt lat="40.419911969169654" lon="15.099873489980205"><ele>534.4</ele><time>2026-04-19T08:11:36Z</time></trkpt><trkpt lat="40.419938901484386" lon="15.100032489969946"><ele>535.8</ele><time>2026-04-19T08:11:38Z</time></trkpt><trkpt lat="40.4199198229767" lon="15.100128950268886"><ele>537.2</ele><time>2026-04-19T08:11:39Z</time></trkpt><trkpt lat="40.41990564394935" lon="15.100248245779788"><ele>538.6</ele><time>2026-04-19T08:11:40Z</time></trkpt><trkpt lat="40.41989600061377" lon="15.100377044712417"><ele>540.0</ele><time>2026-04-19T08:11:41Z</time></trkpt><trkpt lat="40.41987300775467" lon="15.100479995756976"><ele>540.0</ele><time>2026-04-19T08:11:42Z</time></trkpt><trkpt lat="40.41984824302158" lon="15.1005594033127"><ele>540.0</ele><time>2026-04-19T08:11:43Z</time></trkpt><trkpt lat="40.41981322654643" lon="15.100673525133052"><ele>540.0</ele><time>2026-04-19T08:11:45Z</time></trkpt><trkpt lat="40.41975745276295" lon="15.100776005036375"><ele>540.0</ele><time>2026-04-19T08:12:55Z</time></trkpt><trkpt lat="40.41972649150652" lon="15.100876411615818"><ele>540.0</ele><time>2026-04-19T08:12:57Z</time></trkpt><trkpt lat="40.4197453215755" lon="15.101037843304821"><ele>542.4</ele><time>2026-04-19T08:12:59Z</time></trkpt><trkpt lat="40.41977990341898" lon="15.10119492375784"><ele>544.8</ele><time>2026-04-19T08:13:01Z</time></trkpt><trkpt lat="40.41981582696141" lon="15.101327670145977"><ele>547.2</ele><time>2026-04-19T08:13:03Z</time></trkpt><trkpt lat="40.41985965571157" lon="15.101484458059504"><ele>549.6</ele><time>2026-04-19T08:13:05Z</time></trkpt><trkpt lat="40.41990004455186" lon="15.101579252115183"><ele>552.0</ele><time>2026-04-19T08:13:06Z</time></trkpt><trkpt lat="40.419946025767224" lon="15.10174122800715"><ele>552.5</ele><time>2026-04-19T08:13:08Z</time></trkpt><trkpt lat="40.41998036454765" lon="15.101830469517841"><ele>553.0</ele><time>2026-04-19T08:13:10Z</time></trkpt><trkpt lat="40.42000857378427" lon="15.101929296995577"><ele>553.5</ele><time>2026-04-19T08:13:12Z</time></trkpt><trkpt lat="40.42002286629394" lon="15.102057721261332"><ele>554.0</ele><time>2026-04-19T08:13:14Z</time></trkpt><trkpt lat="40.420041059827284" lon="15.102140311220058"><ele>554.5</ele><time>2026-04-19T08:13:16Z</time></trkpt><trkpt lat="40.420065697694696" lon="15.102268887905922"><ele>555.0</ele><time>2026-04-19T08:13:18Z</time></trkpt><trkpt lat="40.42008318617607" lon="15.102373817374108"><ele>555.6666666666666</ele><time>2026-04-19T08:13:20Z</time></trkpt><trkpt lat="40.420060211242514" lon="15.102480692242233"><ele>556.3333333333334</ele><time>2026-04-19T08:13:23Z</time></trkpt><trkpt lat="40.42003635124917" lon="15.102601090538329"><ele>557.0</ele><time>2026-04-19T08:13:24Z</time></trkpt><trkpt lat="40.42002783166921" lon="15.102704673165206"><ele>557.6666666666667</ele><time>2026-04-19T08:13:25Z</time></trkpt><trkpt lat="40.42000663559752" lon="15.10279946285566"><ele>558.3333333333334</ele><time>2026-04-19T08:13:26Z</time></trkpt><trkpt lat="40.41996816042117" lon="15.102894641768689"><ele>559.0</ele><time>2026-04-19T08:13:27Z</time></trkpt><trkpt lat="40.41994577643296" lon="15.102986828447847"><ele>559.0</ele><time>2026-04-19T08:13:28Z</time></trkpt><trkpt lat="40.41993537686559" lon="15.103076400078303"><ele>559.0</ele><time>2026-04-19T08:13:29Z</time></trkpt><trkpt lat="40.41991311391597" lon="15.103220505449025"><ele>559.0</ele><time>2026-04-19T08:13:31Z</time></trkpt><trkpt lat="40.41987378941057" lon="15.103350325107046"><ele>559.0</ele><time>2026-04-19T08:13:33Z</time></trkpt><trkpt lat="40.41983816831963" lon="15.103418923038465"><ele>559.0</ele><time>2026-04-19T08:13:34Z</time></trkpt><trkpt lat="40.419811837759255" lon="15.103497300996999"><ele>559.0</ele><time>2026-04-19T08:13:35Z</time></trkpt><trkpt lat="40.419754795216484" lon="15.103616252087342"><ele>558.6</ele><time>2026-04-19T08:13:37Z</time></trkpt><trkpt lat="40.41971249730266" lon="15.103720366179004"><ele>558.2</ele><time>2026-04-19T08:13:39Z</time></trkpt><trkpt lat="40.41967239763613" lon="15.103807433319567"><ele>557.8000000000001</ele><time>2026-04-19T08:13:40Z</time></trkpt><trkpt lat="40.41962035821702" lon="15.103933613051986"><ele>557.4</ele><time>2026-04-19T08:13:42Z</time></trkpt><trkpt lat="40.41955307387646" lon="15.104039945217815"><ele>557.0</ele><time>2026-04-19T08:13:44Z</time></trkpt><trkpt lat="40.41946053529637" lon="15.104166639450474"><ele>557.0</ele><time>2026-04-19T08:13:45.999Z</time></trkpt><trkpt lat="40.41941188720588" lon="15.104219220897003"><ele>557.0</ele><time>2026-04-19T08:13:46.999Z</time></trkpt><trkpt lat="40.41930992373382" lon="15.104296353784616"><ele>557.0</ele><time>2026-04-19T08:13:48.999Z</time></trkpt><trkpt lat="40.419233889332745" lon="15.104377703607295"><ele>557.0</ele><time>2026-04-19T08:13:50.999Z</time></trkpt><trkpt lat="40.41919690039087" lon="15.104526855891546"><ele>557.0</ele><time>2026-04-19T08:13:52.999Z</time></trkpt><trkpt lat="40.41918789945808" lon="15.1046326744822"><ele>557.0</ele><time>2026-04-19T08:13:53.999Z</time></trkpt><trkpt lat="40.41917837694606" lon="15.104747314504438"><ele>557.0</ele><time>2026-04-19T08:13:54.999Z</time></trkpt><trkpt lat="40.4191898829698" lon="15.104846317842684"><ele>557.0</ele><time>2026-04-19T08:13:55.999Z</time></trkpt><trkpt lat="40.41919902643215" lon="15.10494008083358"><ele>557.0</ele><time>2026-04-19T08:13:56.999Z</time></trkpt><trkpt lat="40.419188568262186" lon="15.105047621095908"><ele>557.0</ele><time>2026-04-19T08:13:57.999Z</time></trkpt><trkpt lat="40.419199390056924" lon="15.105162229122136"><ele>557.0</ele><time>2026-04-19T08:13:58.999Z</time></trkpt><trkpt lat="40.4191977466967" lon="15.105254128986155"><ele>557.6666666666666</ele><time>2026-04-19T08:13:59.999Z</time></trkpt><trkpt lat="40.419187640835254" lon="15.105348551969739"><ele>558.3333333333333</ele><time>2026-04-19T08:14:00.999Z</time></trkpt><trkpt lat="40.4191614062285" lon="15.105447905105539"><ele>559.0</ele><time>2026-04-19T08:14:01.999Z</time></trkpt><trkpt lat="40.41913658515591" lon="15.105542055216171"><ele>559.6666666666666</ele><time>2026-04-19T08:14:02.999Z</time></trkpt><trkpt lat="40.419107098109876" lon="15.105630769062447"><ele>560.3333333333334</ele><time>2026-04-19T08:14:03.999Z</time></trkpt><trkpt lat="40.419087921802145" lon="15.105728773719894"><ele>561.0</ele><time>2026-04-19T08:14:04.999Z</time></trkpt><trkpt lat="40.41900907457916" lon="15.105851242918892"><ele>561.2</ele><time>2026-04-19T08:14:06.999Z</time></trkpt><trkpt lat="40.41900581063023" lon="15.105935670784886"><ele>561.4000000000001</ele><time>2026-04-19T08:14:07.999Z</time></trkpt><trkpt lat="40.41895140887765" lon="15.106118872797127"><ele>561.6</ele><time>2026-04-19T08:14:09.999Z</time></trkpt><trkpt lat="40.418906422751704" lon="15.106230865495412"><ele>561.8000000000001</ele><time>2026-04-19T08:14:10.999Z</time></trkpt><trkpt lat="40.41887551834545" lon="15.106354716078629"><ele>562.0</ele><time>2026-04-19T08:14:11.999Z</time></trkpt><trkpt lat="40.41886555437455" lon="15.106485723035895"><ele>563.0</ele><time>2026-04-19T08:14:12.999Z</time></trkpt><trkpt lat="40.418850151619736" lon="15.106614128212163"><ele>564.0</ele><time>2026-04-19T08:14:13.999Z</time></trkpt><trkpt lat="40.418848837649975" lon="15.106745847063502"><ele>565.0</ele><time>2026-04-19T08:14:14.999Z</time></trkpt><trkpt lat="40.41884436740301" lon="15.106902791736504"><ele>566.0</ele><time>2026-04-19T08:14:15.999Z</time></trkpt><trkpt lat="40.4188442938149" lon="15.107052684563076"><ele>567.0</ele><time>2026-04-19T08:14:16.999Z</time></trkpt><trkpt lat="40.418821738115085" lon="15.10719404388781"><ele>564.0</ele><time>2026-04-19T08:14:17.999Z</time></trkpt><trkpt lat="40.41879359322858" lon="15.10732087997466"><ele>561.0</ele><time>2026-04-19T08:14:18.999Z</time></trkpt><trkpt lat="40.418760127820256" lon="15.107455493965503"><ele>558.0</ele><time>2026-04-19T08:14:19.999Z</time></trkpt><trkpt lat="40.418717474544" lon="15.107582679374515"><ele>555.0</ele><time>2026-04-19T08:14:20.999Z</time></trkpt><trkpt lat="40.418678894205115" lon="15.107691234717095"><ele>552.0</ele><time>2026-04-19T08:14:21.999Z</time></trkpt><trkpt lat="40.418651357881785" lon="15.107775299084686"><ele>552.0</ele><time>2026-04-19T08:14:22.999Z</time></trkpt><trkpt lat="40.41860080011547" lon="15.107877875614859"><ele>552.0</ele><time>2026-04-19T08:14:24.999Z</time></trkpt><trkpt lat="40.41851666684268" lon="15.107996505308288"><ele>552.0</ele><time>2026-04-19T08:14:26.999Z</time></trkpt><trkpt lat="40.4184410246004" lon="15.108062159378127"><ele>552.0</ele><time>2026-04-19T08:14:27.999Z</time></trkpt><trkpt lat="40.41836602878718" lon="15.10813267792106"><ele>552.0</ele><time>2026-04-19T08:14:28.999Z</time></trkpt><trkpt lat="40.418312781966904" lon="15.108214633386789"><ele>551.2</ele><time>2026-04-19T08:14:29.999Z</time></trkpt><trkpt lat="40.418266615022546" lon="15.108292153774466"><ele>550.4000000000001</ele><time>2026-04-19T08:14:30.999Z</time></trkpt><trkpt lat="40.41821073079074" lon="15.108406749721837"><ele>549.5999999999999</ele><time>2026-04-19T08:14:31.999Z</time></trkpt><trkpt lat="40.418132058528855" lon="15.108521199076852"><ele>548.8</ele><time>2026-04-19T08:14:32.999Z</time></trkpt><trkpt lat="40.41804083279221" lon="15.108619052086548"><ele>548.0</ele><time>2026-04-19T08:14:33.999Z</time></trkpt><trkpt lat="40.41793419353696" lon="15.108707040674615"><ele>548.0</ele><time>2026-04-19T08:14:34.999Z</time></trkpt><trkpt lat="40.41782529818284" lon="15.108793963499735"><ele>548.0</ele><time>2026-04-19T08:14:35.999Z</time></trkpt><trkpt lat="40.41772986218331" lon="15.108894185429323"><ele>548.0</ele><time>2026-04-19T08:14:36.999Z</time></trkpt><trkpt lat="40.417639556901776" lon="15.10896529422267"><ele>548.0</ele><time>2026-04-19T08:14:37.999Z</time></trkpt><trkpt lat="40.417563900555606" lon="15.10903582751918"><ele>548.0</ele><time>2026-04-19T08:14:38.999Z</time></trkpt><trkpt lat="40.417502018093344" lon="15.109115088146236"><ele>549.6</ele><time>2026-04-19T08:14:39.999Z</time></trkpt><trkpt lat="40.41744832646403" lon="15.109213510845874"><ele>551.1999999999999</ele><time>2026-04-19T08:14:40.999Z</time></trkpt><trkpt lat="40.41739532243213" lon="15.109305158772973"><ele>552.8</ele><time>2026-04-19T08:14:41.999Z</time></trkpt><trkpt lat="40.41731959056485" lon="15.10942730027606"><ele>554.4</ele><time>2026-04-19T08:14:43Z</time></trkpt><trkpt lat="40.41726144901762" lon="15.109536556446853"><ele>556.0</ele><time>2026-04-19T08:14:44Z</time></trkpt><trkpt lat="40.41719458625833" lon="15.109607853080085"><ele>556.1666666666667</ele><time>2026-04-19T08:14:45Z</time></trkpt><trkpt lat="40.41712582188972" lon="15.109671990016988"><ele>556.3333333333334</ele><time>2026-04-19T08:14:46Z</time></trkpt><trkpt lat="40.41704038167154" lon="15.109751278796065"><ele>556.5</ele><time>2026-04-19T08:14:47Z</time></trkpt><trkpt lat="40.41695608268313" lon="15.10981608734118"><ele>556.6666666666666</ele><time>2026-04-19T08:14:48Z</time></trkpt><trkpt lat="40.41689954705429" lon="15.109895031803385"><ele>556.8333333333333</ele><time>2026-04-19T08:14:49Z</time></trkpt><trkpt lat="40.4168600248796" lon="15.109967031556424"><ele>557.0</ele><time>2026-04-19T08:14:50Z</time></trkpt><trkpt lat="40.416826136769494" lon="15.110067913981368"><ele>557.0</ele><time>2026-04-19T08:14:51Z</time></trkpt><trkpt lat="40.416823100702146" lon="15.11021487514892"><ele>557.0</ele><time>2026-04-19T08:14:52Z</time></trkpt><trkpt lat="40.41681008726867" lon="15.110344584340874"><ele>557.0</ele><time>2026-04-19T08:14:53Z</time></trkpt><trkpt lat="40.4167942062959" lon="15.110430526399188"><ele>557.0</ele><time>2026-04-19T08:14:54Z</time></trkpt><trkpt lat="40.416793621383206" lon="15.110534843570763"><ele>557.0</ele><time>2026-04-19T08:14:55Z</time></trkpt><trkpt lat="40.41678873191969" lon="15.110761760717876"><ele>556.8000000000001</ele><time>2026-04-19T08:14:57Z</time></trkpt><trkpt lat="40.41677584580253" lon="15.110875428451319"><ele>556.6</ele><time>2026-04-19T08:14:58Z</time></trkpt><trkpt lat="40.41674981333879" lon="15.111001072642333"><ele>556.4000000000001</ele><time>2026-04-19T08:14:59Z</time></trkpt><trkpt lat="40.41673205609643" lon="15.11110775173267"><ele>556.2</ele><time>2026-04-19T08:15:00Z</time></trkpt><trkpt lat="40.41671456573188" lon="15.111215184436546"><ele>556.0</ele><time>2026-04-19T08:15:01Z</time></trkpt><trkpt lat="40.41667770737292" lon="15.111347073835026"><ele>556.0</ele><time>2026-04-19T08:15:02Z</time></trkpt><trkpt lat="40.41664064831084" lon="15.111486863797088"><ele>556.0</ele><time>2026-04-19T08:15:03Z</time></trkpt><trkpt lat="40.41659015560495" lon="15.111622785011338"><ele>556.0</ele><time>2026-04-19T08:15:04Z</time></trkpt><trkpt lat="40.41655452511623" lon="15.111755576662071"><ele>556.0</ele><time>2026-04-19T08:15:05Z</time></trkpt><trkpt lat="40.41653093414428" lon="15.11189345898432"><ele>556.0</ele><time>2026-04-19T08:15:06Z</time></trkpt><trkpt lat="40.41650364818027" lon="15.111999298028675"><ele>556.4</ele><time>2026-04-19T08:15:07Z</time></trkpt><trkpt lat="40.41646685433544" lon="15.112120477341668"><ele>556.8</ele><time>2026-04-19T08:15:08Z</time></trkpt><trkpt lat="40.41643319659669" lon="15.112244748797185"><ele>557.1999999999999</ele><time>2026-04-19T08:15:09Z</time></trkpt><trkpt lat="40.41640502598665" lon="15.112353048467549"><ele>557.6</ele><time>2026-04-19T08:15:10Z</time></trkpt><trkpt lat="40.416357613548904" lon="15.11245466259923"><ele>558.0</ele><time>2026-04-19T08:15:11Z</time></trkpt><trkpt lat="40.41632836571477" lon="15.112582792458745"><ele>556.8</ele><time>2026-04-19T08:15:12Z</time></trkpt><trkpt lat="40.41627493084623" lon="15.112705638714164"><ele>555.5999999999999</ele><time>2026-04-19T08:15:13Z</time></trkpt><trkpt lat="40.41623326604573" lon="15.112813612763428"><ele>554.4000000000001</ele><time>2026-04-19T08:15:14Z</time></trkpt><trkpt lat="40.41617046431556" lon="15.112919392703908"><ele>553.2</ele><time>2026-04-19T08:15:15Z</time></trkpt><trkpt lat="40.41612305844614" lon="15.113033408046133"><ele>552.0</ele><time>2026-04-19T08:15:16Z</time></trkpt><trkpt lat="40.416085842541975" lon="15.113156412732101"><ele>552.0</ele><time>2026-04-19T08:15:17Z</time></trkpt><trkpt lat="40.41605077712785" lon="15.113225915285687"><ele>552.0</ele><time>2026-04-19T08:15:18Z</time></trkpt><trkpt lat="40.415996268107186" lon="15.1133610413121"><ele>552.0</ele><time>2026-04-19T08:15:20Z</time></trkpt><trkpt lat="40.4159487462425" lon="15.113436190350692"><ele>552.0</ele><time>2026-04-19T08:15:21Z</time></trkpt><trkpt lat="40.41593121982724" lon="15.11352425992775"><ele>552.0</ele><time>2026-04-19T08:15:22Z</time></trkpt><trkpt lat="40.41587280871971" lon="15.113689613691287"><ele>553.0</ele><time>2026-04-19T08:15:24Z</time></trkpt><trkpt lat="40.41582885723989" lon="15.11383779099496"><ele>554.0</ele><time>2026-04-19T08:15:26Z</time></trkpt><trkpt lat="40.41581448015727" lon="15.113930817265997"><ele>555.0</ele><time>2026-04-19T08:15:27Z</time></trkpt><trkpt lat="40.41578441377565" lon="15.11410545412604"><ele>556.0</ele><time>2026-04-19T08:15:29Z</time></trkpt><trkpt lat="40.41575234847522" lon="15.114206861072146"><ele>557.0</ele><time>2026-04-19T08:15:30Z</time></trkpt><trkpt lat="40.415707969936385" lon="15.114275207662182"><ele>557.6</ele><time>2026-04-19T08:15:31Z</time></trkpt><trkpt lat="40.41566177190511" lon="15.114352768774511"><ele>558.2</ele><time>2026-04-19T08:15:32Z</time></trkpt><trkpt lat="40.41558024705196" lon="15.114479295016086"><ele>558.8</ele><time>2026-04-19T08:15:34Z</time></trkpt><trkpt lat="40.41556041639213" lon="15.114583383255239"><ele>559.4</ele><time>2026-04-19T08:15:35Z</time></trkpt><trkpt lat="40.41552730931223" lon="15.114688120412854"><ele>560.0</ele><time>2026-04-19T08:15:35.999Z</time></trkpt><trkpt lat="40.41550512302702" lon="15.114797703139104"><ele>559.8333333333333</ele><time>2026-04-19T08:15:36.999Z</time></trkpt><trkpt lat="40.41547915809292" lon="15.114925817696625"><ele>559.6666666666666</ele><time>2026-04-19T08:15:37.999Z</time></trkpt><trkpt lat="40.415438521233625" lon="15.115045833807823"><ele>559.5</ele><time>2026-04-19T08:15:38.999Z</time></trkpt><trkpt lat="40.41538722920186" lon="15.11513609607691"><ele>559.3333333333334</ele><time>2026-04-19T08:15:39.999Z</time></trkpt><trkpt lat="40.41535320498516" lon="15.11521868321787"><ele>559.1666666666667</ele><time>2026-04-19T08:15:40.999Z</time></trkpt><trkpt lat="40.41532540054217" lon="15.115311773107948"><ele>559.0</ele><time>2026-04-19T08:15:41.999Z</time></trkpt><trkpt lat="40.41528768138812" lon="15.115399537659352"><ele>559.0</ele><time>2026-04-19T08:15:42.999Z</time></trkpt><trkpt lat="40.41523477914383" lon="15.11552535752911"><ele>559.0</ele><time>2026-04-19T08:15:43.999Z</time></trkpt><trkpt lat="40.41520177946404" lon="15.11560335256696"><ele>559.0</ele><time>2026-04-19T08:15:44.999Z</time></trkpt><trkpt lat="40.4151651315518" lon="15.115674902125845"><ele>559.0</ele><time>2026-04-19T08:15:45.999Z</time></trkpt><trkpt lat="40.415099940964176" lon="15.115773243656644"><ele>559.0</ele><time>2026-04-19T08:15:46.999Z</time></trkpt><trkpt lat="40.415058062050214" lon="15.115874405944915"><ele>559.0</ele><time>2026-04-19T08:15:47.999Z</time></trkpt><trkpt lat="40.415020919674156" lon="15.115964570974795"><ele>559.8333333333334</ele><time>2026-04-19T08:15:48.999Z</time></trkpt><trkpt lat="40.41496948362022" lon="15.116063903349044"><ele>560.6666666666667</ele><time>2026-04-19T08:15:49.999Z</time></trkpt><trkpt lat="40.41491619786862" lon="15.11617461284341"><ele>561.5</ele><time>2026-04-19T08:15:50.999Z</time></trkpt><trkpt lat="40.414871090646876" lon="15.116278455593003"><ele>562.3333333333334</ele><time>2026-04-19T08:15:51.999Z</time></trkpt><trkpt lat="40.41483318498671" lon="15.11636316804442"><ele>563.1666666666666</ele><time>2026-04-19T08:15:52.999Z</time></trkpt><trkpt lat="40.41477953795023" lon="15.116455674165843"><ele>564.0</ele><time>2026-04-19T08:15:53.999Z</time></trkpt><trkpt lat="40.41475514379957" lon="15.11656352672938"><ele>565.6</ele><time>2026-04-19T08:15:54.999Z</time></trkpt><trkpt lat="40.414713071654944" lon="15.116677090762854"><ele>567.2</ele><time>2026-04-19T08:15:55.999Z</time></trkpt><trkpt lat="40.414664143501916" lon="15.11677141851477"><ele>568.8000000000001</ele><time>2026-04-19T08:15:56.999Z</time></trkpt><trkpt lat="40.414613009663945" lon="15.116948765226482"><ele>570.4</ele><time>2026-04-19T08:15:58.999Z</time></trkpt><trkpt lat="40.414578021891025" lon="15.117056004423928"><ele>572.0</ele><time>2026-04-19T08:15:59.999Z</time></trkpt><trkpt lat="40.41454415067765" lon="15.1171587228436"><ele>571.2</ele><time>2026-04-19T08:16:00.999Z</time></trkpt><trkpt lat="40.41451021687431" lon="15.117252682129335"><ele>570.4000000000001</ele><time>2026-04-19T08:16:01.999Z</time></trkpt><trkpt lat="40.41444867466246" lon="15.117387576126498"><ele>569.5999999999999</ele><time>2026-04-19T08:16:03.999Z</time></trkpt><trkpt lat="40.414381862104094" lon="15.117520290767175"><ele>568.8</ele><time>2026-04-19T08:16:04.999Z</time></trkpt><trkpt lat="40.41436019311612" lon="15.117610417662032"><ele>568.0</ele><time>2026-04-19T08:16:05.999Z</time></trkpt><trkpt lat="40.41431176340636" lon="15.117745054133044"><ele>568.0</ele><time>2026-04-19T08:16:07.999Z</time></trkpt><trkpt lat="40.41426091279374" lon="15.117917173952135"><ele>568.0</ele><time>2026-04-19T08:16:09.999Z</time></trkpt><trkpt lat="40.414237128276135" lon="15.117997680103402"><ele>568.0</ele><time>2026-04-19T08:16:10.999Z</time></trkpt><trkpt lat="40.41423343097818" lon="15.118102549102025"><ele>568.0</ele><time>2026-04-19T08:16:11.999Z</time></trkpt><trkpt lat="40.41422533805238" lon="15.118218076094074"><ele>568.0</ele><time>2026-04-19T08:16:12.999Z</time></trkpt><trkpt lat="40.414216596090604" lon="15.118335696554912"><ele>569.1666666666667</ele><time>2026-04-19T08:16:13.999Z</time></trkpt><trkpt lat="40.41418374735332" lon="15.118464375992172"><ele>570.3333333333334</ele><time>2026-04-19T08:16:14.999Z</time></trkpt><trkpt lat="40.41416417343091" lon="15.118581711473793"><ele>571.5</ele><time>2026-04-19T08:16:15.999Z</time></trkpt><trkpt lat="40.414145653508044" lon="15.118704372006171"><ele>572.6666666666666</ele><time>2026-04-19T08:16:16.999Z</time></trkpt><trkpt lat="40.41413871688869" lon="15.118809126204535"><ele>573.8333333333333</ele><time>2026-04-19T08:16:17.999Z</time></trkpt><trkpt lat="40.414153156453125" lon="15.11890170611458"><ele>575.0</ele><time>2026-04-19T08:16:18.999Z</time></trkpt><trkpt lat="40.414147708379595" lon="15.118992577978569"><ele>576.4</ele><time>2026-04-19T08:16:19.999Z</time></trkpt><trkpt lat="40.41410686502344" lon="15.119184824317596"><ele>577.8</ele><time>2026-04-19T08:16:21.999Z</time></trkpt><trkpt lat="40.414079907885124" lon="15.119294772409596"><ele>579.2</ele><time>2026-04-19T08:16:22.999Z</time></trkpt><trkpt lat="40.41405082183974" lon="15.119392774760712"><ele>580.6</ele><time>2026-04-19T08:16:23.999Z</time></trkpt><trkpt lat="40.413995268560654" lon="15.119511333964955"><ele>582.0</ele><time>2026-04-19T08:16:25.999Z</time></trkpt><trkpt lat="40.41388285415529" lon="15.11962545839774"><ele>581.0</ele><time>2026-04-19T08:16:27.999Z</time></trkpt><trkpt lat="40.41380101183402" lon="15.119714747565027"><ele>580.0</ele><time>2026-04-19T08:16:28.999Z</time></trkpt><trkpt lat="40.41372633722176" lon="15.119821432955113"><ele>579.0</ele><time>2026-04-19T08:16:29.999Z</time></trkpt><trkpt lat="40.41366738390532" lon="15.11997262937403"><ele>578.0</ele><time>2026-04-19T08:16:30.999Z</time></trkpt><trkpt lat="40.4136053335467" lon="15.120071144649208"><ele>577.0</ele><time>2026-04-19T08:16:31.999Z</time></trkpt><trkpt lat="40.413555105111364" lon="15.120174664773812"><ele>577.0</ele><time>2026-04-19T08:16:32.999Z</time></trkpt><trkpt lat="40.413492697116304" lon="15.120278438722197"><ele>577.0</ele><time>2026-04-19T08:16:33.999Z</time></trkpt><trkpt lat="40.41343344097383" lon="15.120375096484869"><ele>577.0</ele><time>2026-04-19T08:16:34.999Z</time></trkpt><trkpt lat="40.41337128274737" lon="15.120469675099134"><ele>577.0</ele><time>2026-04-19T08:16:35.999Z</time></trkpt><trkpt lat="40.41331148389828" lon="15.120569861134292"><ele>577.0</ele><time>2026-04-19T08:16:36.999Z</time></trkpt><trkpt lat="40.41325170804873" lon="15.120651492685727"><ele>578.8000000000001</ele><time>2026-04-19T08:16:37.999Z</time></trkpt><trkpt lat="40.41319358222823" lon="15.120733758489958"><ele>580.6</ele><time>2026-04-19T08:16:38.999Z</time></trkpt><trkpt lat="40.41314594573326" lon="15.120814695679147"><ele>582.4000000000001</ele><time>2026-04-19T08:16:39.999Z</time></trkpt><trkpt lat="40.41316074058295" lon="15.120949678055169"><ele>584.2</ele><time>2026-04-19T08:16:41.999Z</time></trkpt><trkpt lat="40.413118886376594" lon="15.12108009723982"><ele>586.0</ele><time>2026-04-19T08:16:44Z</time></trkpt><trkpt lat="40.413055738659565" lon="15.121198612277826"><ele>586.0</ele><time>2026-04-19T08:16:46Z</time></trkpt><trkpt lat="40.413043818166535" lon="15.121293782789666"><ele>586.0</ele><time>2026-04-19T08:16:47Z</time></trkpt><trkpt lat="40.413020694295106" lon="15.121375091030293"><ele>586.0</ele><time>2026-04-19T08:16:48Z</time></trkpt><trkpt lat="40.413003764983586" lon="15.121508681845704"><ele>586.0</ele><time>2026-04-19T08:16:50Z</time></trkpt><trkpt lat="40.41299371358007" lon="15.12160925547097"><ele>586.0</ele><time>2026-04-19T08:16:52Z</time></trkpt><trkpt lat="40.41297710852646" lon="15.121783524393427"><ele>585.6</ele><time>2026-04-19T08:16:54Z</time></trkpt><trkpt lat="40.412943129050944" lon="15.121933456160468"><ele>585.2</ele><time>2026-04-19T08:16:56Z</time></trkpt><trkpt lat="40.41292247142739" lon="15.122073414308536"><ele>584.8</ele><time>2026-04-19T08:16:57Z</time></trkpt><trkpt lat="40.41291751270413" lon="15.12219458234686"><ele>584.4</ele><time>2026-04-19T08:16:58Z</time></trkpt><trkpt lat="40.412886405609186" lon="15.122282564984715"><ele>584.0</ele><time>2026-04-19T08:16:59Z</time></trkpt><trkpt lat="40.4128456446326" lon="15.12243231047656"><ele>584.6666666666666</ele><time>2026-04-19T08:17:01Z</time></trkpt><trkpt lat="40.4128194438013" lon="15.122519125242187"><ele>585.3333333333333</ele><time>2026-04-19T08:17:02Z</time></trkpt><trkpt lat="40.412799474666855" lon="15.12263875884155"><ele>586.0</ele><time>2026-04-19T08:17:03Z</time></trkpt><trkpt lat="40.41276483142463" lon="15.122750430476374"><ele>586.6666666666666</ele><time>2026-04-19T08:17:04Z</time></trkpt><trkpt lat="40.41272870518343" lon="15.122846324182408"><ele>587.3333333333334</ele><time>2026-04-19T08:17:05Z</time></trkpt><trkpt lat="40.41269655305504" lon="15.122936501219497"><ele>588.0</ele><time>2026-04-19T08:17:06Z</time></trkpt><trkpt lat="40.412670932580276" lon="15.123027255590701"><ele>588.0</ele><time>2026-04-19T08:17:07Z</time></trkpt><trkpt lat="40.41261700452798" lon="15.123113698791949"><ele>588.0</ele><time>2026-04-19T08:17:08Z</time></trkpt><trkpt lat="40.41259002321871" lon="15.123216551314748"><ele>588.0</ele><time>2026-04-19T08:17:09Z</time></trkpt><trkpt lat="40.41256623400311" lon="15.123297699514731"><ele>588.0</ele><time>2026-04-19T08:17:10Z</time></trkpt><trkpt lat="40.412529487115734" lon="15.12339914538983"><ele>588.0</ele><time>2026-04-19T08:17:11Z</time></trkpt><trkpt lat="40.412488918392015" lon="15.123512514709123"><ele>588.0</ele><time>2026-04-19T08:17:12Z</time></trkpt><trkpt lat="40.41245412241654" lon="15.123612969113852"><ele>589.8</ele><time>2026-04-19T08:17:13Z</time></trkpt><trkpt lat="40.41238628983022" lon="15.123749973156736"><ele>591.5999999999999</ele><time>2026-04-19T08:17:15Z</time></trkpt><trkpt lat="40.41236378811205" lon="15.123843469965177"><ele>593.4000000000001</ele><time>2026-04-19T08:17:16Z</time></trkpt><trkpt lat="40.41232251764509" lon="15.123931700937575"><ele>595.2</ele><time>2026-04-19T08:17:17Z</time></trkpt><trkpt lat="40.41227520905608" lon="15.124032244415236"><ele>597.0</ele><time>2026-04-19T08:17:18Z</time></trkpt><trkpt lat="40.41221409250156" lon="15.12413824497486"><ele>596.2</ele><time>2026-04-19T08:17:19Z</time></trkpt><trkpt lat="40.412166653339426" lon="15.124238834869775"><ele>595.4000000000001</ele><time>2026-04-19T08:17:20Z</time></trkpt><trkpt lat="40.41212257243381" lon="15.124316549413674"><ele>594.5999999999999</ele><time>2026-04-19T08:17:21Z</time></trkpt><trkpt lat="40.412088600688186" lon="15.12439045962751"><ele>593.8</ele><time>2026-04-19T08:17:22Z</time></trkpt><trkpt lat="40.412042875669044" lon="15.124498855540343"><ele>593.0</ele><time>2026-04-19T08:17:24Z</time></trkpt><trkpt lat="40.41195646050316" lon="15.124620286897414"><ele>593.0</ele><time>2026-04-19T08:17:26Z</time></trkpt><trkpt lat="40.41188628590075" lon="15.124677182245357"><ele>593.0</ele><time>2026-04-19T08:17:27Z</time></trkpt><trkpt lat="40.41182983651081" lon="15.124724452433671"><ele>593.0</ele><time>2026-04-19T08:17:28Z</time></trkpt><trkpt lat="40.41175355379241" lon="15.124760179358466"><ele>593.0</ele><time>2026-04-19T08:17:29Z</time></trkpt><trkpt lat="40.41166530516025" lon="15.124785965645446"><ele>593.0</ele><time>2026-04-19T08:17:30Z</time></trkpt><trkpt lat="40.41159496159745" lon="15.124828750223"><ele>593.0</ele><time>2026-04-19T08:17:31Z</time></trkpt><trkpt lat="40.41151939276081" lon="15.124901997619315"><ele>593.8333333333333</ele><time>2026-04-19T08:17:32Z</time></trkpt><trkpt lat="40.41144908390979" lon="15.124985328885428"><ele>594.6666666666666</ele><time>2026-04-19T08:17:33Z</time></trkpt><trkpt lat="40.4113938966498" lon="15.125065507586182"><ele>595.5</ele><time>2026-04-19T08:17:34Z</time></trkpt><trkpt lat="40.41131886071493" lon="15.125144938103617"><ele>596.3333333333334</ele><time>2026-04-19T08:17:35Z</time></trkpt><trkpt lat="40.41127681425298" lon="15.125230455920784"><ele>597.1666666666667</ele><time>2026-04-19T08:17:36Z</time></trkpt><trkpt lat="40.41122230989745" lon="15.125279604347131"><ele>598.0</ele><time>2026-04-19T08:17:37Z</time></trkpt><trkpt lat="40.41113864839117" lon="15.12528179739814"><ele>598.0</ele><time>2026-04-19T08:17:38Z</time></trkpt><trkpt lat="40.41106667422958" lon="15.125348273031102"><ele>598.0</ele><time>2026-04-19T08:17:39Z</time></trkpt><trkpt lat="40.41100717608196" lon="15.125402464550787"><ele>598.0</ele><time>2026-04-19T08:17:40Z</time></trkpt><trkpt lat="40.41091988115386" lon="15.125457807565594"><ele>598.0</ele><time>2026-04-19T08:17:42Z</time></trkpt><trkpt lat="40.410771427886445" lon="15.125466064788384"><ele>598.0</ele><time>2026-04-19T08:17:44Z</time></trkpt><trkpt lat="40.410678797814725" lon="15.125473087333841"><ele>598.0</ele><time>2026-04-19T08:17:45Z</time></trkpt><trkpt lat="40.41059159596244" lon="15.125477479381205"><ele>598.0</ele><time>2026-04-19T08:17:46Z</time></trkpt><trkpt lat="40.410518559306915" lon="15.125463002349138"><ele>598.0</ele><time>2026-04-19T08:17:47Z</time></trkpt><trkpt lat="40.41044384507241" lon="15.12550449541048"><ele>598.0</ele><time>2026-04-19T08:17:48Z</time></trkpt><trkpt lat="40.41035873713738" lon="15.125523694648995"><ele>598.0</ele><time>2026-04-19T08:17:49Z</time></trkpt><trkpt lat="40.41024560261154" lon="15.125543415872613"><ele>598.0</ele><time>2026-04-19T08:17:50Z</time></trkpt><trkpt lat="40.41012220171548" lon="15.125568263119453"><ele>598.0</ele><time>2026-04-19T08:17:51Z</time></trkpt><trkpt lat="40.41002607034015" lon="15.125596614926176"><ele>598.0</ele><time>2026-04-19T08:17:52Z</time></trkpt><trkpt lat="40.409929970752714" lon="15.125651061646149"><ele>598.0</ele><time>2026-04-19T08:17:53Z</time></trkpt><trkpt lat="40.409822552821055" lon="15.125732066880214"><ele>598.0</ele><time>2026-04-19T08:17:54Z</time></trkpt><trkpt lat="40.409716420084784" lon="15.125767961618521"><ele>598.0</ele><time>2026-04-19T08:17:55Z</time></trkpt><trkpt lat="40.40962419990447" lon="15.125823897415039"><ele>600.1666666666667</ele><time>2026-04-19T08:17:56Z</time></trkpt><trkpt lat="40.40953759263167" lon="15.125900088994037"><ele>602.3333333333334</ele><time>2026-04-19T08:17:57Z</time></trkpt><trkpt lat="40.409472557176" lon="15.126009647095588"><ele>604.5</ele><time>2026-04-19T08:17:58Z</time></trkpt><trkpt lat="40.40938055174712" lon="15.126036689280596"><ele>606.6666666666666</ele><time>2026-04-19T08:17:59Z</time></trkpt><trkpt lat="40.40931554939948" lon="15.126092811690722"><ele>608.8333333333333</ele><time>2026-04-19T08:18:00Z</time></trkpt><trkpt lat="40.40925531992954" lon="15.126130024197842"><ele>611.0</ele><time>2026-04-19T08:18:01Z</time></trkpt><trkpt lat="40.4092273595473" lon="15.126215376563241"><ele>611.0</ele><time>2026-04-19T08:18:02Z</time></trkpt><trkpt lat="40.40921573036185" lon="15.126352229804533"><ele>611.0</ele><time>2026-04-19T08:18:03Z</time></trkpt><trkpt lat="40.40921485352745" lon="15.126498835376047"><ele>611.0</ele><time>2026-04-19T08:18:04Z</time></trkpt><trkpt lat="40.40920553494211" lon="15.126623764745938"><ele>611.0</ele><time>2026-04-19T08:18:05Z</time></trkpt><trkpt lat="40.40914435842696" lon="15.12674564789198"><ele>611.0</ele><time>2026-04-19T08:18:07Z</time></trkpt><trkpt lat="40.409005468308905" lon="15.12676258518842"><ele>611.5</ele><time>2026-04-19T08:18:09Z</time></trkpt><trkpt lat="40.408897261567745" lon="15.126746019139038"><ele>612.0</ele><time>2026-04-19T08:18:10Z</time></trkpt><trkpt lat="40.408768784713814" lon="15.126733278064396"><ele>612.5</ele><time>2026-04-19T08:18:11Z</time></trkpt><trkpt lat="40.40863267587239" lon="15.12672554020266"><ele>613.0</ele><time>2026-04-19T08:18:12Z</time></trkpt><trkpt lat="40.40851369446109" lon="15.1267092428335"><ele>613.0</ele><time>2026-04-19T08:18:13Z</time></trkpt><trkpt lat="40.40840903636568" lon="15.126678254268084"><ele>613.0</ele><time>2026-04-19T08:18:14Z</time></trkpt><trkpt lat="40.408326640864665" lon="15.12660573629668"><ele>613.0</ele><time>2026-04-19T08:18:15Z</time></trkpt><trkpt lat="40.408233797935566" lon="15.126568138610843"><ele>613.0</ele><time>2026-04-19T08:18:17Z</time></trkpt><trkpt lat="40.408131522963686" lon="15.126613217315203"><ele>613.0</ele><time>2026-04-19T08:18:18.999Z</time></trkpt><trkpt lat="40.408091889818685" lon="15.126714107816243"><ele>613.0</ele><time>2026-04-19T08:18:19.999Z</time></trkpt><trkpt lat="40.40803041785278" lon="15.126788842433271"><ele>613.0</ele><time>2026-04-19T08:18:20.999Z</time></trkpt><trkpt lat="40.40793693702347" lon="15.126847806828556"><ele>613.0</ele><time>2026-04-19T08:18:21.999Z</time></trkpt><trkpt lat="40.40785519536506" lon="15.12690682195162"><ele>613.0</ele><time>2026-04-19T08:18:22.999Z</time></trkpt><trkpt lat="40.40779396286996" lon="15.126960599206054"><ele>613.0</ele><time>2026-04-19T08:18:23.999Z</time></trkpt><trkpt lat="40.407727957725804" lon="15.127004279668974"><ele>613.0</ele><time>2026-04-19T08:18:24.999Z</time></trkpt><trkpt lat="40.40766900603027" lon="15.127051340809812"><ele>613.8</ele><time>2026-04-19T08:18:25.999Z</time></trkpt><trkpt lat="40.40760162869849" lon="15.127118256953416"><ele>614.5999999999999</ele><time>2026-04-19T08:18:26.999Z</time></trkpt><trkpt lat="40.4075253572994" lon="15.127211438956907"><ele>615.4000000000001</ele><time>2026-04-19T08:18:27.999Z</time></trkpt><trkpt lat="40.40743940363238" lon="15.127317252402966"><ele>616.2</ele><time>2026-04-19T08:18:28.999Z</time></trkpt><trkpt lat="40.40734378422343" lon="15.127422169966826"><ele>617.0</ele><time>2026-04-19T08:18:29.999Z</time></trkpt><trkpt lat="40.407244541768854" lon="15.127519772937806"><ele>615.6</ele><time>2026-04-19T08:18:30.999Z</time></trkpt><trkpt lat="40.40715479467058" lon="15.127608507787805"><ele>614.2</ele><time>2026-04-19T08:18:31.999Z</time></trkpt><trkpt lat="40.407063633819085" lon="15.127691690486667"><ele>612.8</ele><time>2026-04-19T08:18:32.999Z</time></trkpt><trkpt lat="40.406979588351035" lon="15.127773063248009"><ele>611.4</ele><time>2026-04-19T08:18:33.999Z</time></trkpt><trkpt lat="40.40687339632339" lon="15.127836631329828"><ele>610.0</ele><time>2026-04-19T08:18:34.999Z</time></trkpt><trkpt lat="40.4067584399381" lon="15.127896110557192"><ele>610.0</ele><time>2026-04-19T08:18:35.999Z</time></trkpt><trkpt lat="40.40664537777585" lon="15.127963313074085"><ele>610.0</ele><time>2026-04-19T08:18:36.999Z</time></trkpt><trkpt lat="40.40654231726655" lon="15.128040708549282"><ele>610.0</ele><time>2026-04-19T08:18:37.999Z</time></trkpt><trkpt lat="40.4064599267091" lon="15.128131565138133"><ele>610.0</ele><time>2026-04-19T08:18:38.999Z</time></trkpt><trkpt lat="40.40638307976157" lon="15.128227914850747"><ele>612.0</ele><time>2026-04-19T08:18:39.999Z</time></trkpt><trkpt lat="40.40632757384984" lon="15.128345801279131"><ele>614.0</ele><time>2026-04-19T08:18:40.999Z</time></trkpt><trkpt lat="40.40626131890956" lon="15.128476884101586"><ele>616.0</ele><time>2026-04-19T08:18:41.999Z</time></trkpt><trkpt lat="40.40620079780231" lon="15.128619116639872"><ele>618.0</ele><time>2026-04-19T08:18:42.999Z</time></trkpt><trkpt lat="40.406165570542626" lon="15.128738555453667"><ele>620.0</ele><time>2026-04-19T08:18:43.999Z</time></trkpt><trkpt lat="40.40612699104852" lon="15.128835787084643"><ele>620.0</ele><time>2026-04-19T08:18:44.999Z</time></trkpt><trkpt lat="40.40607131567163" lon="15.128909141159241"><ele>620.0</ele><time>2026-04-19T08:18:45.999Z</time></trkpt><trkpt lat="40.40599772960489" lon="15.12897482411464"><ele>620.0</ele><time>2026-04-19T08:18:46.999Z</time></trkpt><trkpt lat="40.40591029575368" lon="15.129059167599323"><ele>620.0</ele><time>2026-04-19T08:18:47.999Z</time></trkpt><trkpt lat="40.40583367562085" lon="15.129163859073024"><ele>620.0</ele><time>2026-04-19T08:18:49Z</time></trkpt><trkpt lat="40.40576821692541" lon="15.129274771835979"><ele>621.2</ele><time>2026-04-19T08:18:50Z</time></trkpt><trkpt lat="40.40569936967585" lon="15.129369877573323"><ele>622.4</ele><time>2026-04-19T08:18:51Z</time></trkpt><trkpt lat="40.40563746149869" lon="15.129441762353872"><ele>623.6</ele><time>2026-04-19T08:18:52Z</time></trkpt><trkpt lat="40.40552537948692" lon="15.12948423365582"><ele>624.8</ele><time>2026-04-19T08:18:54Z</time></trkpt><trkpt lat="40.40545623121983" lon="15.129455708498023"><ele>626.0</ele><time>2026-04-19T08:18:55Z</time></trkpt><trkpt lat="40.40534940789571" lon="15.129460179229325"><ele>626.0</ele><time>2026-04-19T08:18:56Z</time></trkpt><trkpt lat="40.40526158005162" lon="15.129461362136556"><ele>626.0</ele><time>2026-04-19T08:18:57Z</time></trkpt><trkpt lat="40.405174112597045" lon="15.12950662269222"><ele>626.0</ele><time>2026-04-19T08:18:58Z</time></trkpt><trkpt lat="40.405052377676846" lon="15.129547379978971"><ele>626.0</ele><time>2026-04-19T08:18:59Z</time></trkpt><trkpt lat="40.40496419651389" lon="15.129601593566974"><ele>626.0</ele><time>2026-04-19T08:19:00Z</time></trkpt><trkpt lat="40.404887257224956" lon="15.129646695052651"><ele>626.0</ele><time>2026-04-19T08:19:01Z</time></trkpt><trkpt lat="40.40482601405419" lon="15.129710064019374"><ele>626.0</ele><time>2026-04-19T08:19:02Z</time></trkpt><trkpt lat="40.40476717302897" lon="15.129816705195555"><ele>626.0</ele><time>2026-04-19T08:19:03Z</time></trkpt><trkpt lat="40.404708260383146" lon="15.129933639566456"><ele>626.0</ele><time>2026-04-19T08:19:04Z</time></trkpt><trkpt lat="40.40462372319481" lon="15.130014142786465"><ele>626.0</ele><time>2026-04-19T08:19:05Z</time></trkpt><trkpt lat="40.404552764935225" lon="15.130090349251137"><ele>626.4</ele><time>2026-04-19T08:19:06Z</time></trkpt><trkpt lat="40.404484129726015" lon="15.13015507123857"><ele>626.8</ele><time>2026-04-19T08:19:07Z</time></trkpt><trkpt lat="40.40440401953919" lon="15.130242445925907"><ele>627.1999999999999</ele><time>2026-04-19T08:19:09Z</time></trkpt><trkpt lat="40.404332383545785" lon="15.13027373324857"><ele>627.6</ele><time>2026-04-19T08:19:11Z</time></trkpt><trkpt lat="40.40432319245905" lon="15.130421186076909"><ele>628.0</ele><time>2026-04-19T08:19:13Z</time></trkpt><trkpt lat="40.40432892061662" lon="15.130543628846745"><ele>628.0</ele><time>2026-04-19T08:19:14Z</time></trkpt><trkpt lat="40.404346138810965" lon="15.130679042236848"><ele>628.0</ele><time>2026-04-19T08:19:15Z</time></trkpt><trkpt lat="40.40436940211396" lon="15.130822649727985"><ele>628.0</ele><time>2026-04-19T08:19:16Z</time></trkpt><trkpt lat="40.404399115689486" lon="15.130977240241489"><ele>628.0</ele><time>2026-04-19T08:19:17Z</time></trkpt><trkpt lat="40.40443914859802" lon="15.131120554311684"><ele>629.75</ele><time>2026-04-19T08:19:18Z</time></trkpt><trkpt lat="40.404501879752644" lon="15.131246650369611"><ele>631.5</ele><time>2026-04-19T08:19:19Z</time></trkpt><trkpt lat="40.40458227409664" lon="15.131378874371727"><ele>633.25</ele><time>2026-04-19T08:19:20Z</time></trkpt><trkpt lat="40.404672144113775" lon="15.131491522324072"><ele>635.0</ele><time>2026-04-19T08:19:21Z</time></trkpt><trkpt lat="40.40475977365921" lon="15.131569142286192"><ele>637.6</ele><time>2026-04-19T08:19:22Z</time></trkpt><trkpt lat="40.404851719294385" lon="15.13163230710738"><ele>640.2</ele><time>2026-04-19T08:19:23Z</time></trkpt><trkpt lat="40.40494909529552" lon="15.131710012822206"><ele>642.8</ele><time>2026-04-19T08:19:24Z</time></trkpt><trkpt lat="40.40502346629281" lon="15.131808665804012"><ele>645.4</ele><time>2026-04-19T08:19:25Z</time></trkpt><trkpt lat="40.405080667727205" lon="15.1318912777192"><ele>648.0</ele><time>2026-04-19T08:19:26Z</time></trkpt><trkpt lat="40.40511081656259" lon="15.131980165530427"><ele>648.0</ele><time>2026-04-19T08:19:27Z</time></trkpt><trkpt lat="40.40511201637595" lon="15.132090765668503"><ele>648.0</ele><time>2026-04-19T08:19:28Z</time></trkpt><trkpt lat="40.405145469298446" lon="15.13221606066305"><ele>648.0</ele><time>2026-04-19T08:19:29Z</time></trkpt><trkpt lat="40.40522752098095" lon="15.132344011792224"><ele>648.0</ele><time>2026-04-19T08:19:30Z</time></trkpt><trkpt lat="40.40530971411721" lon="15.132450778403065"><ele>648.0</ele><time>2026-04-19T08:19:31Z</time></trkpt><trkpt lat="40.40537464227056" lon="15.132542960443287"><ele>650.0</ele><time>2026-04-19T08:19:32Z</time></trkpt><trkpt lat="40.40537999529004" lon="15.13268113452227"><ele>652.0</ele><time>2026-04-19T08:19:33Z</time></trkpt><trkpt lat="40.405404802206085" lon="15.132843795517221"><ele>654.0</ele><time>2026-04-19T08:19:34Z</time></trkpt><trkpt lat="40.40544407182503" lon="15.133013614327956"><ele>656.0</ele><time>2026-04-19T08:19:35Z</time></trkpt><trkpt lat="40.40546201580848" lon="15.133202030864298"><ele>658.25</ele><time>2026-04-19T08:19:36Z</time></trkpt><trkpt lat="40.405472447950906" lon="15.133394698709019"><ele>660.5</ele><time>2026-04-19T08:19:37Z</time></trkpt><trkpt lat="40.40550192238477" lon="15.133582360582547"><ele>662.75</ele><time>2026-04-19T08:19:38Z</time></trkpt><trkpt lat="40.405541404669215" lon="15.133749964151514"><ele>665.0</ele><time>2026-04-19T08:19:39Z</time></trkpt><trkpt lat="40.40558466562872" lon="15.133911545086608"><ele>668.75</ele><time>2026-04-19T08:19:40Z</time></trkpt><trkpt lat="40.40562821352865" lon="15.134082081197082"><ele>672.5</ele><time>2026-04-19T08:19:41Z</time></trkpt><trkpt lat="40.40567036206072" lon="15.134251978816561"><ele>676.25</ele><time>2026-04-19T08:19:42Z</time></trkpt><trkpt lat="40.4057361223357" lon="15.13441983643665"><ele>680.0</ele><time>2026-04-19T08:19:43Z</time></trkpt><trkpt lat="40.405827614072294" lon="15.134569613706775"><ele>680.0</ele><time>2026-04-19T08:19:44Z</time></trkpt><trkpt lat="40.40593070570501" lon="15.134709549702098"><ele>680.0</ele><time>2026-04-19T08:19:45Z</time></trkpt><trkpt lat="40.40602007750539" lon="15.134840613414779"><ele>680.0</ele><time>2026-04-19T08:19:46Z</time></trkpt><trkpt lat="40.406092891244874" lon="15.134953962573524"><ele>680.0</ele><time>2026-04-19T08:19:47Z</time></trkpt><trkpt lat="40.406191102373654" lon="15.135057982597974"><ele>681.8333333333333</ele><time>2026-04-19T08:19:48Z</time></trkpt><trkpt lat="40.406290021661285" lon="15.135055527758473"><ele>683.6666666666666</ele><time>2026-04-19T08:19:49Z</time></trkpt><trkpt lat="40.40638450467448" lon="15.135072691954175"><ele>685.5</ele><time>2026-04-19T08:19:50Z</time></trkpt><trkpt lat="40.40645678894692" lon="15.135118980058937"><ele>687.3333333333334</ele><time>2026-04-19T08:19:51Z</time></trkpt><trkpt lat="40.40650073059985" lon="15.13518697227935"><ele>689.1666666666667</ele><time>2026-04-19T08:19:52Z</time></trkpt><trkpt lat="40.406539781612274" lon="15.135285132751179"><ele>691.0</ele><time>2026-04-19T08:19:53Z</time></trkpt><trkpt lat="40.40653744327746" lon="15.1353769092828"><ele>692.8333333333334</ele><time>2026-04-19T08:19:54Z</time></trkpt><trkpt lat="40.406530333947174" lon="15.135470846207932"><ele>694.6666666666667</ele><time>2026-04-19T08:19:55Z</time></trkpt><trkpt lat="40.40647184557241" lon="15.135529047513172"><ele>696.5</ele><time>2026-04-19T08:19:56Z</time></trkpt><trkpt lat="40.40640907674748" lon="15.135575054585214"><ele>698.3333333333334</ele><time>2026-04-19T08:19:57Z</time></trkpt><trkpt lat="40.40633773932784" lon="15.135650478542345"><ele>700.1666666666666</ele><time>2026-04-19T08:19:58Z</time></trkpt><trkpt lat="40.406264867504284" lon="15.135748474167304"><ele>702.0</ele><time>2026-04-19T08:19:59Z</time></trkpt><trkpt lat="40.40618265295047" lon="15.135822712320977"><ele>702.2</ele><time>2026-04-19T08:20:00Z</time></trkpt><trkpt lat="40.40610095251911" lon="15.135887432312575"><ele>702.4000000000001</ele><time>2026-04-19T08:20:01Z</time></trkpt><trkpt lat="40.40601674658127" lon="15.135963887627554"><ele>702.5999999999999</ele><time>2026-04-19T08:20:02Z</time></trkpt><trkpt lat="40.40592308074772" lon="15.136055399901059"><ele>702.8</ele><time>2026-04-19T08:20:03Z</time></trkpt><trkpt lat="40.40582404149075" lon="15.13614476026817"><ele>703.0</ele><time>2026-04-19T08:20:04Z</time></trkpt><trkpt lat="40.40572879516052" lon="15.136243655496934"><ele>703.0</ele><time>2026-04-19T08:20:05Z</time></trkpt><trkpt lat="40.40563917817521" lon="15.136353742294757"><ele>703.0</ele><time>2026-04-19T08:20:06Z</time></trkpt><trkpt lat="40.405542369661056" lon="15.13645811168164"><ele>703.0</ele><time>2026-04-19T08:20:07Z</time></trkpt><trkpt lat="40.40544787827881" lon="15.136564353009838"><ele>703.0</ele><time>2026-04-19T08:20:08Z</time></trkpt><trkpt lat="40.4053482642504" lon="15.136671014557272"><ele>705.75</ele><time>2026-04-19T08:20:09Z</time></trkpt><trkpt lat="40.40524519069539" lon="15.136785813976813"><ele>708.5</ele><time>2026-04-19T08:20:10Z</time></trkpt><trkpt lat="40.405138133797564" lon="15.136897833363529"><ele>711.25</ele><time>2026-04-19T08:20:11Z</time></trkpt><trkpt lat="40.40502051864789" lon="15.136988231872545"><ele>714.0</ele><time>2026-04-19T08:20:12Z</time></trkpt><trkpt lat="40.404910635831385" lon="15.137094783507427"><ele>714.0</ele><time>2026-04-19T08:20:13Z</time></trkpt><trkpt lat="40.404804071306536" lon="15.137178691009542"><ele>714.0</ele><time>2026-04-19T08:20:14Z</time></trkpt><trkpt lat="40.40470607776892" lon="15.137251147465287"><ele>714.0</ele><time>2026-04-19T08:20:15Z</time></trkpt><trkpt lat="40.40462363706925" lon="15.137323777200631"><ele>714.0</ele><time>2026-04-19T08:20:16Z</time></trkpt><trkpt lat="40.404561485196865" lon="15.137392266265229"><ele>714.0</ele><time>2026-04-19T08:20:17Z</time></trkpt><trkpt lat="40.4045058651684" lon="15.13751228459254"><ele>716.8000000000001</ele><time>2026-04-19T08:20:19Z</time></trkpt><trkpt lat="40.404548295774674" lon="15.137594096709135"><ele>719.6</ele><time>2026-04-19T08:20:20Z</time></trkpt><trkpt lat="40.404612167007436" lon="15.137633045660248"><ele>722.4</ele><time>2026-04-19T08:20:21Z</time></trkpt><trkpt lat="40.40471289633589" lon="15.137641555062125"><ele>725.2</ele><time>2026-04-19T08:20:22Z</time></trkpt><trkpt lat="40.4048248957065" lon="15.137643282925598"><ele>728.0</ele><time>2026-04-19T08:20:23Z</time></trkpt><trkpt lat="40.40494242247639" lon="15.137674132389334"><ele>728.75</ele><time>2026-04-19T08:20:24Z</time></trkpt><trkpt lat="40.40505470574348" lon="15.137727797169138"><ele>729.5</ele><time>2026-04-19T08:20:25Z</time></trkpt><trkpt lat="40.405179806648434" lon="15.137807068828499"><ele>730.25</ele><time>2026-04-19T08:20:26Z</time></trkpt><trkpt lat="40.40529804607498" lon="15.137875487618908"><ele>731.0</ele><time>2026-04-19T08:20:27Z</time></trkpt><trkpt lat="40.40542058907916" lon="15.137933701836173"><ele>732.25</ele><time>2026-04-19T08:20:28Z</time></trkpt><trkpt lat="40.40554275161971" lon="15.137989194309258"><ele>733.5</ele><time>2026-04-19T08:20:29Z</time></trkpt><trkpt lat="40.405681648904284" lon="15.138037064630467"><ele>734.75</ele><time>2026-04-19T08:20:30Z</time></trkpt><trkpt lat="40.40582955511981" lon="15.13808292554095"><ele>736.0</ele><time>2026-04-19T08:20:31Z</time></trkpt><trkpt lat="40.40596900682547" lon="15.138128712470108"><ele>736.0</ele><time>2026-04-19T08:20:32Z</time></trkpt><trkpt lat="40.40610565728803" lon="15.138170266325412"><ele>736.0</ele><time>2026-04-19T08:20:33Z</time></trkpt><trkpt lat="40.40623562705785" lon="15.13820928441926"><ele>736.0</ele><time>2026-04-19T08:20:34Z</time></trkpt><trkpt lat="40.406365102620995" lon="15.138250916464981"><ele>736.0</ele><time>2026-04-19T08:20:35Z</time></trkpt><trkpt lat="40.4064818351752" lon="15.138291346954695"><ele>740.8</ele><time>2026-04-19T08:20:36Z</time></trkpt><trkpt lat="40.406581783043464" lon="15.138312257832522"><ele>745.5999999999999</ele><time>2026-04-19T08:20:37Z</time></trkpt><trkpt lat="40.406690117703256" lon="15.138315429411755"><ele>750.4</ele><time>2026-04-19T08:20:38Z</time></trkpt><trkpt lat="40.40680028514422" lon="15.138307487091604"><ele>755.2</ele><time>2026-04-19T08:20:39Z</time></trkpt><trkpt lat="40.40691001540297" lon="15.138286175405423"><ele>760.0</ele><time>2026-04-19T08:20:40Z</time></trkpt><trkpt lat="40.40700890268264" lon="15.138264347233395"><ele>760.0</ele><time>2026-04-19T08:20:41Z</time></trkpt><trkpt lat="40.407087520844954" lon="15.13826630376107"><ele>760.0</ele><time>2026-04-19T08:20:42Z</time></trkpt><trkpt lat="40.407158119744146" lon="15.138294944101848"><ele>760.0</ele><time>2026-04-19T08:20:43Z</time></trkpt><trkpt lat="40.407208815593826" lon="15.138364106499187"><ele>760.0</ele><time>2026-04-19T08:20:44Z</time></trkpt><trkpt lat="40.407240343643664" lon="15.138465088847859"><ele>760.0</ele><time>2026-04-19T08:20:45Z</time></trkpt><trkpt lat="40.40726280894599" lon="15.138595447767846"><ele>760.0</ele><time>2026-04-19T08:20:46Z</time></trkpt><trkpt lat="40.407276155068935" lon="15.138756059296336"><ele>760.75</ele><time>2026-04-19T08:20:47Z</time></trkpt><trkpt lat="40.4072827272695" lon="15.138936426928234"><ele>761.5</ele><time>2026-04-19T08:20:48Z</time></trkpt><trkpt lat="40.40728431820469" lon="15.139113567644737"><ele>762.25</ele><time>2026-04-19T08:20:49Z</time></trkpt><trkpt lat="40.40730935679567" lon="15.13925434196757"><ele>763.0</ele><time>2026-04-19T08:20:50Z</time></trkpt><trkpt lat="40.40736367617185" lon="15.139388574524038"><ele>764.8333333333334</ele><time>2026-04-19T08:20:51Z</time></trkpt><trkpt lat="40.407413537302375" lon="15.139512500752371"><ele>766.6666666666667</ele><time>2026-04-19T08:20:52Z</time></trkpt><trkpt lat="40.40746383848452" lon="15.139614382878147"><ele>768.5</ele><time>2026-04-19T08:20:53Z</time></trkpt><trkpt lat="40.40748829490626" lon="15.139707702535691"><ele>770.3333333333334</ele><time>2026-04-19T08:20:54Z</time></trkpt><trkpt lat="40.407465993722305" lon="15.139800172243683"><ele>772.1666666666666</ele><time>2026-04-19T08:20:55Z</time></trkpt><trkpt lat="40.40741227207265" lon="15.139879846985606"><ele>774.0</ele><time>2026-04-19T08:20:56Z</time></trkpt><trkpt lat="40.40733721723245" lon="15.13995101321932"><ele>776.6</ele><time>2026-04-19T08:20:57Z</time></trkpt><trkpt lat="40.40727141069184" lon="15.140025226528191"><ele>779.2</ele><time>2026-04-19T08:20:58Z</time></trkpt><trkpt lat="40.407228775751236" lon="15.140095447372124"><ele>781.8000000000001</ele><time>2026-04-19T08:20:59Z</time></trkpt><trkpt lat="40.40725862368758" lon="15.140258684015087"><ele>784.4000000000001</ele><time>2026-04-19T08:21:01Z</time></trkpt><trkpt lat="40.407357131225744" lon="15.140282839326673"><ele>787.0</ele><time>2026-04-19T08:21:02Z</time></trkpt><trkpt lat="40.40745044011918" lon="15.140248552232471"><ele>787.0</ele><time>2026-04-19T08:21:03Z</time></trkpt><trkpt lat="40.407555639647214" lon="15.14021999836539"><ele>787.0</ele><time>2026-04-19T08:21:04Z</time></trkpt><trkpt lat="40.40767823407574" lon="15.140212595911363"><ele>787.0</ele><time>2026-04-19T08:21:05Z</time></trkpt><trkpt lat="40.407812129780304" lon="15.140179160640082"><ele>787.0</ele><time>2026-04-19T08:21:06Z</time></trkpt><trkpt lat="40.407954349099626" lon="15.140170738193286"><ele>788.5</ele><time>2026-04-19T08:21:07Z</time></trkpt><trkpt lat="40.40809327635597" lon="15.140155375511354"><ele>790.0</ele><time>2026-04-19T08:21:08Z</time></trkpt><trkpt lat="40.408231158661934" lon="15.140140692261483"><ele>791.5</ele><time>2026-04-19T08:21:09Z</time></trkpt><trkpt lat="40.40836888881394" lon="15.140130589749099"><ele>793.0</ele><time>2026-04-19T08:21:10Z</time></trkpt><trkpt lat="40.408513416885086" lon="15.140133285586105"><ele>793.0</ele><time>2026-04-19T08:21:11Z</time></trkpt><trkpt lat="40.40865610917313" lon="15.140142790245497"><ele>793.0</ele><time>2026-04-19T08:21:12Z</time></trkpt><trkpt lat="40.408782732808646" lon="15.140148629845214"><ele>793.0</ele><time>2026-04-19T08:21:13Z</time></trkpt><trkpt lat="40.40889716282125" lon="15.140155939271684"><ele>793.0</ele><time>2026-04-19T08:21:14Z</time></trkpt><trkpt lat="40.40899301521302" lon="15.140169125725015"><ele>794.5999999999999</ele><time>2026-04-19T08:21:15Z</time></trkpt><trkpt lat="40.40908252423837" lon="15.14020175387425"><ele>796.1999999999999</ele><time>2026-04-19T08:21:16Z</time></trkpt><trkpt lat="40.409171273480226" lon="15.140263415606046"><ele>797.8</ele><time>2026-04-19T08:21:17Z</time></trkpt><trkpt lat="40.409254028366036" lon="15.1403558186395"><ele>799.4</ele><time>2026-04-19T08:21:18Z</time></trkpt><trkpt lat="40.40930918598788" lon="15.140475471398338"><ele>801.0</ele><time>2026-04-19T08:21:19Z</time></trkpt><trkpt lat="40.40935421215207" lon="15.140608599126816"><ele>801.0</ele><time>2026-04-19T08:21:20Z</time></trkpt><trkpt lat="40.409362506008925" lon="15.14071135139985"><ele>801.0</ele><time>2026-04-19T08:21:21Z</time></trkpt><trkpt lat="40.4092787466155" lon="15.140862363358973"><ele>801.0</ele><time>2026-04-19T08:21:23Z</time></trkpt><trkpt lat="40.40920384497555" lon="15.140914641343526"><ele>801.0</ele><time>2026-04-19T08:21:24Z</time></trkpt><trkpt lat="40.40910343678095" lon="15.140983009462296"><ele>801.0</ele><time>2026-04-19T08:21:25Z</time></trkpt><trkpt lat="40.40901207614159" lon="15.141057991656918"><ele>801.75</ele><time>2026-04-19T08:21:26Z</time></trkpt><trkpt lat="40.408884636358025" lon="15.141193450894297"><ele>802.5</ele><time>2026-04-19T08:21:28Z</time></trkpt><trkpt lat="40.40878418692982" lon="15.14130741633322"><ele>803.25</ele><time>2026-04-19T08:21:29Z</time></trkpt><trkpt lat="40.40870803403799" lon="15.14141899343543"><ele>804.0</ele><time>2026-04-19T08:21:30Z</time></trkpt><trkpt lat="40.40866076232723" lon="15.141535765688594"><ele>807.0</ele><time>2026-04-19T08:21:31Z</time></trkpt><trkpt lat="40.40864869420701" lon="15.141675248872193"><ele>810.0</ele><time>2026-04-19T08:21:32Z</time></trkpt><trkpt lat="40.408657936553865" lon="15.141824880215129"><ele>813.0</ele><time>2026-04-19T08:21:33Z</time></trkpt><trkpt lat="40.40869270848259" lon="15.141996520288211"><ele>816.0</ele><time>2026-04-19T08:21:34Z</time></trkpt><trkpt lat="40.408737486363734" lon="15.142171840315443"><ele>816.0</ele><time>2026-04-19T08:21:35Z</time></trkpt><trkpt lat="40.40878408693784" lon="15.14236388444297"><ele>816.0</ele><time>2026-04-19T08:21:36Z</time></trkpt><trkpt lat="40.40882507418252" lon="15.142568047773393"><ele>816.0</ele><time>2026-04-19T08:21:37Z</time></trkpt><trkpt lat="40.40886457691849" lon="15.142778895899019"><ele>818.0</ele><time>2026-04-19T08:21:38Z</time></trkpt><trkpt lat="40.40890379908294" lon="15.142979260443077"><ele>820.0</ele><time>2026-04-19T08:21:39Z</time></trkpt><trkpt lat="40.40893891714329" lon="15.143159874634303"><ele>822.0</ele><time>2026-04-19T08:21:40Z</time></trkpt><trkpt lat="40.408966273598665" lon="15.143329645542062"><ele>824.0</ele><time>2026-04-19T08:21:41Z</time></trkpt><trkpt lat="40.40899743481995" lon="15.14349995458869"><ele>827.5</ele><time>2026-04-19T08:21:42Z</time></trkpt><trkpt lat="40.40903007668157" lon="15.143661093076542"><ele>831.0</ele><time>2026-04-19T08:21:43Z</time></trkpt><trkpt lat="40.4090607310634" lon="15.143829501516008"><ele>834.5</ele><time>2026-04-19T08:21:44Z</time></trkpt><trkpt lat="40.409096420709986" lon="15.144015185721068"><ele>838.0</ele><time>2026-04-19T08:21:45Z</time></trkpt><trkpt lat="40.40913518733521" lon="15.144174914024335"><ele>843.25</ele><time>2026-04-19T08:21:46Z</time></trkpt><trkpt lat="40.40917826092035" lon="15.144335059451883"><ele>848.5</ele><time>2026-04-19T08:21:47Z</time></trkpt><trkpt lat="40.40920734467329" lon="15.144455883131737"><ele>853.75</ele><time>2026-04-19T08:21:48Z</time></trkpt><trkpt lat="40.40926423420238" lon="15.144597046801668"><ele>859.0</ele><time>2026-04-19T08:21:49Z</time></trkpt><trkpt lat="40.409320875950165" lon="15.144781328194544"><ele>863.5</ele><time>2026-04-19T08:21:50Z</time></trkpt><trkpt lat="40.40937094243708" lon="15.144964201059915"><ele>868.0</ele><time>2026-04-19T08:21:51Z</time></trkpt><trkpt lat="40.409432639350975" lon="15.145139945069353"><ele>872.5</ele><time>2026-04-19T08:21:52Z</time></trkpt><trkpt lat="40.409503682549676" lon="15.145296898767032"><ele>877.0</ele><time>2026-04-19T08:21:53Z</time></trkpt><trkpt lat="40.40954495360591" lon="15.145403707194918"><ele>877.0</ele><time>2026-04-19T08:21:54Z</time></trkpt><trkpt lat="40.40959676761032" lon="15.145543603081911"><ele>877.0</ele><time>2026-04-19T08:21:55Z</time></trkpt><trkpt lat="40.40962227684896" lon="15.145648224763205"><ele>877.0</ele><time>2026-04-19T08:21:56Z</time></trkpt><trkpt lat="40.40965354340142" lon="15.145801632332605"><ele>877.0</ele><time>2026-04-19T08:21:57Z</time></trkpt><trkpt lat="40.409636176619934" lon="15.145955958005818"><ele>877.0</ele><time>2026-04-19T08:21:58Z</time></trkpt><trkpt lat="40.40961259538905" lon="15.146118560827922"><ele>877.0</ele><time>2026-04-19T08:21:59Z</time></trkpt><trkpt lat="40.40960969602172" lon="15.146278357620638"><ele>877.0</ele><time>2026-04-19T08:22:00Z</time></trkpt><trkpt lat="40.40963163585009" lon="15.146441865374094"><ele>877.0</ele><time>2026-04-19T08:22:01Z</time></trkpt><trkpt lat="40.40967261793285" lon="15.146608874449777"><ele>877.0</ele><time>2026-04-19T08:22:02Z</time></trkpt><trkpt lat="40.40974364844829" lon="15.146770291414281"><ele>877.0</ele><time>2026-04-19T08:22:03Z</time></trkpt><trkpt lat="40.409822469419254" lon="15.146941272213281"><ele>877.0</ele><time>2026-04-19T08:22:04Z</time></trkpt><trkpt lat="40.40987506832324" lon="15.147101295133462"><ele>877.0</ele><time>2026-04-19T08:22:05Z</time></trkpt><trkpt lat="40.409921823449096" lon="15.147240235881746"><ele>877.0</ele><time>2026-04-19T08:22:06Z</time></trkpt><trkpt lat="40.409970919622914" lon="15.147442555528647"><ele>878.75</ele><time>2026-04-19T08:22:07Z</time></trkpt><trkpt lat="40.4100145047463" lon="15.147632236435507"><ele>880.5</ele><time>2026-04-19T08:22:08Z</time></trkpt><trkpt lat="40.41003391771518" lon="15.147786945638444"><ele>882.25</ele><time>2026-04-19T08:22:09Z</time></trkpt><trkpt lat="40.41006762747334" lon="15.147949605875874"><ele>884.0</ele><time>2026-04-19T08:22:10Z</time></trkpt><trkpt lat="40.41011104767443" lon="15.148076035518793"><ele>884.0</ele><time>2026-04-19T08:22:11Z</time></trkpt><trkpt lat="40.41017575637623" lon="15.14819946875678"><ele>884.0000000000001</ele><time>2026-04-19T08:22:12Z</time></trkpt><trkpt lat="40.41024153152066" lon="15.148319589749928"><ele>884.0000000000001</ele><time>2026-04-19T08:22:13Z</time></trkpt><trkpt lat="40.410311473076476" lon="15.148441570407421"><ele>884.0</ele><time>2026-04-19T08:22:14Z</time></trkpt><trkpt lat="40.410368359899934" lon="15.148512056545437"><ele>884.0</ele><time>2026-04-19T08:22:15Z</time></trkpt><trkpt lat="40.410437423270125" lon="15.148543771493827"><ele>883.25</ele><time>2026-04-19T08:22:16Z</time></trkpt><trkpt lat="40.41052297414856" lon="15.148557756569375"><ele>882.5</ele><time>2026-04-19T08:22:17Z</time></trkpt><trkpt lat="40.41062076065943" lon="15.148493716965936"><ele>881.75</ele><time>2026-04-19T08:22:18Z</time></trkpt><trkpt lat="40.41073888141435" lon="15.148414498928501"><ele>881.0</ele><time>2026-04-19T08:22:19Z</time></trkpt><trkpt lat="40.410847392796185" lon="15.148339817134826"><ele>881.0000000000001</ele><time>2026-04-19T08:22:20Z</time></trkpt><trkpt lat="40.410928100805094" lon="15.148306943996996"><ele>881.0</ele><time>2026-04-19T08:22:21Z</time></trkpt><trkpt lat="40.411001737383984" lon="15.14833282560128"><ele>881.0</ele><time>2026-04-19T08:22:22Z</time></trkpt><trkpt lat="40.41104623645204" lon="15.14842152792597"><ele>881.0</ele><time>2026-04-19T08:22:23Z</time></trkpt><trkpt lat="40.41107313186623" lon="15.148520581699128"><ele>881.0000000000001</ele><time>2026-04-19T08:22:24Z</time></trkpt><trkpt lat="40.41113222404164" lon="15.14864519094549"><ele>881.0</ele><time>2026-04-19T08:22:25Z</time></trkpt><trkpt lat="40.4112016289675" lon="15.1487907652992"><ele>881.0</ele><time>2026-04-19T08:22:26Z</time></trkpt><trkpt lat="40.411286790365516" lon="15.148945025574701"><ele>881.0</ele><time>2026-04-19T08:22:27Z</time></trkpt><trkpt lat="40.41136058131064" lon="15.14908285916025"><ele>881.0</ele><time>2026-04-19T08:22:28Z</time></trkpt><trkpt lat="40.41141782483096" lon="15.149194532948432"><ele>881.0</ele><time>2026-04-19T08:22:29Z</time></trkpt><trkpt lat="40.411479529101335" lon="15.149282663086511"><ele>884.5999999999999</ele><time>2026-04-19T08:22:30Z</time></trkpt><trkpt lat="40.411547379889605" lon="15.149332408418479"><ele>888.1999999999999</ele><time>2026-04-19T08:22:31Z</time></trkpt><trkpt lat="40.411630714180454" lon="15.149329566970984"><ele>891.8000000000001</ele><time>2026-04-19T08:22:32Z</time></trkpt><trkpt lat="40.41174263516233" lon="15.149270047477836"><ele>895.4000000000001</ele><time>2026-04-19T08:22:33Z</time></trkpt><trkpt lat="40.41183825099914" lon="15.1491991990153"><ele>899.0</ele><time>2026-04-19T08:22:34Z</time></trkpt><trkpt lat="40.411933456705974" lon="15.149105836044251"><ele>898.25</ele><time>2026-04-19T08:22:35Z</time></trkpt><trkpt lat="40.41205024570357" lon="15.14900641181159"><ele>897.5</ele><time>2026-04-19T08:22:36Z</time></trkpt><trkpt lat="40.41218067142763" lon="15.148911139744383"><ele>896.75</ele><time>2026-04-19T08:22:37Z</time></trkpt><trkpt lat="40.412301912441116" lon="15.148807671399485"><ele>896.0</ele><time>2026-04-19T08:22:38Z</time></trkpt><trkpt lat="40.412409565272576" lon="15.148657700247359"><ele>899.3333333333334</ele><time>2026-04-19T08:22:39Z</time></trkpt><trkpt lat="40.41250207990404" lon="15.148481105872206"><ele>902.6666666666667</ele><time>2026-04-19T08:22:40Z</time></trkpt><trkpt lat="40.412602824473765" lon="15.148318226698557"><ele>906.0</ele><time>2026-04-19T08:22:41Z</time></trkpt><trkpt lat="40.41270638638575" lon="15.148155490312666"><ele>906.0</ele><time>2026-04-19T08:22:42Z</time></trkpt><trkpt lat="40.41279261611167" lon="15.147998952668134"><ele>906.0</ele><time>2026-04-19T08:22:43Z</time></trkpt><trkpt lat="40.412858051190774" lon="15.147832467323067"><ele>906.0</ele><time>2026-04-19T08:22:44Z</time></trkpt><trkpt lat="40.41292288357057" lon="15.14764445534982"><ele>906.0</ele><time>2026-04-19T08:22:45Z</time></trkpt><trkpt lat="40.412976361802244" lon="15.147444572885867"><ele>913.6666666666667</ele><time>2026-04-19T08:22:46Z</time></trkpt><trkpt lat="40.4130361222253" lon="15.147241991350304"><ele>921.3333333333334</ele><time>2026-04-19T08:22:47Z</time></trkpt><trkpt lat="40.41311340569452" lon="15.147051995863858"><ele>929.0</ele><time>2026-04-19T08:22:48Z</time></trkpt><trkpt lat="40.413151792870906" lon="15.146842815149578"><ele>929.0</ele><time>2026-04-19T08:22:49Z</time></trkpt><trkpt lat="40.413191865212674" lon="15.146655271009394"><ele>929.0</ele><time>2026-04-19T08:22:50Z</time></trkpt><trkpt lat="40.41322387612633" lon="15.146457921061163"><ele>929.0</ele><time>2026-04-19T08:22:51Z</time></trkpt><trkpt lat="40.41325634786624" lon="15.146261093914523"><ele>927.6666666666667</ele><time>2026-04-19T08:22:52Z</time></trkpt><trkpt lat="40.4132919251872" lon="15.14606933263248"><ele>926.3333333333333</ele><time>2026-04-19T08:22:53Z</time></trkpt><trkpt lat="40.41333741709953" lon="15.145873720257454"><ele>925.0</ele><time>2026-04-19T08:22:54Z</time></trkpt><trkpt lat="40.41339030828478" lon="15.145682057156694"><ele>922.5</ele><time>2026-04-19T08:22:55Z</time></trkpt><trkpt lat="40.41345358473453" lon="15.145493931103124"><ele>920.0</ele><time>2026-04-19T08:22:56Z</time></trkpt><trkpt lat="40.41352948789545" lon="15.145317717723715"><ele>917.5</ele><time>2026-04-19T08:22:57Z</time></trkpt><trkpt lat="40.413577706785446" lon="15.145165766984906"><ele>915.0</ele><time>2026-04-19T08:22:58Z</time></trkpt><trkpt lat="40.413602674775284" lon="15.145055536062683"><ele>915.0</ele><time>2026-04-19T08:22:59Z</time></trkpt><trkpt lat="40.4136386611" lon="15.144949009970553"><ele>915.0</ele><time>2026-04-19T08:23:01Z</time></trkpt><trkpt lat="40.41370399677354" lon="15.14502235290974"><ele>915.0</ele><time>2026-04-19T08:23:04Z</time></trkpt><trkpt lat="40.41369964183281" lon="15.145115829084505"><ele>915.0</ele><time>2026-04-19T08:23:05Z</time></trkpt><trkpt lat="40.413674933334924" lon="15.145232500490609"><ele>915.0</ele><time>2026-04-19T08:23:06Z</time></trkpt><trkpt lat="40.41365517081568" lon="15.14538354961705"><ele>915.0</ele><time>2026-04-19T08:23:07Z</time></trkpt><trkpt lat="40.41362905985642" lon="15.14557260435337"><ele>915.0</ele><time>2026-04-19T08:23:08Z</time></trkpt><trkpt lat="40.41361656770262" lon="15.145776967599145"><ele>915.0</ele><time>2026-04-19T08:23:09Z</time></trkpt><trkpt lat="40.41360688470149" lon="15.145974087202939"><ele>917.5</ele><time>2026-04-19T08:23:10Z</time></trkpt><trkpt lat="40.413605492441775" lon="15.146141880844853"><ele>920.0</ele><time>2026-04-19T08:23:11Z</time></trkpt><trkpt lat="40.413605664264594" lon="15.146309482085208"><ele>922.5</ele><time>2026-04-19T08:23:12Z</time></trkpt><trkpt lat="40.41361557480185" lon="15.146493139619174"><ele>925.0</ele><time>2026-04-19T08:23:13Z</time></trkpt><trkpt lat="40.413647731347936" lon="15.146676066244842"><ele>926.0</ele><time>2026-04-19T08:23:14Z</time></trkpt><trkpt lat="40.41367346492822" lon="15.146860731259501"><ele>927.0</ele><time>2026-04-19T08:23:15Z</time></trkpt><trkpt lat="40.41370605895273" lon="15.147048483547014"><ele>928.0</ele><time>2026-04-19T08:23:16Z</time></trkpt><trkpt lat="40.41374359326694" lon="15.147229162990834"><ele>929.0</ele><time>2026-04-19T08:23:17Z</time></trkpt><trkpt lat="40.413782841818616" lon="15.14740055190687"><ele>929.75</ele><time>2026-04-19T08:23:18Z</time></trkpt><trkpt lat="40.413815509033626" lon="15.147556722977853"><ele>930.5</ele><time>2026-04-19T08:23:19Z</time></trkpt><trkpt lat="40.41383698118428" lon="15.147710072206062"><ele>931.25</ele><time>2026-04-19T08:23:20Z</time></trkpt><trkpt lat="40.413869707509384" lon="15.147869779483285"><ele>932.0</ele><time>2026-04-19T08:23:21Z</time></trkpt><trkpt lat="40.41390489741545" lon="15.148029541404512"><ele>946.3333333333334</ele><time>2026-04-19T08:23:22Z</time></trkpt><trkpt lat="40.413928101185896" lon="15.148210078166223"><ele>960.6666666666667</ele><time>2026-04-19T08:23:23Z</time></trkpt><trkpt lat="40.413909345841006" lon="15.14840883879145"><ele>975.0</ele><time>2026-04-19T08:23:24Z</time></trkpt><trkpt lat="40.413887011110475" lon="15.148618238267343"><ele>975.0</ele><time>2026-04-19T08:23:25Z</time></trkpt><trkpt lat="40.4138829299466" lon="15.148827584462317"><ele>975.0</ele><time>2026-04-19T08:23:26Z</time></trkpt><trkpt lat="40.41388214122597" lon="15.149027822914274"><ele>975.0</ele><time>2026-04-19T08:23:27Z</time></trkpt><trkpt lat="40.41388778777182" lon="15.149203580810676"><ele>975.0</ele><time>2026-04-19T08:23:28Z</time></trkpt><trkpt lat="40.41388195178362" lon="15.149365894685882"><ele>976.0</ele><time>2026-04-19T08:23:29Z</time></trkpt><trkpt lat="40.41385943426342" lon="15.149541324640596"><ele>977.0</ele><time>2026-04-19T08:23:30Z</time></trkpt><trkpt lat="40.413793857811676" lon="15.14972505757777"><ele>978.0</ele><time>2026-04-19T08:23:31Z</time></trkpt><trkpt lat="40.41372544527493" lon="15.149931546139712"><ele>969.0</ele><time>2026-04-19T08:23:32Z</time></trkpt><trkpt lat="40.41365433171305" lon="15.150132213510783"><ele>960.0</ele><time>2026-04-19T08:23:33Z</time></trkpt><trkpt lat="40.41357824363039" lon="15.150312562209544"><ele>951.0</ele><time>2026-04-19T08:23:34Z</time></trkpt><trkpt lat="40.41352154087359" lon="15.150494218737943"><ele>951.0</ele><time>2026-04-19T08:23:35Z</time></trkpt><trkpt lat="40.41346890338228" lon="15.150678218816834"><ele>951.0</ele><time>2026-04-19T08:23:36Z</time></trkpt><trkpt lat="40.413439781927416" lon="15.150873731653377"><ele>951.0</ele><time>2026-04-19T08:23:37Z</time></trkpt><trkpt lat="40.41343296622566" lon="15.151066833252619"><ele>951.0</ele><time>2026-04-19T08:23:38Z</time></trkpt><trkpt lat="40.41343663776385" lon="15.151261335161854"><ele>955.0</ele><time>2026-04-19T08:23:39Z</time></trkpt><trkpt lat="40.4134295927488" lon="15.151448799382077"><ele>959.0</ele><time>2026-04-19T08:23:40Z</time></trkpt><trkpt lat="40.41342273791231" lon="15.151638145535717"><ele>963.0</ele><time>2026-04-19T08:23:41Z</time></trkpt><trkpt lat="40.413413616020236" lon="15.151836416898314"><ele>967.0</ele><time>2026-04-19T08:23:42Z</time></trkpt><trkpt lat="40.41340578218216" lon="15.1520416105845"><ele>970.0</ele><time>2026-04-19T08:23:43Z</time></trkpt><trkpt lat="40.41339615936272" lon="15.152257423877636"><ele>973.0</ele><time>2026-04-19T08:23:44Z</time></trkpt><trkpt lat="40.41337218957875" lon="15.152462312659361"><ele>976.0</ele><time>2026-04-19T08:23:45Z</time></trkpt><trkpt lat="40.413364600602684" lon="15.152669085393905"><ele>977.5</ele><time>2026-04-19T08:23:46Z</time></trkpt><trkpt lat="40.41337605781524" lon="15.152870949290886"><ele>979.0</ele><time>2026-04-19T08:23:47Z</time></trkpt><trkpt lat="40.41338275139324" lon="15.153066863945417"><ele>980.5</ele><time>2026-04-19T08:23:48Z</time></trkpt><trkpt lat="40.41340734191925" lon="15.153252735253632"><ele>982.0</ele><time>2026-04-19T08:23:49Z</time></trkpt><trkpt lat="40.4134443849412" lon="15.153429393438344"><ele>984.3333333333333</ele><time>2026-04-19T08:23:50Z</time></trkpt><trkpt lat="40.4134652288554" lon="15.15361992386791"><ele>986.6666666666667</ele><time>2026-04-19T08:23:51Z</time></trkpt><trkpt lat="40.41352228696912" lon="15.15380231274386"><ele>989.0</ele><time>2026-04-19T08:23:52Z</time></trkpt><trkpt lat="40.413571807504205" lon="15.1539979753301"><ele>989.5</ele><time>2026-04-19T08:23:53Z</time></trkpt><trkpt lat="40.41364038920341" lon="15.15419229416234"><ele>990.0</ele><time>2026-04-19T08:23:54Z</time></trkpt><trkpt lat="40.413677849288625" lon="15.154366410279426"><ele>990.5</ele><time>2026-04-19T08:23:55Z</time></trkpt><trkpt lat="40.41370864243" lon="15.154511006854268"><ele>991.0</ele><time>2026-04-19T08:23:56Z</time></trkpt><trkpt lat="40.413711947600405" lon="15.154650770578563"><ele>991.0</ele><time>2026-04-19T08:23:57Z</time></trkpt><trkpt lat="40.41368913134456" lon="15.154793128680888"><ele>991.0</ele><time>2026-04-19T08:23:58Z</time></trkpt><trkpt lat="40.41365077431298" lon="15.154970213527701"><ele>991.0</ele><time>2026-04-19T08:23:59Z</time></trkpt><trkpt lat="40.413620279090814" lon="15.155175200460247"><ele>991.0</ele><time>2026-04-19T08:24:00Z</time></trkpt><trkpt lat="40.413563537061066" lon="15.155375089851658"><ele>993.0</ele><time>2026-04-19T08:24:01Z</time></trkpt><trkpt lat="40.413508984727706" lon="15.155583270141637"><ele>995.0</ele><time>2026-04-19T08:24:02Z</time></trkpt><trkpt lat="40.41343231437345" lon="15.155786044477283"><ele>997.0</ele><time>2026-04-19T08:24:03Z</time></trkpt><trkpt lat="40.41333254886718" lon="15.155972893554845"><ele>1001.3333333333333</ele><time>2026-04-19T08:24:04Z</time></trkpt><trkpt lat="40.41321205837679" lon="15.156156699052653"><ele>1005.6666666666667</ele><time>2026-04-19T08:24:05Z</time></trkpt><trkpt lat="40.413087754946346" lon="15.156324391832507"><ele>1010.0</ele><time>2026-04-19T08:24:06Z</time></trkpt><trkpt lat="40.41298019686073" lon="15.156451342647957"><ele>1012.5</ele><time>2026-04-19T08:24:07Z</time></trkpt><trkpt lat="40.41288740303756" lon="15.15657044254287"><ele>1015.0</ele><time>2026-04-19T08:24:08Z</time></trkpt><trkpt lat="40.4127990868342" lon="15.156722446025526"><ele>1017.5</ele><time>2026-04-19T08:24:09Z</time></trkpt><trkpt lat="40.41270653084863" lon="15.156855471105915"><ele>1020.0</ele><time>2026-04-19T08:24:10Z</time></trkpt><trkpt lat="40.41264061555689" lon="15.15698125079995"><ele>1020.0</ele><time>2026-04-19T08:24:11Z</time></trkpt><trkpt lat="40.41259389745154" lon="15.157111351185808"><ele>1020.0</ele><time>2026-04-19T08:24:12Z</time></trkpt><trkpt lat="40.41253606645244" lon="15.157221462559733"><ele>1020.0</ele><time>2026-04-19T08:24:13Z</time></trkpt><trkpt lat="40.412477376273856" lon="15.157327075802987"><ele>1020.0</ele><time>2026-04-19T08:24:14Z</time></trkpt><trkpt lat="40.41239904517345" lon="15.157427815059663"><ele>1020.0</ele><time>2026-04-19T08:24:15Z</time></trkpt><trkpt lat="40.412344449804884" lon="15.15757599489596"><ele>1020.5</ele><time>2026-04-19T08:24:16Z</time></trkpt><trkpt lat="40.41227610478633" lon="15.157733402379145"><ele>1021.0</ele><time>2026-04-19T08:24:17Z</time></trkpt><trkpt lat="40.41221685426685" lon="15.157887716005884"><ele>1021.5</ele><time>2026-04-19T08:24:18Z</time></trkpt><trkpt lat="40.4121628982851" lon="15.158034834184793"><ele>1022.0</ele><time>2026-04-19T08:24:19Z</time></trkpt><trkpt lat="40.412096601109035" lon="15.158194286552947"><ele>1027.25</ele><time>2026-04-19T08:24:20Z</time></trkpt><trkpt lat="40.41204129349641" lon="15.158351596213027"><ele>1032.5</ele><time>2026-04-19T08:24:21Z</time></trkpt><trkpt lat="40.41199138450387" lon="15.158511846540614"><ele>1037.75</ele><time>2026-04-19T08:24:22Z</time></trkpt><trkpt lat="40.411945037030634" lon="15.158671215623473"><ele>1043.0</ele><time>2026-04-19T08:24:23Z</time></trkpt><trkpt lat="40.4118955484973" lon="15.158834129393396"><ele>1043.0</ele><time>2026-04-19T08:24:24Z</time></trkpt><trkpt lat="40.41185583160957" lon="15.15897317120186"><ele>1043.0</ele><time>2026-04-19T08:24:25Z</time></trkpt><trkpt lat="40.4118275371984" lon="15.159090682655387"><ele>1043.0</ele><time>2026-04-19T08:24:26Z</time></trkpt><trkpt lat="40.41179264400112" lon="15.159195306009469"><ele>1043.0</ele><time>2026-04-19T08:24:27Z</time></trkpt><trkpt lat="40.411775983715565" lon="15.159285086543417"><ele>1043.0</ele><time>2026-04-19T08:24:28Z</time></trkpt><trkpt lat="40.41184872470834" lon="15.159433984054253"><ele>1037.4</ele><time>2026-04-19T08:24:30Z</time></trkpt><trkpt lat="40.41195168746959" lon="15.159458363706557"><ele>1031.8</ele><time>2026-04-19T08:24:31Z</time></trkpt><trkpt lat="40.41204357642726" lon="15.159483129158053"><ele>1026.2</ele><time>2026-04-19T08:24:32Z</time></trkpt><trkpt lat="40.41214080229668" lon="15.159508328054123"><ele>1020.6</ele><time>2026-04-19T08:24:33Z</time></trkpt><trkpt lat="40.412233298317524" lon="15.159539039295707"><ele>1015.0</ele><time>2026-04-19T08:24:34Z</time></trkpt><trkpt lat="40.41230949135667" lon="15.159584400768011"><ele>1011.2</ele><time>2026-04-19T08:24:35Z</time></trkpt><trkpt lat="40.412369896218785" lon="15.159632292886158"><ele>1007.4</ele><time>2026-04-19T08:24:36Z</time></trkpt><trkpt lat="40.412399084021025" lon="15.159799193746764"><ele>1003.5999999999999</ele><time>2026-04-19T08:24:38Z</time></trkpt><trkpt lat="40.41235592620251" lon="15.159899562120446"><ele>999.8</ele><time>2026-04-19T08:24:39Z</time></trkpt><trkpt lat="40.41228560970866" lon="15.15999673557568"><ele>996.0</ele><time>2026-04-19T08:24:40Z</time></trkpt><trkpt lat="40.41221512322321" lon="15.160121056461069"><ele>994.8</ele><time>2026-04-19T08:24:41Z</time></trkpt><trkpt lat="40.412166149377825" lon="15.16026607117191"><ele>993.5999999999999</ele><time>2026-04-19T08:24:42Z</time></trkpt><trkpt lat="40.4121296711748" lon="15.160412056219302"><ele>992.4</ele><time>2026-04-19T08:24:43Z</time></trkpt><trkpt lat="40.41209997346485" lon="15.16054453463551"><ele>991.2</ele><time>2026-04-19T08:24:44Z</time></trkpt><trkpt lat="40.41207194827822" lon="15.160668135713072"><ele>990.0</ele><time>2026-04-19T08:24:45Z</time></trkpt><trkpt lat="40.41204657048869" lon="15.160780569968237"><ele>986.3333333333334</ele><time>2026-04-19T08:24:46Z</time></trkpt><trkpt lat="40.41201503804556" lon="15.160882749791547"><ele>982.6666666666667</ele><time>2026-04-19T08:24:47Z</time></trkpt><trkpt lat="40.41197560932034" lon="15.160967217625828"><ele>979.0</ele><time>2026-04-19T08:24:48Z</time></trkpt><trkpt lat="40.411921306772875" lon="15.161032137394782"><ele>975.3333333333334</ele><time>2026-04-19T08:24:49Z</time></trkpt><trkpt lat="40.411848810148825" lon="15.161062423435567"><ele>971.6666666666667</ele><time>2026-04-19T08:24:50Z</time></trkpt><trkpt lat="40.41175546662329" lon="15.161059130600293"><ele>968.0</ele><time>2026-04-19T08:24:51Z</time></trkpt><trkpt lat="40.41164115515822" lon="15.161049214620578"><ele>968.0</ele><time>2026-04-19T08:24:52Z</time></trkpt><trkpt lat="40.41150996095524" lon="15.161062673648177"><ele>968.0</ele><time>2026-04-19T08:24:53Z</time></trkpt><trkpt lat="40.411393341683066" lon="15.161087658735308"><ele>968.0</ele><time>2026-04-19T08:24:54Z</time></trkpt><trkpt lat="40.41127837046686" lon="15.16112227422629"><ele>968.0</ele><time>2026-04-19T08:24:55Z</time></trkpt><trkpt lat="40.41116393741426" lon="15.16115267426934"><ele>968.5999999999999</ele><time>2026-04-19T08:24:56Z</time></trkpt><trkpt lat="40.41106027273468" lon="15.161180401815953"><ele>969.1999999999999</ele><time>2026-04-19T08:24:57Z</time></trkpt><trkpt lat="40.41095649484947" lon="15.161209333654755"><ele>969.8</ele><time>2026-04-19T08:24:58Z</time></trkpt><trkpt lat="40.41084845450454" lon="15.16125419455802"><ele>970.4</ele><time>2026-04-19T08:24:59Z</time></trkpt><trkpt lat="40.41075758302768" lon="15.161304937532945"><ele>971.0</ele><time>2026-04-19T08:25:00Z</time></trkpt><trkpt lat="40.41067798143589" lon="15.161373121341585"><ele>971.0</ele><time>2026-04-19T08:25:01Z</time></trkpt><trkpt lat="40.41059352051913" lon="15.161451226594526"><ele>970.9999999999999</ele><time>2026-04-19T08:25:02Z</time></trkpt><trkpt lat="40.41053915947498" lon="15.161571906415015"><ele>970.9999999999999</ele><time>2026-04-19T08:25:03Z</time></trkpt><trkpt lat="40.41047540931177" lon="15.16168223519955"><ele>971.0</ele><time>2026-04-19T08:25:04Z</time></trkpt><trkpt lat="40.410419914681086" lon="15.161800773569189"><ele>971.0</ele><time>2026-04-19T08:25:05Z</time></trkpt><trkpt lat="40.41037516071085" lon="15.161932903356023"><ele>965.25</ele><time>2026-04-19T08:25:06Z</time></trkpt><trkpt lat="40.41033810781211" lon="15.16207355278799"><ele>959.5</ele><time>2026-04-19T08:25:07Z</time></trkpt><trkpt lat="40.41028294198669" lon="15.162213673246198"><ele>953.75</ele><time>2026-04-19T08:25:08Z</time></trkpt><trkpt lat="40.410264304707134" lon="15.162365465896164"><ele>948.0</ele><time>2026-04-19T08:25:09Z</time></trkpt><trkpt lat="40.410228601428734" lon="15.162503009789722"><ele>945.75</ele><time>2026-04-19T08:25:10Z</time></trkpt><trkpt lat="40.41018302488837" lon="15.162639693325426"><ele>943.5</ele><time>2026-04-19T08:25:11Z</time></trkpt><trkpt lat="40.41010005469716" lon="15.162752613415774"><ele>941.25</ele><time>2026-04-19T08:25:12Z</time></trkpt><trkpt lat="40.41002152648421" lon="15.162868433751914"><ele>939.0</ele><time>2026-04-19T08:25:13Z</time></trkpt><trkpt lat="40.40993694449308" lon="15.162977270809229"><ele>939.0</ele><time>2026-04-19T08:25:14Z</time></trkpt><trkpt lat="40.40985624122812" lon="15.163090721097522"><ele>939.0</ele><time>2026-04-19T08:25:15Z</time></trkpt><trkpt lat="40.409783759274504" lon="15.16321079028298"><ele>939.0</ele><time>2026-04-19T08:25:16Z</time></trkpt><trkpt lat="40.409719345403055" lon="15.163340153893516"><ele>939.0</ele><time>2026-04-19T08:25:17Z</time></trkpt><trkpt lat="40.409665887922216" lon="15.163473313291588"><ele>937.0</ele><time>2026-04-19T08:25:18Z</time></trkpt><trkpt lat="40.40961984233933" lon="15.163605728070497"><ele>935.0</ele><time>2026-04-19T08:25:19Z</time></trkpt><trkpt lat="40.409590572385916" lon="15.163711676038023"><ele>933.0</ele><time>2026-04-19T08:25:20Z</time></trkpt><trkpt lat="40.40953508475054" lon="15.163775580416686"><ele>931.0</ele><time>2026-04-19T08:25:21Z</time></trkpt><trkpt lat="40.4094586754728" lon="15.163804385951973"><ele>929.0</ele><time>2026-04-19T08:25:22Z</time></trkpt><trkpt lat="40.40937561131671" lon="15.163770707904629"><ele>927.0</ele><time>2026-04-19T08:25:23Z</time></trkpt><trkpt lat="40.40928263736729" lon="15.163782501337767"><ele>927.0</ele><time>2026-04-19T08:25:24Z</time></trkpt><trkpt lat="40.409179617388304" lon="15.16383757657395"><ele>927.0</ele><time>2026-04-19T08:25:25Z</time></trkpt><trkpt lat="40.40908534974528" lon="15.163918714844394"><ele>927.0</ele><time>2026-04-19T08:25:26Z</time></trkpt><trkpt lat="40.40900014923473" lon="15.163997982759623"><ele>927.0</ele><time>2026-04-19T08:25:27Z</time></trkpt><trkpt lat="40.40892718907915" lon="15.164083416930167"><ele>927.0</ele><time>2026-04-19T08:25:28Z</time></trkpt><trkpt lat="40.40886421737358" lon="15.164166955221749"><ele>924.0</ele><time>2026-04-19T08:25:29Z</time></trkpt><trkpt lat="40.40880153346354" lon="15.164266488222253"><ele>921.0</ele><time>2026-04-19T08:25:30Z</time></trkpt><trkpt lat="40.40877211600758" lon="15.164395821424414"><ele>918.0</ele><time>2026-04-19T08:25:31Z</time></trkpt><trkpt lat="40.4087662396639" lon="15.164505084463087"><ele>915.0</ele><time>2026-04-19T08:25:32Z</time></trkpt><trkpt lat="40.40876257258841" lon="15.164592143828777"><ele>912.0</ele><time>2026-04-19T08:25:33Z</time></trkpt><trkpt lat="40.408691638072064" lon="15.164710435775948"><ele>912.0</ele><time>2026-04-19T08:25:35Z</time></trkpt><trkpt lat="40.40861445769555" lon="15.164712009123525"><ele>912.0</ele><time>2026-04-19T08:25:36Z</time></trkpt><trkpt lat="40.408541104021836" lon="15.16464295504483"><ele>912.0</ele><time>2026-04-19T08:25:37Z</time></trkpt><trkpt lat="40.40845694210469" lon="15.164602105338561"><ele>912.0</ele><time>2026-04-19T08:25:38Z</time></trkpt><trkpt lat="40.408367891715" lon="15.164565633745315"><ele>912.0</ele><time>2026-04-19T08:25:39Z</time></trkpt><trkpt lat="40.40828665069203" lon="15.16455980183344"><ele>912.0</ele><time>2026-04-19T08:25:40Z</time></trkpt><trkpt lat="40.408214348263655" lon="15.164571760229526"><ele>912.0</ele><time>2026-04-19T08:25:41Z</time></trkpt><trkpt lat="40.4081344649215" lon="15.164563016931352"><ele>912.0</ele><time>2026-04-19T08:25:42Z</time></trkpt><trkpt lat="40.40805025525405" lon="15.164596492342785"><ele>912.0</ele><time>2026-04-19T08:25:43Z</time></trkpt><trkpt lat="40.40796684576341" lon="15.164647787248047"><ele>912.0</ele><time>2026-04-19T08:25:44Z</time></trkpt><trkpt lat="40.407895141304394" lon="15.164718449066783"><ele>912.0</ele><time>2026-04-19T08:25:45Z</time></trkpt><trkpt lat="40.40781156135586" lon="15.164766935512278"><ele>912.0</ele><time>2026-04-19T08:25:46Z</time></trkpt><trkpt lat="40.407739691201684" lon="15.164820181611391"><ele>910.2857142857142</ele><time>2026-04-19T08:25:47Z</time></trkpt><trkpt lat="40.40766798079103" lon="15.164875248399321"><ele>908.5714285714284</ele><time>2026-04-19T08:25:48Z</time></trkpt><trkpt lat="40.4075887364505" lon="15.16493532116393"><ele>906.8571428571429</ele><time>2026-04-19T08:25:49Z</time></trkpt><trkpt lat="40.407521410123344" lon="15.16498243368448"><ele>905.1428571428571</ele><time>2026-04-19T08:25:50Z</time></trkpt><trkpt lat="40.40748043170857" lon="15.165048719607997"><ele>903.4285714285714</ele><time>2026-04-19T08:25:51Z</time></trkpt><trkpt lat="40.407437966283744" lon="15.16511136837048"><ele>901.7142857142858</ele><time>2026-04-19T08:25:52Z</time></trkpt><trkpt lat="40.40739732130235" lon="15.165175337954345"><ele>900.0000000000001</ele><time>2026-04-19T08:25:53Z</time></trkpt><trkpt lat="40.407363870984774" lon="15.165266303601438"><ele>900.0</ele><time>2026-04-19T08:25:54Z</time></trkpt><trkpt lat="40.40733943291888" lon="15.16536385441731"><ele>900.0</ele><time>2026-04-19T08:25:55Z</time></trkpt><trkpt lat="40.40729399074333" lon="15.165450920782352"><ele>900.0</ele><time>2026-04-19T08:25:56Z</time></trkpt><trkpt lat="40.40727918426037" lon="15.165559288385325"><ele>900.0</ele><time>2026-04-19T08:25:57Z</time></trkpt><trkpt lat="40.40729635479536" lon="15.165713324743743"><ele>900.0</ele><time>2026-04-19T08:25:59Z</time></trkpt><trkpt lat="40.40738002892132" lon="15.165750984037407"><ele>900.0</ele><time>2026-04-19T08:26:00Z</time></trkpt><trkpt lat="40.40745815540801" lon="15.165809511595363"><ele>895.25</ele><time>2026-04-19T08:26:01Z</time></trkpt><trkpt lat="40.40755742808829" lon="15.165865800707492"><ele>890.5</ele><time>2026-04-19T08:26:02Z</time></trkpt><trkpt lat="40.40767776017222" lon="15.165910633437214"><ele>885.75</ele><time>2026-04-19T08:26:03Z</time></trkpt><trkpt lat="40.40779202854553" lon="15.16597838922464"><ele>881.0</ele><time>2026-04-19T08:26:04Z</time></trkpt><trkpt lat="40.407904736468325" lon="15.16604476934681"><ele>880.0</ele><time>2026-04-19T08:26:05Z</time></trkpt><trkpt lat="40.40802001573019" lon="15.166104521516607"><ele>879.0</ele><time>2026-04-19T08:26:06Z</time></trkpt><trkpt lat="40.40813207870506" lon="15.166158372234658"><ele>878.0</ele><time>2026-04-19T08:26:07Z</time></trkpt><trkpt lat="40.408242913031025" lon="15.166211743302814"><ele>877.0</ele><time>2026-04-19T08:26:08Z</time></trkpt><trkpt lat="40.40834601322363" lon="15.166256406172153"><ele>877.0</ele><time>2026-04-19T08:26:09Z</time></trkpt><trkpt lat="40.40844421725788" lon="15.166299635765224"><ele>877.0</ele><time>2026-04-19T08:26:10Z</time></trkpt><trkpt lat="40.40854553195927" lon="15.16634320519711"><ele>877.0</ele><time>2026-04-19T08:26:11Z</time></trkpt><trkpt lat="40.40864431286859" lon="15.166385467141705"><ele>877.0</ele><time>2026-04-19T08:26:12Z</time></trkpt><trkpt lat="40.4087367688188" lon="15.16642939855612"><ele>877.0</ele><time>2026-04-19T08:26:13Z</time></trkpt><trkpt lat="40.408867164048345" lon="15.166490221302187"><ele>874.4000000000001</ele><time>2026-04-19T08:26:14Z</time></trkpt><trkpt lat="40.40895247287605" lon="15.166593413231563"><ele>871.8000000000001</ele><time>2026-04-19T08:26:15Z</time></trkpt><trkpt lat="40.40903352198393" lon="15.166673773365796"><ele>869.2</ele><time>2026-04-19T08:26:16Z</time></trkpt><trkpt lat="40.40908724800668" lon="15.166743306092933"><ele>866.6</ele><time>2026-04-19T08:26:17Z</time></trkpt><trkpt lat="40.409153060807114" lon="15.166845593246924"><ele>864.0</ele><time>2026-04-19T08:26:19Z</time></trkpt><trkpt lat="40.40919416717377" lon="15.166913967637552"><ele>864.0</ele><time>2026-04-19T08:26:21Z</time></trkpt><trkpt lat="40.40923592231346" lon="15.166988210327558"><ele>864.0</ele><time>2026-04-19T08:26:24Z</time></trkpt><trkpt lat="40.409280555703944" lon="15.167068728849944"><ele>864.0</ele><time>2026-04-19T08:26:27Z</time></trkpt><trkpt lat="40.40930424466669" lon="15.16715430820284"><ele>864.0</ele><time>2026-04-19T08:26:29Z</time></trkpt><trkpt lat="40.409304965328296" lon="15.16726816914752"><ele>864.0</ele><time>2026-04-19T08:26:31Z</time></trkpt><trkpt lat="40.409276724244684" lon="15.16741713551479"><ele>864.0</ele><time>2026-04-19T08:26:33Z</time></trkpt><trkpt lat="40.40925878179481" lon="15.167499027340048"><ele>862.0</ele><time>2026-04-19T08:26:34Z</time></trkpt><trkpt lat="40.409234316076834" lon="15.167581711257549"><ele>860.0000000000001</ele><time>2026-04-19T08:26:35Z</time></trkpt><trkpt lat="40.409189941062024" lon="15.167714963551138"><ele>858.0000000000001</ele><time>2026-04-19T08:26:37Z</time></trkpt><trkpt lat="40.40913725444494" lon="15.167813824490082"><ele>856.0</ele><time>2026-04-19T08:26:40Z</time></trkpt><trkpt lat="40.40923116774686" lon="15.167869350874478"><ele>854.0</ele><time>2026-04-19T08:27:09.999Z</time></trkpt><trkpt lat="40.409299239932174" lon="15.16781273664566"><ele>854.0000000000001</ele><time>2026-04-19T08:27:15Z</time></trkpt><trkpt lat="40.409363230429065" lon="15.167772720438645"><ele>854.0</ele><time>2026-04-19T08:27:17Z</time></trkpt><trkpt lat="40.40943333757057" lon="15.167734719784546"><ele>854.0</ele><time>2026-04-19T08:27:20Z</time></trkpt><trkpt lat="40.409357160100946" lon="15.167756910319273"><ele>854.0</ele><time>2026-04-19T08:27:37Z</time></trkpt><trkpt lat="40.409266338252195" lon="15.167816746495465"><ele>854.0000000000001</ele><time>2026-04-19T08:27:39Z</time></trkpt><trkpt lat="40.40920860167254" lon="15.167855426124039"><ele>854.0</ele><time>2026-04-19T08:27:41Z</time></trkpt><trkpt lat="40.4091531738541" lon="15.167905477462721"><ele>854.0</ele><time>2026-04-19T08:28:54.999Z</time></trkpt><trkpt lat="40.40904778395889" lon="15.167989107502473"><ele>854.0000000000001</ele><time>2026-04-19T08:28:57.999Z</time></trkpt><trkpt lat="40.408983702218855" lon="15.16805124541758"><ele>854.0000000000001</ele><time>2026-04-19T08:28:58.999Z</time></trkpt><trkpt lat="40.40890422082184" lon="15.168080342622087"><ele>854.0</ele><time>2026-04-19T08:28:59.999Z</time></trkpt><trkpt lat="40.40883186901321" lon="15.168124338562357"><ele>854.0</ele><time>2026-04-19T08:29:00.999Z</time></trkpt><trkpt lat="40.40875384081373" lon="15.168168264554907"><ele>850.8333333333334</ele><time>2026-04-19T08:29:01.999Z</time></trkpt><trkpt lat="40.4086791679782" lon="15.168233706497595"><ele>847.6666666666667</ele><time>2026-04-19T08:29:02.999Z</time></trkpt><trkpt lat="40.408598535200916" lon="15.168280189781054"><ele>844.5</ele><time>2026-04-19T08:29:03.999Z</time></trkpt><trkpt lat="40.40853329766408" lon="15.168319519227383"><ele>841.3333333333333</ele><time>2026-04-19T08:29:04.999Z</time></trkpt><trkpt lat="40.408521982132186" lon="15.16842242784282"><ele>838.1666666666666</ele><time>2026-04-19T08:29:05.999Z</time></trkpt><trkpt lat="40.40850784760677" lon="15.16850494604459"><ele>835.0</ele><time>2026-04-19T08:29:06.999Z</time></trkpt><trkpt lat="40.40854619536761" lon="15.168599743031782"><ele>834.9999999999999</ele><time>2026-04-19T08:29:07.999Z</time></trkpt><trkpt lat="40.408631626682954" lon="15.16865180292174"><ele>835.0</ele><time>2026-04-19T08:29:08.999Z</time></trkpt><trkpt lat="40.40871068086231" lon="15.168698048054983"><ele>835.0</ele><time>2026-04-19T08:29:09.999Z</time></trkpt><trkpt lat="40.408775612336235" lon="15.16873602616371"><ele>835.0</ele><time>2026-04-19T08:29:10.999Z</time></trkpt><trkpt lat="40.40883568089686" lon="15.168784084373945"><ele>834.9999999999999</ele><time>2026-04-19T08:29:12.999Z</time></trkpt><trkpt lat="40.40874741880589" lon="15.168796233324882"><ele>835.0</ele><time>2026-04-19T08:29:16.999Z</time></trkpt><trkpt lat="40.40866414112865" lon="15.16878150460544"><ele>834.9999999999999</ele><time>2026-04-19T08:29:17.999Z</time></trkpt><trkpt lat="40.40858740931853" lon="15.16876270970914"><ele>835.0</ele><time>2026-04-19T08:29:19Z</time></trkpt><trkpt lat="40.408510740512945" lon="15.16873378152299"><ele>835.0</ele><time>2026-04-19T08:29:20Z</time></trkpt><trkpt lat="40.40845269754947" lon="15.16868996134299"><ele>835.0</ele><time>2026-04-19T08:29:21Z</time></trkpt><trkpt lat="40.408383088940695" lon="15.168563252104306"><ele>834.9999999999999</ele><time>2026-04-19T08:29:23Z</time></trkpt><trkpt lat="40.40837411750861" lon="15.168460124054997"><ele>835.0</ele><time>2026-04-19T08:29:24Z</time></trkpt><trkpt lat="40.40836905616779" lon="15.168343874241513"><ele>835.0</ele><time>2026-04-19T08:29:25Z</time></trkpt><trkpt lat="40.40838125953366" lon="15.168221315590023"><ele>835.0</ele><time>2026-04-19T08:29:26Z</time></trkpt><trkpt lat="40.40837732760119" lon="15.168102469186545"><ele>835.0</ele><time>2026-04-19T08:29:27Z</time></trkpt><trkpt lat="40.40834261488527" lon="15.168004621131312"><ele>835.0</ele><time>2026-04-19T08:29:28Z</time></trkpt><trkpt lat="40.40830769619084" lon="15.16790505733722"><ele>835.0</ele><time>2026-04-19T08:29:29Z</time></trkpt><trkpt lat="40.40822906217557" lon="15.167825174890183"><ele>836.75</ele><time>2026-04-19T08:29:30Z</time></trkpt><trkpt lat="40.408123422377315" lon="15.167788629688516"><ele>838.5</ele><time>2026-04-19T08:29:31Z</time></trkpt><trkpt lat="40.40801199915943" lon="15.167720005225426"><ele>840.25</ele><time>2026-04-19T08:29:32Z</time></trkpt><trkpt lat="40.407888229007156" lon="15.16768775883119"><ele>842.0</ele><time>2026-04-19T08:29:33Z</time></trkpt><trkpt lat="40.407762924935035" lon="15.167675810964635"><ele>842.0</ele><time>2026-04-19T08:29:34Z</time></trkpt><trkpt lat="40.40763341007388" lon="15.167671408831959"><ele>842.0</ele><time>2026-04-19T08:29:35Z</time></trkpt><trkpt lat="40.407501204829074" lon="15.167672065917362"><ele>842.0</ele><time>2026-04-19T08:29:36Z</time></trkpt><trkpt lat="40.40736821805989" lon="15.167680195453125"><ele>842.0</ele><time>2026-04-19T08:29:37Z</time></trkpt><trkpt lat="40.407233748451745" lon="15.167701076062963"><ele>846.25</ele><time>2026-04-19T08:29:38Z</time></trkpt><trkpt lat="40.407099188328935" lon="15.167753693211246"><ele>850.5</ele><time>2026-04-19T08:29:39Z</time></trkpt><trkpt lat="40.406977012133396" lon="15.167827166319377"><ele>854.75</ele><time>2026-04-19T08:29:40Z</time></trkpt><trkpt lat="40.40686292237465" lon="15.167903571773289"><ele>859.0</ele><time>2026-04-19T08:29:41Z</time></trkpt><trkpt lat="40.40676380793989" lon="15.167973263430145"><ele>859.0</ele><time>2026-04-19T08:29:42Z</time></trkpt><trkpt lat="40.406676999739396" lon="15.16803640955998"><ele>859.0000000000001</ele><time>2026-04-19T08:29:43Z</time></trkpt><trkpt lat="40.40659356344771" lon="15.168123134233742"><ele>859.0000000000001</ele><time>2026-04-19T08:29:44Z</time></trkpt><trkpt lat="40.40648905568422" lon="15.168177990406935"><ele>859.0</ele><time>2026-04-19T08:29:45Z</time></trkpt><trkpt lat="40.40639778942548" lon="15.168239614918713"><ele>859.0</ele><time>2026-04-19T08:29:46Z</time></trkpt><trkpt lat="40.40630706889708" lon="15.168258797905393"><ele>859.1428571428571</ele><time>2026-04-19T08:29:47Z</time></trkpt><trkpt lat="40.40624582682671" lon="15.16830205339188"><ele>859.2857142857142</ele><time>2026-04-19T08:29:48Z</time></trkpt><trkpt lat="40.40618311696096" lon="15.16832176076811"><ele>859.4285714285713</ele><time>2026-04-19T08:29:50Z</time></trkpt><trkpt lat="40.406119376260946" lon="15.168336421113903"><ele>859.5714285714286</ele><time>2026-04-19T08:29:54Z</time></trkpt><trkpt lat="40.40603556881109" lon="15.168341315489123"><ele>859.7142857142858</ele><time>2026-04-19T08:29:57Z</time></trkpt><trkpt lat="40.40597071832665" lon="15.168380100485514"><ele>859.8571428571428</ele><time>2026-04-19T08:30:00Z</time></trkpt><trkpt lat="40.40590372049682" lon="15.168399325853626"><ele>860.0</ele><time>2026-04-19T08:30:03Z</time></trkpt><trkpt lat="40.40599782155778" lon="15.16837655757386"><ele>860.0</ele><time>2026-04-19T08:30:08Z</time></trkpt><trkpt lat="40.40608548901822" lon="15.168364235335947"><ele>860.0</ele><time>2026-04-19T08:30:10Z</time></trkpt><trkpt lat="40.4061633889583" lon="15.168329136839901"><ele>860.0</ele><time>2026-04-19T08:30:12Z</time></trkpt><trkpt lat="40.40628914553366" lon="15.168276569362213"><ele>860.0</ele><time>2026-04-19T08:30:14Z</time></trkpt><trkpt lat="40.40636931966076" lon="15.168242988715496"><ele>860.0</ele><time>2026-04-19T08:30:15Z</time></trkpt><trkpt lat="40.40644509589525" lon="15.16820358133715"><ele>859.8333333333334</ele><time>2026-04-19T08:30:16Z</time></trkpt><trkpt lat="40.40652443167585" lon="15.168167737508357"><ele>859.6666666666667</ele><time>2026-04-19T08:30:17Z</time></trkpt><trkpt lat="40.406602343447965" lon="15.168121997057856"><ele>859.5</ele><time>2026-04-19T08:30:18Z</time></trkpt><trkpt lat="40.40666986665892" lon="15.16807267141101"><ele>859.3333333333333</ele><time>2026-04-19T08:30:19Z</time></trkpt><trkpt lat="40.40673434703881" lon="15.168024714184826"><ele>859.1666666666666</ele><time>2026-04-19T08:30:20Z</time></trkpt><trkpt lat="40.40679172981519" lon="15.16797488333829"><ele>859.0</ele><time>2026-04-19T08:30:21Z</time></trkpt><trkpt lat="40.40684889796343" lon="15.167927657475508"><ele>858.9999999999999</ele><time>2026-04-19T08:30:22Z</time></trkpt><trkpt lat="40.406918736412145" lon="15.167877245022197"><ele>859.0</ele><time>2026-04-19T08:30:23Z</time></trkpt><trkpt lat="40.40699552489392" lon="15.167831964679737"><ele>859.0</ele><time>2026-04-19T08:30:24Z</time></trkpt><trkpt lat="40.40707711205264" lon="15.167789973572809"><ele>859.0</ele><time>2026-04-19T08:30:25Z</time></trkpt><trkpt lat="40.40716103629814" lon="15.167755908967337"><ele>858.9999999999999</ele><time>2026-04-19T08:30:26Z</time></trkpt><trkpt lat="40.40724673607589" lon="15.167731412413577"><ele>859.0</ele><time>2026-04-19T08:30:27Z</time></trkpt><trkpt lat="40.407337089560215" lon="15.167713589607644"><ele>855.6</ele><time>2026-04-19T08:30:28Z</time></trkpt><trkpt lat="40.40743156781741" lon="15.167707023747079"><ele>852.2</ele><time>2026-04-19T08:30:29Z</time></trkpt><trkpt lat="40.40752097434694" lon="15.167693271811734"><ele>848.8000000000001</ele><time>2026-04-19T08:30:30Z</time></trkpt><trkpt lat="40.40762680342541" lon="15.16768671294678"><ele>845.4000000000001</ele><time>2026-04-19T08:30:31Z</time></trkpt><trkpt lat="40.40772787293135" lon="15.167692088480214"><ele>842.0</ele><time>2026-04-19T08:30:32Z</time></trkpt><trkpt lat="40.40783148725069" lon="15.16770806074084"><ele>842.0</ele><time>2026-04-19T08:30:33Z</time></trkpt><trkpt lat="40.407925913140815" lon="15.167728207179216"><ele>842.0</ele><time>2026-04-19T08:30:34Z</time></trkpt><trkpt lat="40.408021178182246" lon="15.167752911255787"><ele>842.0</ele><time>2026-04-19T08:30:35Z</time></trkpt><trkpt lat="40.408112527543125" lon="15.167791035769914"><ele>842.0</ele><time>2026-04-19T08:30:36Z</time></trkpt><trkpt lat="40.40820294757753" lon="15.167847579616037"><ele>842.0</ele><time>2026-04-19T08:30:37Z</time></trkpt><trkpt lat="40.40827849068057" lon="15.167925235422482"><ele>842.8</ele><time>2026-04-19T08:30:38Z</time></trkpt><trkpt lat="40.40833160727806" lon="15.16802626779186"><ele>843.6</ele><time>2026-04-19T08:30:39Z</time></trkpt><trkpt lat="40.40835762753112" lon="15.168146579317973"><ele>844.4</ele><time>2026-04-19T08:30:40Z</time></trkpt><trkpt lat="40.40834819084856" lon="15.168269085560032"><ele>845.1999999999999</ele><time>2026-04-19T08:30:41Z</time></trkpt><trkpt lat="40.40832763477451" lon="15.168405972002091"><ele>846.0</ele><time>2026-04-19T08:30:42Z</time></trkpt><trkpt lat="40.40832489297376" lon="15.168548881711557"><ele>843.8</ele><time>2026-04-19T08:30:43Z</time></trkpt><trkpt lat="40.4083611225348" lon="15.168664195150132"><ele>841.5999999999999</ele><time>2026-04-19T08:30:43.999Z</time></trkpt><trkpt lat="40.4084316352482" lon="15.168757801956422"><ele>839.4</ele><time>2026-04-19T08:30:44.999Z</time></trkpt><trkpt lat="40.40853027099401" lon="15.16879144462313"><ele>837.2</ele><time>2026-04-19T08:30:45.999Z</time></trkpt><trkpt lat="40.40864409576687" lon="15.168819339776984"><ele>835.0</ele><time>2026-04-19T08:30:46.999Z</time></trkpt><trkpt lat="40.40877242210435" lon="15.168846154727671"><ele>836.25</ele><time>2026-04-19T08:30:47.999Z</time></trkpt><trkpt lat="40.40889663316895" lon="15.168857873985633"><ele>837.5</ele><time>2026-04-19T08:30:48.999Z</time></trkpt><trkpt lat="40.40901180833533" lon="15.168852053045237"><ele>838.75</ele><time>2026-04-19T08:30:49.999Z</time></trkpt><trkpt lat="40.40913853829257" lon="15.168836748109777"><ele>840.0</ele><time>2026-04-19T08:30:50.999Z</time></trkpt><trkpt lat="40.409277044655234" lon="15.168808481865177"><ele>840.0</ele><time>2026-04-19T08:30:51.999Z</time></trkpt><trkpt lat="40.409412720167516" lon="15.168758694339887"><ele>840.0</ele><time>2026-04-19T08:30:52.999Z</time></trkpt><trkpt lat="40.40953545607689" lon="15.168688493653912"><ele>840.0</ele><time>2026-04-19T08:30:53.999Z</time></trkpt><trkpt lat="40.409654684383035" lon="15.168591503237653"><ele>840.0</ele><time>2026-04-19T08:30:54.999Z</time></trkpt><trkpt lat="40.40976128656407" lon="15.168488256706267"><ele>841.5</ele><time>2026-04-19T08:30:55.999Z</time></trkpt><trkpt lat="40.40985005160847" lon="15.168392618401812"><ele>843.0</ele><time>2026-04-19T08:30:56.999Z</time></trkpt><trkpt lat="40.40992465003893" lon="15.168330546917586"><ele>844.5</ele><time>2026-04-19T08:30:57.999Z</time></trkpt><trkpt lat="40.409987955296685" lon="15.168273048834928"><ele>846.0</ele><time>2026-04-19T08:30:58.999Z</time></trkpt><trkpt lat="40.41004905654254" lon="15.168219609132622"><ele>847.5</ele><time>2026-04-19T08:30:59.999Z</time></trkpt><trkpt lat="40.41012664908659" lon="15.16814860529317"><ele>849.0</ele><time>2026-04-19T08:31:01.999Z</time></trkpt><trkpt lat="40.41021293089366" lon="15.16808152861432"><ele>849.0</ele><time>2026-04-19T08:31:03.999Z</time></trkpt><trkpt lat="40.41031105420136" lon="15.167981598849353"><ele>849.0</ele><time>2026-04-19T08:31:05.999Z</time></trkpt><trkpt lat="40.410386983576224" lon="15.167921553291292"><ele>849.0</ele><time>2026-04-19T08:31:06.999Z</time></trkpt><trkpt lat="40.41047194922612" lon="15.16784604717736"><ele>849.0</ele><time>2026-04-19T08:31:07.999Z</time></trkpt><trkpt lat="40.4105770544382" lon="15.167784210709515"><ele>849.0</ele><time>2026-04-19T08:31:08.999Z</time></trkpt><trkpt lat="40.41068148693304" lon="15.167701203801059"><ele>843.25</ele><time>2026-04-19T08:31:09.999Z</time></trkpt><trkpt lat="40.41079669929767" lon="15.167641619777413"><ele>837.5</ele><time>2026-04-19T08:31:10.999Z</time></trkpt><trkpt lat="40.4109133556466" lon="15.167599294625601"><ele>831.75</ele><time>2026-04-19T08:31:11.999Z</time></trkpt><trkpt lat="40.4110417109047" lon="15.167559517534626"><ele>826.0</ele><time>2026-04-19T08:31:12.999Z</time></trkpt><trkpt lat="40.41116689207164" lon="15.167524811671731"><ele>826.0</ele><time>2026-04-19T08:31:13.999Z</time></trkpt><trkpt lat="40.411293732239805" lon="15.167495698610967"><ele>826.0</ele><time>2026-04-19T08:31:14.999Z</time></trkpt><trkpt lat="40.411426451506564" lon="15.167467904914757"><ele>826.0</ele><time>2026-04-19T08:31:15.999Z</time></trkpt><trkpt lat="40.41156064058384" lon="15.16744901532298"><ele>826.0</ele><time>2026-04-19T08:31:16.999Z</time></trkpt><trkpt lat="40.411701172140134" lon="15.167419484577087"><ele>826.25</ele><time>2026-04-19T08:31:17.999Z</time></trkpt><trkpt lat="40.411840480192915" lon="15.16739183629067"><ele>826.5</ele><time>2026-04-19T08:31:18.999Z</time></trkpt><trkpt lat="40.41197855591923" lon="15.167358103035614"><ele>826.75</ele><time>2026-04-19T08:31:19.999Z</time></trkpt><trkpt lat="40.41211728251645" lon="15.167326794321879"><ele>827.0</ele><time>2026-04-19T08:31:20.999Z</time></trkpt><trkpt lat="40.41225510751211" lon="15.167288226292948"><ele>827.0</ele><time>2026-04-19T08:31:21.999Z</time></trkpt><trkpt lat="40.41239346762673" lon="15.167246663177313"><ele>827.0</ele><time>2026-04-19T08:31:22.999Z</time></trkpt><trkpt lat="40.41253398139812" lon="15.167207672439813"><ele>827.0</ele><time>2026-04-19T08:31:23.999Z</time></trkpt><trkpt lat="40.41266621121551" lon="15.167170416860564"><ele>827.0</ele><time>2026-04-19T08:31:25Z</time></trkpt><trkpt lat="40.41279842281729" lon="15.167134420492689"><ele>827.0</ele><time>2026-04-19T08:31:26Z</time></trkpt><trkpt lat="40.4129285144159" lon="15.167097849899159"><ele>827.0</ele><time>2026-04-19T08:31:27Z</time></trkpt><trkpt lat="40.413052451349465" lon="15.167064324382126"><ele>827.0</ele><time>2026-04-19T08:31:28Z</time></trkpt><trkpt lat="40.41316989683756" lon="15.167023683353959"><ele>827.0</ele><time>2026-04-19T08:31:29Z</time></trkpt><trkpt lat="40.41328891066164" lon="15.166949998520312"><ele>828.5</ele><time>2026-04-19T08:31:30Z</time></trkpt><trkpt lat="40.41340024100963" lon="15.166837624596807"><ele>830.0</ele><time>2026-04-19T08:31:31Z</time></trkpt><trkpt lat="40.413512376424286" lon="15.166709475570327"><ele>831.5</ele><time>2026-04-19T08:31:32Z</time></trkpt><trkpt lat="40.413618641439065" lon="15.166574293367937"><ele>833.0</ele><time>2026-04-19T08:31:33Z</time></trkpt><trkpt lat="40.41372911337095" lon="15.166462661453798"><ele>828.25</ele><time>2026-04-19T08:31:34Z</time></trkpt><trkpt lat="40.413828810042304" lon="15.16635425859574"><ele>823.5</ele><time>2026-04-19T08:31:35Z</time></trkpt><trkpt lat="40.41392807275012" lon="15.16625262875881"><ele>818.75</ele><time>2026-04-19T08:31:36Z</time></trkpt><trkpt lat="40.41401536034033" lon="15.16615761579252"><ele>814.0</ele><time>2026-04-19T08:31:37Z</time></trkpt><trkpt lat="40.414098176383874" lon="15.16611872080214"><ele>814.0</ele><time>2026-04-19T08:31:38Z</time></trkpt><trkpt lat="40.41416649608405" lon="15.1661200633866"><ele>814.0</ele><time>2026-04-19T08:31:39Z</time></trkpt><trkpt lat="40.41424134042545" lon="15.16616105501206"><ele>814.0</ele><time>2026-04-19T08:31:40Z</time></trkpt><trkpt lat="40.41430772727929" lon="15.166254118390732"><ele>814.0</ele><time>2026-04-19T08:31:41Z</time></trkpt><trkpt lat="40.41435691706866" lon="15.166378019733168"><ele>814.0</ele><time>2026-04-19T08:31:42Z</time></trkpt><trkpt lat="40.414402297226765" lon="15.16650961296337"><ele>811.2</ele><time>2026-04-19T08:31:43Z</time></trkpt><trkpt lat="40.41445107835194" lon="15.166614841621968"><ele>808.4000000000001</ele><time>2026-04-19T08:31:44Z</time></trkpt><trkpt lat="40.4145139245824" lon="15.16667903706381"><ele>805.6</ele><time>2026-04-19T08:31:45Z</time></trkpt><trkpt lat="40.41459073838876" lon="15.166718191625653"><ele>802.8</ele><time>2026-04-19T08:31:46Z</time></trkpt><trkpt lat="40.414685851443814" lon="15.166745859630163"><ele>800.0</ele><time>2026-04-19T08:31:47Z</time></trkpt><trkpt lat="40.41479121715034" lon="15.166759648363273"><ele>798.8</ele><time>2026-04-19T08:31:48Z</time></trkpt><trkpt lat="40.41489824157896" lon="15.166764512583496"><ele>797.6</ele><time>2026-04-19T08:31:49Z</time></trkpt><trkpt lat="40.41500363805259" lon="15.166744291805067"><ele>796.4000000000001</ele><time>2026-04-19T08:31:50Z</time></trkpt><trkpt lat="40.41510247762459" lon="15.166696401053654"><ele>795.2</ele><time>2026-04-19T08:31:51Z</time></trkpt><trkpt lat="40.41519054323069" lon="15.166629057809121"><ele>794.0</ele><time>2026-04-19T08:31:52Z</time></trkpt><trkpt lat="40.41526790264622" lon="15.166535685437806"><ele>796.6</ele><time>2026-04-19T08:31:53Z</time></trkpt><trkpt lat="40.41535618682848" lon="15.16647109158006"><ele>799.2</ele><time>2026-04-19T08:31:54Z</time></trkpt><trkpt lat="40.41541378998837" lon="15.166391685417226"><ele>801.8000000000001</ele><time>2026-04-19T08:31:55Z</time></trkpt><trkpt lat="40.41547805173992" lon="15.166352808725842"><ele>804.4000000000001</ele><time>2026-04-19T08:31:56Z</time></trkpt><trkpt lat="40.41559237221135" lon="15.166371536717987"><ele>807.0</ele><time>2026-04-19T08:31:58Z</time></trkpt><trkpt lat="40.41569597939805" lon="15.166475598219316"><ele>804.6666666666666</ele><time>2026-04-19T08:32:00Z</time></trkpt><trkpt lat="40.415749008720994" lon="15.166538665288023"><ele>802.3333333333333</ele><time>2026-04-19T08:32:01Z</time></trkpt><trkpt lat="40.41579849983248" lon="15.166616992089871"><ele>800.0</ele><time>2026-04-19T08:32:02Z</time></trkpt><trkpt lat="40.41585026387812" lon="15.166706561772479"><ele>797.6666666666666</ele><time>2026-04-19T08:32:03Z</time></trkpt><trkpt lat="40.415907364220544" lon="15.166806899609238"><ele>795.3333333333333</ele><time>2026-04-19T08:32:04Z</time></trkpt><trkpt lat="40.415957117882364" lon="15.166934381764245"><ele>793.0</ele><time>2026-04-19T08:32:05Z</time></trkpt><trkpt lat="40.41600397363262" lon="15.167050114040794"><ele>793.0</ele><time>2026-04-19T08:32:06Z</time></trkpt><trkpt lat="40.41605618583485" lon="15.167160026904893"><ele>793.0</ele><time>2026-04-19T08:32:07Z</time></trkpt><trkpt lat="40.41609859800086" lon="15.167264911453717"><ele>793.0</ele><time>2026-04-19T08:32:08Z</time></trkpt><trkpt lat="40.416130336281796" lon="15.167349369320286"><ele>793.0</ele><time>2026-04-19T08:32:09Z</time></trkpt><trkpt lat="40.41617705244627" lon="15.167495009472898"><ele>793.0</ele><time>2026-04-19T08:32:11Z</time></trkpt><trkpt lat="40.41624262418216" lon="15.167652711019155"><ele>793.4999999999999</ele><time>2026-04-19T08:32:13Z</time></trkpt><trkpt lat="40.41627540731699" lon="15.167758482794563"><ele>794.0</ele><time>2026-04-19T08:32:14Z</time></trkpt><trkpt lat="40.41631329071836" lon="15.16786056384719"><ele>794.5</ele><time>2026-04-19T08:32:15Z</time></trkpt><trkpt lat="40.41634563352524" lon="15.167952919560475"><ele>795.0</ele><time>2026-04-19T08:32:16Z</time></trkpt><trkpt lat="40.416372776301046" lon="15.16805562764682"><ele>795.4999999999999</ele><time>2026-04-19T08:32:17Z</time></trkpt><trkpt lat="40.41639196727524" lon="15.168143500682637"><ele>796.0</ele><time>2026-04-19T08:32:18Z</time></trkpt><trkpt lat="40.41642170002588" lon="15.168223583653937"><ele>794.4285714285713</ele><time>2026-04-19T08:32:19Z</time></trkpt><trkpt lat="40.41644289142017" lon="15.168307654934926"><ele>792.8571428571429</ele><time>2026-04-19T08:32:20Z</time></trkpt><trkpt lat="40.4164734051471" lon="15.168384960222077"><ele>791.2857142857142</ele><time>2026-04-19T08:32:21Z</time></trkpt><trkpt lat="40.416503835976975" lon="15.168459081749894"><ele>789.7142857142857</ele><time>2026-04-19T08:32:22Z</time></trkpt><trkpt lat="40.416529133807735" lon="15.168539288505224"><ele>788.1428571428571</ele><time>2026-04-19T08:32:22.999Z</time></trkpt><trkpt lat="40.41655363148004" lon="15.168628963909095"><ele>786.5714285714286</ele><time>2026-04-19T08:32:24.999Z</time></trkpt><trkpt lat="40.41653001102252" lon="15.168510016977308"><ele>785.0</ele><time>2026-04-19T08:33:55Z</time></trkpt><trkpt lat="40.41650422749459" lon="15.16843182515606"><ele>785.0</ele><time>2026-04-19T08:33:56Z</time></trkpt><trkpt lat="40.41646847409232" lon="15.168323399513985"><ele>785.0</ele><time>2026-04-19T08:33:57Z</time></trkpt><trkpt lat="40.416420585389034" lon="15.168106905514193"><ele>785.0</ele><time>2026-04-19T08:33:58Z</time></trkpt><trkpt lat="40.416375883038626" lon="15.16797708935049"><ele>785.0</ele><time>2026-04-19T08:33:59Z</time></trkpt><trkpt lat="40.416331458052404" lon="15.16784022718435"><ele>784.25</ele><time>2026-04-19T08:34:00Z</time></trkpt><trkpt lat="40.4162764939361" lon="15.167689901815706"><ele>783.5</ele><time>2026-04-19T08:34:01Z</time></trkpt><trkpt lat="40.41621816352027" lon="15.167533808591203"><ele>782.75</ele><time>2026-04-19T08:34:02Z</time></trkpt><trkpt lat="40.41618105945482" lon="15.167380304401231"><ele>782.0</ele><time>2026-04-19T08:34:03Z</time></trkpt><trkpt lat="40.416129630970964" lon="15.16724774066068"><ele>784.75</ele><time>2026-04-19T08:34:04Z</time></trkpt><trkpt lat="40.41606196401467" lon="15.167119278298413"><ele>787.5</ele><time>2026-04-19T08:34:05Z</time></trkpt><trkpt lat="40.41600743125396" lon="15.166976324485532"><ele>790.25</ele><time>2026-04-19T08:34:06Z</time></trkpt><trkpt lat="40.41594437714139" lon="15.166839653880643"><ele>793.0</ele><time>2026-04-19T08:34:07Z</time></trkpt><trkpt lat="40.41588399148562" lon="15.166708630313904"><ele>793.0</ele><time>2026-04-19T08:34:08Z</time></trkpt><trkpt lat="40.415820028827206" lon="15.166587697181448"><ele>793.0</ele><time>2026-04-19T08:34:09Z</time></trkpt><trkpt lat="40.41575806283321" lon="15.166484554534232"><ele>793.0</ele><time>2026-04-19T08:34:10Z</time></trkpt><trkpt lat="40.415690331138464" lon="15.166398045432992"><ele>793.0</ele><time>2026-04-19T08:34:11Z</time></trkpt><trkpt lat="40.4156183952117" lon="15.166338852271753"><ele>793.0</ele><time>2026-04-19T08:34:12Z</time></trkpt><trkpt lat="40.41554346592919" lon="15.166308563881918"><ele>793.2</ele><time>2026-04-19T08:34:13Z</time></trkpt><trkpt lat="40.41546356387748" lon="15.166307836600621"><ele>793.4</ele><time>2026-04-19T08:34:14Z</time></trkpt><trkpt lat="40.41538824022091" lon="15.166355489472098"><ele>793.6</ele><time>2026-04-19T08:34:15Z</time></trkpt><trkpt lat="40.41530865215357" lon="15.166440265858208"><ele>793.8000000000001</ele><time>2026-04-19T08:34:16Z</time></trkpt><trkpt lat="40.41521910777035" lon="15.166536685593385"><ele>794.0</ele><time>2026-04-19T08:34:17Z</time></trkpt><trkpt lat="40.41511913303429" lon="15.166634966742635"><ele>794.0</ele><time>2026-04-19T08:34:18Z</time></trkpt><trkpt lat="40.415011815290946" lon="15.166709961490563"><ele>794.0</ele><time>2026-04-19T08:34:19Z</time></trkpt><trkpt lat="40.41488823456413" lon="15.166712833181597"><ele>794.0</ele><time>2026-04-19T08:34:20Z</time></trkpt><trkpt lat="40.414766318079316" lon="15.166709993856767"><ele>794.0</ele><time>2026-04-19T08:34:21Z</time></trkpt><trkpt lat="40.414658186695505" lon="15.166704664892968"><ele>795.2</ele><time>2026-04-19T08:34:22Z</time></trkpt><trkpt lat="40.4145731110496" lon="15.166663199478597"><ele>796.4000000000001</ele><time>2026-04-19T08:34:23Z</time></trkpt><trkpt lat="40.41449822001422" lon="15.166605186730326"><ele>797.6</ele><time>2026-04-19T08:34:24Z</time></trkpt><trkpt lat="40.41442831862818" lon="15.166519212181154"><ele>798.8</ele><time>2026-04-19T08:34:25Z</time></trkpt><trkpt lat="40.41437435563989" lon="15.166406920189926"><ele>800.0</ele><time>2026-04-19T08:34:26Z</time></trkpt><trkpt lat="40.41432604822992" lon="15.16627275762815"><ele>802.8</ele><time>2026-04-19T08:34:27Z</time></trkpt><trkpt lat="40.414277774041366" lon="15.16614774966818"><ele>805.6</ele><time>2026-04-19T08:34:28Z</time></trkpt><trkpt lat="40.41420530227312" lon="15.166080684636707"><ele>808.4000000000001</ele><time>2026-04-19T08:34:29Z</time></trkpt><trkpt lat="40.41411536054084" lon="15.16607611809966"><ele>811.2</ele><time>2026-04-19T08:34:30Z</time></trkpt><trkpt lat="40.41401848419219" lon="15.166080556720924"><ele>814.0</ele><time>2026-04-19T08:34:31Z</time></trkpt><trkpt lat="40.41391965436023" lon="15.166188546790135"><ele>813.75</ele><time>2026-04-19T08:34:32Z</time></trkpt><trkpt lat="40.41381596106836" lon="15.166298681382951"><ele>813.5</ele><time>2026-04-19T08:34:33Z</time></trkpt><trkpt lat="40.413711795489135" lon="15.166437727861116"><ele>813.25</ele><time>2026-04-19T08:34:34Z</time></trkpt><trkpt lat="40.413580915458525" lon="15.166575016542575"><ele>813.0</ele><time>2026-04-19T08:34:35Z</time></trkpt><trkpt lat="40.41345906014566" lon="15.166737837783426"><ele>813.0</ele><time>2026-04-19T08:34:36Z</time></trkpt><trkpt lat="40.413337273542865" lon="15.166868564753502"><ele>813.0</ele><time>2026-04-19T08:34:37Z</time></trkpt><trkpt lat="40.41322243404218" lon="15.166961782398317"><ele>813.0</ele><time>2026-04-19T08:34:38Z</time></trkpt><trkpt lat="40.413096637157444" lon="15.167010662660172"><ele>813.0</ele><time>2026-04-19T08:34:39Z</time></trkpt><trkpt lat="40.41295400959731" lon="15.167057246297972"><ele>817.6666666666667</ele><time>2026-04-19T08:34:40Z</time></trkpt><trkpt lat="40.41278882504488" lon="15.16712138871471"><ele>822.3333333333334</ele><time>2026-04-19T08:34:41Z</time></trkpt><trkpt lat="40.41260202935812" lon="15.167169615759807"><ele>827.0</ele><time>2026-04-19T08:34:42Z</time></trkpt><trkpt lat="40.41240238891212" lon="15.167231470767515"><ele>827.0</ele><time>2026-04-19T08:34:43Z</time></trkpt><trkpt lat="40.41220062360686" lon="15.167285904363103"><ele>827.0</ele><time>2026-04-19T08:34:44Z</time></trkpt><trkpt lat="40.41199000962045" lon="15.167346243503241"><ele>827.0</ele><time>2026-04-19T08:34:45Z</time></trkpt><trkpt lat="40.41178152529836" lon="15.167374500277582"><ele>826.6666666666667</ele><time>2026-04-19T08:34:46Z</time></trkpt><trkpt lat="40.41157459936098" lon="15.167416157229669"><ele>826.3333333333333</ele><time>2026-04-19T08:34:47Z</time></trkpt><trkpt lat="40.411384952647175" lon="15.167472742719088"><ele>826.0</ele><time>2026-04-19T08:34:48Z</time></trkpt><trkpt lat="40.41120346252446" lon="15.167503675756414"><ele>826.0</ele><time>2026-04-19T08:34:49Z</time></trkpt><trkpt lat="40.41103834396623" lon="15.167539648051909"><ele>826.0</ele><time>2026-04-19T08:34:50Z</time></trkpt><trkpt lat="40.41088154083985" lon="15.167578859173249"><ele>826.0</ele><time>2026-04-19T08:34:51Z</time></trkpt><trkpt lat="40.41072957996023" lon="15.167640299586274"><ele>826.0</ele><time>2026-04-19T08:34:52Z</time></trkpt><trkpt lat="40.41057082311511" lon="15.167739624344053"><ele>826.0</ele><time>2026-04-19T08:34:53Z</time></trkpt><trkpt lat="40.41041287359408" lon="15.16787033473604"><ele>826.0</ele><time>2026-04-19T08:34:54Z</time></trkpt><trkpt lat="40.41025942812001" lon="15.168010947251956"><ele>827.0</ele><time>2026-04-19T08:34:55Z</time></trkpt><trkpt lat="40.41010307147505" lon="15.16815084239798"><ele>828.0</ele><time>2026-04-19T08:34:56Z</time></trkpt><trkpt lat="40.40994887040413" lon="15.168294455165473"><ele>829.0</ele><time>2026-04-19T08:34:57Z</time></trkpt><trkpt lat="40.409791356338985" lon="15.168436723643948"><ele>832.6666666666666</ele><time>2026-04-19T08:34:57.999Z</time></trkpt><trkpt lat="40.40963921032065" lon="15.168565922405685"><ele>836.3333333333333</ele><time>2026-04-19T08:34:58.999Z</time></trkpt><trkpt lat="40.409502017947446" lon="15.168678843829918"><ele>840.0</ele><time>2026-04-19T08:34:59.999Z</time></trkpt><trkpt lat="40.409377176986524" lon="15.168761242835318"><ele>840.0</ele><time>2026-04-19T08:35:00.999Z</time></trkpt><trkpt lat="40.40924807361131" lon="15.16878341239031"><ele>840.0</ele><time>2026-04-19T08:35:01.999Z</time></trkpt><trkpt lat="40.40910814817119" lon="15.168801384616373"><ele>840.0</ele><time>2026-04-19T08:35:02.999Z</time></trkpt><trkpt lat="40.408979337983645" lon="15.168827703368176"><ele>840.0</ele><time>2026-04-19T08:35:03.999Z</time></trkpt><trkpt lat="40.4088905339669" lon="15.168815076440838"><ele>839.0</ele><time>2026-04-19T08:35:04.999Z</time></trkpt><trkpt lat="40.40882505096505" lon="15.168819665566101"><ele>838.0</ele><time>2026-04-19T08:35:05.999Z</time></trkpt><trkpt lat="40.40874023818817" lon="15.168798063259635"><ele>837.0</ele><time>2026-04-19T08:35:06.999Z</time></trkpt><trkpt lat="40.40863828473806" lon="15.168765674498397"><ele>836.0</ele><time>2026-04-19T08:35:07.999Z</time></trkpt><trkpt lat="40.40853276018066" lon="15.168726644517381"><ele>835.0</ele><time>2026-04-19T08:35:08.999Z</time></trkpt><trkpt lat="40.408435309593145" lon="15.168696102642356"><ele>835.0</ele><time>2026-04-19T08:35:09.999Z</time></trkpt><trkpt lat="40.40836661316649" lon="15.168622243393006"><ele>835.0</ele><time>2026-04-19T08:35:10.999Z</time></trkpt><trkpt lat="40.408336161788334" lon="15.168526682105545"><ele>835.0</ele><time>2026-04-19T08:35:11.999Z</time></trkpt><trkpt lat="40.40834094321165" lon="15.168426073953219"><ele>835.0</ele><time>2026-04-19T08:35:12.999Z</time></trkpt><trkpt lat="40.40835992770261" lon="15.168298885605834"><ele>835.0</ele><time>2026-04-19T08:35:13.999Z</time></trkpt><trkpt lat="40.40837159778307" lon="15.168157877288117"><ele>837.2</ele><time>2026-04-19T08:35:14.999Z</time></trkpt><trkpt lat="40.408349801086125" lon="15.168031992207666"><ele>839.4</ele><time>2026-04-19T08:35:15.999Z</time></trkpt><trkpt lat="40.4083199166708" lon="15.167913680835424"><ele>841.5999999999999</ele><time>2026-04-19T08:35:16.999Z</time></trkpt><trkpt lat="40.408225738992186" lon="15.1678408770118"><ele>843.8</ele><time>2026-04-19T08:35:17.999Z</time></trkpt><trkpt lat="40.40812539003963" lon="15.167773762563801"><ele>846.0</ele><time>2026-04-19T08:35:18.999Z</time></trkpt><trkpt lat="40.408008630815516" lon="15.167725107723431"><ele>844.6666666666667</ele><time>2026-04-19T08:35:19.999Z</time></trkpt><trkpt lat="40.40787153711246" lon="15.167695434861088"><ele>843.3333333333334</ele><time>2026-04-19T08:35:20.999Z</time></trkpt><trkpt lat="40.407720919480425" lon="15.167686423158605"><ele>842.0</ele><time>2026-04-19T08:35:21.999Z</time></trkpt><trkpt lat="40.407555400014395" lon="15.167671207699696"><ele>842.0</ele><time>2026-04-19T08:35:22.999Z</time></trkpt><trkpt lat="40.40739518817988" lon="15.16767822926525"><ele>842.0</ele><time>2026-04-19T08:35:23.999Z</time></trkpt><trkpt lat="40.40724012428456" lon="15.1676997913692"><ele>842.0</ele><time>2026-04-19T08:35:24.999Z</time></trkpt><trkpt lat="40.40709404999067" lon="15.167755987395369"><ele>847.6666666666667</ele><time>2026-04-19T08:35:25.999Z</time></trkpt><trkpt lat="40.40695588592186" lon="15.167873599273456"><ele>853.3333333333333</ele><time>2026-04-19T08:35:26.999Z</time></trkpt><trkpt lat="40.4068095021635" lon="15.1679775767731"><ele>859.0</ele><time>2026-04-19T08:35:27.999Z</time></trkpt><trkpt lat="40.40667710467333" lon="15.168075816653861"><ele>859.0</ele><time>2026-04-19T08:35:28.999Z</time></trkpt><trkpt lat="40.406551109036414" lon="15.168156673098"><ele>859.0</ele><time>2026-04-19T08:35:29.999Z</time></trkpt><trkpt lat="40.406424613707806" lon="15.168226449790675"><ele>859.0</ele><time>2026-04-19T08:35:30.999Z</time></trkpt><trkpt lat="40.40628669879601" lon="15.168267474596483"><ele>859.0</ele><time>2026-04-19T08:35:31.999Z</time></trkpt><trkpt lat="40.40614887766004" lon="15.168316473300191"><ele>859.3333333333333</ele><time>2026-04-19T08:35:32.999Z</time></trkpt><trkpt lat="40.40600014616996" lon="15.168372970455595"><ele>859.6666666666667</ele><time>2026-04-19T08:35:33.999Z</time></trkpt><trkpt lat="40.40585742537501" lon="15.168453035401997"><ele>860.0</ele><time>2026-04-19T08:35:34.999Z</time></trkpt><trkpt lat="40.405703969812116" lon="15.168520278346447"><ele>860.0</ele><time>2026-04-19T08:35:35.999Z</time></trkpt><trkpt lat="40.405540238055444" lon="15.168571567929838"><ele>860.0</ele><time>2026-04-19T08:35:37Z</time></trkpt><trkpt lat="40.40537410949294" lon="15.16864304415669"><ele>860.0</ele><time>2026-04-19T08:35:38Z</time></trkpt><trkpt lat="40.40520498051419" lon="15.168719928985146"><ele>856.6666666666667</ele><time>2026-04-19T08:35:39Z</time></trkpt><trkpt lat="40.40504508981311" lon="15.168829986202155"><ele>853.3333333333333</ele><time>2026-04-19T08:35:40Z</time></trkpt><trkpt lat="40.40490522293465" lon="15.168970239460666"><ele>850.0</ele><time>2026-04-19T08:35:41Z</time></trkpt><trkpt lat="40.404761131929554" lon="15.169067489366865"><ele>859.75</ele><time>2026-04-19T08:35:42Z</time></trkpt><trkpt lat="40.40464437929013" lon="15.169148696748657"><ele>869.5</ele><time>2026-04-19T08:35:43Z</time></trkpt><trkpt lat="40.40455953481643" lon="15.169238671002926"><ele>879.25</ele><time>2026-04-19T08:35:44Z</time></trkpt><trkpt lat="40.40450767435684" lon="15.169377132201415"><ele>889.0</ele><time>2026-04-19T08:35:45Z</time></trkpt><trkpt lat="40.404444591452155" lon="15.169527555454701"><ele>889.0</ele><time>2026-04-19T08:35:46Z</time></trkpt><trkpt lat="40.40438557291086" lon="15.169704888190408"><ele>889.0</ele><time>2026-04-19T08:35:47Z</time></trkpt><trkpt lat="40.4043088800451" lon="15.16985737780447"><ele>889.0</ele><time>2026-04-19T08:35:48Z</time></trkpt><trkpt lat="40.40422699245377" lon="15.169962670423486"><ele>889.0</ele><time>2026-04-19T08:35:49Z</time></trkpt><trkpt lat="40.40413222660744" lon="15.17004376937614"><ele>888.5</ele><time>2026-04-19T08:35:50Z</time></trkpt><trkpt lat="40.404015959856" lon="15.170122468083422"><ele>888.0</ele><time>2026-04-19T08:35:51Z</time></trkpt><trkpt lat="40.403889955190415" lon="15.170210793155986"><ele>887.5</ele><time>2026-04-19T08:35:52Z</time></trkpt><trkpt lat="40.40376769525641" lon="15.170296250032218"><ele>887.0</ele><time>2026-04-19T08:35:53Z</time></trkpt><trkpt lat="40.40365479917412" lon="15.170370487871853"><ele>887.0</ele><time>2026-04-19T08:35:54Z</time></trkpt><trkpt lat="40.40355857769478" lon="15.170432881191433"><ele>887.0</ele><time>2026-04-19T08:35:55Z</time></trkpt><trkpt lat="40.403472836045204" lon="15.170510490251193"><ele>887.0</ele><time>2026-04-19T08:35:56Z</time></trkpt><trkpt lat="40.403389603956235" lon="15.170559034114639"><ele>887.0</ele><time>2026-04-19T08:35:57Z</time></trkpt><trkpt lat="40.40329732144423" lon="15.170603286134138"><ele>887.0</ele><time>2026-04-19T08:35:58Z</time></trkpt><trkpt lat="40.4032042318129" lon="15.170662186843497"><ele>885.6</ele><time>2026-04-19T08:35:59Z</time></trkpt><trkpt lat="40.40311120619692" lon="15.17072106404018"><ele>884.2</ele><time>2026-04-19T08:36:00Z</time></trkpt><trkpt lat="40.403031054952066" lon="15.170795729724567"><ele>882.8</ele><time>2026-04-19T08:36:01Z</time></trkpt><trkpt lat="40.40293625014446" lon="15.170849653883698"><ele>881.4</ele><time>2026-04-19T08:36:02Z</time></trkpt><trkpt lat="40.40284171996233" lon="15.170908466847202"><ele>880.0</ele><time>2026-04-19T08:36:03Z</time></trkpt><trkpt lat="40.40274393933403" lon="15.170973109843874"><ele>880.0</ele><time>2026-04-19T08:36:04Z</time></trkpt><trkpt lat="40.40264159118921" lon="15.171030002552799"><ele>880.0</ele><time>2026-04-19T08:36:05Z</time></trkpt><trkpt lat="40.402538114326745" lon="15.171096382526732"><ele>880.0</ele><time>2026-04-19T08:36:06Z</time></trkpt><trkpt lat="40.40243306914536" lon="15.171161191879714"><ele>880.0</ele><time>2026-04-19T08:36:07Z</time></trkpt><trkpt lat="40.40232522221378" lon="15.171228212344342"><ele>880.0</ele><time>2026-04-19T08:36:08Z</time></trkpt><trkpt lat="40.40221924913936" lon="15.171301188417333"><ele>880.0</ele><time>2026-04-19T08:36:09Z</time></trkpt><trkpt lat="40.4021210337023" lon="15.171397608584725"><ele>880.0</ele><time>2026-04-19T08:36:10Z</time></trkpt><trkpt lat="40.402037769300264" lon="15.171479256207943"><ele>880.0</ele><time>2026-04-19T08:36:11Z</time></trkpt><trkpt lat="40.40195782822622" lon="15.171551974879725"><ele>880.0</ele><time>2026-04-19T08:36:12Z</time></trkpt><trkpt lat="40.401868013654116" lon="15.171635714094558"><ele>878.4</ele><time>2026-04-19T08:36:13Z</time></trkpt><trkpt lat="40.40177412204339" lon="15.171714009090271"><ele>876.8</ele><time>2026-04-19T08:36:14Z</time></trkpt><trkpt lat="40.40168802795236" lon="15.171765834202745"><ele>875.2</ele><time>2026-04-19T08:36:15Z</time></trkpt><trkpt lat="40.40159589802501" lon="15.171782018020808"><ele>873.6</ele><time>2026-04-19T08:36:16Z</time></trkpt><trkpt lat="40.40150436527057" lon="15.17176962003233"><ele>872.0</ele><time>2026-04-19T08:36:17Z</time></trkpt><trkpt lat="40.40142386984946" lon="15.171715464556067"><ele>872.0</ele><time>2026-04-19T08:36:18Z</time></trkpt><trkpt lat="40.40136123589251" lon="15.171609843840663"><ele>872.0</ele><time>2026-04-19T08:36:19Z</time></trkpt><trkpt lat="40.40127040508216" lon="15.171514461636566"><ele>872.0</ele><time>2026-04-19T08:36:20Z</time></trkpt><trkpt lat="40.4011865863073" lon="15.171416935350408"><ele>872.0</ele><time>2026-04-19T08:36:21Z</time></trkpt><trkpt lat="40.4010917586921" lon="15.171349478436994"><ele>872.0</ele><time>2026-04-19T08:36:22Z</time></trkpt><trkpt lat="40.40099675182256" lon="15.171307279285566"><ele>873.0</ele><time>2026-04-19T08:36:23Z</time></trkpt><trkpt lat="40.40092196203764" lon="15.171297316410657"><ele>874.0</ele><time>2026-04-19T08:36:24Z</time></trkpt><trkpt lat="40.400833026788334" lon="15.171378702655849"><ele>875.0</ele><time>2026-04-19T08:36:26Z</time></trkpt><trkpt lat="40.4007822321755" lon="15.171480325379797"><ele>876.0</ele><time>2026-04-19T08:36:27Z</time></trkpt><trkpt lat="40.40075260493218" lon="15.171611502911018"><ele>877.0</ele><time>2026-04-19T08:36:28Z</time></trkpt><trkpt lat="40.40073656091871" lon="15.171754719587295"><ele>877.0</ele><time>2026-04-19T08:36:29Z</time></trkpt><trkpt lat="40.40072025822995" lon="15.171923060410034"><ele>877.0</ele><time>2026-04-19T08:36:30Z</time></trkpt><trkpt lat="40.40068445547713" lon="15.172100441121213"><ele>877.0</ele><time>2026-04-19T08:36:31Z</time></trkpt><trkpt lat="40.400681309145206" lon="15.172298894146971"><ele>877.0</ele><time>2026-04-19T08:36:32Z</time></trkpt><trkpt lat="40.40067944414692" lon="15.172486068583057"><ele>877.0</ele><time>2026-04-19T08:36:33Z</time></trkpt><trkpt lat="40.40065966962314" lon="15.172673313453785"><ele>877.0</ele><time>2026-04-19T08:36:34Z</time></trkpt><trkpt lat="40.40063380752251" lon="15.172843524148906"><ele>877.0</ele><time>2026-04-19T08:36:35Z</time></trkpt><trkpt lat="40.4005951500651" lon="15.173002229587386"><ele>877.0</ele><time>2026-04-19T08:36:36Z</time></trkpt><trkpt lat="40.40055253256592" lon="15.17313261776889"><ele>876.3333333333333</ele><time>2026-04-19T08:36:37Z</time></trkpt><trkpt lat="40.40050617532488" lon="15.17324184273288"><ele>875.6666666666666</ele><time>2026-04-19T08:36:38Z</time></trkpt><trkpt lat="40.40044681948596" lon="15.173320944520613"><ele>875.0</ele><time>2026-04-19T08:36:39Z</time></trkpt><trkpt lat="40.40038968797698" lon="15.17336673371417"><ele>874.3333333333333</ele><time>2026-04-19T08:36:40Z</time></trkpt><trkpt lat="40.4003202530385" lon="15.173365909632041"><ele>873.6666666666666</ele><time>2026-04-19T08:36:41Z</time></trkpt><trkpt lat="40.40023373129999" lon="15.173336697427544"><ele>873.0</ele><time>2026-04-19T08:36:42Z</time></trkpt><trkpt lat="40.40012663610246" lon="15.173284939838505"><ele>876.5</ele><time>2026-04-19T08:36:43Z</time></trkpt><trkpt lat="40.400015155166805" lon="15.173213460015175"><ele>880.0</ele><time>2026-04-19T08:36:44Z</time></trkpt><trkpt lat="40.399890186269054" lon="15.17316210234684"><ele>883.5</ele><time>2026-04-19T08:36:45Z</time></trkpt><trkpt lat="40.39974164324584" lon="15.173169518540227"><ele>887.0</ele><time>2026-04-19T08:36:46Z</time></trkpt><trkpt lat="40.39958569091879" lon="15.173142733044406"><ele>895.75</ele><time>2026-04-19T08:36:47Z</time></trkpt><trkpt lat="40.399433022140414" lon="15.173121152999874"><ele>904.5</ele><time>2026-04-19T08:36:48Z</time></trkpt><trkpt lat="40.39929857114515" lon="15.173106382088806"><ele>913.25</ele><time>2026-04-19T08:36:49Z</time></trkpt><trkpt lat="40.399172976725005" lon="15.173109091935935"><ele>922.0</ele><time>2026-04-19T08:36:50Z</time></trkpt><trkpt lat="40.39906333651247" lon="15.173148307571456"><ele>917.8</ele><time>2026-04-19T08:36:51Z</time></trkpt><trkpt lat="40.39897450360634" lon="15.17319377484819"><ele>913.6</ele><time>2026-04-19T08:36:52Z</time></trkpt><trkpt lat="40.398894254244674" lon="15.173253224377776"><ele>909.3999999999999</ele><time>2026-04-19T08:36:54Z</time></trkpt><trkpt lat="40.39881870444059" lon="15.173285207607762"><ele>905.1999999999999</ele><time>2026-04-19T08:36:57Z</time></trkpt><trkpt lat="40.39870796962368" lon="15.173355721672097"><ele>901.0</ele><time>2026-04-19T08:37:25Z</time></trkpt><trkpt lat="40.39864845064911" lon="15.173393622352995"><ele>900.9999999999999</ele><time>2026-04-19T08:37:26Z</time></trkpt><trkpt lat="40.39857967406182" lon="15.173437418122443"><ele>901.0</ele><time>2026-04-19T08:37:27Z</time></trkpt><trkpt lat="40.39850215594965" lon="15.173480368506882"><ele>901.0</ele><time>2026-04-19T08:37:28Z</time></trkpt><trkpt lat="40.39842061339229" lon="15.173515566792393"><ele>901.0</ele><time>2026-04-19T08:37:29Z</time></trkpt><trkpt lat="40.39834704818461" lon="15.173541791334864"><ele>900.9999999999999</ele><time>2026-04-19T08:37:30Z</time></trkpt><trkpt lat="40.39826620855152" lon="15.173517869593253"><ele>901.0</ele><time>2026-04-19T08:37:31Z</time></trkpt><trkpt lat="40.398188022078024" lon="15.173458047958379"><ele>901.0</ele><time>2026-04-19T08:37:32Z</time></trkpt><trkpt lat="40.398102067861956" lon="15.173381534715386"><ele>900.9999999999999</ele><time>2026-04-19T08:37:33Z</time></trkpt><trkpt lat="40.39801445463307" lon="15.17329466583037"><ele>900.9999999999999</ele><time>2026-04-19T08:37:34Z</time></trkpt><trkpt lat="40.39793153287885" lon="15.173216467825197"><ele>901.0</ele><time>2026-04-19T08:37:35Z</time></trkpt><trkpt lat="40.39784506031791" lon="15.17314609338977"><ele>901.0</ele><time>2026-04-19T08:37:36Z</time></trkpt><trkpt lat="40.39776020026933" lon="15.173080772925063"><ele>902.0</ele><time>2026-04-19T08:37:36.999Z</time></trkpt><trkpt lat="40.3976876793201" lon="15.173035932515711"><ele>902.9999999999999</ele><time>2026-04-19T08:37:37.999Z</time></trkpt><trkpt lat="40.39762118162026" lon="15.172960952962816"><ele>903.9999999999999</ele><time>2026-04-19T08:37:39.999Z</time></trkpt><trkpt lat="40.3974601854938" lon="15.172983949328195"><ele>905.0</ele><time>2026-04-19T08:37:41.999Z</time></trkpt><trkpt lat="40.39736992235681" lon="15.17297172928997"><ele>906.0</ele><time>2026-04-19T08:37:43Z</time></trkpt><trkpt lat="40.39729852788713" lon="15.172924480138784"><ele>906.0</ele><time>2026-04-19T08:37:44Z</time></trkpt><trkpt lat="40.3972345512816" lon="15.172868142862072"><ele>906.0</ele><time>2026-04-19T08:37:45Z</time></trkpt><trkpt lat="40.39718417282884" lon="15.172812489081448"><ele>906.0</ele><time>2026-04-19T08:37:46Z</time></trkpt><trkpt lat="40.397106740083444" lon="15.172765662123696"><ele>906.0</ele><time>2026-04-19T08:37:48Z</time></trkpt><trkpt lat="40.39705218120409" lon="15.172902305841426"><ele>906.0</ele><time>2026-04-19T08:37:51Z</time></trkpt><trkpt lat="40.39713564285921" lon="15.172979573992112"><ele>906.0</ele><time>2026-04-19T08:37:52Z</time></trkpt><trkpt lat="40.39719463667116" lon="15.173082528471058"><ele>906.0</ele><time>2026-04-19T08:37:53Z</time></trkpt><trkpt lat="40.39726308400849" lon="15.173152131630228"><ele>906.0</ele><time>2026-04-19T08:37:54Z</time></trkpt><trkpt lat="40.39731706042878" lon="15.173222175132803"><ele>906.0</ele><time>2026-04-19T08:37:55Z</time></trkpt><trkpt lat="40.39739183439308" lon="15.173308987303882"><ele>906.0</ele><time>2026-04-19T08:37:57Z</time></trkpt><trkpt lat="40.39730886593085" lon="15.173259912048511"><ele>906.0</ele><time>2026-04-19T08:38:02Z</time></trkpt><trkpt lat="40.39725713128577" lon="15.173202320478747"><ele>906.0</ele><time>2026-04-19T08:38:03Z</time></trkpt><trkpt lat="40.39718702027633" lon="15.173122607302052"><ele>901.8</ele><time>2026-04-19T08:38:04Z</time></trkpt><trkpt lat="40.397147178477304" lon="15.17303855122503"><ele>897.5999999999999</ele><time>2026-04-19T08:38:05Z</time></trkpt><trkpt lat="40.39699731515085" lon="15.173051709031244"><ele>893.4</ele><time>2026-04-19T08:38:06Z</time></trkpt><trkpt lat="40.39694636089453" lon="15.172996943955997"><ele>889.2</ele><time>2026-04-19T08:38:07Z</time></trkpt><trkpt lat="40.3968568172372" lon="15.172951233682566"><ele>885.0</ele><time>2026-04-19T08:38:09Z</time></trkpt><trkpt lat="40.39675951665959" lon="15.17308884413281"><ele>885.0</ele><time>2026-04-19T08:38:12Z</time></trkpt><trkpt lat="40.396812211346464" lon="15.173178342132383"><ele>885.0</ele><time>2026-04-19T08:38:13Z</time></trkpt><trkpt lat="40.396871864744384" lon="15.173341894089663"><ele>885.0</ele><time>2026-04-19T08:38:15Z</time></trkpt><trkpt lat="40.39690274679188" lon="15.173467026687906"><ele>885.0</ele><time>2026-04-19T08:38:16Z</time></trkpt><trkpt lat="40.39693185236718" lon="15.173604563275466"><ele>885.0</ele><time>2026-04-19T08:38:17Z</time></trkpt><trkpt lat="40.396969640622444" lon="15.173723616324915"><ele>883.3333333333334</ele><time>2026-04-19T08:38:18Z</time></trkpt><trkpt lat="40.396975872410344" lon="15.173833128481457"><ele>881.6666666666667</ele><time>2026-04-19T08:38:19Z</time></trkpt><trkpt lat="40.39698757341289" lon="15.173930420451645"><ele>880.0</ele><time>2026-04-19T08:38:20Z</time></trkpt><trkpt lat="40.397010453270205" lon="15.174020634988608"><ele>878.3333333333334</ele><time>2026-04-19T08:38:21Z</time></trkpt><trkpt lat="40.397049870709914" lon="15.174121200736556"><ele>876.6666666666667</ele><time>2026-04-19T08:38:23Z</time></trkpt><trkpt lat="40.39711849955914" lon="15.174168911299077"><ele>875.0</ele><time>2026-04-19T08:38:24Z</time></trkpt><trkpt lat="40.397188044855014" lon="15.174209584565645"><ele>875.0</ele><time>2026-04-19T08:38:25Z</time></trkpt><trkpt lat="40.39724965526905" lon="15.174264032579764"><ele>875.0</ele><time>2026-04-19T08:38:27Z</time></trkpt><trkpt lat="40.39725103093605" lon="15.174354177975724"><ele>875.0</ele><time>2026-04-19T08:38:29Z</time></trkpt><trkpt lat="40.39719612836159" lon="15.17454479707421"><ele>875.0</ele><time>2026-04-19T08:38:31Z</time></trkpt><trkpt lat="40.39715950885613" lon="15.174648714409045"><ele>875.0</ele><time>2026-04-19T08:38:32Z</time></trkpt><trkpt lat="40.39711652184807" lon="15.174737692267835"><ele>872.0000000000001</ele><time>2026-04-19T08:38:33Z</time></trkpt><trkpt lat="40.39706742427325" lon="15.17483046249926"><ele>869.0</ele><time>2026-04-19T08:38:34Z</time></trkpt><trkpt lat="40.39702653559008" lon="15.174925937703911"><ele>866.0</ele><time>2026-04-19T08:38:35Z</time></trkpt><trkpt lat="40.396969721380124" lon="15.175005775922141"><ele>863.0</ele><time>2026-04-19T08:38:36Z</time></trkpt><trkpt lat="40.396940943875926" lon="15.17508738363399"><ele>860.0000000000001</ele><time>2026-04-19T08:38:37Z</time></trkpt><trkpt lat="40.396932360950615" lon="15.175212186021003"><ele>857.0</ele><time>2026-04-19T08:38:39Z</time></trkpt><trkpt lat="40.39695502633778" lon="15.175349195667252"><ele>857.6</ele><time>2026-04-19T08:38:40Z</time></trkpt><trkpt lat="40.39699856724072" lon="15.175499050638624"><ele>858.2</ele><time>2026-04-19T08:38:41Z</time></trkpt><trkpt lat="40.39704712419468" lon="15.175624716293683"><ele>858.8</ele><time>2026-04-19T08:38:42Z</time></trkpt><trkpt lat="40.39708441578379" lon="15.175748903359226"><ele>859.4</ele><time>2026-04-19T08:38:43Z</time></trkpt><trkpt lat="40.39717100818687" lon="15.17584894237905"><ele>860.0</ele><time>2026-04-19T08:38:45Z</time></trkpt><trkpt lat="40.39725793010105" lon="15.175917846455668"><ele>860.0000000000001</ele><time>2026-04-19T08:38:46Z</time></trkpt><trkpt lat="40.39733927398082" lon="15.175962751259974"><ele>860.0</ele><time>2026-04-19T08:38:47Z</time></trkpt><trkpt lat="40.39743347701024" lon="15.176006857795231"><ele>860.0</ele><time>2026-04-19T08:38:48Z</time></trkpt><trkpt lat="40.3975125305322" lon="15.176043533068727"><ele>860.0</ele><time>2026-04-19T08:38:49Z</time></trkpt><trkpt lat="40.39757922270491" lon="15.176081585725404"><ele>860.0000000000001</ele><time>2026-04-19T08:38:50Z</time></trkpt><trkpt lat="40.39764085009112" lon="15.176121360497065"><ele>860.0</ele><time>2026-04-19T08:38:52Z</time></trkpt><trkpt lat="40.39766468053739" lon="15.176328372620585"><ele>860.0</ele><time>2026-04-19T08:38:55Z</time></trkpt><trkpt lat="40.39766110154259" lon="15.176458670305525"><ele>860.0</ele><time>2026-04-19T08:38:56Z</time></trkpt><trkpt lat="40.39764805685162" lon="15.176603920636005"><ele>860.0</ele><time>2026-04-19T08:38:57Z</time></trkpt><trkpt lat="40.39766956671912" lon="15.176702319994112"><ele>860.0</ele><time>2026-04-19T08:38:58Z</time></trkpt><trkpt lat="40.397701996969666" lon="15.17682194163209"><ele>860.0</ele><time>2026-04-19T08:39:00Z</time></trkpt><trkpt lat="40.39772394011086" lon="15.176973288362026"><ele>858.5000000000001</ele><time>2026-04-19T08:39:11Z</time></trkpt><trkpt lat="40.39773130272022" lon="15.177088732356152"><ele>857.0</ele><time>2026-04-19T08:39:13Z</time></trkpt><trkpt lat="40.39774607185543" lon="15.177189820941836"><ele>855.5</ele><time>2026-04-19T08:39:14Z</time></trkpt><trkpt lat="40.39775990244829" lon="15.177319601543482"><ele>854.0</ele><time>2026-04-19T08:39:15Z</time></trkpt><trkpt lat="40.39776517663138" lon="15.177439130524597"><ele>852.5000000000001</ele><time>2026-04-19T08:39:16Z</time></trkpt><trkpt lat="40.397761378051335" lon="15.177536187806512"><ele>851.0</ele><time>2026-04-19T08:39:17Z</time></trkpt><trkpt lat="40.397752135549204" lon="15.177633577881858"><ele>850.5000000000001</ele><time>2026-04-19T08:39:18Z</time></trkpt><trkpt lat="40.39775449340248" lon="15.177742620929646"><ele>850.0</ele><time>2026-04-19T08:39:19Z</time></trkpt><trkpt lat="40.39772885557833" lon="15.17782198911146"><ele>849.5</ele><time>2026-04-19T08:39:20Z</time></trkpt><trkpt lat="40.39770180081747" lon="15.177947213164556"><ele>849.0</ele><time>2026-04-19T08:39:21Z</time></trkpt><trkpt lat="40.39766478866737" lon="15.1780585524747"><ele>848.5000000000001</ele><time>2026-04-19T08:39:22Z</time></trkpt><trkpt lat="40.397630534258056" lon="15.178175832154734"><ele>848.0</ele><time>2026-04-19T08:39:23Z</time></trkpt><trkpt lat="40.39759394476077" lon="15.178335564564437"><ele>847.75</ele><time>2026-04-19T08:39:24Z</time></trkpt><trkpt lat="40.397561358024674" lon="15.178456534179476"><ele>847.5</ele><time>2026-04-19T08:39:25Z</time></trkpt><trkpt lat="40.39752420497639" lon="15.178618115969039"><ele>847.25</ele><time>2026-04-19T08:39:26Z</time></trkpt><trkpt lat="40.39749814249939" lon="15.178770206560342"><ele>847.0</ele><time>2026-04-19T08:39:27Z</time></trkpt><trkpt lat="40.397474404596196" lon="15.178933953321954"><ele>848.0</ele><time>2026-04-19T08:39:28Z</time></trkpt><trkpt lat="40.397465886466044" lon="15.179083063098487"><ele>849.0</ele><time>2026-04-19T08:39:29Z</time></trkpt><trkpt lat="40.39745644699233" lon="15.179225294378918"><ele>850.0</ele><time>2026-04-19T08:39:30Z</time></trkpt><trkpt lat="40.39743422512713" lon="15.179381212594908"><ele>851.0</ele><time>2026-04-19T08:39:31Z</time></trkpt><trkpt lat="40.397404918130725" lon="15.179542696472014"><ele>851.0</ele><time>2026-04-19T08:39:32Z</time></trkpt><trkpt lat="40.397393799579106" lon="15.179684061152418"><ele>851.0</ele><time>2026-04-19T08:39:33Z</time></trkpt><trkpt lat="40.397378595523506" lon="15.179809253218291"><ele>851.0</ele><time>2026-04-19T08:39:34Z</time></trkpt><trkpt lat="40.39735632580189" lon="15.179951215401612"><ele>851.0</ele><time>2026-04-19T08:39:35Z</time></trkpt><trkpt lat="40.39733066786581" lon="15.180084841308574"><ele>851.0</ele><time>2026-04-19T08:39:36Z</time></trkpt><trkpt lat="40.397301339631575" lon="15.180195257246687"><ele>850.8</ele><time>2026-04-19T08:39:37Z</time></trkpt><trkpt lat="40.397304790189395" lon="15.180321010821578"><ele>850.5999999999999</ele><time>2026-04-19T08:39:39Z</time></trkpt><trkpt lat="40.3974354268576" lon="15.180400028399658"><ele>850.4</ele><time>2026-04-19T08:39:41Z</time></trkpt><trkpt lat="40.397533853403715" lon="15.180422710508125"><ele>850.2</ele><time>2026-04-19T08:39:42Z</time></trkpt><trkpt lat="40.39763767049813" lon="15.180444773224691"><ele>850.0</ele><time>2026-04-19T08:39:43Z</time></trkpt><trkpt lat="40.397741272329505" lon="15.180466890634587"><ele>850.0</ele><time>2026-04-19T08:39:44Z</time></trkpt><trkpt lat="40.39783831625326" lon="15.180483202784464"><ele>850.0</ele><time>2026-04-19T08:39:45Z</time></trkpt><trkpt lat="40.39792826106614" lon="15.180495509545446"><ele>850.0</ele><time>2026-04-19T08:39:46Z</time></trkpt><trkpt lat="40.398024444761006" lon="15.180479542530934"><ele>850.0</ele><time>2026-04-19T08:39:47Z</time></trkpt><trkpt lat="40.398111294907615" lon="15.180459271512321"><ele>850.0</ele><time>2026-04-19T08:39:48Z</time></trkpt><trkpt lat="40.39821863321734" lon="15.180438497546854"><ele>849.6666666666666</ele><time>2026-04-19T08:39:50Z</time></trkpt><trkpt lat="40.39819610659431" lon="15.18056861693717"><ele>849.3333333333333</ele><time>2026-04-19T08:39:53Z</time></trkpt><trkpt lat="40.398143761613866" lon="15.18064028920088"><ele>849.0</ele><time>2026-04-19T08:39:54Z</time></trkpt><trkpt lat="40.398095928530424" lon="15.180710159155884"><ele>848.6666666666667</ele><time>2026-04-19T08:39:55Z</time></trkpt><trkpt lat="40.39806967783398" lon="15.180834718680543"><ele>848.3333333333334</ele><time>2026-04-19T08:39:57Z</time></trkpt><trkpt lat="40.39810417776728" lon="15.180914945955458"><ele>848.0</ele><time>2026-04-19T08:39:58Z</time></trkpt><trkpt lat="40.39818955229003" lon="15.180947420546572"><ele>844.5000000000001</ele><time>2026-04-19T08:39:59Z</time></trkpt><trkpt lat="40.398271844037396" lon="15.18091155456542"><ele>841.0</ele><time>2026-04-19T08:40:00Z</time></trkpt><trkpt lat="40.39833717202594" lon="15.18084574252966"><ele>837.5</ele><time>2026-04-19T08:40:01Z</time></trkpt><trkpt lat="40.398403678954075" lon="15.180829076798446"><ele>834.0</ele><time>2026-04-19T08:40:03Z</time></trkpt><trkpt lat="40.39847416422969" lon="15.180945733866206"><ele>830.5000000000001</ele><time>2026-04-19T08:40:05Z</time></trkpt><trkpt lat="40.39845949461731" lon="15.1810488146731"><ele>827.0</ele><time>2026-04-19T08:40:06Z</time></trkpt><trkpt lat="40.398449650986066" lon="15.181192317818596"><ele>827.0000000000001</ele><time>2026-04-19T08:40:07Z</time></trkpt><trkpt lat="40.39849136097334" lon="15.18130115443881"><ele>827.0</ele><time>2026-04-19T08:40:09Z</time></trkpt><trkpt lat="40.39852786649123" lon="15.181371828648475"><ele>827.0</ele><time>2026-04-19T08:40:10Z</time></trkpt><trkpt lat="40.39862320936957" lon="15.181439350322666"><ele>827.0</ele><time>2026-04-19T08:40:11Z</time></trkpt><trkpt lat="40.398692691031584" lon="15.181525129686058"><ele>827.0000000000001</ele><time>2026-04-19T08:40:12Z</time></trkpt><trkpt lat="40.39874347604713" lon="15.18160657230774"><ele>827.0</ele><time>2026-04-19T08:40:13Z</time></trkpt><trkpt lat="40.39882041077445" lon="15.181697591472878"><ele>821.6</ele><time>2026-04-19T08:40:15Z</time></trkpt><trkpt lat="40.398903599694265" lon="15.18175472515201"><ele>816.2</ele><time>2026-04-19T08:40:16Z</time></trkpt><trkpt lat="40.39900089899598" lon="15.181750516602023"><ele>810.8</ele><time>2026-04-19T08:40:17Z</time></trkpt><trkpt lat="40.3990925542508" lon="15.181764714881181"><ele>805.4</ele><time>2026-04-19T08:40:18Z</time></trkpt><trkpt lat="40.399176960054504" lon="15.18182444422175"><ele>800.0</ele><time>2026-04-19T08:40:19Z</time></trkpt><trkpt lat="40.39924887861931" lon="15.181868358303378"><ele>800.0000000000001</ele><time>2026-04-19T08:40:20Z</time></trkpt><trkpt lat="40.399318321687105" lon="15.181930495784583"><ele>800.0</ele><time>2026-04-19T08:40:21Z</time></trkpt><trkpt lat="40.399378476098896" lon="15.18198834318669"><ele>800.0</ele><time>2026-04-19T08:40:22Z</time></trkpt><trkpt lat="40.39938958678422" lon="15.182086768782801"><ele>800.0</ele><time>2026-04-19T08:40:23Z</time></trkpt><trkpt lat="40.399375284971114" lon="15.182196166898217"><ele>800.0000000000001</ele><time>2026-04-19T08:40:24Z</time></trkpt><trkpt lat="40.39933470041435" lon="15.182313072404769"><ele>800.0</ele><time>2026-04-19T08:40:25Z</time></trkpt><trkpt lat="40.39928212574785" lon="15.182411977067526"><ele>797.4</ele><time>2026-04-19T08:40:26Z</time></trkpt><trkpt lat="40.39922173448233" lon="15.182483444149526"><ele>794.8</ele><time>2026-04-19T08:40:27Z</time></trkpt><trkpt lat="40.399127527648155" lon="15.182514736897364"><ele>792.2</ele><time>2026-04-19T08:40:28Z</time></trkpt><trkpt lat="40.39904679045037" lon="15.182545801018966"><ele>789.6</ele><time>2026-04-19T08:40:29Z</time></trkpt><trkpt lat="40.398951686826976" lon="15.182516657668806"><ele>787.0</ele><time>2026-04-19T08:40:30Z</time></trkpt><trkpt lat="40.39885395676842" lon="15.182527642112506"><ele>786.9999999999999</ele><time>2026-04-19T08:40:31Z</time></trkpt><trkpt lat="40.39879381823119" lon="15.182571605056125"><ele>787.0</ele><time>2026-04-19T08:40:32Z</time></trkpt><trkpt lat="40.39874606710479" lon="15.18263012461277"><ele>787.0</ele><time>2026-04-19T08:40:33Z</time></trkpt><trkpt lat="40.39871741184264" lon="15.182705809806171"><ele>787.0</ele><time>2026-04-19T08:40:34Z</time></trkpt><trkpt lat="40.39872443775177" lon="15.182795506529951"><ele>786.9999999999999</ele><time>2026-04-19T08:40:35Z</time></trkpt><trkpt lat="40.398774546030516" lon="15.18293424355428"><ele>787.0</ele><time>2026-04-19T08:40:37Z</time></trkpt><trkpt lat="40.39887059306762" lon="15.182929917129092"><ele>786.9999999999999</ele><time>2026-04-19T08:40:38Z</time></trkpt><trkpt lat="40.39894538439694" lon="15.182867541264091"><ele>787.0</ele><time>2026-04-19T08:40:39Z</time></trkpt><trkpt lat="40.39902239701775" lon="15.182845059157982"><ele>787.0</ele><time>2026-04-19T08:40:40Z</time></trkpt><trkpt lat="40.399118834511505" lon="15.182851306701851"><ele>787.0</ele><time>2026-04-19T08:40:42Z</time></trkpt><trkpt lat="40.39918987438687" lon="15.182939980894115"><ele>786.9999999999999</ele><time>2026-04-19T08:40:44Z</time></trkpt><trkpt lat="40.39913635265528" lon="15.183027020399678"><ele>787.0</ele><time>2026-04-19T08:40:45Z</time></trkpt><trkpt lat="40.39912241359369" lon="15.183150536347311"><ele>783.2</ele><time>2026-04-19T08:40:46Z</time></trkpt><trkpt lat="40.39909780383321" lon="15.183286293183547"><ele>779.4000000000001</ele><time>2026-04-19T08:40:47Z</time></trkpt><trkpt lat="40.39907923703022" lon="15.183412205249246"><ele>775.5999999999999</ele><time>2026-04-19T08:40:48Z</time></trkpt><trkpt lat="40.399076790704875" lon="15.183550691618432"><ele>771.8</ele><time>2026-04-19T08:40:49Z</time></trkpt><trkpt lat="40.39906774093042" lon="15.183658263293207"><ele>768.0</ele><time>2026-04-19T08:40:50Z</time></trkpt><trkpt lat="40.3990781017795" lon="15.183757078853567"><ele>768.0</ele><time>2026-04-19T08:40:51Z</time></trkpt><trkpt lat="40.39909116893446" lon="15.183845400801976"><ele>768.0</ele><time>2026-04-19T08:40:52Z</time></trkpt><trkpt lat="40.39914212695637" lon="15.18390339271787"><ele>768.0</ele><time>2026-04-19T08:40:53Z</time></trkpt><trkpt lat="40.39924174192256" lon="15.183952737534721"><ele>768.0</ele><time>2026-04-19T08:40:54Z</time></trkpt><trkpt lat="40.39933741601274" lon="15.184001000541029"><ele>768.0</ele><time>2026-04-19T08:40:55Z</time></trkpt><trkpt lat="40.39945893424335" lon="15.18402139843548"><ele>766.0</ele><time>2026-04-19T08:40:56Z</time></trkpt><trkpt lat="40.39956293745455" lon="15.184051214185025"><ele>764.0</ele><time>2026-04-19T08:40:57Z</time></trkpt><trkpt lat="40.39965158201073" lon="15.18409140592198"><ele>762.0</ele><time>2026-04-19T08:40:58Z</time></trkpt><trkpt lat="40.399724749343505" lon="15.18409552229249"><ele>760.0</ele><time>2026-04-19T08:40:59Z</time></trkpt><trkpt lat="40.39978710235112" lon="15.184065103205855"><ele>758.0</ele><time>2026-04-19T08:41:00Z</time></trkpt><trkpt lat="40.39983054151008" lon="15.183988716725139"><ele>756.0</ele><time>2026-04-19T08:41:01Z</time></trkpt><trkpt lat="40.39988384620917" lon="15.183928752095564"><ele>754.4</ele><time>2026-04-19T08:41:02Z</time></trkpt><trkpt lat="40.39992297291625" lon="15.183850048376753"><ele>752.8</ele><time>2026-04-19T08:41:03Z</time></trkpt><trkpt lat="40.399936109666506" lon="15.183748861304242"><ele>751.1999999999999</ele><time>2026-04-19T08:41:04Z</time></trkpt><trkpt lat="40.39990200429457" lon="15.183625851366351"><ele>749.5999999999999</ele><time>2026-04-19T08:41:05Z</time></trkpt><trkpt lat="40.399906443374775" lon="15.183484660639648"><ele>748.0</ele><time>2026-04-19T08:41:06Z</time></trkpt><trkpt lat="40.399898576667944" lon="15.18335342159739"><ele>748.0</ele><time>2026-04-19T08:41:07Z</time></trkpt><trkpt lat="40.399894218539195" lon="15.183243328049077"><ele>748.0</ele><time>2026-04-19T08:41:08Z</time></trkpt><trkpt lat="40.39992774132039" lon="15.183158088844452"><ele>748.0</ele><time>2026-04-19T08:41:09Z</time></trkpt><trkpt lat="40.39997057103608" lon="15.1830485918287"><ele>748.0</ele><time>2026-04-19T08:41:10Z</time></trkpt><trkpt lat="40.400021395041186" lon="15.182948615043802"><ele>748.0</ele><time>2026-04-19T08:41:11Z</time></trkpt><trkpt lat="40.40008670827624" lon="15.182866117925139"><ele>748.0</ele><time>2026-04-19T08:41:12Z</time></trkpt><trkpt lat="40.40016678301974" lon="15.182810864919023"><ele>750.5999999999999</ele><time>2026-04-19T08:41:13Z</time></trkpt><trkpt lat="40.40022673605015" lon="15.182739755725539"><ele>753.1999999999999</ele><time>2026-04-19T08:41:14Z</time></trkpt><trkpt lat="40.40028474782887" lon="15.182645580109266"><ele>755.8</ele><time>2026-04-19T08:41:15Z</time></trkpt><trkpt lat="40.40034636931368" lon="15.182516339478257"><ele>758.4</ele><time>2026-04-19T08:41:16Z</time></trkpt><trkpt lat="40.400395025833156" lon="15.182411132204633"><ele>761.0</ele><time>2026-04-19T08:41:17Z</time></trkpt><trkpt lat="40.400442060903096" lon="15.182308457439321"><ele>762.1666666666666</ele><time>2026-04-19T08:41:18Z</time></trkpt><trkpt lat="40.40048043490358" lon="15.182223206137765"><ele>763.3333333333333</ele><time>2026-04-19T08:41:19Z</time></trkpt><trkpt lat="40.400516876739715" lon="15.182136594821628"><ele>764.5</ele><time>2026-04-19T08:41:20Z</time></trkpt><trkpt lat="40.40054428238574" lon="15.182048374863092"><ele>765.6666666666666</ele><time>2026-04-19T08:41:21Z</time></trkpt><trkpt lat="40.40055382319476" lon="15.181928330641064"><ele>766.8333333333334</ele><time>2026-04-19T08:41:22Z</time></trkpt><trkpt lat="40.40054076355052" lon="15.181818682151897"><ele>768.0</ele><time>2026-04-19T08:41:23Z</time></trkpt><trkpt lat="40.40052664543828" lon="15.181718470156536"><ele>759.4</ele><time>2026-04-19T08:41:24Z</time></trkpt><trkpt lat="40.40051729193821" lon="15.181615250627592"><ele>750.8</ele><time>2026-04-19T08:41:25Z</time></trkpt><trkpt lat="40.400513358397774" lon="15.181505933948198"><ele>742.2</ele><time>2026-04-19T08:41:26Z</time></trkpt><trkpt lat="40.400539933865296" lon="15.181365529490959"><ele>733.6</ele><time>2026-04-19T08:41:28Z</time></trkpt><trkpt lat="40.400611035195304" lon="15.18124778289443"><ele>725.0</ele><time>2026-04-19T08:41:30Z</time></trkpt><trkpt lat="40.40065413664971" lon="15.181178924480442"><ele>725.0</ele><time>2026-04-19T08:41:31Z</time></trkpt><trkpt lat="40.40071268098014" lon="15.181098308316761"><ele>725.0</ele><time>2026-04-19T08:41:32Z</time></trkpt><trkpt lat="40.4007739081149" lon="15.18102820021505"><ele>725.0</ele><time>2026-04-19T08:41:33Z</time></trkpt><trkpt lat="40.400853322854346" lon="15.180951746285725"><ele>725.0</ele><time>2026-04-19T08:41:34Z</time></trkpt><trkpt lat="40.40093975834945" lon="15.18088410224857"><ele>725.0</ele><time>2026-04-19T08:41:35Z</time></trkpt><trkpt lat="40.40099996020456" lon="15.180826472140792"><ele>725.0</ele><time>2026-04-19T08:41:36Z</time></trkpt><trkpt lat="40.40107859789619" lon="15.180668569181531"><ele>725.3333333333333</ele><time>2026-04-19T08:41:38Z</time></trkpt><trkpt lat="40.401085773460764" lon="15.18054134803813"><ele>725.6666666666666</ele><time>2026-04-19T08:41:39Z</time></trkpt><trkpt lat="40.40110395352076" lon="15.180445379809928"><ele>726.0</ele><time>2026-04-19T08:41:40Z</time></trkpt><trkpt lat="40.401187333501035" lon="15.180355445268045"><ele>726.3333333333334</ele><time>2026-04-19T08:41:42Z</time></trkpt><trkpt lat="40.40124394858854" lon="15.180314123912876"><ele>726.6666666666667</ele><time>2026-04-19T08:41:43Z</time></trkpt><trkpt lat="40.40130552218219" lon="15.180333091578436"><ele>727.0</ele><time>2026-04-19T08:41:44Z</time></trkpt><trkpt lat="40.40135388997507" lon="15.180399469143302"><ele>723.1666666666667</ele><time>2026-04-19T08:41:45Z</time></trkpt><trkpt lat="40.401387495185425" lon="15.180480651043908"><ele>719.3333333333334</ele><time>2026-04-19T08:41:46Z</time></trkpt><trkpt lat="40.401438888908814" lon="15.180597430232517"><ele>715.5</ele><time>2026-04-19T08:41:48Z</time></trkpt><trkpt lat="40.4015528587779" lon="15.180589716920515"><ele>711.6666666666666</ele><time>2026-04-19T08:41:50Z</time></trkpt><trkpt lat="40.401600714747524" lon="15.180482962518182"><ele>707.8333333333333</ele><time>2026-04-19T08:41:51Z</time></trkpt><trkpt lat="40.40163899709778" lon="15.180411680576512"><ele>704.0</ele><time>2026-04-19T08:41:52Z</time></trkpt><trkpt lat="40.40168549861551" lon="15.180247272778413"><ele>704.0</ele><time>2026-04-19T08:41:53Z</time></trkpt><trkpt lat="40.40172410468179" lon="15.180121236167626"><ele>704.0</ele><time>2026-04-19T08:41:54Z</time></trkpt><trkpt lat="40.40176968926295" lon="15.180005623298312"><ele>704.0</ele><time>2026-04-19T08:41:55Z</time></trkpt><trkpt lat="40.401818981634776" lon="15.179916463744616"><ele>704.0</ele><time>2026-04-19T08:41:56Z</time></trkpt><trkpt lat="40.40188388032609" lon="15.179839779491846"><ele>704.0</ele><time>2026-04-19T08:41:57Z</time></trkpt><trkpt lat="40.401938273794286" lon="15.179769480774109"><ele>704.2</ele><time>2026-04-19T08:41:58Z</time></trkpt><trkpt lat="40.402010318715064" lon="15.17973912820942"><ele>704.4000000000001</ele><time>2026-04-19T08:41:59Z</time></trkpt><trkpt lat="40.40210808875888" lon="15.179682188465794"><ele>704.6</ele><time>2026-04-19T08:42:01Z</time></trkpt><trkpt lat="40.40217787127954" lon="15.179784279438962"><ele>704.8</ele><time>2026-04-19T08:42:03Z</time></trkpt><trkpt lat="40.40221326716574" lon="15.179883800421317"><ele>705.0</ele><time>2026-04-19T08:42:04Z</time></trkpt><trkpt lat="40.40224308945866" lon="15.180027646460422"><ele>700.4</ele><time>2026-04-19T08:42:05Z</time></trkpt><trkpt lat="40.40230077526449" lon="15.180160956833186"><ele>695.8</ele><time>2026-04-19T08:42:06Z</time></trkpt><trkpt lat="40.40237201569341" lon="15.180283691603794"><ele>691.2</ele><time>2026-04-19T08:42:07Z</time></trkpt><trkpt lat="40.40244232200977" lon="15.18040115638212"><ele>686.6</ele><time>2026-04-19T08:42:08Z</time></trkpt><trkpt lat="40.402492505907354" lon="15.180516273990017"><ele>682.0</ele><time>2026-04-19T08:42:09Z</time></trkpt><trkpt lat="40.40253176783825" lon="15.180635418278994"><ele>681.6</ele><time>2026-04-19T08:42:10Z</time></trkpt><trkpt lat="40.402589524535856" lon="15.180762146758516"><ele>681.2</ele><time>2026-04-19T08:42:12Z</time></trkpt><trkpt lat="40.40254639371369" lon="15.180895867762993"><ele>680.8</ele><time>2026-04-19T08:42:14Z</time></trkpt><trkpt lat="40.40248584056731" lon="15.18097535747108"><ele>680.4</ele><time>2026-04-19T08:42:15Z</time></trkpt><trkpt lat="40.40243481208724" lon="15.181068702298125"><ele>680.0</ele><time>2026-04-19T08:42:16Z</time></trkpt><trkpt lat="40.402403263690736" lon="15.18116608673"><ele>680.0</ele><time>2026-04-19T08:42:17Z</time></trkpt><trkpt lat="40.40236743258991" lon="15.181238089098912"><ele>680.0</ele><time>2026-04-19T08:42:18Z</time></trkpt><trkpt lat="40.40238328407887" lon="15.181343272295035"><ele>680.0</ele><time>2026-04-19T08:42:20Z</time></trkpt><trkpt lat="40.4024537876696" lon="15.18140001252363"><ele>680.0</ele><time>2026-04-19T08:42:21Z</time></trkpt><trkpt lat="40.402556887580175" lon="15.181330257606364"><ele>680.0</ele><time>2026-04-19T08:42:22Z</time></trkpt><trkpt lat="40.40262314568027" lon="15.181308480196549"><ele>680.0</ele><time>2026-04-19T08:42:23Z</time></trkpt><trkpt lat="40.40272035737229" lon="15.181341351682462"><ele>680.0</ele><time>2026-04-19T08:42:25Z</time></trkpt><trkpt lat="40.402792329266674" lon="15.181473768447464"><ele>680.0</ele><time>2026-04-19T08:42:27Z</time></trkpt><trkpt lat="40.40284359623984" lon="15.1815899442637"><ele>680.0</ele><time>2026-04-19T08:42:28Z</time></trkpt><trkpt lat="40.40288771032433" lon="15.181721247559418"><ele>680.0</ele><time>2026-04-19T08:42:29Z</time></trkpt><trkpt lat="40.40292896453146" lon="15.181828748908465"><ele>680.0</ele><time>2026-04-19T08:42:30Z</time></trkpt><trkpt lat="40.402972352241896" lon="15.18192426347895"><ele>678.5</ele><time>2026-04-19T08:42:31Z</time></trkpt><trkpt lat="40.40295992546288" lon="15.182038253590898"><ele>677.0</ele><time>2026-04-19T08:42:32Z</time></trkpt><trkpt lat="40.4029852222152" lon="15.18212901812126"><ele>675.5</ele><time>2026-04-19T08:42:33Z</time></trkpt><trkpt lat="40.403013154438746" lon="15.182207236661517"><ele>674.0</ele><time>2026-04-19T08:42:34Z</time></trkpt><trkpt lat="40.403047440403405" lon="15.182299890895598"><ele>672.5</ele><time>2026-04-19T08:42:35Z</time></trkpt><trkpt lat="40.40310427232644" lon="15.182415781694694"><ele>671.0</ele><time>2026-04-19T08:42:36Z</time></trkpt><trkpt lat="40.40315739550691" lon="15.182524545151347"><ele>665.5</ele><time>2026-04-19T08:42:37Z</time></trkpt><trkpt lat="40.40321776021374" lon="15.18266039786142"><ele>660.0</ele><time>2026-04-19T08:42:38Z</time></trkpt><trkpt lat="40.403287561502076" lon="15.182798743475765"><ele>654.5</ele><time>2026-04-19T08:42:39Z</time></trkpt><trkpt lat="40.40334717809401" lon="15.182944083516563"><ele>649.0</ele><time>2026-04-19T08:42:40Z</time></trkpt><trkpt lat="40.40339961056797" lon="15.183087270645213"><ele>647.6</ele><time>2026-04-19T08:42:41Z</time></trkpt><trkpt lat="40.40343979877185" lon="15.183207052892646"><ele>646.2</ele><time>2026-04-19T08:42:42Z</time></trkpt><trkpt lat="40.40348068965774" lon="15.183314089321687"><ele>644.8000000000001</ele><time>2026-04-19T08:42:43Z</time></trkpt><trkpt lat="40.403507084233" lon="15.183407075605485"><ele>643.4000000000001</ele><time>2026-04-19T08:42:44Z</time></trkpt><trkpt lat="40.403515310413574" lon="15.183552258722106"><ele>642.0</ele><time>2026-04-19T08:42:46Z</time></trkpt><trkpt lat="40.40348038688096" lon="15.18363796439078"><ele>642.0</ele><time>2026-04-19T08:42:47Z</time></trkpt><trkpt lat="40.40341825884649" lon="15.183746197960915"><ele>642.0</ele><time>2026-04-19T08:42:48Z</time></trkpt><trkpt lat="40.40336709435932" lon="15.183864230214141"><ele>642.0</ele><time>2026-04-19T08:42:49Z</time></trkpt><trkpt lat="40.403313563834146" lon="15.183991228983734"><ele>642.0</ele><time>2026-04-19T08:42:50Z</time></trkpt><trkpt lat="40.40325651814669" lon="15.184105695981117"><ele>642.0</ele><time>2026-04-19T08:42:51Z</time></trkpt><trkpt lat="40.40319964482821" lon="15.184225078272956"><ele>639.0</ele><time>2026-04-19T08:42:52Z</time></trkpt><trkpt lat="40.403155060730406" lon="15.184319093884152"><ele>636.0</ele><time>2026-04-19T08:42:53Z</time></trkpt><trkpt lat="40.40310684347521" lon="15.184403533986732"><ele>633.0</ele><time>2026-04-19T08:42:54Z</time></trkpt><trkpt lat="40.40308663646533" lon="15.184486274766936"><ele>630.0</ele><time>2026-04-19T08:42:55Z</time></trkpt><trkpt lat="40.40304872896466" lon="15.184643588233328"><ele>627.0</ele><time>2026-04-19T08:42:57Z</time></trkpt><trkpt lat="40.403028876681425" lon="15.18473621203172"><ele>624.0</ele><time>2026-04-19T08:42:58Z</time></trkpt><trkpt lat="40.403031719801646" lon="15.184819848169251"><ele>624.0</ele><time>2026-04-19T08:42:59Z</time></trkpt><trkpt lat="40.40307179976688" lon="15.184904222629596"><ele>624.0</ele><time>2026-04-19T08:43:01Z</time></trkpt><trkpt lat="40.40316821171489" lon="15.184857109297772"><ele>624.0</ele><time>2026-04-19T08:43:26Z</time></trkpt><trkpt lat="40.40320860627708" lon="15.184703150035277"><ele>624.0</ele><time>2026-04-19T08:43:28Z</time></trkpt><trkpt lat="40.40324121606533" lon="15.184598497391253"><ele>624.0</ele><time>2026-04-19T08:43:29Z</time></trkpt><trkpt lat="40.403275230860494" lon="15.184494890539083"><ele>624.0</ele><time>2026-04-19T08:43:30Z</time></trkpt><trkpt lat="40.40330996736597" lon="15.184387834412451"><ele>624.0</ele><time>2026-04-19T08:43:31Z</time></trkpt><trkpt lat="40.40334156529889" lon="15.184284337119655"><ele>624.0</ele><time>2026-04-19T08:43:32Z</time></trkpt><trkpt lat="40.403368598727255" lon="15.184204220218177"><ele>624.0</ele><time>2026-04-19T08:43:33Z</time></trkpt><trkpt lat="40.403400422139754" lon="15.184124624738939"><ele>624.0</ele><time>2026-04-19T08:43:34Z</time></trkpt><trkpt lat="40.40342194972075" lon="15.184041469603567"><ele>624.0</ele><time>2026-04-19T08:43:35Z</time></trkpt><trkpt lat="40.40350924427451" lon="15.184006118677585"><ele>624.0</ele><time>2026-04-19T08:43:37Z</time></trkpt><trkpt lat="40.40356736552497" lon="15.18404227163603"><ele>624.0</ele><time>2026-04-19T08:43:38Z</time></trkpt><trkpt lat="40.403684814907" lon="15.184003668771767"><ele>624.0</ele><time>2026-04-19T08:43:40Z</time></trkpt><trkpt lat="40.40379023265351" lon="15.183916478470566"><ele>624.0</ele><time>2026-04-19T08:43:42Z</time></trkpt><trkpt lat="40.40386005006349" lon="15.18382023648997"><ele>624.0</ele><time>2026-04-19T08:43:44Z</time></trkpt><trkpt lat="40.40389236226341" lon="15.18373846353193"><ele>624.2</ele><time>2026-04-19T08:43:45Z</time></trkpt><trkpt lat="40.40392200419888" lon="15.183651456320433"><ele>624.4</ele><time>2026-04-19T08:43:46Z</time></trkpt><trkpt lat="40.40394731186484" lon="15.18356473739901"><ele>624.6</ele><time>2026-04-19T08:43:47Z</time></trkpt><trkpt lat="40.4039846060673" lon="15.183425590346683"><ele>624.8</ele><time>2026-04-19T08:43:48Z</time></trkpt><trkpt lat="40.40401726254765" lon="15.183261765169187"><ele>625.0</ele><time>2026-04-19T08:43:50Z</time></trkpt><trkpt lat="40.404030535531305" lon="15.18317414815234"><ele>625.0</ele><time>2026-04-19T08:43:51Z</time></trkpt><trkpt lat="40.40402569253958" lon="15.183042014257447"><ele>625.0</ele><time>2026-04-19T08:43:53Z</time></trkpt><trkpt lat="40.40409877766382" lon="15.182955587610962"><ele>625.0</ele><time>2026-04-19T08:43:55Z</time></trkpt><trkpt lat="40.40416988406431" lon="15.182971754141482"><ele>625.0</ele><time>2026-04-19T08:43:57Z</time></trkpt><trkpt lat="40.404239049376166" lon="15.18305067949977"><ele>625.0</ele><time>2026-04-19T08:43:59Z</time></trkpt><trkpt lat="40.40421724382754" lon="15.183207261991912"><ele>623.4</ele><time>2026-04-19T08:44:00Z</time></trkpt><trkpt lat="40.40424092442102" lon="15.183297509507625"><ele>621.8</ele><time>2026-04-19T08:44:01Z</time></trkpt><trkpt lat="40.40427612393692" lon="15.183443177215292"><ele>620.2</ele><time>2026-04-19T08:44:03Z</time></trkpt><trkpt lat="40.40429303392199" lon="15.18353032730712"><ele>618.6</ele><time>2026-04-19T08:44:05Z</time></trkpt><trkpt lat="40.40438389666689" lon="15.18364745293727"><ele>617.0</ele><time>2026-04-19T08:44:06Z</time></trkpt><trkpt lat="40.404475213326705" lon="15.18372201335204"><ele>617.0</ele><time>2026-04-19T08:44:07Z</time></trkpt><trkpt lat="40.40456126725591" lon="15.183779676947095"><ele>617.0</ele><time>2026-04-19T08:44:08Z</time></trkpt><trkpt lat="40.40464769251496" lon="15.183835203013276"><ele>617.0</ele><time>2026-04-19T08:44:09Z</time></trkpt><trkpt lat="40.40472156666189" lon="15.183886343703918"><ele>617.0</ele><time>2026-04-19T08:44:10Z</time></trkpt><trkpt lat="40.40477876578559" lon="15.183941341022168"><ele>617.0</ele><time>2026-04-19T08:44:11Z</time></trkpt><trkpt lat="40.40482789191466" lon="15.183997609084024"><ele>617.0</ele><time>2026-04-19T08:44:12Z</time></trkpt><trkpt lat="40.40484314527569" lon="15.18408099830729"><ele>613.4</ele><time>2026-04-19T08:44:13Z</time></trkpt><trkpt lat="40.404859074331995" lon="15.184182072940015"><ele>609.8000000000001</ele><time>2026-04-19T08:44:14Z</time></trkpt><trkpt lat="40.404873574394834" lon="15.18431853609566"><ele>606.2</ele><time>2026-04-19T08:44:15Z</time></trkpt><trkpt lat="40.40490106333281" lon="15.18446824916571"><ele>602.6</ele><time>2026-04-19T08:44:16Z</time></trkpt><trkpt lat="40.40492183798435" lon="15.184605426775523"><ele>599.0</ele><time>2026-04-19T08:44:17Z</time></trkpt><trkpt lat="40.40495070472811" lon="15.184690317466641"><ele>599.0</ele><time>2026-04-19T08:44:18Z</time></trkpt><trkpt lat="40.40500165280339" lon="15.184817761961991"><ele>599.0</ele><time>2026-04-19T08:44:20Z</time></trkpt><trkpt lat="40.40508717932859" lon="15.184870763127696"><ele>599.0</ele><time>2026-04-19T08:44:21Z</time></trkpt><trkpt lat="40.40519208802023" lon="15.184930771623891"><ele>599.0</ele><time>2026-04-19T08:44:22Z</time></trkpt><trkpt lat="40.4053139962897" lon="15.184995154944726"><ele>596.5</ele><time>2026-04-19T08:44:23Z</time></trkpt><trkpt lat="40.405430124735524" lon="15.185058056116796"><ele>594.0</ele><time>2026-04-19T08:44:24Z</time></trkpt><trkpt lat="40.405535530213314" lon="15.18511953672785"><ele>591.5</ele><time>2026-04-19T08:44:25Z</time></trkpt><trkpt lat="40.40564937113163" lon="15.185169394684038"><ele>589.0</ele><time>2026-04-19T08:44:26Z</time></trkpt><trkpt lat="40.405771674413316" lon="15.185201362856139"><ele>587.5</ele><time>2026-04-19T08:44:27Z</time></trkpt><trkpt lat="40.40589420130172" lon="15.185233754079636"><ele>586.0</ele><time>2026-04-19T08:44:28Z</time></trkpt><trkpt lat="40.40600973263787" lon="15.185268886887574"><ele>584.5</ele><time>2026-04-19T08:44:29Z</time></trkpt><trkpt lat="40.406118641619145" lon="15.185320314162666"><ele>583.0</ele><time>2026-04-19T08:44:30Z</time></trkpt><trkpt lat="40.40620957253157" lon="15.185382856161105"><ele>583.0</ele><time>2026-04-19T08:44:31Z</time></trkpt><trkpt lat="40.40631520968743" lon="15.18545035440977"><ele>583.0</ele><time>2026-04-19T08:44:32Z</time></trkpt><trkpt lat="40.406421900982785" lon="15.185510697244782"><ele>583.0</ele><time>2026-04-19T08:44:33Z</time></trkpt><trkpt lat="40.40652776413525" lon="15.185548600395466"><ele>583.0</ele><time>2026-04-19T08:44:34Z</time></trkpt><trkpt lat="40.40663449456445" lon="15.18556804831929"><ele>580.8</ele><time>2026-04-19T08:44:35Z</time></trkpt><trkpt lat="40.406752471892844" lon="15.185584976311665"><ele>578.5999999999999</ele><time>2026-04-19T08:44:36Z</time></trkpt><trkpt lat="40.406853421719596" lon="15.185574394073262"><ele>576.4000000000001</ele><time>2026-04-19T08:44:37Z</time></trkpt><trkpt lat="40.40694288491076" lon="15.185558412355308"><ele>574.2</ele><time>2026-04-19T08:44:38Z</time></trkpt><trkpt lat="40.407031833571004" lon="15.185517357228848"><ele>572.0</ele><time>2026-04-19T08:44:39Z</time></trkpt><trkpt lat="40.40712116155789" lon="15.185513241158704"><ele>570.4</ele><time>2026-04-19T08:44:40Z</time></trkpt><trkpt lat="40.40719103446265" lon="15.185506983528088"><ele>568.8000000000001</ele><time>2026-04-19T08:44:41Z</time></trkpt><trkpt lat="40.407324236667066" lon="15.185563230140156"><ele>567.2</ele><time>2026-04-19T08:44:43Z</time></trkpt><trkpt lat="40.407408258424134" lon="15.185617900907445"><ele>565.6</ele><time>2026-04-19T08:44:44Z</time></trkpt><trkpt lat="40.40750420867107" lon="15.185655719661504"><ele>564.0</ele><time>2026-04-19T08:44:45Z</time></trkpt><trkpt lat="40.40759652947099" lon="15.185658192015996"><ele>564.0</ele><time>2026-04-19T08:44:46Z</time></trkpt><trkpt lat="40.407689987175864" lon="15.185637857294138"><ele>564.0</ele><time>2026-04-19T08:44:47Z</time></trkpt><trkpt lat="40.40779023683926" lon="15.185626854306882"><ele>564.0</ele><time>2026-04-19T08:44:48Z</time></trkpt><trkpt lat="40.40790323008756" lon="15.185559617720072"><ele>564.0</ele><time>2026-04-19T08:44:49Z</time></trkpt><trkpt lat="40.408002008656894" lon="15.18553169900491"><ele>564.0</ele><time>2026-04-19T08:44:50Z</time></trkpt><trkpt lat="40.40807434282792" lon="15.185496451774435"><ele>561.5</ele><time>2026-04-19T08:44:51Z</time></trkpt><trkpt lat="40.40816079382865" lon="15.185422410425613"><ele>559.0</ele><time>2026-04-19T08:44:52Z</time></trkpt><trkpt lat="40.40825244330785" lon="15.185308045650704"><ele>556.5</ele><time>2026-04-19T08:44:53Z</time></trkpt><trkpt lat="40.408340457816664" lon="15.18517986776"><ele>554.0</ele><time>2026-04-19T08:44:54Z</time></trkpt><trkpt lat="40.408434493934955" lon="15.185047910125498"><ele>554.0</ele><time>2026-04-19T08:44:55Z</time></trkpt><trkpt lat="40.408530388841015" lon="15.184936731413332"><ele>554.0</ele><time>2026-04-19T08:44:56Z</time></trkpt><trkpt lat="40.40862029656833" lon="15.184850488604951"><ele>554.0</ele><time>2026-04-19T08:44:57Z</time></trkpt><trkpt lat="40.40869262147924" lon="15.184792514226665"><ele>554.0</ele><time>2026-04-19T08:44:58Z</time></trkpt><trkpt lat="40.40879012997885" lon="15.184736281363703"><ele>554.0</ele><time>2026-04-19T08:44:59Z</time></trkpt><trkpt lat="40.40890535339527" lon="15.18467904149904"><ele>554.75</ele><time>2026-04-19T08:45:00Z</time></trkpt><trkpt lat="40.40904436836134" lon="15.184612264561162"><ele>555.5</ele><time>2026-04-19T08:45:01Z</time></trkpt><trkpt lat="40.40914855516965" lon="15.184578268849465"><ele>556.25</ele><time>2026-04-19T08:45:02Z</time></trkpt><trkpt lat="40.40927421219613" lon="15.18455562707474"><ele>557.0</ele><time>2026-04-19T08:45:03Z</time></trkpt><trkpt lat="40.409393944526315" lon="15.184535441820463"><ele>557.0</ele><time>2026-04-19T08:45:04Z</time></trkpt><trkpt lat="40.40953882990719" lon="15.18450709221495"><ele>557.0</ele><time>2026-04-19T08:45:05Z</time></trkpt><trkpt lat="40.409642519878304" lon="15.184465507442958"><ele>557.0</ele><time>2026-04-19T08:45:06Z</time></trkpt><trkpt lat="40.40978818313734" lon="15.184439315870165"><ele>557.0</ele><time>2026-04-19T08:45:07Z</time></trkpt><trkpt lat="40.40990969934617" lon="15.184417041242451"><ele>555.25</ele><time>2026-04-19T08:45:08Z</time></trkpt><trkpt lat="40.41002991529413" lon="15.184388662252456"><ele>553.5</ele><time>2026-04-19T08:45:09Z</time></trkpt><trkpt lat="40.410151883654514" lon="15.184365000116175"><ele>551.75</ele><time>2026-04-19T08:45:10Z</time></trkpt><trkpt lat="40.410282904834204" lon="15.184364257866347"><ele>550.0</ele><time>2026-04-19T08:45:11Z</time></trkpt><trkpt lat="40.41040060277218" lon="15.184325282344867"><ele>547.5</ele><time>2026-04-19T08:45:12Z</time></trkpt><trkpt lat="40.41051912838707" lon="15.184301745713757"><ele>545.0</ele><time>2026-04-19T08:45:13Z</time></trkpt><trkpt lat="40.410637539820264" lon="15.18427093161839"><ele>542.5</ele><time>2026-04-19T08:45:14Z</time></trkpt><trkpt lat="40.41074144521784" lon="15.184244028179608"><ele>540.0</ele><time>2026-04-19T08:45:15Z</time></trkpt><trkpt lat="40.41085746171827" lon="15.184189182910313"><ele>540.0</ele><time>2026-04-19T08:45:16Z</time></trkpt><trkpt lat="40.41098640678759" lon="15.184115050339704"><ele>540.0</ele><time>2026-04-19T08:45:17Z</time></trkpt><trkpt lat="40.41112448797522" lon="15.184047864998709"><ele>540.0</ele><time>2026-04-19T08:45:18Z</time></trkpt><trkpt lat="40.41127391251218" lon="15.183980850306206"><ele>540.0</ele><time>2026-04-19T08:45:19Z</time></trkpt><trkpt lat="40.41141171376984" lon="15.183914968242945"><ele>539.5</ele><time>2026-04-19T08:45:20Z</time></trkpt><trkpt lat="40.411537023978525" lon="15.183852288557123"><ele>539.0</ele><time>2026-04-19T08:45:21Z</time></trkpt><trkpt lat="40.411664721133974" lon="15.183782382610156"><ele>538.5</ele><time>2026-04-19T08:45:22Z</time></trkpt><trkpt lat="40.411795660426726" lon="15.18371745694366"><ele>538.0</ele><time>2026-04-19T08:45:23Z</time></trkpt><trkpt lat="40.41191657726548" lon="15.183656575341958"><ele>538.0</ele><time>2026-04-19T08:45:24Z</time></trkpt><trkpt lat="40.412019524656515" lon="15.183608667837925"><ele>538.0</ele><time>2026-04-19T08:45:25Z</time></trkpt><trkpt lat="40.41210879183613" lon="15.183582672971035"><ele>538.0</ele><time>2026-04-19T08:45:26Z</time></trkpt><trkpt lat="40.41220501337756" lon="15.183580281963273"><ele>538.0</ele><time>2026-04-19T08:45:27Z</time></trkpt><trkpt lat="40.41230445640416" lon="15.18358355924804"><ele>538.0</ele><time>2026-04-19T08:45:28Z</time></trkpt><trkpt lat="40.41239237651601" lon="15.183603807949465"><ele>534.75</ele><time>2026-04-19T08:45:29Z</time></trkpt><trkpt lat="40.412492506365375" lon="15.1836513798215"><ele>531.5</ele><time>2026-04-19T08:45:30Z</time></trkpt><trkpt lat="40.41260702931473" lon="15.183716661711939"><ele>528.25</ele><time>2026-04-19T08:45:31Z</time></trkpt><trkpt lat="40.412725991545756" lon="15.183804500239457"><ele>525.0</ele><time>2026-04-19T08:45:32Z</time></trkpt><trkpt lat="40.41284417810383" lon="15.18387576320221"><ele>525.0</ele><time>2026-04-19T08:45:33Z</time></trkpt><trkpt lat="40.412970165626675" lon="15.183942546330547"><ele>525.0</ele><time>2026-04-19T08:45:34Z</time></trkpt><trkpt lat="40.41309674585466" lon="15.184015745697668"><ele>525.0</ele><time>2026-04-19T08:45:35Z</time></trkpt><trkpt lat="40.41322837207987" lon="15.184087927462986"><ele>525.0</ele><time>2026-04-19T08:45:36Z</time></trkpt><trkpt lat="40.41335556285464" lon="15.184161908626885"><ele>520.0</ele><time>2026-04-19T08:45:37Z</time></trkpt><trkpt lat="40.41347225473195" lon="15.184232313639676"><ele>515.0</ele><time>2026-04-19T08:45:38Z</time></trkpt><trkpt lat="40.413582067196145" lon="15.18430013902764"><ele>510.0</ele><time>2026-04-19T08:45:39Z</time></trkpt><trkpt lat="40.41368668029476" lon="15.184357204487977"><ele>505.0</ele><time>2026-04-19T08:45:40Z</time></trkpt><trkpt lat="40.41377751035051" lon="15.184404589729299"><ele>502.8</ele><time>2026-04-19T08:45:41Z</time></trkpt><trkpt lat="40.41385894002754" lon="15.184428939215765"><ele>500.6</ele><time>2026-04-19T08:45:42Z</time></trkpt><trkpt lat="40.41395515116408" lon="15.184428591613587"><ele>498.4</ele><time>2026-04-19T08:45:43Z</time></trkpt><trkpt lat="40.414062309274634" lon="15.184400859922134"><ele>496.2</ele><time>2026-04-19T08:45:44Z</time></trkpt><trkpt lat="40.414178563002025" lon="15.18437309623823"><ele>494.0</ele><time>2026-04-19T08:45:45Z</time></trkpt><trkpt lat="40.41430990431638" lon="15.184368530675306"><ele>494.0</ele><time>2026-04-19T08:45:46Z</time></trkpt><trkpt lat="40.41443971787386" lon="15.184384380611842"><ele>494.0</ele><time>2026-04-19T08:45:47Z</time></trkpt><trkpt lat="40.41457169218352" lon="15.184393300387233"><ele>494.0</ele><time>2026-04-19T08:45:48Z</time></trkpt><trkpt lat="40.414695992958826" lon="15.184404192505076"><ele>494.0</ele><time>2026-04-19T08:45:49Z</time></trkpt><trkpt lat="40.4148070095085" lon="15.184430978665205"><ele>491.25</ele><time>2026-04-19T08:45:50Z</time></trkpt><trkpt lat="40.414910631300586" lon="15.184488272319653"><ele>488.5</ele><time>2026-04-19T08:45:51Z</time></trkpt><trkpt lat="40.41500851845895" lon="15.184574085617557"><ele>485.75</ele><time>2026-04-19T08:45:52Z</time></trkpt><trkpt lat="40.415106937719464" lon="15.184653168193337"><ele>483.0</ele><time>2026-04-19T08:45:53Z</time></trkpt><trkpt lat="40.41520530818617" lon="15.184724664152832"><ele>483.0</ele><time>2026-04-19T08:45:54Z</time></trkpt><trkpt lat="40.41531222390242" lon="15.184786450060544"><ele>482.99999999999994</ele><time>2026-04-19T08:45:55Z</time></trkpt><trkpt lat="40.4154136951602" lon="15.184842838210809"><ele>482.99999999999994</ele><time>2026-04-19T08:45:56Z</time></trkpt><trkpt lat="40.415499695808975" lon="15.184884888921253"><ele>483.0</ele><time>2026-04-19T08:45:57Z</time></trkpt><trkpt lat="40.41557620537348" lon="15.184910856900553"><ele>483.0</ele><time>2026-04-19T08:45:58Z</time></trkpt><trkpt lat="40.41564400777327" lon="15.184924260478166"><ele>480.0</ele><time>2026-04-19T08:45:59Z</time></trkpt><trkpt lat="40.4157642721071" lon="15.184930287128305"><ele>477.0</ele><time>2026-04-19T08:46:01Z</time></trkpt><trkpt lat="40.4158278461494" lon="15.184926882268119"><ele>474.0</ele><time>2026-04-19T08:46:02Z</time></trkpt><trkpt lat="40.41590525819991" lon="15.184956032402154"><ele>471.0</ele><time>2026-04-19T08:46:05Z</time></trkpt><trkpt lat="40.41598056511584" lon="15.184977458415036"><ele>468.0</ele><time>2026-04-19T08:46:07Z</time></trkpt><trkpt lat="40.41605891919952" lon="15.185023182673422"><ele>465.0</ele><time>2026-04-19T08:46:09Z</time></trkpt><trkpt lat="40.416177271218785" lon="15.185057113289771"><ele>465.0</ele><time>2026-04-19T08:46:11Z</time></trkpt><trkpt lat="40.41629406566341" lon="15.185079137839056"><ele>465.0</ele><time>2026-04-19T08:46:13Z</time></trkpt><trkpt lat="40.41641780586028" lon="15.18508429363996"><ele>465.0</ele><time>2026-04-19T08:46:15Z</time></trkpt><trkpt lat="40.41652802483688" lon="15.185122337212613"><ele>465.0</ele><time>2026-04-19T08:46:17Z</time></trkpt><trkpt lat="40.41664303365907" lon="15.185176248782303"><ele>464.4</ele><time>2026-04-19T08:46:19Z</time></trkpt><trkpt lat="40.41671752761065" lon="15.18522233643832"><ele>463.8</ele><time>2026-04-19T08:46:21Z</time></trkpt><trkpt lat="40.416805409573435" lon="15.185276226445946"><ele>463.20000000000005</ele><time>2026-04-19T08:46:23Z</time></trkpt><trkpt lat="40.416895352070874" lon="15.185320139019389"><ele>462.6</ele><time>2026-04-19T08:46:25Z</time></trkpt><trkpt lat="40.41700096835235" lon="15.18538145955442"><ele>462.0</ele><time>2026-04-19T08:46:27Z</time></trkpt><trkpt lat="40.41708889052282" lon="15.185435685926182"><ele>461.40000000000003</ele><time>2026-04-19T08:46:29Z</time></trkpt><trkpt lat="40.41717095759512" lon="15.185483836121007"><ele>460.80000000000007</ele><time>2026-04-19T08:46:31Z</time></trkpt><trkpt lat="40.41726670640203" lon="15.185538554432522"><ele>460.2</ele><time>2026-04-19T08:46:33Z</time></trkpt><trkpt lat="40.41735772568443" lon="15.185588540006313"><ele>459.6</ele><time>2026-04-19T08:46:35Z</time></trkpt><trkpt lat="40.41745797509287" lon="15.185642944738508"><ele>459.0</ele><time>2026-04-19T08:46:37Z</time></trkpt><trkpt lat="40.41757539982576" lon="15.185717295765885"><ele>457.0</ele><time>2026-04-19T08:46:39Z</time></trkpt><trkpt lat="40.41762641113805" lon="15.185774062202793"><ele>455.0</ele><time>2026-04-19T08:46:40Z</time></trkpt><trkpt lat="40.41767342622857" lon="15.185838015837515"><ele>453.0</ele><time>2026-04-19T08:46:41Z</time></trkpt><trkpt lat="40.41770624601986" lon="15.185913782542316"><ele>451.0</ele><time>2026-04-19T08:46:42Z</time></trkpt><trkpt lat="40.41772921308746" lon="15.186001508459427"><ele>449.0</ele><time>2026-04-19T08:46:43Z</time></trkpt><trkpt lat="40.417736477652724" lon="15.186110255384579"><ele>447.0</ele><time>2026-04-19T08:46:44Z</time></trkpt><trkpt lat="40.41774164721645" lon="15.186229380285386"><ele>445.0</ele><time>2026-04-19T08:46:45Z</time></trkpt><trkpt lat="40.417742462635516" lon="15.186345037549865"><ele>445.0</ele><time>2026-04-19T08:46:46Z</time></trkpt><trkpt lat="40.4177518184058" lon="15.186463314197683"><ele>445.0</ele><time>2026-04-19T08:46:47Z</time></trkpt><trkpt lat="40.41776270098581" lon="15.186563129005672"><ele>445.0</ele><time>2026-04-19T08:46:48Z</time></trkpt><trkpt lat="40.417775759318644" lon="15.186707429135613"><ele>445.0</ele><time>2026-04-19T08:46:50Z</time></trkpt><trkpt lat="40.417861783144446" lon="15.186849193077178"><ele>445.0</ele><time>2026-04-19T08:46:52Z</time></trkpt><trkpt lat="40.41794625238047" lon="15.186953706516201"><ele>440.75</ele><time>2026-04-19T08:46:53Z</time></trkpt><trkpt lat="40.41804570298411" lon="15.18706476079853"><ele>436.5</ele><time>2026-04-19T08:46:54Z</time></trkpt><trkpt lat="40.41814402276727" lon="15.18717332279395"><ele>432.25</ele><time>2026-04-19T08:46:55Z</time></trkpt><trkpt lat="40.418234904413055" lon="15.187265147028471"><ele>428.0</ele><time>2026-04-19T08:46:56Z</time></trkpt><trkpt lat="40.418340084234906" lon="15.187359997534141"><ele>426.75</ele><time>2026-04-19T08:46:57Z</time></trkpt><trkpt lat="40.418449149319976" lon="15.187455825938088"><ele>425.5</ele><time>2026-04-19T08:46:58Z</time></trkpt><trkpt lat="40.41856245726281" lon="15.187565040040578"><ele>424.25</ele><time>2026-04-19T08:46:59Z</time></trkpt><trkpt lat="40.41868289772474" lon="15.187671448329688"><ele>423.0</ele><time>2026-04-19T08:47:00Z</time></trkpt><trkpt lat="40.41879376422599" lon="15.187780574413129"><ele>421.5</ele><time>2026-04-19T08:47:01Z</time></trkpt><trkpt lat="40.418896208560476" lon="15.187883740265598"><ele>420.0</ele><time>2026-04-19T08:47:02Z</time></trkpt><trkpt lat="40.41899038084606" lon="15.187976370388572"><ele>418.5</ele><time>2026-04-19T08:47:03Z</time></trkpt><trkpt lat="40.41907789085233" lon="15.188055768698968"><ele>417.0</ele><time>2026-04-19T08:47:04Z</time></trkpt><trkpt lat="40.419161438269136" lon="15.18812592856133"><ele>417.20000000000005</ele><time>2026-04-19T08:47:05Z</time></trkpt><trkpt lat="40.419231173213184" lon="15.188213594961859"><ele>417.4</ele><time>2026-04-19T08:47:06Z</time></trkpt><trkpt lat="40.419313162124936" lon="15.188296252826635"><ele>417.6</ele><time>2026-04-19T08:47:07Z</time></trkpt><trkpt lat="40.41937969108283" lon="15.188416139431471"><ele>417.79999999999995</ele><time>2026-04-19T08:47:08Z</time></trkpt><trkpt lat="40.41943979516859" lon="15.188538177484567"><ele>418.0</ele><time>2026-04-19T08:47:09Z</time></trkpt><trkpt lat="40.41950960910256" lon="15.188661723091965"><ele>418.0</ele><time>2026-04-19T08:47:10Z</time></trkpt><trkpt lat="40.419601550544044" lon="15.188759992519703"><ele>418.0</ele><time>2026-04-19T08:47:11Z</time></trkpt><trkpt lat="40.41968157818147" lon="15.188862076731064"><ele>418.0</ele><time>2026-04-19T08:47:12Z</time></trkpt><trkpt lat="40.41975584739719" lon="15.188958679310383"><ele>418.0</ele><time>2026-04-19T08:47:13Z</time></trkpt><trkpt lat="40.41982251755696" lon="15.189050670039137"><ele>418.0</ele><time>2026-04-19T08:47:14Z</time></trkpt><trkpt lat="40.419881665414636" lon="15.189122461622352"><ele>416.00000000000006</ele><time>2026-04-19T08:47:15Z</time></trkpt><trkpt lat="40.41993482210336" lon="15.189190556426597"><ele>414.0</ele><time>2026-04-19T08:47:16Z</time></trkpt><trkpt lat="40.41998217647613" lon="15.189251053762929"><ele>412.0</ele><time>2026-04-19T08:47:17Z</time></trkpt><trkpt lat="40.42005772383174" lon="15.18934567407852"><ele>410.0</ele><time>2026-04-19T08:47:19Z</time></trkpt><trkpt lat="40.420106027645396" lon="15.189422251434884"><ele>408.00000000000006</ele><time>2026-04-19T08:47:22Z</time></trkpt><trkpt lat="40.420170374132084" lon="15.189493831836517"><ele>406.0</ele><time>2026-04-19T08:47:24Z</time></trkpt><trkpt lat="40.42025372294193" lon="15.189506483619121"><ele>406.0</ele><time>2026-04-19T08:47:25Z</time></trkpt><trkpt lat="40.42034133861318" lon="15.189535989982263"><ele>406.0</ele><time>2026-04-19T08:47:26Z</time></trkpt><trkpt lat="40.420436285559276" lon="15.189569055163659"><ele>406.0</ele><time>2026-04-19T08:47:27Z</time></trkpt><trkpt lat="40.4205718717994" lon="15.18961802264924"><ele>406.0</ele><time>2026-04-19T08:47:28Z</time></trkpt><trkpt lat="40.42072003366408" lon="15.189651313879299"><ele>406.0</ele><time>2026-04-19T08:47:29Z</time></trkpt><trkpt lat="40.420839827933285" lon="15.189715790326598"><ele>406.0</ele><time>2026-04-19T08:47:30Z</time></trkpt><trkpt lat="40.42094370991443" lon="15.189778119809834"><ele>406.0</ele><time>2026-04-19T08:47:31Z</time></trkpt><trkpt lat="40.4210523533493" lon="15.189862804389064"><ele>406.0</ele><time>2026-04-19T08:47:32Z</time></trkpt><trkpt lat="40.42114640015402" lon="15.189945628472003"><ele>405.1666666666667</ele><time>2026-04-19T08:47:33Z</time></trkpt><trkpt lat="40.421223293684385" lon="15.190021508796633"><ele>404.33333333333337</ele><time>2026-04-19T08:47:34Z</time></trkpt><trkpt lat="40.42128863354557" lon="15.190097041194992"><ele>403.5</ele><time>2026-04-19T08:47:35Z</time></trkpt><trkpt lat="40.421344201955776" lon="15.190177625218736"><ele>402.66666666666663</ele><time>2026-04-19T08:47:36Z</time></trkpt><trkpt lat="40.42137313800683" lon="15.190253028456329"><ele>401.8333333333333</ele><time>2026-04-19T08:47:37Z</time></trkpt><trkpt lat="40.42141031520044" lon="15.19038690060281"><ele>401.0</ele><time>2026-04-19T08:47:39Z</time></trkpt><trkpt lat="40.42155420884438" lon="15.190403887079801"><ele>401.0</ele><time>2026-04-19T08:47:42Z</time></trkpt><trkpt lat="40.42161731893493" lon="15.190342542098"><ele>401.0</ele><time>2026-04-19T08:47:43Z</time></trkpt><trkpt lat="40.421717641827" lon="15.190315142960229"><ele>401.0</ele><time>2026-04-19T08:47:44Z</time></trkpt><trkpt lat="40.42183179349658" lon="15.190306892469582"><ele>401.0</ele><time>2026-04-19T08:47:45Z</time></trkpt><trkpt lat="40.421939833184275" lon="15.190300335310871"><ele>401.0</ele><time>2026-04-19T08:47:46Z</time></trkpt><trkpt lat="40.4220507637332" lon="15.190295732059301"><ele>401.0</ele><time>2026-04-19T08:47:47Z</time></trkpt><trkpt lat="40.422165435294225" lon="15.190302718717067"><ele>401.0</ele><time>2026-04-19T08:47:48Z</time></trkpt><trkpt lat="40.422270611012756" lon="15.190304756905633"><ele>401.0</ele><time>2026-04-19T08:47:49Z</time></trkpt><trkpt lat="40.422385579372495" lon="15.19029558507133"><ele>401.0</ele><time>2026-04-19T08:47:50Z</time></trkpt><trkpt lat="40.42252409070164" lon="15.19027935718072"><ele>401.0</ele><time>2026-04-19T08:47:51Z</time></trkpt><trkpt lat="40.42265897121534" lon="15.19025620377224"><ele>401.0</ele><time>2026-04-19T08:47:52Z</time></trkpt><trkpt lat="40.42279180268534" lon="15.190221915346738"><ele>401.0</ele><time>2026-04-19T08:47:53Z</time></trkpt><trkpt lat="40.42291606285215" lon="15.19011193876108"><ele>401.0</ele><time>2026-04-19T08:47:55Z</time></trkpt><trkpt lat="40.42301239518471" lon="15.190038930102872"><ele>402.25</ele><time>2026-04-19T08:47:56Z</time></trkpt><trkpt lat="40.4231016672817" lon="15.189940103348464"><ele>403.5</ele><time>2026-04-19T08:47:57Z</time></trkpt><trkpt lat="40.423187563990595" lon="15.189827815459902"><ele>404.75</ele><time>2026-04-19T08:47:58Z</time></trkpt><trkpt lat="40.423287142173685" lon="15.18971034152707"><ele>406.0</ele><time>2026-04-19T08:47:59Z</time></trkpt><trkpt lat="40.423384706846505" lon="15.189579246639804"><ele>406.0</ele><time>2026-04-19T08:48:00Z</time></trkpt><trkpt lat="40.42347126175127" lon="15.189477338689398"><ele>406.0</ele><time>2026-04-19T08:48:01Z</time></trkpt><trkpt lat="40.42355217736689" lon="15.189379930911029"><ele>406.0</ele><time>2026-04-19T08:48:02Z</time></trkpt><trkpt lat="40.42362888636296" lon="15.189285649001516"><ele>406.0</ele><time>2026-04-19T08:48:03Z</time></trkpt><trkpt lat="40.42371389674012" lon="15.189184695603124"><ele>406.0</ele><time>2026-04-19T08:48:04Z</time></trkpt><trkpt lat="40.42379258255921" lon="15.189082883816528"><ele>404.6</ele><time>2026-04-19T08:48:05Z</time></trkpt><trkpt lat="40.42386674619724" lon="15.188983995306064"><ele>403.20000000000005</ele><time>2026-04-19T08:48:06Z</time></trkpt><trkpt lat="40.42393755320193" lon="15.188887883334695"><ele>401.79999999999995</ele><time>2026-04-19T08:48:07Z</time></trkpt><trkpt lat="40.42400825856408" lon="15.1887947882043"><ele>400.4</ele><time>2026-04-19T08:48:08Z</time></trkpt><trkpt lat="40.42407945107301" lon="15.188704826823002"><ele>399.0</ele><time>2026-04-19T08:48:09Z</time></trkpt><trkpt lat="40.424154691725334" lon="15.188606737664301"><ele>399.0</ele><time>2026-04-19T08:48:10Z</time></trkpt><trkpt lat="40.42423801956494" lon="15.18850591972203"><ele>399.0</ele><time>2026-04-19T08:48:11Z</time></trkpt><trkpt lat="40.424327925606654" lon="15.188398711372841"><ele>399.0</ele><time>2026-04-19T08:48:12Z</time></trkpt><trkpt lat="40.4244234249233" lon="15.188281785422546"><ele>399.0</ele><time>2026-04-19T08:48:13Z</time></trkpt><trkpt lat="40.42451483603304" lon="15.18816497053245"><ele>398.25</ele><time>2026-04-19T08:48:14Z</time></trkpt><trkpt lat="40.42460655273755" lon="15.188049971053406"><ele>397.5</ele><time>2026-04-19T08:48:15Z</time></trkpt><trkpt lat="40.42470158965343" lon="15.18793064160768"><ele>396.75</ele><time>2026-04-19T08:48:16Z</time></trkpt><trkpt lat="40.42480681227906" lon="15.187807855319589"><ele>396.0</ele><time>2026-04-19T08:48:17Z</time></trkpt><trkpt lat="40.42491423576997" lon="15.187680455881207"><ele>396.0</ele><time>2026-04-19T08:48:18Z</time></trkpt><trkpt lat="40.425026386830226" lon="15.187549784231852"><ele>396.0</ele><time>2026-04-19T08:48:19Z</time></trkpt><trkpt lat="40.425144733870894" lon="15.18741918891396"><ele>396.0</ele><time>2026-04-19T08:48:20Z</time></trkpt><trkpt lat="40.425266210414875" lon="15.187285473335383"><ele>397.0</ele><time>2026-04-19T08:48:21Z</time></trkpt><trkpt lat="40.42538652906901" lon="15.18715399082576"><ele>398.0</ele><time>2026-04-19T08:48:22Z</time></trkpt><trkpt lat="40.42551813288909" lon="15.187021154384622"><ele>399.0</ele><time>2026-04-19T08:48:23Z</time></trkpt><trkpt lat="40.42565927093252" lon="15.186891485980116"><ele>399.0</ele><time>2026-04-19T08:48:24Z</time></trkpt><trkpt lat="40.42581403463414" lon="15.186759524028611"><ele>399.0</ele><time>2026-04-19T08:48:25Z</time></trkpt><trkpt lat="40.42596743342844" lon="15.18662624938638"><ele>399.0</ele><time>2026-04-19T08:48:26Z</time></trkpt><trkpt lat="40.42610688547829" lon="15.18650440893483"><ele>398.0</ele><time>2026-04-19T08:48:27Z</time></trkpt><trkpt lat="40.42623617337845" lon="15.18639529498662"><ele>397.0</ele><time>2026-04-19T08:48:28Z</time></trkpt><trkpt lat="40.42635679024099" lon="15.18629912797041"><ele>396.0</ele><time>2026-04-19T08:48:29Z</time></trkpt><trkpt lat="40.42647050777885" lon="15.186202980499818"><ele>395.0</ele><time>2026-04-19T08:48:30Z</time></trkpt><trkpt lat="40.426581659175575" lon="15.186097892473178"><ele>395.0</ele><time>2026-04-19T08:48:31Z</time></trkpt><trkpt lat="40.426680628829104" lon="15.185993842670262"><ele>395.0</ele><time>2026-04-19T08:48:32Z</time></trkpt><trkpt lat="40.42676868516728" lon="15.18584998375599"><ele>395.0</ele><time>2026-04-19T08:48:33Z</time></trkpt><trkpt lat="40.42684873946716" lon="15.18567693476202"><ele>395.0</ele><time>2026-04-19T08:48:34Z</time></trkpt><trkpt lat="40.42692412318548" lon="15.185499197379366"><ele>398.25</ele><time>2026-04-19T08:48:35Z</time></trkpt><trkpt lat="40.426986914608285" lon="15.18533026674509"><ele>401.5</ele><time>2026-04-19T08:48:36Z</time></trkpt><trkpt lat="40.42705790377433" lon="15.185171891458031"><ele>404.75</ele><time>2026-04-19T08:48:37Z</time></trkpt><trkpt lat="40.42710887225336" lon="15.184987370172964"><ele>408.0</ele><time>2026-04-19T08:48:38Z</time></trkpt><trkpt lat="40.42714311117004" lon="15.184802289374424"><ele>399.25</ele><time>2026-04-19T08:48:39Z</time></trkpt><trkpt lat="40.4271455036876" lon="15.184610227936341"><ele>390.5</ele><time>2026-04-19T08:48:40Z</time></trkpt><trkpt lat="40.4271630694724" lon="15.184430380998334"><ele>381.75</ele><time>2026-04-19T08:48:41Z</time></trkpt><trkpt lat="40.427179432646966" lon="15.184248421617726"><ele>373.0</ele><time>2026-04-19T08:48:42Z</time></trkpt><trkpt lat="40.42720956903127" lon="15.184079236871726"><ele>374.4</ele><time>2026-04-19T08:48:43Z</time></trkpt><trkpt lat="40.42723169559959" lon="15.183915798004811"><ele>375.79999999999995</ele><time>2026-04-19T08:48:44Z</time></trkpt><trkpt lat="40.42724377988352" lon="15.183753816304147"><ele>377.2</ele><time>2026-04-19T08:48:45Z</time></trkpt><trkpt lat="40.42727130082486" lon="15.183630073406038"><ele>378.6</ele><time>2026-04-19T08:48:46Z</time></trkpt><trkpt lat="40.42731593154023" lon="15.183523249614938"><ele>380.0</ele><time>2026-04-19T08:48:47Z</time></trkpt><trkpt lat="40.42738247845881" lon="15.183419599462825"><ele>380.0</ele><time>2026-04-19T08:48:48Z</time></trkpt><trkpt lat="40.42746766725987" lon="15.183340010936542"><ele>380.0</ele><time>2026-04-19T08:48:49Z</time></trkpt><trkpt lat="40.42756014661503" lon="15.183304192644844"><ele>380.0</ele><time>2026-04-19T08:48:50Z</time></trkpt><trkpt lat="40.427660840722645" lon="15.183300943855906"><ele>380.0</ele><time>2026-04-19T08:48:51Z</time></trkpt><trkpt lat="40.42777856728333" lon="15.183326870376966"><ele>380.0</ele><time>2026-04-19T08:48:52Z</time></trkpt><trkpt lat="40.427918453312806" lon="15.183370416845055"><ele>379.25</ele><time>2026-04-19T08:48:53Z</time></trkpt><trkpt lat="40.428070508560445" lon="15.183416752084941"><ele>378.5</ele><time>2026-04-19T08:48:54Z</time></trkpt><trkpt lat="40.42821517241745" lon="15.183464590068299"><ele>377.75</ele><time>2026-04-19T08:48:55Z</time></trkpt><trkpt lat="40.428349048662476" lon="15.183506113967333"><ele>377.0</ele><time>2026-04-19T08:48:56Z</time></trkpt><trkpt lat="40.42847580720205" lon="15.18353858317571"><ele>377.0</ele><time>2026-04-19T08:48:57Z</time></trkpt><trkpt lat="40.428600399877304" lon="15.183564877499053"><ele>377.0</ele><time>2026-04-19T08:48:58Z</time></trkpt><trkpt lat="40.42872837738086" lon="15.18358810759513"><ele>377.0</ele><time>2026-04-19T08:48:59Z</time></trkpt><trkpt lat="40.42885207867669" lon="15.18360692364445"><ele>377.0</ele><time>2026-04-19T08:49:00Z</time></trkpt><trkpt lat="40.42895800123555" lon="15.183618035456064"><ele>377.8</ele><time>2026-04-19T08:49:01Z</time></trkpt><trkpt lat="40.429047117764284" lon="15.183617058055443"><ele>378.6</ele><time>2026-04-19T08:49:02Z</time></trkpt><trkpt lat="40.42914271183185" lon="15.183610179977071"><ele>379.40000000000003</ele><time>2026-04-19T08:49:03Z</time></trkpt><trkpt lat="40.42925346248621" lon="15.18365034572288"><ele>380.20000000000005</ele><time>2026-04-19T08:49:05Z</time></trkpt><trkpt lat="40.42931339650477" lon="15.18368441877124"><ele>381.0</ele><time>2026-04-19T08:49:06Z</time></trkpt><trkpt lat="40.42940435274141" lon="15.183774959587952"><ele>381.0</ele><time>2026-04-19T08:49:08Z</time></trkpt><trkpt lat="40.429477527614246" lon="15.183819516761963"><ele>381.0</ele><time>2026-04-19T08:49:09Z</time></trkpt><trkpt lat="40.42961136853724" lon="15.183846359263988"><ele>381.0</ele><time>2026-04-19T08:49:10Z</time></trkpt><trkpt lat="40.42973813064383" lon="15.183870547572571"><ele>381.0</ele><time>2026-04-19T08:49:11Z</time></trkpt><trkpt lat="40.42988398265377" lon="15.183895806053956"><ele>384.33333333333337</ele><time>2026-04-19T08:49:12Z</time></trkpt><trkpt lat="40.430037706148504" lon="15.18394673671769"><ele>387.6666666666667</ele><time>2026-04-19T08:49:13Z</time></trkpt><trkpt lat="40.430187833137246" lon="15.184007218740513"><ele>391.0</ele><time>2026-04-19T08:49:14Z</time></trkpt><trkpt lat="40.43032107686412" lon="15.184055716193793"><ele>380.75</ele><time>2026-04-19T08:49:15Z</time></trkpt><trkpt lat="40.430446378052046" lon="15.184101382118588"><ele>370.5</ele><time>2026-04-19T08:49:16Z</time></trkpt><trkpt lat="40.43057537526481" lon="15.184156823686225"><ele>360.25</ele><time>2026-04-19T08:49:17Z</time></trkpt><trkpt lat="40.43069451166411" lon="15.184210441211583"><ele>350.0</ele><time>2026-04-19T08:49:18Z</time></trkpt><trkpt lat="40.43080438923454" lon="15.184267288084895"><ele>350.0</ele><time>2026-04-19T08:49:19Z</time></trkpt><trkpt lat="40.43091001254419" lon="15.184317434830792"><ele>350.0</ele><time>2026-04-19T08:49:20Z</time></trkpt><trkpt lat="40.43101043351562" lon="15.184361398173502"><ele>350.0</ele><time>2026-04-19T08:49:21Z</time></trkpt><trkpt lat="40.4311103231499" lon="15.184384253556033"><ele>350.0</ele><time>2026-04-19T08:49:22Z</time></trkpt><trkpt lat="40.431204303323135" lon="15.184374134291645"><ele>350.0</ele><time>2026-04-19T08:49:23Z</time></trkpt><trkpt lat="40.431305963883105" lon="15.184366296081254"><ele>351.0</ele><time>2026-04-19T08:49:24Z</time></trkpt><trkpt lat="40.43142866140591" lon="15.184357953901056"><ele>352.0</ele><time>2026-04-19T08:49:25Z</time></trkpt><trkpt lat="40.43155230816431" lon="15.184345209241835"><ele>353.0</ele><time>2026-04-19T08:49:26Z</time></trkpt><trkpt lat="40.43168722661884" lon="15.184309763151091"><ele>354.0</ele><time>2026-04-19T08:49:27Z</time></trkpt><trkpt lat="40.43181580803322" lon="15.184257230367937"><ele>354.0</ele><time>2026-04-19T08:49:28Z</time></trkpt><trkpt lat="40.4319316361352" lon="15.184197688763621"><ele>354.0</ele><time>2026-04-19T08:49:29Z</time></trkpt><trkpt lat="40.43205983799702" lon="15.18413683726083"><ele>354.0</ele><time>2026-04-19T08:49:30Z</time></trkpt><trkpt lat="40.43219938966172" lon="15.184102489516158"><ele>354.0</ele><time>2026-04-19T08:49:31Z</time></trkpt><trkpt lat="40.432347598345665" lon="15.184089124774802"><ele>351.6666666666667</ele><time>2026-04-19T08:49:32Z</time></trkpt><trkpt lat="40.43250278269686" lon="15.184107057049102"><ele>349.33333333333337</ele><time>2026-04-19T08:49:33Z</time></trkpt><trkpt lat="40.43266322631012" lon="15.184146922775339"><ele>347.0</ele><time>2026-04-19T08:49:34Z</time></trkpt><trkpt lat="40.43280677679275" lon="15.184178914275808"><ele>347.0</ele><time>2026-04-19T08:49:35Z</time></trkpt><trkpt lat="40.43293878352989" lon="15.184214920512236"><ele>347.0</ele><time>2026-04-19T08:49:36Z</time></trkpt><trkpt lat="40.43306585790714" lon="15.184233585385426"><ele>347.0</ele><time>2026-04-19T08:49:37Z</time></trkpt><trkpt lat="40.433175832932186" lon="15.184212296609266"><ele>347.0</ele><time>2026-04-19T08:49:38Z</time></trkpt><trkpt lat="40.433291813300904" lon="15.184144910058157"><ele>344.25</ele><time>2026-04-19T08:49:39Z</time></trkpt><trkpt lat="40.43340815153218" lon="15.184058299820315"><ele>341.5</ele><time>2026-04-19T08:49:40Z</time></trkpt><trkpt lat="40.433500034055506" lon="15.183940163509918"><ele>338.75</ele><time>2026-04-19T08:49:41Z</time></trkpt><trkpt lat="40.4335821132704" lon="15.183781832455745"><ele>336.0</ele><time>2026-04-19T08:49:42Z</time></trkpt><trkpt lat="40.433647531623926" lon="15.18359993578927"><ele>343.3333333333333</ele><time>2026-04-19T08:49:43Z</time></trkpt><trkpt lat="40.4337046945668" lon="15.183409338618304"><ele>350.66666666666663</ele><time>2026-04-19T08:49:44Z</time></trkpt><trkpt lat="40.43375174235625" lon="15.183201331202557"><ele>358.0</ele><time>2026-04-19T08:49:45Z</time></trkpt><trkpt lat="40.4337962889725" lon="15.183004427575122"><ele>347.66666666666663</ele><time>2026-04-19T08:49:46Z</time></trkpt><trkpt lat="40.433850908813966" lon="15.182821913133049"><ele>337.3333333333333</ele><time>2026-04-19T08:49:47Z</time></trkpt><trkpt lat="40.43392792475895" lon="15.182640558423488"><ele>327.0</ele><time>2026-04-19T08:49:48Z</time></trkpt><trkpt lat="40.434014714754696" lon="15.18248186018024"><ele>329.6666666666667</ele><time>2026-04-19T08:49:49Z</time></trkpt><trkpt lat="40.43409611252683" lon="15.182311948989048"><ele>332.33333333333337</ele><time>2026-04-19T08:49:50Z</time></trkpt><trkpt lat="40.434166940812446" lon="15.182108848707935"><ele>335.0</ele><time>2026-04-19T08:49:51Z</time></trkpt><trkpt lat="40.434236107167656" lon="15.181889838756852"><ele>335.0</ele><time>2026-04-19T08:49:52Z</time></trkpt><trkpt lat="40.434292877173924" lon="15.181672224349326"><ele>335.0</ele><time>2026-04-19T08:49:53Z</time></trkpt><trkpt lat="40.434349299152125" lon="15.181470274493362"><ele>335.0</ele><time>2026-04-19T08:49:54Z</time></trkpt><trkpt lat="40.43440312381227" lon="15.181270811711368"><ele>336.0</ele><time>2026-04-19T08:49:55Z</time></trkpt><trkpt lat="40.43444715455703" lon="15.18106487122087"><ele>337.0</ele><time>2026-04-19T08:49:56Z</time></trkpt><trkpt lat="40.4344780647929" lon="15.180867306337682"><ele>338.0</ele><time>2026-04-19T08:49:57Z</time></trkpt><trkpt lat="40.43450459050056" lon="15.180663195842586"><ele>339.0</ele><time>2026-04-19T08:49:58Z</time></trkpt><trkpt lat="40.43453146058797" lon="15.180460641507272"><ele>340.0</ele><time>2026-04-19T08:49:59Z</time></trkpt><trkpt lat="40.43456021052088" lon="15.180267180348665"><ele>341.0</ele><time>2026-04-19T08:50:00Z</time></trkpt><trkpt lat="40.43458992637088" lon="15.180073860705738"><ele>341.0</ele><time>2026-04-19T08:50:01Z</time></trkpt><trkpt lat="40.434610317647476" lon="15.179879162278683"><ele>341.0</ele><time>2026-04-19T08:50:02Z</time></trkpt><trkpt lat="40.434619131786164" lon="15.179687609372184"><ele>341.0</ele><time>2026-04-19T08:50:03Z</time></trkpt><trkpt lat="40.43461441186168" lon="15.179504148274855"><ele>341.0</ele><time>2026-04-19T08:50:04Z</time></trkpt><trkpt lat="40.4346025061339" lon="15.1793181256309"><ele>341.5</ele><time>2026-04-19T08:50:05Z</time></trkpt><trkpt lat="40.43458415589066" lon="15.17912302611348"><ele>342.0</ele><time>2026-04-19T08:50:06Z</time></trkpt><trkpt lat="40.434555082099024" lon="15.178936111077123"><ele>342.5</ele><time>2026-04-19T08:50:07Z</time></trkpt><trkpt lat="40.43452092155069" lon="15.178755439816062"><ele>343.0</ele><time>2026-04-19T08:50:08Z</time></trkpt><trkpt lat="40.434495889516306" lon="15.178571645475204"><ele>343.0</ele><time>2026-04-19T08:50:09Z</time></trkpt><trkpt lat="40.43448071188625" lon="15.178366966832435"><ele>343.0</ele><time>2026-04-19T08:50:10Z</time></trkpt><trkpt lat="40.43446339419462" lon="15.178145869266531"><ele>343.0</ele><time>2026-04-19T08:50:11Z</time></trkpt><trkpt lat="40.43446213925122" lon="15.17795583908078"><ele>341.3333333333333</ele><time>2026-04-19T08:50:12Z</time></trkpt><trkpt lat="40.43445676448702" lon="15.177752482727053"><ele>339.6666666666667</ele><time>2026-04-19T08:50:13Z</time></trkpt><trkpt lat="40.434454386030076" lon="15.17755275214394"><ele>338.0</ele><time>2026-04-19T08:50:14Z</time></trkpt><trkpt lat="40.43445827104582" lon="15.17735782815603"><ele>340.0</ele><time>2026-04-19T08:50:15Z</time></trkpt><trkpt lat="40.43447537418507" lon="15.17717073275148"><ele>342.0</ele><time>2026-04-19T08:50:16Z</time></trkpt><trkpt lat="40.434512012619905" lon="15.176985784170142"><ele>344.0</ele><time>2026-04-19T08:50:17Z</time></trkpt><trkpt lat="40.43456967650465" lon="15.176782001898246"><ele>344.0</ele><time>2026-04-19T08:50:18Z</time></trkpt><trkpt lat="40.434635749352196" lon="15.176566594474142"><ele>344.0</ele><time>2026-04-19T08:50:19Z</time></trkpt><trkpt lat="40.43470756403748" lon="15.176342011268726"><ele>344.0</ele><time>2026-04-19T08:50:20Z</time></trkpt><trkpt lat="40.434782177099784" lon="15.17611921482753"><ele>336.6666666666667</ele><time>2026-04-19T08:50:21Z</time></trkpt><trkpt lat="40.43484727843439" lon="15.175914813642459"><ele>329.3333333333333</ele><time>2026-04-19T08:50:22Z</time></trkpt><trkpt lat="40.434912705163995" lon="15.175713864953154"><ele>322.0</ele><time>2026-04-19T08:50:23Z</time></trkpt><trkpt lat="40.434980253353366" lon="15.175510015871064"><ele>322.0</ele><time>2026-04-19T08:50:24Z</time></trkpt><trkpt lat="40.43505275770005" lon="15.175301562942545"><ele>322.0</ele><time>2026-04-19T08:50:25Z</time></trkpt><trkpt lat="40.4351300401829" lon="15.175100782205904"><ele>322.0</ele><time>2026-04-19T08:50:26Z</time></trkpt><trkpt lat="40.43520951933592" lon="15.174910699255532"><ele>328.3333333333333</ele><time>2026-04-19T08:50:27Z</time></trkpt><trkpt lat="40.43529241839308" lon="15.174729505315511"><ele>334.6666666666667</ele><time>2026-04-19T08:50:28Z</time></trkpt><trkpt lat="40.435379478949066" lon="15.174559346548735"><ele>341.0</ele><time>2026-04-19T08:50:29Z</time></trkpt><trkpt lat="40.4354685933124" lon="15.174394930021958"><ele>335.5</ele><time>2026-04-19T08:50:30Z</time></trkpt><trkpt lat="40.43555650156572" lon="15.174236089283434"><ele>330.0</ele><time>2026-04-19T08:50:31Z</time></trkpt><trkpt lat="40.435643349945764" lon="15.174082450123418"><ele>324.5</ele><time>2026-04-19T08:50:32Z</time></trkpt><trkpt lat="40.43573282458156" lon="15.173931622963815"><ele>319.0</ele><time>2026-04-19T08:50:33Z</time></trkpt><trkpt lat="40.43582366744613" lon="15.173795400717522"><ele>319.0</ele><time>2026-04-19T08:50:34Z</time></trkpt><trkpt lat="40.43591796430017" lon="15.173678460087771"><ele>319.0</ele><time>2026-04-19T08:50:35Z</time></trkpt><trkpt lat="40.43600332275103" lon="15.173585749204191"><ele>319.0</ele><time>2026-04-19T08:50:36Z</time></trkpt><trkpt lat="40.436075883831435" lon="15.173510209138358"><ele>319.0</ele><time>2026-04-19T08:50:37Z</time></trkpt><trkpt lat="40.43612559116146" lon="15.17344775593244"><ele>319.0</ele><time>2026-04-19T08:50:38Z</time></trkpt><trkpt lat="40.436191797954756" lon="15.173353157170496"><ele>319.0</ele><time>2026-04-19T08:50:40Z</time></trkpt><trkpt lat="40.436257681347826" lon="15.173335491254559"><ele>319.0</ele><time>2026-04-19T08:50:42Z</time></trkpt><trkpt lat="40.43634198483217" lon="15.173430131136866"><ele>319.0</ele><time>2026-04-19T08:50:44Z</time></trkpt><trkpt lat="40.43640553625911" lon="15.173496579657861"><ele>319.0</ele><time>2026-04-19T08:50:45Z</time></trkpt><trkpt lat="40.4364808162203" lon="15.173550583839553"><ele>319.0</ele><time>2026-04-19T08:50:46Z</time></trkpt><trkpt lat="40.43655106256702" lon="15.17360474681995"><ele>319.0</ele><time>2026-04-19T08:50:47Z</time></trkpt><trkpt lat="40.43662291812689" lon="15.173686303157902"><ele>319.0</ele><time>2026-04-19T08:50:49Z</time></trkpt><trkpt lat="40.436612542027596" lon="15.173769825095052"><ele>319.0</ele><time>2026-04-19T08:50:51Z</time></trkpt><trkpt lat="40.43653756359901" lon="15.173823964720992"><ele>319.0</ele><time>2026-04-19T08:50:53Z</time></trkpt><trkpt lat="40.436472600222594" lon="15.173855326326665"><ele>319.0</ele><time>2026-04-19T08:50:54Z</time></trkpt><trkpt lat="40.43639803291189" lon="15.17391049016034"><ele>319.0</ele><time>2026-04-19T08:50:55Z</time></trkpt><trkpt lat="40.43631289393736" lon="15.173953209533204"><ele>319.0</ele><time>2026-04-19T08:50:56Z</time></trkpt><trkpt lat="40.43621889053297" lon="15.174002889658961"><ele>316.4</ele><time>2026-04-19T08:50:57Z</time></trkpt><trkpt lat="40.43612727920298" lon="15.174066411825564"><ele>313.79999999999995</ele><time>2026-04-19T08:50:58Z</time></trkpt><trkpt lat="40.4360435628964" lon="15.174149140732643"><ele>311.20000000000005</ele><time>2026-04-19T08:50:59Z</time></trkpt><trkpt lat="40.43595852086441" lon="15.174241450361563"><ele>308.6</ele><time>2026-04-19T08:51:00Z</time></trkpt><trkpt lat="40.43588141815601" lon="15.174335568937446"><ele>306.0</ele><time>2026-04-19T08:51:01Z</time></trkpt><trkpt lat="40.435823925081955" lon="15.174409705966657"><ele>306.0</ele><time>2026-04-19T08:51:02Z</time></trkpt><trkpt lat="40.43577040548293" lon="15.174468782203945"><ele>306.0</ele><time>2026-04-19T08:51:03Z</time></trkpt><trkpt lat="40.4357307736866" lon="15.174596788878848"><ele>306.0</ele><time>2026-04-19T08:51:05Z</time></trkpt><trkpt lat="40.43578966338284" lon="15.174663371170341"><ele>306.0</ele><time>2026-04-19T08:51:06Z</time></trkpt><trkpt lat="40.435870828376174" lon="15.174738429510004"><ele>306.0</ele><time>2026-04-19T08:51:07Z</time></trkpt><trkpt lat="40.435967963993114" lon="15.174787887737693"><ele>306.0</ele><time>2026-04-19T08:51:08Z</time></trkpt><trkpt lat="40.4360536051772" lon="15.174835466202788"><ele>306.0</ele><time>2026-04-19T08:51:09Z</time></trkpt><trkpt lat="40.43614276187388" lon="15.174880176725079"><ele>306.0</ele><time>2026-04-19T08:51:10Z</time></trkpt><trkpt lat="40.43626286989203" lon="15.174901160033496"><ele>306.0</ele><time>2026-04-19T08:51:11Z</time></trkpt><trkpt lat="40.43637568717387" lon="15.174920782557521"><ele>306.0</ele><time>2026-04-19T08:51:12Z</time></trkpt><trkpt lat="40.436486782504204" lon="15.174944520749273"><ele>300.25</ele><time>2026-04-19T08:51:13Z</time></trkpt><trkpt lat="40.43660385174063" lon="15.174986389630021"><ele>294.5</ele><time>2026-04-19T08:51:14Z</time></trkpt><trkpt lat="40.43671993895628" lon="15.175042915193893"><ele>288.75</ele><time>2026-04-19T08:51:15Z</time></trkpt><trkpt lat="40.43683751794449" lon="15.175089860058684"><ele>283.0</ele><time>2026-04-19T08:51:16Z</time></trkpt><trkpt lat="40.4369423392547" lon="15.17510278654697"><ele>283.0</ele><time>2026-04-19T08:51:17Z</time></trkpt><trkpt lat="40.43702811117129" lon="15.175147603410625"><ele>283.0</ele><time>2026-04-19T08:51:18Z</time></trkpt><trkpt lat="40.43710858636867" lon="15.175193580588934"><ele>283.0</ele><time>2026-04-19T08:51:19Z</time></trkpt><trkpt lat="40.43720452425176" lon="15.175193788418188"><ele>283.0</ele><time>2026-04-19T08:51:20Z</time></trkpt><trkpt lat="40.43729847416511" lon="15.175195391544149"><ele>283.0</ele><time>2026-04-19T08:51:21Z</time></trkpt><trkpt lat="40.43739476209745" lon="15.175193845730654"><ele>281.0</ele><time>2026-04-19T08:51:22Z</time></trkpt><trkpt lat="40.437495430234456" lon="15.175202477581173"><ele>279.0</ele><time>2026-04-19T08:51:23Z</time></trkpt><trkpt lat="40.43759826087922" lon="15.17520976138923"><ele>277.0</ele><time>2026-04-19T08:51:24Z</time></trkpt><trkpt lat="40.43769829623674" lon="15.175208840439147"><ele>275.0</ele><time>2026-04-19T08:51:25Z</time></trkpt><trkpt lat="40.4377846982525" lon="15.175212434233458"><ele>273.0</ele><time>2026-04-19T08:51:26Z</time></trkpt><trkpt lat="40.437852992852704" lon="15.175216649379557"><ele>273.0</ele><time>2026-04-19T08:51:27Z</time></trkpt><trkpt lat="40.437961086380234" lon="15.175212308653354"><ele>273.0</ele><time>2026-04-19T08:51:29Z</time></trkpt><trkpt lat="40.43801798375906" lon="15.175305535189915"><ele>273.0</ele><time>2026-04-19T08:51:31Z</time></trkpt><trkpt lat="40.43795546282717" lon="15.175469053683722"><ele>273.0</ele><time>2026-04-19T08:51:33Z</time></trkpt><trkpt lat="40.43789597107295" lon="15.175575808523199"><ele>273.0</ele><time>2026-04-19T08:51:34Z</time></trkpt><trkpt lat="40.437858044954" lon="15.175683993738387"><ele>271.2</ele><time>2026-04-19T08:51:35Z</time></trkpt><trkpt lat="40.43783316984529" lon="15.175802669166442"><ele>269.4</ele><time>2026-04-19T08:51:36Z</time></trkpt><trkpt lat="40.437815776409614" lon="15.175940635378995"><ele>267.59999999999997</ele><time>2026-04-19T08:51:37Z</time></trkpt><trkpt lat="40.43779792228789" lon="15.176086286854453"><ele>265.8</ele><time>2026-04-19T08:51:38Z</time></trkpt><trkpt lat="40.437777028283854" lon="15.17622846406217"><ele>264.0</ele><time>2026-04-19T08:51:39Z</time></trkpt><trkpt lat="40.4377427124325" lon="15.176367385992783"><ele>264.0</ele><time>2026-04-19T08:51:40Z</time></trkpt><trkpt lat="40.437703541436846" lon="15.176486047896935"><ele>264.0</ele><time>2026-04-19T08:51:41Z</time></trkpt><trkpt lat="40.43766158859076" lon="15.176601410335893"><ele>264.0</ele><time>2026-04-19T08:51:42Z</time></trkpt><trkpt lat="40.437615149265916" lon="15.176709854049978"><ele>264.0</ele><time>2026-04-19T08:51:43Z</time></trkpt><trkpt lat="40.43758514363864" lon="15.176793251612184"><ele>264.0</ele><time>2026-04-19T08:51:44Z</time></trkpt><trkpt lat="40.43757923200756" lon="15.176940188257502"><ele>262.5</ele><time>2026-04-19T08:51:46Z</time></trkpt><trkpt lat="40.43764862547008" lon="15.177062192957091"><ele>261.0</ele><time>2026-04-19T08:51:48Z</time></trkpt><trkpt lat="40.437702393561466" lon="15.17712701417435"><ele>259.5</ele><time>2026-04-19T08:51:50Z</time></trkpt><trkpt lat="40.43775126501247" lon="15.177208023571133"><ele>258.0</ele><time>2026-04-19T08:51:52Z</time></trkpt><trkpt lat="40.43782020899732" lon="15.177311091895472"><ele>256.5</ele><time>2026-04-19T08:51:54Z</time></trkpt><trkpt lat="40.43787700948419" lon="15.17736994737602"><ele>255.0</ele><time>2026-04-19T08:51:55Z</time></trkpt><trkpt lat="40.43794739911628" lon="15.177453009955718"><ele>251.8</ele><time>2026-04-19T08:51:56Z</time></trkpt><trkpt lat="40.43802409978329" lon="15.177552514187981"><ele>248.6</ele><time>2026-04-19T08:51:57Z</time></trkpt><trkpt lat="40.438095183029034" lon="15.177640316805247"><ele>245.39999999999998</ele><time>2026-04-19T08:51:58Z</time></trkpt><trkpt lat="40.43816714566473" lon="15.17772148821093"><ele>242.2</ele><time>2026-04-19T08:51:59Z</time></trkpt><trkpt lat="40.4382381800549" lon="15.177801845891372"><ele>239.0</ele><time>2026-04-19T08:52:00Z</time></trkpt><trkpt lat="40.43830631823574" lon="15.177883957839892"><ele>239.00000000000003</ele><time>2026-04-19T08:52:01Z</time></trkpt><trkpt lat="40.438356554957295" lon="15.17794563245962"><ele>239.0</ele><time>2026-04-19T08:52:02Z</time></trkpt><trkpt lat="40.43842005307623" lon="15.178029950839973"><ele>239.0</ele><time>2026-04-19T08:52:04Z</time></trkpt><trkpt lat="40.43845874491859" lon="15.178115197198014"><ele>239.0</ele><time>2026-04-19T08:52:06Z</time></trkpt><trkpt lat="40.43856260423803" lon="15.178181309731853"><ele>239.00000000000003</ele><time>2026-04-19T08:52:08Z</time></trkpt><trkpt lat="40.438635583365674" lon="15.1782300533481"><ele>239.0</ele><time>2026-04-19T08:52:10Z</time></trkpt><trkpt lat="40.438695030475415" lon="15.178269853612388"><ele>238.33333333333334</ele><time>2026-04-19T08:52:12Z</time></trkpt><trkpt lat="40.43876965182014" lon="15.178321115927439"><ele>237.66666666666669</ele><time>2026-04-19T08:52:14Z</time></trkpt><trkpt lat="40.4388446365698" lon="15.178352658203192"><ele>237.0</ele><time>2026-04-19T08:52:16Z</time></trkpt><trkpt lat="40.43891652223785" lon="15.178407761713553"><ele>236.33333333333331</ele><time>2026-04-19T08:52:18Z</time></trkpt><trkpt lat="40.438976936172374" lon="15.178468606497022"><ele>235.66666666666666</ele><time>2026-04-19T08:52:20Z</time></trkpt><trkpt lat="40.43906600612023" lon="15.178506275626702"><ele>235.0</ele><time>2026-04-19T08:52:23Z</time></trkpt><trkpt lat="40.4391502328675" lon="15.178571507940608"><ele>232.6</ele><time>2026-04-19T08:52:25Z</time></trkpt><trkpt lat="40.43923741613898" lon="15.178631373569694"><ele>230.2</ele><time>2026-04-19T08:52:27Z</time></trkpt><trkpt lat="40.439328982676436" lon="15.178690672016105"><ele>227.8</ele><time>2026-04-19T08:52:29Z</time></trkpt><trkpt lat="40.439424205704356" lon="15.178776245646276"><ele>225.4</ele><time>2026-04-19T08:52:31Z</time></trkpt><trkpt lat="40.43951845460475" lon="15.178843519687634"><ele>223.0</ele><time>2026-04-19T08:52:33Z</time></trkpt><trkpt lat="40.43961046939694" lon="15.178913094298535"><ele>219.99999999999997</ele><time>2026-04-19T08:52:35Z</time></trkpt><trkpt lat="40.43969919634056" lon="15.178962337894498"><ele>217.0</ele><time>2026-04-19T08:52:37Z</time></trkpt><trkpt lat="40.4397750227909" lon="15.179025235046659"><ele>214.0</ele><time>2026-04-19T08:52:39Z</time></trkpt><trkpt lat="40.4398534630518" lon="15.179089141087255"><ele>211.0</ele><time>2026-04-19T08:52:41Z</time></trkpt><trkpt lat="40.43991494750791" lon="15.17914317502768"><ele>207.99999999999997</ele><time>2026-04-19T08:52:44Z</time></trkpt><trkpt lat="40.43999634124893" lon="15.179207892193457"><ele>205.0</ele><time>2026-04-19T08:52:46Z</time></trkpt><trkpt lat="40.44007609559919" lon="15.179292760975418"><ele>205.0</ele><time>2026-04-19T08:52:48Z</time></trkpt><trkpt lat="40.440159252685056" lon="15.179361539176098"><ele>205.0</ele><time>2026-04-19T08:52:50Z</time></trkpt><trkpt lat="40.44023475725254" lon="15.179423988071163"><ele>205.0</ele><time>2026-04-19T08:52:52Z</time></trkpt><trkpt lat="40.44032106047387" lon="15.17948009610944"><ele>205.0</ele><time>2026-04-19T08:52:54Z</time></trkpt><trkpt lat="40.440394458299984" lon="15.17953808356071"><ele>205.0</ele><time>2026-04-19T08:52:56Z</time></trkpt><trkpt lat="40.440483320608074" lon="15.179610847318841"><ele>202.66666666666666</ele><time>2026-04-19T08:52:58Z</time></trkpt><trkpt lat="40.44056539959442" lon="15.179676353628116"><ele>200.33333333333331</ele><time>2026-04-19T08:53:00Z</time></trkpt><trkpt lat="40.44063150922615" lon="15.179726457949185"><ele>198.0</ele><time>2026-04-19T08:53:02Z</time></trkpt><trkpt lat="40.44071240820277" lon="15.179804824398827"><ele>195.66666666666666</ele><time>2026-04-19T08:53:04Z</time></trkpt><trkpt lat="40.44079006376918" lon="15.17985997604249"><ele>193.33333333333331</ele><time>2026-04-19T08:53:06Z</time></trkpt><trkpt lat="40.44084853700933" lon="15.179900875231855"><ele>191.0</ele><time>2026-04-19T08:53:08Z</time></trkpt><trkpt lat="40.440921772821476" lon="15.17992775068119"><ele>190.71428571428572</ele><time>2026-04-19T08:53:12Z</time></trkpt><trkpt lat="40.44097629716576" lon="15.179976668625384"><ele>190.42857142857142</ele><time>2026-04-19T08:53:14Z</time></trkpt><trkpt lat="40.441038001715064" lon="15.180023991640672"><ele>190.14285714285714</ele><time>2026-04-19T08:53:17Z</time></trkpt><trkpt lat="40.4411012611839" lon="15.180061289640967"><ele>189.85714285714286</ele><time>2026-04-19T08:53:20Z</time></trkpt><trkpt lat="40.441162832765116" lon="15.180108801165504"><ele>189.57142857142856</ele><time>2026-04-19T08:53:28Z</time></trkpt><trkpt lat="40.441210377782234" lon="15.180165728308287"><ele>189.28571428571428</ele><time>2026-04-19T08:53:31Z</time></trkpt><trkpt lat="40.44127957206803" lon="15.180203695652278"><ele>189.0</ele><time>2026-04-19T08:53:33Z</time></trkpt><trkpt lat="40.44134478565199" lon="15.180284954909885"><ele>187.66666666666666</ele><time>2026-04-19T08:53:36Z</time></trkpt><trkpt lat="40.44140652496906" lon="15.180324893929475"><ele>186.33333333333334</ele><time>2026-04-19T08:53:39Z</time></trkpt><trkpt lat="40.44145721050976" lon="15.180377735836114"><ele>185.0</ele><time>2026-04-19T08:53:46Z</time></trkpt><trkpt lat="40.441521621662766" lon="15.18043928353798"><ele>183.66666666666669</ele><time>2026-04-19T08:53:50Z</time></trkpt><trkpt lat="40.441592726253496" lon="15.18050375709246"><ele>182.33333333333334</ele><time>2026-04-19T08:53:53Z</time></trkpt><trkpt lat="40.44165750484018" lon="15.180573123458782"><ele>181.0</ele><time>2026-04-19T08:53:55Z</time></trkpt><trkpt lat="40.441714665885435" lon="15.180636776950035"><ele>180.16666666666669</ele><time>2026-04-19T08:53:57Z</time></trkpt><trkpt lat="40.4417717586107" lon="15.18072100266328"><ele>179.33333333333334</ele><time>2026-04-19T08:53:59Z</time></trkpt><trkpt lat="40.441833133342826" lon="15.180765528690666"><ele>178.5</ele><time>2026-04-19T08:54:01Z</time></trkpt><trkpt lat="40.441908900523615" lon="15.180806341632781"><ele>177.66666666666666</ele><time>2026-04-19T08:54:04Z</time></trkpt><trkpt lat="40.441975443364456" lon="15.180841906084781"><ele>176.83333333333331</ele><time>2026-04-19T08:54:07Z</time></trkpt><trkpt lat="40.44204683003262" lon="15.180865449013263"><ele>176.0</ele><time>2026-04-19T08:54:10Z</time></trkpt><trkpt lat="40.44211646329923" lon="15.18092382322172"><ele>174.57142857142858</ele><time>2026-04-19T08:54:13Z</time></trkpt><trkpt lat="40.44218198589802" lon="15.180948761315634"><ele>173.14285714285714</ele><time>2026-04-19T08:54:15Z</time></trkpt><trkpt lat="40.44224178040941" lon="15.180984391226316"><ele>171.71428571428572</ele><time>2026-04-19T08:54:17Z</time></trkpt><trkpt lat="40.442309783666715" lon="15.181029356510487"><ele>170.28571428571428</ele><time>2026-04-19T08:54:19Z</time></trkpt><trkpt lat="40.442383571315624" lon="15.181084338659133"><ele>168.85714285714286</ele><time>2026-04-19T08:54:21Z</time></trkpt><trkpt lat="40.442445367422444" lon="15.18114465035641"><ele>167.42857142857142</ele><time>2026-04-19T08:54:23Z</time></trkpt><trkpt lat="40.44249911407096" lon="15.181203390204368"><ele>166.0</ele><time>2026-04-19T08:54:25Z</time></trkpt><trkpt lat="40.44254923023301" lon="15.181270018787203"><ele>166.0</ele><time>2026-04-19T08:54:28Z</time></trkpt><trkpt lat="40.442592725820674" lon="15.181333626265292"><ele>166.0</ele><time>2026-04-19T08:54:30Z</time></trkpt><trkpt lat="40.442643634647474" lon="15.181428426902151"><ele>166.0</ele><time>2026-04-19T08:54:33Z</time></trkpt><trkpt lat="40.442681238289055" lon="15.181502735653375"><ele>166.0</ele><time>2026-04-19T08:54:35Z</time></trkpt><trkpt lat="40.44272723130665" lon="15.181603296438377"><ele>166.0</ele><time>2026-04-19T08:54:38Z</time></trkpt><trkpt lat="40.44277395444444" lon="15.181690924228095"><ele>166.0</ele><time>2026-04-19T08:54:51Z</time></trkpt><trkpt lat="40.44279162837477" lon="15.181812684441399"><ele>164.5</ele><time>2026-04-19T08:54:54Z</time></trkpt><trkpt lat="40.442832484625576" lon="15.181907465286054"><ele>163.0</ele><time>2026-04-19T08:54:57Z</time></trkpt><trkpt lat="40.442894412553706" lon="15.181977216620238"><ele>161.5</ele><time>2026-04-19T08:54:59Z</time></trkpt><trkpt lat="40.44292114924971" lon="15.182069824927106"><ele>160.0</ele><time>2026-04-19T08:55:01Z</time></trkpt><trkpt lat="40.442957624436964" lon="15.18214520008607"><ele>158.5</ele><time>2026-04-19T08:55:03Z</time></trkpt><trkpt lat="40.44297835706143" lon="15.182242080006413"><ele>157.0</ele><time>2026-04-19T08:55:05Z</time></trkpt><trkpt lat="40.443023839746864" lon="15.182363976229981"><ele>154.83333333333334</ele><time>2026-04-19T08:55:07Z</time></trkpt><trkpt lat="40.44303210993626" lon="15.182500806893106"><ele>152.66666666666669</ele><time>2026-04-19T08:55:09Z</time></trkpt><trkpt lat="40.44305100218729" lon="15.182594009335892"><ele>150.5</ele><time>2026-04-19T08:55:11Z</time></trkpt><trkpt lat="40.44309065581402" lon="15.182709926626636"><ele>148.33333333333334</ele><time>2026-04-19T08:55:13Z</time></trkpt><trkpt lat="40.44309871089431" lon="15.182829971411962"><ele>146.16666666666666</ele><time>2026-04-19T08:55:15Z</time></trkpt><trkpt lat="40.44312342975551" lon="15.182916190986605"><ele>144.0</ele><time>2026-04-19T08:55:17Z</time></trkpt><trkpt lat="40.4431666790576" lon="15.18298976146559"><ele>144.0</ele><time>2026-04-19T08:55:19Z</time></trkpt><trkpt lat="40.443201108843084" lon="15.183080829953544"><ele>144.0</ele><time>2026-04-19T08:55:24Z</time></trkpt><trkpt lat="40.44325146718032" lon="15.183158600545882"><ele>144.0</ele><time>2026-04-19T08:55:26Z</time></trkpt><trkpt lat="40.443323599198074" lon="15.183245430727322"><ele>144.0</ele><time>2026-04-19T08:55:29Z</time></trkpt><trkpt lat="40.443382591000194" lon="15.183371478310857"><ele>144.0</ele><time>2026-04-19T08:55:31Z</time></trkpt><trkpt lat="40.44347741615136" lon="15.183479273853278"><ele>142.83333333333334</ele><time>2026-04-19T08:55:33Z</time></trkpt><trkpt lat="40.44352885850282" lon="15.183527957812556"><ele>141.66666666666666</ele><time>2026-04-19T08:55:34Z</time></trkpt><trkpt lat="40.443604720074106" lon="15.183613306493932"><ele>140.5</ele><time>2026-04-19T08:55:36Z</time></trkpt><trkpt lat="40.443685562542" lon="15.183681202841097"><ele>139.33333333333331</ele><time>2026-04-19T08:55:38Z</time></trkpt><trkpt lat="40.443732501985934" lon="15.1837507295149"><ele>138.16666666666666</ele><time>2026-04-19T08:55:40Z</time></trkpt><trkpt lat="40.44381986299048" lon="15.18377934856534"><ele>137.0</ele><time>2026-04-19T08:55:42Z</time></trkpt><trkpt lat="40.44391370138755" lon="15.183790725381701"><ele>136.33333333333331</ele><time>2026-04-19T08:55:44Z</time></trkpt><trkpt lat="40.444005035159265" lon="15.18376162449775"><ele>135.66666666666666</ele><time>2026-04-19T08:55:46Z</time></trkpt><trkpt lat="40.444080030343734" lon="15.183708631618414"><ele>135.0</ele><time>2026-04-19T08:55:48Z</time></trkpt><trkpt lat="40.444128010778755" lon="15.183623611591699"><ele>134.33333333333334</ele><time>2026-04-19T08:55:50Z</time></trkpt><trkpt lat="40.44417373788143" lon="15.183563294965124"><ele>133.66666666666669</ele><time>2026-04-19T08:55:52Z</time></trkpt><trkpt lat="40.4442309547824" lon="15.183490077992515"><ele>133.0</ele><time>2026-04-19T08:55:54Z</time></trkpt><trkpt lat="40.44428843209621" lon="15.183430528778647"><ele>133.0</ele><time>2026-04-19T08:55:56Z</time></trkpt><trkpt lat="40.444365365399165" lon="15.183366337639882"><ele>133.0</ele><time>2026-04-19T08:55:59Z</time></trkpt><trkpt lat="40.444442600833796" lon="15.183292090178995"><ele>133.0</ele><time>2026-04-19T08:56:01Z</time></trkpt><trkpt lat="40.444498154575626" lon="15.183219303073436"><ele>133.0</ele><time>2026-04-19T08:56:03Z</time></trkpt><trkpt lat="40.44454701705419" lon="15.183129661616993"><ele>133.0</ele><time>2026-04-19T08:56:05Z</time></trkpt><trkpt lat="40.44458789500924" lon="15.183064655261655"><ele>133.0</ele><time>2026-04-19T08:56:07Z</time></trkpt><trkpt lat="40.444632939738895" lon="15.182993912881622"><ele>134.85714285714286</ele><time>2026-04-19T08:56:09Z</time></trkpt><trkpt lat="40.44468241539804" lon="15.182916211850403"><ele>136.71428571428572</ele><time>2026-04-19T08:56:11Z</time></trkpt><trkpt lat="40.444720473825086" lon="15.182833546733615"><ele>138.57142857142856</ele><time>2026-04-19T08:56:13Z</time></trkpt><trkpt lat="40.44477307149432" lon="15.182781644325232"><ele>140.42857142857144</ele><time>2026-04-19T08:56:15Z</time></trkpt><trkpt lat="40.44483337931341" lon="15.182737765274723"><ele>142.28571428571428</ele><time>2026-04-19T08:56:17Z</time></trkpt><trkpt lat="40.444901859380415" lon="15.182760638207352"><ele>144.14285714285714</ele><time>2026-04-19T08:56:20Z</time></trkpt><trkpt lat="40.44497702593051" lon="15.182778565540591"><ele>146.0</ele><time>2026-04-19T08:56:22Z</time></trkpt><trkpt lat="40.44503636060633" lon="15.182810434086605"><ele>146.0</ele><time>2026-04-19T08:56:23Z</time></trkpt><trkpt lat="40.445090589931105" lon="15.18285395031714"><ele>146.0</ele><time>2026-04-19T08:56:24Z</time></trkpt><trkpt lat="40.44522143587412" lon="15.182916106681839"><ele>146.0</ele><time>2026-04-19T08:56:26Z</time></trkpt><trkpt lat="40.44527802659883" lon="15.182964638160914"><ele>146.0</ele><time>2026-04-19T08:56:27Z</time></trkpt><trkpt lat="40.44534054167588" lon="15.182999122636089"><ele>146.0</ele><time>2026-04-19T08:56:28Z</time></trkpt><trkpt lat="40.4454087677438" lon="15.18301347653751"><ele>146.0</ele><time>2026-04-19T08:56:29Z</time></trkpt><trkpt lat="40.445472908597694" lon="15.18305505454603"><ele>148.33333333333331</ele><time>2026-04-19T08:56:30Z</time></trkpt><trkpt lat="40.445532945897575" lon="15.183096575308033"><ele>150.66666666666666</ele><time>2026-04-19T08:56:31Z</time></trkpt><trkpt lat="40.445588256097615" lon="15.183137410038668"><ele>153.0</ele><time>2026-04-19T08:56:32Z</time></trkpt><trkpt lat="40.44565343518974" lon="15.183177737517719"><ele>155.33333333333334</ele><time>2026-04-19T08:56:33Z</time></trkpt><trkpt lat="40.44572558156937" lon="15.18321142146089"><ele>157.66666666666669</ele><time>2026-04-19T08:56:34Z</time></trkpt><trkpt lat="40.44582601338139" lon="15.183284492218625"><ele>160.0</ele><time>2026-04-19T08:56:36Z</time></trkpt><trkpt lat="40.44593994361538" lon="15.183293253267603"><ele>160.0</ele><time>2026-04-19T08:56:38Z</time></trkpt><trkpt lat="40.44606087601914" lon="15.183316027300592"><ele>160.0</ele><time>2026-04-19T08:56:40Z</time></trkpt><trkpt lat="40.44612892648487" lon="15.183323327502444"><ele>160.0</ele><time>2026-04-19T08:56:41Z</time></trkpt><trkpt lat="40.44623176315278" lon="15.183290673488713"><ele>160.0</ele><time>2026-04-19T08:56:43Z</time></trkpt><trkpt lat="40.4462930366183" lon="15.183248940503743"><ele>160.0</ele><time>2026-04-19T08:56:44Z</time></trkpt><trkpt lat="40.44636160520633" lon="15.183206265612393"><ele>160.0</ele><time>2026-04-19T08:56:45Z</time></trkpt><trkpt lat="40.446430812276986" lon="15.183188809983788"><ele>161.42857142857142</ele><time>2026-04-19T08:56:46Z</time></trkpt><trkpt lat="40.446492353616065" lon="15.18314694115529"><ele>162.85714285714286</ele><time>2026-04-19T08:56:47Z</time></trkpt><trkpt lat="40.4465551690464" lon="15.183131460036684"><ele>164.28571428571428</ele><time>2026-04-19T08:56:48Z</time></trkpt><trkpt lat="40.44662105139818" lon="15.18312828589971"><ele>165.71428571428572</ele><time>2026-04-19T08:56:49Z</time></trkpt><trkpt lat="40.44668866892863" lon="15.183116686850372"><ele>167.14285714285714</ele><time>2026-04-19T08:56:50Z</time></trkpt><trkpt lat="40.44677450945898" lon="15.183097975717383"><ele>168.57142857142858</ele><time>2026-04-19T08:56:52Z</time></trkpt><trkpt lat="40.44682350727133" lon="15.18315963693997"><ele>170.0</ele><time>2026-04-19T08:56:54Z</time></trkpt><trkpt lat="40.44688828982976" lon="15.183194906367918"><ele>170.0</ele><time>2026-04-19T08:57:07Z</time></trkpt><trkpt lat="40.44695766775624" lon="15.183223356855022"><ele>170.0</ele><time>2026-04-19T08:57:09Z</time></trkpt><trkpt lat="40.44705278158919" lon="15.183269077239173"><ele>170.0</ele><time>2026-04-19T08:57:11Z</time></trkpt><trkpt lat="40.44713099074989" lon="15.183302726574734"><ele>170.0</ele><time>2026-04-19T08:57:13Z</time></trkpt><trkpt lat="40.44722415057215" lon="15.18334666103899"><ele>170.0</ele><time>2026-04-19T08:57:15Z</time></trkpt><trkpt lat="40.44729650410754" lon="15.183384734332138"><ele>170.0</ele><time>2026-04-19T08:57:17Z</time></trkpt><trkpt lat="40.447370048181455" lon="15.183447808930918"><ele>174.0</ele><time>2026-04-19T08:57:20Z</time></trkpt></trkseg><trkseg><trkpt lat="40.44748191081286" lon="15.183451458747118"><ele>174.0</ele><time>2026-04-19T09:07:45Z</time></trkpt><trkpt lat="40.44756311899775" lon="15.18344144062716"><ele>174.0</ele><time>2026-04-19T09:07:48Z</time></trkpt><trkpt lat="40.447635704884526" lon="15.183431351441033"><ele>174.0</ele><time>2026-04-19T09:07:50Z</time></trkpt><trkpt lat="40.447703957976515" lon="15.183411461111902"><ele>174.0</ele><time>2026-04-19T09:07:52Z</time></trkpt><trkpt lat="40.44776930422466" lon="15.183386171576732"><ele>174.0</ele><time>2026-04-19T09:07:54Z</time></trkpt><trkpt lat="40.44784870262755" lon="15.183344346421373"><ele>174.0</ele><time>2026-04-19T09:07:56Z</time></trkpt><trkpt lat="40.44794928370316" lon="15.183268573614862"><ele>172.25</ele><time>2026-04-19T09:07:58Z</time></trkpt><trkpt lat="40.44804727441701" lon="15.183178729776033"><ele>170.5</ele><time>2026-04-19T09:08:00Z</time></trkpt><trkpt lat="40.44814501267179" lon="15.183091455654013"><ele>168.75</ele><time>2026-04-19T09:08:02Z</time></trkpt><trkpt lat="40.448237675852056" lon="15.183012605703386"><ele>167.0</ele><time>2026-04-19T09:08:04Z</time></trkpt><trkpt lat="40.44832086061308" lon="15.182927959182228"><ele>167.0</ele><time>2026-04-19T09:08:06Z</time></trkpt><trkpt lat="40.44839712105094" lon="15.182854367206781"><ele>167.0</ele><time>2026-04-19T09:08:08Z</time></trkpt><trkpt lat="40.44848056676147" lon="15.18279897580941"><ele>167.0</ele><time>2026-04-19T09:08:10Z</time></trkpt><trkpt lat="40.44855214326517" lon="15.182769094975006"><ele>167.0</ele><time>2026-04-19T09:08:12Z</time></trkpt><trkpt lat="40.44861842644151" lon="15.182746120031563"><ele>167.0</ele><time>2026-04-19T09:08:14Z</time></trkpt><trkpt lat="40.44869877373392" lon="15.182741598937087"><ele>167.0</ele><time>2026-04-19T09:08:16Z</time></trkpt><trkpt lat="40.448782371441126" lon="15.182732979893748"><ele>163.66666666666666</ele><time>2026-04-19T09:08:18Z</time></trkpt><trkpt lat="40.44887107917962" lon="15.182706059886115"><ele>160.33333333333331</ele><time>2026-04-19T09:08:20Z</time></trkpt><trkpt lat="40.448945195616254" lon="15.182682491386055"><ele>157.0</ele><time>2026-04-19T09:08:22Z</time></trkpt><trkpt lat="40.4490124463554" lon="15.182664681805036"><ele>153.66666666666666</ele><time>2026-04-19T09:08:24Z</time></trkpt><trkpt lat="40.44909669303826" lon="15.182632354862909"><ele>150.33333333333334</ele><time>2026-04-19T09:08:26Z</time></trkpt><trkpt lat="40.449161598495024" lon="15.18257712167008"><ele>147.0</ele><time>2026-04-19T09:08:28Z</time></trkpt><trkpt lat="40.44920985742556" lon="15.18250241685221"><ele>147.0</ele><time>2026-04-19T09:08:30Z</time></trkpt><trkpt lat="40.44927637041621" lon="15.182469481316172"><ele>147.0</ele><time>2026-04-19T09:08:33Z</time></trkpt><trkpt lat="40.449313436832874" lon="15.182580793047226"><ele>147.0</ele><time>2026-04-19T09:08:37Z</time></trkpt><trkpt lat="40.449305007908954" lon="15.182678069222321"><ele>147.0</ele><time>2026-04-19T09:08:39Z</time></trkpt><trkpt lat="40.44930438182445" lon="15.182793749177353"><ele>147.0</ele><time>2026-04-19T09:08:42Z</time></trkpt><trkpt lat="40.449288813070055" lon="15.182917686887857"><ele>147.0</ele><time>2026-04-19T09:08:45Z</time></trkpt><trkpt lat="40.44925304141467" lon="15.183010787223129"><ele>147.0</ele><time>2026-04-19T09:08:47Z</time></trkpt><trkpt lat="40.449201818511405" lon="15.183092863398127"><ele>147.0</ele><time>2026-04-19T09:08:50Z</time></trkpt><trkpt lat="40.44925517636506" lon="15.183167262535774"><ele>147.0</ele><time>2026-04-19T09:08:54Z</time></trkpt><trkpt lat="40.449314201868596" lon="15.183080864496336"><ele>147.0</ele><time>2026-04-19T09:08:58Z</time></trkpt><trkpt lat="40.449367597789404" lon="15.1830271286638"><ele>147.0</ele><time>2026-04-19T09:09:04Z</time></trkpt><trkpt lat="40.44943290639276" lon="15.183028144219088"><ele>147.0</ele><time>2026-04-19T09:09:10Z</time></trkpt><trkpt lat="40.449521139542334" lon="15.182977019559871"><ele>147.0</ele><time>2026-04-19T09:09:12.998Z</time></trkpt><trkpt lat="40.44957983558505" lon="15.182863937406845"><ele>147.0</ele><time>2026-04-19T09:09:14.998Z</time></trkpt><trkpt lat="40.44962945244256" lon="15.182775342835358"><ele>147.0</ele><time>2026-04-19T09:09:17.998Z</time></trkpt><trkpt lat="40.44966475077035" lon="15.182662320168898"><ele>147.0</ele><time>2026-04-19T09:09:20.998Z</time></trkpt><trkpt lat="40.449659723874895" lon="15.182559578902271"><ele>147.0</ele><time>2026-04-19T09:09:22.998Z</time></trkpt><trkpt lat="40.44961146018085" lon="15.182430196532103"><ele>146.28571428571428</ele><time>2026-04-19T09:09:24.998Z</time></trkpt><trkpt lat="40.44960442562844" lon="15.182326669216572"><ele>145.57142857142856</ele><time>2026-04-19T09:09:27.999Z</time></trkpt><trkpt lat="40.44966458591858" lon="15.182293843151996"><ele>144.85714285714286</ele><time>2026-04-19T09:09:29.999Z</time></trkpt><trkpt lat="40.449729159496584" lon="15.18228782011928"><ele>144.14285714285714</ele><time>2026-04-19T09:09:30.999Z</time></trkpt><trkpt lat="40.44979853699463" lon="15.182290209949242"><ele>143.42857142857142</ele><time>2026-04-19T09:09:31.999Z</time></trkpt><trkpt lat="40.44986936592446" lon="15.18227915445521"><ele>142.71428571428572</ele><time>2026-04-19T09:09:32.999Z</time></trkpt><trkpt lat="40.44993786640296" lon="15.182263611074461"><ele>142.0</ele><time>2026-04-19T09:09:33.999Z</time></trkpt><trkpt lat="40.450004698447415" lon="15.18225356294015"><ele>142.0</ele><time>2026-04-19T09:09:34.999Z</time></trkpt><trkpt lat="40.45007904317842" lon="15.182241868752001"><ele>142.0</ele><time>2026-04-19T09:09:35.999Z</time></trkpt><trkpt lat="40.450156148680925" lon="15.182230431101628"><ele>142.0</ele><time>2026-04-19T09:09:36.999Z</time></trkpt><trkpt lat="40.45022835944305" lon="15.182222600560017"><ele>142.0</ele><time>2026-04-19T09:09:37.999Z</time></trkpt><trkpt lat="40.450320242515744" lon="15.182209092819058"><ele>142.0</ele><time>2026-04-19T09:09:39.999Z</time></trkpt><trkpt lat="40.45033738524577" lon="15.182112195022471"><ele>142.0</ele><time>2026-04-19T09:09:42.999Z</time></trkpt><trkpt lat="40.45033465374097" lon="15.181954471041704"><ele>142.0</ele><time>2026-04-19T09:09:44.999Z</time></trkpt><trkpt lat="40.45032379911815" lon="15.18183827963779"><ele>142.0</ele><time>2026-04-19T09:09:46.999Z</time></trkpt><trkpt lat="40.45031465905583" lon="15.181725814678735"><ele>142.0</ele><time>2026-04-19T09:09:48.999Z</time></trkpt><trkpt lat="40.45029134772846" lon="15.181608163615339"><ele>142.0</ele><time>2026-04-19T09:09:50.999Z</time></trkpt><trkpt lat="40.45028968525722" lon="15.181506348619871"><ele>142.0</ele><time>2026-04-19T09:09:53.999Z</time></trkpt><trkpt lat="40.45032659746082" lon="15.18142481684841"><ele>142.0</ele><time>2026-04-19T09:09:57.999Z</time></trkpt><trkpt lat="40.450379796608665" lon="15.181372143184046"><ele>142.83333333333334</ele><time>2026-04-19T09:09:59.999Z</time></trkpt><trkpt lat="40.45044337008225" lon="15.181306638273"><ele>143.66666666666669</ele><time>2026-04-19T09:10:04Z</time></trkpt><trkpt lat="40.45051376182086" lon="15.181264926490275"><ele>144.5</ele><time>2026-04-19T09:10:07Z</time></trkpt><trkpt lat="40.45058647439114" lon="15.181221800725616"><ele>145.33333333333334</ele><time>2026-04-19T09:10:09Z</time></trkpt><trkpt lat="40.45065126159905" lon="15.181187589536874"><ele>146.16666666666666</ele><time>2026-04-19T09:10:11Z</time></trkpt><trkpt lat="40.45072878956571" lon="15.181150110451338"><ele>147.0</ele><time>2026-04-19T09:10:13Z</time></trkpt><trkpt lat="40.450815332564005" lon="15.181102745092362"><ele>149.33333333333334</ele><time>2026-04-19T09:10:15Z</time></trkpt><trkpt lat="40.45088008040715" lon="15.181056946661927"><ele>151.66666666666666</ele><time>2026-04-19T09:10:17Z</time></trkpt><trkpt lat="40.45097373225182" lon="15.181031121384063"><ele>154.0</ele><time>2026-04-19T09:10:20Z</time></trkpt><trkpt lat="40.451058022025784" lon="15.181024032072116"><ele>156.33333333333331</ele><time>2026-04-19T09:10:22Z</time></trkpt><trkpt lat="40.45113841598785" lon="15.181008554381219"><ele>158.66666666666666</ele><time>2026-04-19T09:10:24Z</time></trkpt><trkpt lat="40.45121417400939" lon="15.180978974669959"><ele>161.0</ele><time>2026-04-19T09:10:26Z</time></trkpt><trkpt lat="40.45128819729965" lon="15.180947594934137"><ele>163.60000000000002</ele><time>2026-04-19T09:10:28Z</time></trkpt><trkpt lat="40.451376643687574" lon="15.180940525225603"><ele>166.2</ele><time>2026-04-19T09:10:30Z</time></trkpt><trkpt lat="40.451463240907984" lon="15.180936991139227"><ele>168.8</ele><time>2026-04-19T09:10:32Z</time></trkpt><trkpt lat="40.4515477873849" lon="15.180857425193969"><ele>171.39999999999998</ele><time>2026-04-19T09:10:34Z</time></trkpt><trkpt lat="40.45159789864617" lon="15.18080654914266"><ele>174.0</ele><time>2026-04-19T09:10:35Z</time></trkpt><trkpt lat="40.45168582766038" lon="15.180695388584306"><ele>175.79999999999998</ele><time>2026-04-19T09:10:37Z</time></trkpt><trkpt lat="40.451752946825515" lon="15.180586941301591"><ele>177.6</ele><time>2026-04-19T09:10:39Z</time></trkpt><trkpt lat="40.45182931119616" lon="15.18048218941588"><ele>179.4</ele><time>2026-04-19T09:10:41Z</time></trkpt><trkpt lat="40.45186715277799" lon="15.180413252779843"><ele>181.2</ele><time>2026-04-19T09:10:42Z</time></trkpt><trkpt lat="40.45192655433268" lon="15.180286431292597"><ele>183.0</ele><time>2026-04-19T09:10:44Z</time></trkpt><trkpt lat="40.451993495968644" lon="15.180149618841378"><ele>183.0</ele><time>2026-04-19T09:10:46Z</time></trkpt><trkpt lat="40.452033662487175" lon="15.180079927924266"><ele>183.0</ele><time>2026-04-19T09:10:47Z</time></trkpt><trkpt lat="40.45210621487546" lon="15.179961947264394"><ele>183.0</ele><time>2026-04-19T09:10:49Z</time></trkpt><trkpt lat="40.452151097708644" lon="15.179899652713013"><ele>183.0</ele><time>2026-04-19T09:10:50Z</time></trkpt><trkpt lat="40.45223466942575" lon="15.17979150761016"><ele>183.0</ele><time>2026-04-19T09:10:52Z</time></trkpt><trkpt lat="40.45232860934464" lon="15.179695776004158"><ele>185.2</ele><time>2026-04-19T09:10:54Z</time></trkpt><trkpt lat="40.45238448236694" lon="15.17962665432506"><ele>187.4</ele><time>2026-04-19T09:10:55Z</time></trkpt><trkpt lat="40.45245460651525" lon="15.179547013993998"><ele>189.6</ele><time>2026-04-19T09:10:56Z</time></trkpt><trkpt lat="40.45253274234303" lon="15.179459085112212"><ele>191.79999999999998</ele><time>2026-04-19T09:10:57Z</time></trkpt><trkpt lat="40.45261292509478" lon="15.179363462787135"><ele>194.0</ele><time>2026-04-19T09:10:58Z</time></trkpt><trkpt lat="40.45269753667162" lon="15.179297340201277"><ele>194.00000000000003</ele><time>2026-04-19T09:10:59Z</time></trkpt><trkpt lat="40.45277560383265" lon="15.179228314723193"><ele>194.0</ele><time>2026-04-19T09:11:00Z</time></trkpt><trkpt lat="40.45284357745563" lon="15.179168213752572"><ele>194.0</ele><time>2026-04-19T09:11:01Z</time></trkpt><trkpt lat="40.452906032645664" lon="15.17912001468409"><ele>194.0</ele><time>2026-04-19T09:11:02Z</time></trkpt><trkpt lat="40.4529963753189" lon="15.179031775206216"><ele>194.00000000000003</ele><time>2026-04-19T09:11:04Z</time></trkpt><trkpt lat="40.453054285802835" lon="15.178994617009437"><ele>194.0</ele><time>2026-04-19T09:11:25.998Z</time></trkpt><trkpt lat="40.453130787685225" lon="15.178923314429436"><ele>195.42857142857142</ele><time>2026-04-19T09:11:27.998Z</time></trkpt><trkpt lat="40.4531832787717" lon="15.178870611457791"><ele>196.85714285714286</ele><time>2026-04-19T09:11:28.998Z</time></trkpt><trkpt lat="40.45323806918533" lon="15.178818042570944"><ele>198.28571428571428</ele><time>2026-04-19T09:11:29.998Z</time></trkpt><trkpt lat="40.453296010157295" lon="15.178772174659144"><ele>199.71428571428572</ele><time>2026-04-19T09:11:30.998Z</time></trkpt><trkpt lat="40.45334737291614" lon="15.178705859522713"><ele>201.14285714285717</ele><time>2026-04-19T09:11:31.998Z</time></trkpt><trkpt lat="40.453410106373845" lon="15.178642463188647"><ele>202.57142857142858</ele><time>2026-04-19T09:11:32.998Z</time></trkpt><trkpt lat="40.453479640694795" lon="15.178572496793382"><ele>204.0</ele><time>2026-04-19T09:11:33.999Z</time></trkpt><trkpt lat="40.45356264045918" lon="15.178523580377604"><ele>204.0</ele><time>2026-04-19T09:11:34.999Z</time></trkpt><trkpt lat="40.453636780083684" lon="15.178439507912902"><ele>204.0</ele><time>2026-04-19T09:11:35.999Z</time></trkpt><trkpt lat="40.45371439841407" lon="15.17839077589672"><ele>204.0</ele><time>2026-04-19T09:11:36.999Z</time></trkpt><trkpt lat="40.45378994238415" lon="15.178357678198726"><ele>204.0</ele><time>2026-04-19T09:11:37.999Z</time></trkpt><trkpt lat="40.45386077182879" lon="15.178314611333414"><ele>204.0</ele><time>2026-04-19T09:11:38.999Z</time></trkpt><trkpt lat="40.45393967992496" lon="15.178265169307485"><ele>204.0</ele><time>2026-04-19T09:11:39.999Z</time></trkpt><trkpt lat="40.454030607678874" lon="15.178230774347755"><ele>205.2</ele><time>2026-04-19T09:11:40.999Z</time></trkpt><trkpt lat="40.45413109566491" lon="15.17820712291326"><ele>206.39999999999998</ele><time>2026-04-19T09:11:41.999Z</time></trkpt><trkpt lat="40.454245838039995" lon="15.17820433469067"><ele>207.6</ele><time>2026-04-19T09:11:42.999Z</time></trkpt><trkpt lat="40.45434340087709" lon="15.178180158581968"><ele>208.8</ele><time>2026-04-19T09:11:43.999Z</time></trkpt><trkpt lat="40.454427283257374" lon="15.178177261317346"><ele>210.0</ele><time>2026-04-19T09:11:44.999Z</time></trkpt><trkpt lat="40.45450849965386" lon="15.178176247480526"><ele>210.2</ele><time>2026-04-19T09:11:45.999Z</time></trkpt><trkpt lat="40.454587612036384" lon="15.178131239622381"><ele>210.4</ele><time>2026-04-19T09:11:46.999Z</time></trkpt><trkpt lat="40.45467143649297" lon="15.178067274535392"><ele>210.60000000000002</ele><time>2026-04-19T09:11:47.999Z</time></trkpt><trkpt lat="40.454757033858165" lon="15.17800344387174"><ele>210.8</ele><time>2026-04-19T09:11:48.999Z</time></trkpt><trkpt lat="40.45484751242808" lon="15.177931637443423"><ele>211.0</ele><time>2026-04-19T09:11:49.999Z</time></trkpt><trkpt lat="40.45493580741603" lon="15.17785454219208"><ele>212.8</ele><time>2026-04-19T09:11:50.999Z</time></trkpt><trkpt lat="40.45501105317711" lon="15.17777783687602"><ele>214.60000000000002</ele><time>2026-04-19T09:11:51.999Z</time></trkpt><trkpt lat="40.45509365809023" lon="15.177720396932902"><ele>216.4</ele><time>2026-04-19T09:11:52.999Z</time></trkpt><trkpt lat="40.455188220170264" lon="15.177654675332267"><ele>218.2</ele><time>2026-04-19T09:11:53.999Z</time></trkpt><trkpt lat="40.455297309888586" lon="15.177586725768881"><ele>220.0</ele><time>2026-04-19T09:11:54.999Z</time></trkpt><trkpt lat="40.45540635996343" lon="15.177544283995159"><ele>219.75</ele><time>2026-04-19T09:11:55.999Z</time></trkpt><trkpt lat="40.45550151757592" lon="15.177487695238453"><ele>219.5</ele><time>2026-04-19T09:11:56.999Z</time></trkpt><trkpt lat="40.45560298572642" lon="15.177402705859903"><ele>219.25</ele><time>2026-04-19T09:11:57.999Z</time></trkpt><trkpt lat="40.455709063383985" lon="15.177291279166484"><ele>219.0</ele><time>2026-04-19T09:11:59Z</time></trkpt><trkpt lat="40.45581977779428" lon="15.177198206271221"><ele>218.6</ele><time>2026-04-19T09:12:00Z</time></trkpt><trkpt lat="40.45591839591453" lon="15.177124977328024"><ele>218.2</ele><time>2026-04-19T09:12:01Z</time></trkpt><trkpt lat="40.45601391777393" lon="15.17707400896058"><ele>217.79999999999998</ele><time>2026-04-19T09:12:02Z</time></trkpt><trkpt lat="40.45611075155072" lon="15.177050001760442"><ele>217.39999999999998</ele><time>2026-04-19T09:12:03Z</time></trkpt><trkpt lat="40.45621796603002" lon="15.177051891112038"><ele>217.0</ele><time>2026-04-19T09:12:04Z</time></trkpt><trkpt lat="40.45633759542359" lon="15.17707266428407"><ele>218.75</ele><time>2026-04-19T09:12:05Z</time></trkpt><trkpt lat="40.45645089020545" lon="15.177068660247896"><ele>220.5</ele><time>2026-04-19T09:12:06Z</time></trkpt><trkpt lat="40.456554036910305" lon="15.1770217502602"><ele>222.25</ele><time>2026-04-19T09:12:07Z</time></trkpt><trkpt lat="40.456652672239606" lon="15.176945985835014"><ele>224.0</ele><time>2026-04-19T09:12:08Z</time></trkpt><trkpt lat="40.45674789740465" lon="15.176842102606578"><ele>224.0</ele><time>2026-04-19T09:12:09Z</time></trkpt><trkpt lat="40.456846600111405" lon="15.176734360211713"><ele>224.0</ele><time>2026-04-19T09:12:10Z</time></trkpt><trkpt lat="40.456960581106834" lon="15.176647024440186"><ele>224.0</ele><time>2026-04-19T09:12:11Z</time></trkpt><trkpt lat="40.45709466090542" lon="15.176575837332459"><ele>224.0</ele><time>2026-04-19T09:12:12Z</time></trkpt><trkpt lat="40.45723536987366" lon="15.176495869721519"><ele>227.33333333333334</ele><time>2026-04-19T09:12:13Z</time></trkpt><trkpt lat="40.45737323895238" lon="15.176398057983027"><ele>230.66666666666669</ele><time>2026-04-19T09:12:14Z</time></trkpt><trkpt lat="40.457511043713836" lon="15.176297294150551"><ele>234.0</ele><time>2026-04-19T09:12:15Z</time></trkpt><trkpt lat="40.45765167521584" lon="15.176193657220434"><ele>234.0</ele><time>2026-04-19T09:12:16Z</time></trkpt><trkpt lat="40.45779757973321" lon="15.176087711022696"><ele>234.0</ele><time>2026-04-19T09:12:17Z</time></trkpt><trkpt lat="40.457941958013336" lon="15.175991135376727"><ele>234.0</ele><time>2026-04-19T09:12:18Z</time></trkpt><trkpt lat="40.45809096272166" lon="15.175896677119209"><ele>237.0</ele><time>2026-04-19T09:12:19Z</time></trkpt><trkpt lat="40.45823685269909" lon="15.175808206985826"><ele>240.0</ele><time>2026-04-19T09:12:20Z</time></trkpt><trkpt lat="40.45838458387565" lon="15.17572781894539"><ele>243.0</ele><time>2026-04-19T09:12:21Z</time></trkpt><trkpt lat="40.458527554065924" lon="15.175662674710031"><ele>244.0</ele><time>2026-04-19T09:12:22Z</time></trkpt><trkpt lat="40.458671718810024" lon="15.175610433131856"><ele>245.0</ele><time>2026-04-19T09:12:23Z</time></trkpt><trkpt lat="40.45881629116071" lon="15.17558216166524"><ele>246.0</ele><time>2026-04-19T09:12:24Z</time></trkpt><trkpt lat="40.45896824398018" lon="15.175560948724073"><ele>247.0</ele><time>2026-04-19T09:12:25Z</time></trkpt><trkpt lat="40.459106529177156" lon="15.175528502478738"><ele>250.0</ele><time>2026-04-19T09:12:26Z</time></trkpt><trkpt lat="40.459225809029306" lon="15.175488771352422"><ele>253.0</ele><time>2026-04-19T09:12:27Z</time></trkpt><trkpt lat="40.45934114551873" lon="15.175492759646161"><ele>256.0</ele><time>2026-04-19T09:12:28Z</time></trkpt><trkpt lat="40.45945110313051" lon="15.175472619191169"><ele>259.0</ele><time>2026-04-19T09:12:29Z</time></trkpt><trkpt lat="40.45953851856998" lon="15.17547289265747"><ele>262.0</ele><time>2026-04-19T09:12:30Z</time></trkpt><trkpt lat="40.45960535758161" lon="15.175441520170327"><ele>265.2</ele><time>2026-04-19T09:12:31Z</time></trkpt><trkpt lat="40.45969389155135" lon="15.175280066033796"><ele>268.4</ele><time>2026-04-19T09:12:33Z</time></trkpt><trkpt lat="40.45975978659855" lon="15.17518717970822"><ele>271.6</ele><time>2026-04-19T09:12:34Z</time></trkpt><trkpt lat="40.459821093546516" lon="15.175130031226688"><ele>274.8</ele><time>2026-04-19T09:12:35Z</time></trkpt><trkpt lat="40.45988633410237" lon="15.175104139392454"><ele>278.0</ele><time>2026-04-19T09:12:36Z</time></trkpt><trkpt lat="40.45995198932867" lon="15.17509491604462"><ele>278.0</ele><time>2026-04-19T09:12:37Z</time></trkpt><trkpt lat="40.460056861763" lon="15.175098935678532"><ele>278.0</ele><time>2026-04-19T09:12:38Z</time></trkpt><trkpt lat="40.46017887599519" lon="15.175112379327286"><ele>278.0</ele><time>2026-04-19T09:12:39Z</time></trkpt><trkpt lat="40.46028893992074" lon="15.175105893476916"><ele>278.0</ele><time>2026-04-19T09:12:40Z</time></trkpt><trkpt lat="40.460362959406496" lon="15.17506163745342"><ele>278.0</ele><time>2026-04-19T09:12:41Z</time></trkpt><trkpt lat="40.46043867900159" lon="15.175022818241045"><ele>281.0</ele><time>2026-04-19T09:12:42Z</time></trkpt><trkpt lat="40.46051745241958" lon="15.174948350751544"><ele>284.0</ele><time>2026-04-19T09:12:43Z</time></trkpt><trkpt lat="40.46061484811098" lon="15.174885520963977"><ele>287.0</ele><time>2026-04-19T09:12:44Z</time></trkpt><trkpt lat="40.46070554983081" lon="15.174784684378062"><ele>290.0</ele><time>2026-04-19T09:12:45Z</time></trkpt><trkpt lat="40.46080867949679" lon="15.174690898243608"><ele>291.0</ele><time>2026-04-19T09:12:46Z</time></trkpt><trkpt lat="40.460914531161684" lon="15.17457057633762"><ele>292.0</ele><time>2026-04-19T09:12:47Z</time></trkpt><trkpt lat="40.46100723154989" lon="15.174439935561116"><ele>293.0</ele><time>2026-04-19T09:12:48Z</time></trkpt><trkpt lat="40.46109771432006" lon="15.17434736930121"><ele>294.0</ele><time>2026-04-19T09:12:49Z</time></trkpt><trkpt lat="40.46117830190363" lon="15.174267826088107"><ele>294.0</ele><time>2026-04-19T09:12:50Z</time></trkpt><trkpt lat="40.46126090269437" lon="15.174200476154565"><ele>294.0</ele><time>2026-04-19T09:12:51Z</time></trkpt><trkpt lat="40.461349012612544" lon="15.174149815028455"><ele>294.0</ele><time>2026-04-19T09:12:52Z</time></trkpt><trkpt lat="40.461440100545715" lon="15.174107199414916"><ele>294.0</ele><time>2026-04-19T09:12:53Z</time></trkpt><trkpt lat="40.461504642535964" lon="15.174067255665419"><ele>294.0</ele><time>2026-04-19T09:12:54Z</time></trkpt><trkpt lat="40.461583342032405" lon="15.174057635344221"><ele>294.0</ele><time>2026-04-19T09:12:56Z</time></trkpt><trkpt lat="40.4616536949171" lon="15.174072964973439"><ele>296.1666666666667</ele><time>2026-04-19T09:12:59.001Z</time></trkpt><trkpt lat="40.461692600837786" lon="15.173983059963808"><ele>298.3333333333333</ele><time>2026-04-19T09:13:06.001Z</time></trkpt><trkpt lat="40.4617716045986" lon="15.17396427670878"><ele>300.5</ele><time>2026-04-19T09:13:08.001Z</time></trkpt><trkpt lat="40.4618382897042" lon="15.173929630146992"><ele>302.66666666666663</ele><time>2026-04-19T09:13:09.001Z</time></trkpt><trkpt lat="40.46192371595562" lon="15.173913061336892"><ele>304.8333333333333</ele><time>2026-04-19T09:13:10.001Z</time></trkpt><trkpt lat="40.46202328140054" lon="15.173880312570391"><ele>307.0</ele><time>2026-04-19T09:13:11.001Z</time></trkpt><trkpt lat="40.46214272767889" lon="15.173828223279061"><ele>311.25</ele><time>2026-04-19T09:13:12.001Z</time></trkpt><trkpt lat="40.46227734169052" lon="15.173804053964222"><ele>315.5</ele><time>2026-04-19T09:13:13.001Z</time></trkpt><trkpt lat="40.462405507232624" lon="15.173759592215974"><ele>319.75</ele><time>2026-04-19T09:13:14.001Z</time></trkpt><trkpt lat="40.46250447545101" lon="15.173700977423792"><ele>324.0</ele><time>2026-04-19T09:13:15.001Z</time></trkpt><trkpt lat="40.46259898268648" lon="15.173664400491951"><ele>324.0</ele><time>2026-04-19T09:13:16.001Z</time></trkpt><trkpt lat="40.46268899130769" lon="15.173626063176588"><ele>324.0</ele><time>2026-04-19T09:13:17.001Z</time></trkpt><trkpt lat="40.462769871484404" lon="15.173555499175121"><ele>324.0</ele><time>2026-04-19T09:13:18.001Z</time></trkpt><trkpt lat="40.46283858594167" lon="15.173482498448855"><ele>324.0</ele><time>2026-04-19T09:13:19.001Z</time></trkpt><trkpt lat="40.46290751478449" lon="15.173408565919349"><ele>324.0</ele><time>2026-04-19T09:13:20.001Z</time></trkpt><trkpt lat="40.462965950133466" lon="15.173362115094726"><ele>324.0</ele><time>2026-04-19T09:13:21.001Z</time></trkpt><trkpt lat="40.46303661399912" lon="15.173304709400407"><ele>326.0</ele><time>2026-04-19T09:13:28.999Z</time></trkpt><trkpt lat="40.463098216948964" lon="15.173237337809857"><ele>328.0</ele><time>2026-04-19T09:14:28.001Z</time></trkpt><trkpt lat="40.4631651334365" lon="15.173173109750051"><ele>330.0</ele><time>2026-04-19T09:14:59.001Z</time></trkpt><trkpt lat="40.46324514359221" lon="15.173088916319841"><ele>332.0</ele><time>2026-04-19T09:15:01.001Z</time></trkpt><trkpt lat="40.46328881705829" lon="15.173014791063347"><ele>334.0</ele><time>2026-04-19T09:15:02.001Z</time></trkpt><trkpt lat="40.46334678486789" lon="15.172948005223795"><ele>336.0</ele><time>2026-04-19T09:15:03.001Z</time></trkpt><trkpt lat="40.46340879046752" lon="15.172871079563269"><ele>336.0</ele><time>2026-04-19T09:15:04.001Z</time></trkpt><trkpt lat="40.46347370236693" lon="15.172788330470338"><ele>336.0</ele><time>2026-04-19T09:15:05.001Z</time></trkpt><trkpt lat="40.46352146696417" lon="15.172720238018924"><ele>336.0</ele><time>2026-04-19T09:15:06.001Z</time></trkpt><trkpt lat="40.463574180809466" lon="15.172654064407949"><ele>336.0</ele><time>2026-04-19T09:15:07.001Z</time></trkpt><trkpt lat="40.46363509803076" lon="15.172595817874214"><ele>336.0</ele><time>2026-04-19T09:15:08.001Z</time></trkpt><trkpt lat="40.463714625966645" lon="15.172509013265898"><ele>336.0</ele><time>2026-04-19T09:15:10.001Z</time></trkpt><trkpt lat="40.463777091452336" lon="15.172443729961698"><ele>338.1666666666667</ele><time>2026-04-19T09:15:13.001Z</time></trkpt><trkpt lat="40.46384367812449" lon="15.172406957652617"><ele>340.3333333333333</ele><time>2026-04-19T09:15:16.001Z</time></trkpt><trkpt lat="40.463960924504285" lon="15.172348068248484"><ele>342.5</ele><time>2026-04-19T09:15:18.001Z</time></trkpt><trkpt lat="40.464025830526815" lon="15.172313450729858"><ele>344.66666666666663</ele><time>2026-04-19T09:15:19.001Z</time></trkpt><trkpt lat="40.46409438357539" lon="15.17227308017525"><ele>346.8333333333333</ele><time>2026-04-19T09:15:21.001Z</time></trkpt><trkpt lat="40.46417184801391" lon="15.172226174877194"><ele>349.0</ele><time>2026-04-19T09:15:30.002Z</time></trkpt><trkpt lat="40.46422499312771" lon="15.172440619823325"><ele>349.3333333333333</ele><time>2026-04-19T09:15:33.001Z</time></trkpt><trkpt lat="40.46426378919605" lon="15.172536348703977"><ele>349.66666666666663</ele><time>2026-04-19T09:15:34.001Z</time></trkpt><trkpt lat="40.464304178965435" lon="15.172641442560888"><ele>350.0</ele><time>2026-04-19T09:15:35.001Z</time></trkpt><trkpt lat="40.46435401263394" lon="15.172734403011793"><ele>350.3333333333333</ele><time>2026-04-19T09:15:36.001Z</time></trkpt><trkpt lat="40.46439716607022" lon="15.172811691378469"><ele>350.6666666666667</ele><time>2026-04-19T09:15:37.001Z</time></trkpt><trkpt lat="40.46444091786821" lon="15.172879002952532"><ele>351.0</ele><time>2026-04-19T09:15:38.001Z</time></trkpt><trkpt lat="40.46449681309575" lon="15.17299562591499"><ele>351.0</ele><time>2026-04-19T09:15:40.001Z</time></trkpt><trkpt lat="40.4644439188893" lon="15.1731323167426"><ele>351.0</ele><time>2026-04-19T09:15:41.001Z</time></trkpt><trkpt lat="40.46443848942074" lon="15.173239261462804"><ele>351.0</ele><time>2026-04-19T09:15:42.001Z</time></trkpt><trkpt lat="40.46443190132193" lon="15.173350413953434"><ele>351.0</ele><time>2026-04-19T09:15:43.001Z</time></trkpt><trkpt lat="40.46441498456522" lon="15.173461188667519"><ele>351.0</ele><time>2026-04-19T09:15:44.001Z</time></trkpt><trkpt lat="40.464372234905596" lon="15.173555968840219"><ele>350.0</ele><time>2026-04-19T09:15:45.001Z</time></trkpt><trkpt lat="40.46432307768303" lon="15.173658715813463"><ele>349.0</ele><time>2026-04-19T09:15:46.001Z</time></trkpt><trkpt lat="40.46426781427806" lon="15.173760811483746"><ele>348.0</ele><time>2026-04-19T09:15:47.001Z</time></trkpt><trkpt lat="40.46421842991074" lon="15.173875814474693"><ele>347.0</ele><time>2026-04-19T09:15:48.001Z</time></trkpt><trkpt lat="40.46415973629553" lon="15.17397873199459"><ele>346.0</ele><time>2026-04-19T09:15:49.001Z</time></trkpt><trkpt lat="40.46410520238737" lon="15.174077470375002"><ele>344.6</ele><time>2026-04-19T09:15:50.001Z</time></trkpt><trkpt lat="40.46405350513229" lon="15.17417905407786"><ele>343.20000000000005</ele><time>2026-04-19T09:15:51.001Z</time></trkpt><trkpt lat="40.464003013648544" lon="15.174282007006251"><ele>341.79999999999995</ele><time>2026-04-19T09:15:52.001Z</time></trkpt><trkpt lat="40.463947359164685" lon="15.174377540327313"><ele>340.4</ele><time>2026-04-19T09:15:53.001Z</time></trkpt><trkpt lat="40.46391285067019" lon="15.1744854361451"><ele>339.0</ele><time>2026-04-19T09:15:54.001Z</time></trkpt><trkpt lat="40.463882031821385" lon="15.174588953783053"><ele>339.0</ele><time>2026-04-19T09:15:55.001Z</time></trkpt><trkpt lat="40.463860004895494" lon="15.174691828445095"><ele>339.0</ele><time>2026-04-19T09:15:56.001Z</time></trkpt><trkpt lat="40.46384541085557" lon="15.174778124709091"><ele>339.0</ele><time>2026-04-19T09:15:57.001Z</time></trkpt><trkpt lat="40.46382132349021" lon="15.174909324481973"><ele>339.0</ele><time>2026-04-19T09:15:59.001Z</time></trkpt><trkpt lat="40.46379804957081" lon="15.174986817109447"><ele>339.0</ele><time>2026-04-19T09:16:01.001Z</time></trkpt><trkpt lat="40.46390610912976" lon="15.175072664721686"><ele>339.0</ele><time>2026-04-19T09:16:03.001Z</time></trkpt><trkpt lat="40.463966130626204" lon="15.175118448170547"><ele>337.5</ele><time>2026-04-19T09:16:04.001Z</time></trkpt><trkpt lat="40.46404400475199" lon="15.17521596179024"><ele>336.0</ele><time>2026-04-19T09:16:06.001Z</time></trkpt><trkpt lat="40.464124433842585" lon="15.175311647327316"><ele>334.5</ele><time>2026-04-19T09:16:08.001Z</time></trkpt><trkpt lat="40.46418452503978" lon="15.175362214345068"><ele>333.0</ele><time>2026-04-19T09:16:09.001Z</time></trkpt><trkpt lat="40.4642375769241" lon="15.175413486439842"><ele>331.5</ele><time>2026-04-19T09:16:10.001Z</time></trkpt><trkpt lat="40.46427859161784" lon="15.175477773324255"><ele>330.0</ele><time>2026-04-19T09:16:11.001Z</time></trkpt><trkpt lat="40.46438489741207" lon="15.17554425686016"><ele>330.0</ele><time>2026-04-19T09:16:13.001Z</time></trkpt><trkpt lat="40.46447283686449" lon="15.175586214852778"><ele>330.0</ele><time>2026-04-19T09:16:15.001Z</time></trkpt><trkpt lat="40.464589180275915" lon="15.175570243208348"><ele>330.0</ele><time>2026-04-19T09:16:17.001Z</time></trkpt><trkpt lat="40.46471119628279" lon="15.175526278694056"><ele>330.0</ele><time>2026-04-19T09:16:19.001Z</time></trkpt><trkpt lat="40.464787075301906" lon="15.175491013821482"><ele>330.0</ele><time>2026-04-19T09:16:20.001Z</time></trkpt><trkpt lat="40.464855308790824" lon="15.175476365681622"><ele>330.0</ele><time>2026-04-19T09:16:21.001Z</time></trkpt><trkpt lat="40.46492552098664" lon="15.17546269017092"><ele>330.0</ele><time>2026-04-19T09:16:22.001Z</time></trkpt><trkpt lat="40.46498912946447" lon="15.17547377906097"><ele>330.0</ele><time>2026-04-19T09:16:23.001Z</time></trkpt><trkpt lat="40.465091230611286" lon="15.175477015694565"><ele>330.0</ele><time>2026-04-19T09:16:25.001Z</time></trkpt><trkpt lat="40.46518861731484" lon="15.175501092548487"><ele>330.0</ele><time>2026-04-19T09:16:27.001Z</time></trkpt><trkpt lat="40.465233952505" lon="15.175601126198915"><ele>330.0</ele><time>2026-04-19T09:16:28.001Z</time></trkpt><trkpt lat="40.46531188813792" lon="15.175707262977275"><ele>330.0</ele><time>2026-04-19T09:16:30.001Z</time></trkpt><trkpt lat="40.465336971510396" lon="15.175790993381952"><ele>330.0</ele><time>2026-04-19T09:16:31.001Z</time></trkpt><trkpt lat="40.46534816579543" lon="15.175884236874994"><ele>330.0</ele><time>2026-04-19T09:16:32.001Z</time></trkpt><trkpt lat="40.465358808214546" lon="15.175967365467908"><ele>330.0</ele><time>2026-04-19T09:16:33.001Z</time></trkpt><trkpt lat="40.46537476111854" lon="15.17607951325791"><ele>330.0</ele><time>2026-04-19T09:16:35.001Z</time></trkpt><trkpt lat="40.465391103057534" lon="15.176177523734049"><ele>330.0</ele><time>2026-04-19T09:16:38.001Z</time></trkpt><trkpt lat="40.46541542855876" lon="15.176314470035397"><ele>330.0</ele><time>2026-04-19T09:17:07.002Z</time></trkpt><trkpt lat="40.4654418025535" lon="15.176449940586208"><ele>330.0</ele><time>2026-04-19T09:17:09.002Z</time></trkpt><trkpt lat="40.46546262606922" lon="15.176600515365442"><ele>330.0</ele><time>2026-04-19T09:17:11.002Z</time></trkpt><trkpt lat="40.465487197875994" lon="15.176755793737678"><ele>330.0</ele><time>2026-04-19T09:17:13.002Z</time></trkpt><trkpt lat="40.46551916300034" lon="15.17689326491391"><ele>329.0</ele><time>2026-04-19T09:17:15.002Z</time></trkpt><trkpt lat="40.46554821147003" lon="15.177020162232331"><ele>328.0</ele><time>2026-04-19T09:17:17.002Z</time></trkpt><trkpt lat="40.465581668322145" lon="15.177149884079277"><ele>327.0</ele><time>2026-04-19T09:17:19.002Z</time></trkpt><trkpt lat="40.46564553693624" lon="15.177254705811134"><ele>326.0</ele><time>2026-04-19T09:17:21.002Z</time></trkpt><trkpt lat="40.46573815800899" lon="15.177326924952071"><ele>325.0</ele><time>2026-04-19T09:17:23.002Z</time></trkpt><trkpt lat="40.46580942662034" lon="15.177378877686085"><ele>325.0</ele><time>2026-04-19T09:17:25.002Z</time></trkpt><trkpt lat="40.46587652833206" lon="15.1774174839164"><ele>325.0</ele><time>2026-04-19T09:17:27.002Z</time></trkpt><trkpt lat="40.46594661450644" lon="15.177438279058872"><ele>325.0</ele><time>2026-04-19T09:17:29.002Z</time></trkpt><trkpt lat="40.4660157441475" lon="15.177458167271766"><ele>325.0</ele><time>2026-04-19T09:17:31.002Z</time></trkpt><trkpt lat="40.46608202763383" lon="15.17749709647227"><ele>325.0</ele><time>2026-04-19T09:17:33.002Z</time></trkpt><trkpt lat="40.46614696820546" lon="15.177540140510628"><ele>325.0</ele><time>2026-04-19T09:17:35.002Z</time></trkpt><trkpt lat="40.466222262205356" lon="15.17761051134488"><ele>324.0</ele><time>2026-04-19T09:17:37.001Z</time></trkpt><trkpt lat="40.46631120626957" lon="15.17769610101033"><ele>323.0</ele><time>2026-04-19T09:17:39.001Z</time></trkpt><trkpt lat="40.466361568899615" lon="15.17775187421797"><ele>322.0</ele><time>2026-04-19T09:17:40.001Z</time></trkpt><trkpt lat="40.46643967392441" lon="15.177852768987755"><ele>321.0</ele><time>2026-04-19T09:17:42.001Z</time></trkpt><trkpt lat="40.466506110126524" lon="15.177955047469778"><ele>320.0</ele><time>2026-04-19T09:17:44.001Z</time></trkpt><trkpt lat="40.46656399826882" lon="15.178059616048678"><ele>320.0</ele><time>2026-04-19T09:17:46.001Z</time></trkpt><trkpt lat="40.46662604794077" lon="15.178138752742749"><ele>320.0</ele><time>2026-04-19T09:17:48.001Z</time></trkpt><trkpt lat="40.4666895352145" lon="15.178217254727322"><ele>320.0</ele><time>2026-04-19T09:17:50Z</time></trkpt><trkpt lat="40.466748702659565" lon="15.1782576820416"><ele>320.0</ele><time>2026-04-19T09:17:52Z</time></trkpt><trkpt lat="40.46681260439178" lon="15.17825010508988"><ele>320.0</ele><time>2026-04-19T09:17:54Z</time></trkpt><trkpt lat="40.466870037691315" lon="15.178184564926346"><ele>320.0</ele><time>2026-04-19T09:17:56Z</time></trkpt><trkpt lat="40.466930409415994" lon="15.178124510550127"><ele>320.0</ele><time>2026-04-19T09:17:58Z</time></trkpt><trkpt lat="40.46698951868011" lon="15.178083347427101"><ele>320.0</ele><time>2026-04-19T09:18:00Z</time></trkpt><trkpt lat="40.467056746289934" lon="15.178066076018988"><ele>320.0</ele><time>2026-04-19T09:18:02.001Z</time></trkpt><trkpt lat="40.46713651476714" lon="15.178131019734803"><ele>320.0</ele><time>2026-04-19T09:18:05.001Z</time></trkpt><trkpt lat="40.46718783128754" lon="15.178184274744975"><ele>320.0</ele><time>2026-04-19T09:18:07.001Z</time></trkpt><trkpt lat="40.46723602473524" lon="15.178270150067732"><ele>320.0</ele><time>2026-04-19T09:18:10.001Z</time></trkpt><trkpt lat="40.46726998347957" lon="15.17836834092768"><ele>315.8</ele><time>2026-04-19T09:18:14.001Z</time></trkpt><trkpt lat="40.46723581979361" lon="15.178485816763276"><ele>311.6</ele><time>2026-04-19T09:18:17.001Z</time></trkpt><trkpt lat="40.46720380600072" lon="15.178581158147372"><ele>307.4</ele><time>2026-04-19T09:18:19.001Z</time></trkpt><trkpt lat="40.46720055586965" lon="15.178697145689563"><ele>303.2</ele><time>2026-04-19T09:18:21.001Z</time></trkpt><trkpt lat="40.46718599072199" lon="15.178829719323337"><ele>299.0</ele><time>2026-04-19T09:18:23.001Z</time></trkpt><trkpt lat="40.46716815145033" lon="15.178957974761449"><ele>298.0</ele><time>2026-04-19T09:18:25.001Z</time></trkpt><trkpt lat="40.467141302502746" lon="15.179080306593079"><ele>297.0</ele><time>2026-04-19T09:18:27.001Z</time></trkpt><trkpt lat="40.46710436781702" lon="15.17919383228534"><ele>296.0</ele><time>2026-04-19T09:18:29.001Z</time></trkpt><trkpt lat="40.46704620983024" lon="15.179310289527383"><ele>295.0</ele><time>2026-04-19T09:18:31.001Z</time></trkpt><trkpt lat="40.46697573328731" lon="15.179419048956245"><ele>294.0</ele><time>2026-04-19T09:18:33.001Z</time></trkpt><trkpt lat="40.466934823270584" lon="15.17948360185047"><ele>294.0</ele><time>2026-04-19T09:18:34.001Z</time></trkpt><trkpt lat="40.46686510913474" lon="15.179597187540224"><ele>294.0</ele><time>2026-04-19T09:18:36.001Z</time></trkpt><trkpt lat="40.46682116533835" lon="15.17969597665693"><ele>294.0</ele><time>2026-04-19T09:18:38.001Z</time></trkpt><trkpt lat="40.46677952359019" lon="15.179794091419192"><ele>294.0</ele><time>2026-04-19T09:18:40.001Z</time></trkpt><trkpt lat="40.46676330384188" lon="15.17993816849638"><ele>294.0</ele><time>2026-04-19T09:18:42.001Z</time></trkpt><trkpt lat="40.46675866197781" lon="15.180027039917226"><ele>291.1666666666667</ele><time>2026-04-19T09:18:43.001Z</time></trkpt><trkpt lat="40.466754174404464" lon="15.180117853379764"><ele>288.3333333333333</ele><time>2026-04-19T09:18:44.001Z</time></trkpt><trkpt lat="40.466752124603474" lon="15.180202032814613"><ele>285.5</ele><time>2026-04-19T09:18:45.001Z</time></trkpt><trkpt lat="40.46674769257138" lon="15.18028590528606"><ele>282.66666666666663</ele><time>2026-04-19T09:18:46.001Z</time></trkpt><trkpt lat="40.46673877424458" lon="15.180370232313624"><ele>279.8333333333333</ele><time>2026-04-19T09:18:47.001Z</time></trkpt><trkpt lat="40.46673620317604" lon="15.180495884127698"><ele>277.0</ele><time>2026-04-19T09:18:49.001Z</time></trkpt><trkpt lat="40.46677770088794" lon="15.180631325465523"><ele>275.5</ele><time>2026-04-19T09:18:51.001Z</time></trkpt><trkpt lat="40.466813683818664" lon="15.180763595123286"><ele>274.0</ele><time>2026-04-19T09:18:53.001Z</time></trkpt><trkpt lat="40.4668335224201" lon="15.180863571128562"><ele>272.5</ele><time>2026-04-19T09:18:55.001Z</time></trkpt><trkpt lat="40.46686574858039" lon="15.180968129286255"><ele>271.0</ele><time>2026-04-19T09:19:02.001Z</time></trkpt><trkpt lat="40.466888575488035" lon="15.181051889285499"><ele>269.5</ele><time>2026-04-19T09:19:04.001Z</time></trkpt><trkpt lat="40.46691711344758" lon="15.181139033187113"><ele>268.0</ele><time>2026-04-19T09:19:06.001Z</time></trkpt><trkpt lat="40.466947102265785" lon="15.181227011707618"><ele>268.0</ele><time>2026-04-19T09:19:08.001Z</time></trkpt><trkpt lat="40.4669453981733" lon="15.181350955808023"><ele>268.0</ele><time>2026-04-19T09:19:10.001Z</time></trkpt><trkpt lat="40.46696397146612" lon="15.181460402912426"><ele>268.0</ele><time>2026-04-19T09:19:12.001Z</time></trkpt><trkpt lat="40.46700559848643" lon="15.181549132636459"><ele>268.0</ele><time>2026-04-19T09:19:14.001Z</time></trkpt><trkpt lat="40.46703013017554" lon="15.181672528217309"><ele>268.0</ele><time>2026-04-19T09:19:17.001Z</time></trkpt><trkpt lat="40.46705512561389" lon="15.181786338394337"><ele>268.0</ele><time>2026-04-19T09:19:50Z</time></trkpt><trkpt lat="40.46707836712033" lon="15.18189860917324"><ele>268.0</ele><time>2026-04-19T09:19:52Z</time></trkpt><trkpt lat="40.467093445640835" lon="15.18201527330792"><ele>268.0</ele><time>2026-04-19T09:19:54Z</time></trkpt><trkpt lat="40.46710739096981" lon="15.182103347457303"><ele>268.0</ele><time>2026-04-19T09:19:56Z</time></trkpt><trkpt lat="40.46713358771187" lon="15.182245684644693"><ele>268.0</ele><time>2026-04-19T09:19:58Z</time></trkpt><trkpt lat="40.467145070525355" lon="15.182347620084403"><ele>268.0</ele><time>2026-04-19T09:19:59Z</time></trkpt><trkpt lat="40.467163148295796" lon="15.182462750434654"><ele>268.0</ele><time>2026-04-19T09:20:00Z</time></trkpt><trkpt lat="40.46718371749271" lon="15.182591936450681"><ele>267.16666666666663</ele><time>2026-04-19T09:20:01Z</time></trkpt><trkpt lat="40.46720486465223" lon="15.182701628875439"><ele>266.3333333333333</ele><time>2026-04-19T09:20:02Z</time></trkpt><trkpt lat="40.46721941586783" lon="15.182803198848609"><ele>265.5</ele><time>2026-04-19T09:20:03Z</time></trkpt><trkpt lat="40.4672288632164" lon="15.182906258926167"><ele>264.6666666666667</ele><time>2026-04-19T09:20:04Z</time></trkpt><trkpt lat="40.467245476998144" lon="15.18301174459121"><ele>263.83333333333337</ele><time>2026-04-19T09:20:05Z</time></trkpt><trkpt lat="40.46726132910203" lon="15.183116530832786"><ele>263.0</ele><time>2026-04-19T09:20:06Z</time></trkpt><trkpt lat="40.46727232087754" lon="15.183212335442851"><ele>262.6666666666667</ele><time>2026-04-19T09:20:07Z</time></trkpt><trkpt lat="40.46728821301521" lon="15.18329698359306"><ele>262.33333333333337</ele><time>2026-04-19T09:20:08Z</time></trkpt><trkpt lat="40.46729051764419" lon="15.183389641135582"><ele>262.0</ele><time>2026-04-19T09:20:10Z</time></trkpt><trkpt lat="40.46743171033161" lon="15.183323728690905"><ele>261.6666666666667</ele><time>2026-04-19T09:20:13Z</time></trkpt><trkpt lat="40.46749592389466" lon="15.183292058905753"><ele>261.3333333333333</ele><time>2026-04-19T09:20:14Z</time></trkpt><trkpt lat="40.467551269731764" lon="15.183242136758262"><ele>261.0</ele><time>2026-04-19T09:20:15Z</time></trkpt><trkpt lat="40.467613799995384" lon="15.18318587341779"><ele>261.2857142857143</ele><time>2026-04-19T09:20:16Z</time></trkpt><trkpt lat="40.467659453808096" lon="15.183123805347089"><ele>261.57142857142856</ele><time>2026-04-19T09:20:17Z</time></trkpt><trkpt lat="40.467721932460115" lon="15.18309079462833"><ele>261.85714285714283</ele><time>2026-04-19T09:20:18Z</time></trkpt><trkpt lat="40.467791114652" lon="15.183068745429244"><ele>262.1428571428571</ele><time>2026-04-19T09:20:19Z</time></trkpt><trkpt lat="40.4678640584837" lon="15.18306096213539"><ele>262.4285714285714</ele><time>2026-04-19T09:20:20Z</time></trkpt><trkpt lat="40.467933657296264" lon="15.183063553665233"><ele>262.7142857142857</ele><time>2026-04-19T09:20:21Z</time></trkpt><trkpt lat="40.46800642990686" lon="15.183074488100655"><ele>263.0</ele><time>2026-04-19T09:20:22Z</time></trkpt><trkpt lat="40.46807966298556" lon="15.183104619499135"><ele>265.1666666666667</ele><time>2026-04-19T09:20:23Z</time></trkpt><trkpt lat="40.46814425065675" lon="15.183148205530982"><ele>267.33333333333337</ele><time>2026-04-19T09:20:24Z</time></trkpt><trkpt lat="40.468205934362864" lon="15.183230754950875"><ele>269.5</ele><time>2026-04-19T09:20:25Z</time></trkpt><trkpt lat="40.46827071298645" lon="15.183303549426254"><ele>271.6666666666667</ele><time>2026-04-19T09:20:26Z</time></trkpt><trkpt lat="40.46834267741772" lon="15.183390199396621"><ele>273.8333333333333</ele><time>2026-04-19T09:20:28.001Z</time></trkpt><trkpt lat="40.468407352213234" lon="15.183468071776298"><ele>276.0</ele><time>2026-04-19T09:20:31.001Z</time></trkpt><trkpt lat="40.468579492926764" lon="15.183340701703262"><ele>276.1666666666667</ele><time>2026-04-19T09:20:34.001Z</time></trkpt><trkpt lat="40.468670739710454" lon="15.183348557058336"><ele>276.3333333333333</ele><time>2026-04-19T09:20:36.001Z</time></trkpt><trkpt lat="40.468768332303654" lon="15.183335431248242"><ele>276.5</ele><time>2026-04-19T09:20:38.001Z</time></trkpt><trkpt lat="40.468873769575985" lon="15.183319287338165"><ele>276.66666666666663</ele><time>2026-04-19T09:20:40.001Z</time></trkpt><trkpt lat="40.46895715684707" lon="15.183313203294286"><ele>276.8333333333333</ele><time>2026-04-19T09:20:42.001Z</time></trkpt><trkpt lat="40.46901822126994" lon="15.183347983980342"><ele>277.0</ele><time>2026-04-19T09:20:44.001Z</time></trkpt><trkpt lat="40.469048607573704" lon="15.183441186192228"><ele>280.5</ele><time>2026-04-19T09:20:49.001Z</time></trkpt><trkpt lat="40.46901851158656" lon="15.183517324858189"><ele>284.0</ele><time>2026-04-19T09:20:52.001Z</time></trkpt><trkpt lat="40.468993788229646" lon="15.18361988385928"><ele>287.5</ele><time>2026-04-19T09:20:55.001Z</time></trkpt><trkpt lat="40.46901395770367" lon="15.183717385131017"><ele>291.0</ele><time>2026-04-19T09:20:58.001Z</time></trkpt><trkpt lat="40.469043314414805" lon="15.183819352505576"><ele>294.5</ele><time>2026-04-19T09:21:25.001Z</time></trkpt><trkpt lat="40.46902460943705" lon="15.18390646063471"><ele>298.0</ele><time>2026-04-19T09:21:39.001Z</time></trkpt><trkpt lat="40.46903686123064" lon="15.184006524272332"><ele>299.5</ele><time>2026-04-19T09:21:44.002Z</time></trkpt><trkpt lat="40.46908701473816" lon="15.184065777739448"><ele>301.0</ele><time>2026-04-19T09:21:46.002Z</time></trkpt><trkpt lat="40.46914893100875" lon="15.184119791830062"><ele>302.5</ele><time>2026-04-19T09:21:49Z</time></trkpt><trkpt lat="40.46924096103297" lon="15.184138773901774"><ele>304.0</ele><time>2026-04-19T09:21:52Z</time></trkpt><trkpt lat="40.469311076935" lon="15.184163246095812"><ele>305.5</ele><time>2026-04-19T09:21:54Z</time></trkpt><trkpt lat="40.46938974430289" lon="15.184182507775823"><ele>307.0</ele><time>2026-04-19T09:21:56Z</time></trkpt><trkpt lat="40.46946872713502" lon="15.184208602269429"><ele>306.99999999999994</ele><time>2026-04-19T09:21:58Z</time></trkpt><trkpt lat="40.46954657018198" lon="15.184224337799892"><ele>307.0</ele><time>2026-04-19T09:22:01Z</time></trkpt><trkpt lat="40.469616007332895" lon="15.184222035757415"><ele>307.0</ele><time>2026-04-19T09:22:05Z</time></trkpt><trkpt lat="40.46968058109488" lon="15.18423595481564"><ele>307.0</ele><time>2026-04-19T09:22:07Z</time></trkpt><trkpt lat="40.46974989252332" lon="15.184244531540562"><ele>307.0</ele><time>2026-04-19T09:22:09Z</time></trkpt><trkpt lat="40.46982751078257" lon="15.184262779808304"><ele>306.99999999999994</ele><time>2026-04-19T09:22:11Z</time></trkpt><trkpt lat="40.46990021699797" lon="15.184280340178837"><ele>307.0</ele><time>2026-04-19T09:22:13Z</time></trkpt><trkpt lat="40.46997209401306" lon="15.184306605588853"><ele>310.8</ele><time>2026-04-19T09:22:15Z</time></trkpt><trkpt lat="40.47006967768107" lon="15.184325569065107"><ele>314.6</ele><time>2026-04-19T09:22:18Z</time></trkpt><trkpt lat="40.470161189627305" lon="15.18435862464732"><ele>318.40000000000003</ele><time>2026-04-19T09:22:20Z</time></trkpt><trkpt lat="40.47023889189816" lon="15.184380577745682"><ele>322.2</ele><time>2026-04-19T09:22:22Z</time></trkpt><trkpt lat="40.470352359105604" lon="15.18441835913357"><ele>326.0</ele><time>2026-04-19T09:22:25Z</time></trkpt><trkpt lat="40.4704388923499" lon="15.184448107405874"><ele>328.5</ele><time>2026-04-19T09:22:27Z</time></trkpt><trkpt lat="40.470522827519204" lon="15.184480017926374"><ele>331.0</ele><time>2026-04-19T09:22:29Z</time></trkpt><trkpt lat="40.47061242715932" lon="15.184520620924301"><ele>333.5</ele><time>2026-04-19T09:22:31Z</time></trkpt><trkpt lat="40.47069515307503" lon="15.18458014373243"><ele>336.0</ele><time>2026-04-19T09:22:33Z</time></trkpt><trkpt lat="40.47074662526643" lon="15.184654236877458"><ele>338.5</ele><time>2026-04-19T09:22:35Z</time></trkpt><trkpt lat="40.47079816302272" lon="15.184731738493607"><ele>341.0</ele><time>2026-04-19T09:22:56.001Z</time></trkpt><trkpt lat="40.4708300332833" lon="15.18481705844499"><ele>340.33333333333337</ele><time>2026-04-19T09:22:59.001Z</time></trkpt><trkpt lat="40.47081626780694" lon="15.184903135784518"><ele>339.6666666666667</ele><time>2026-04-19T09:23:01.001Z</time></trkpt><trkpt lat="40.470793785597685" lon="15.185000132524562"><ele>339.0</ele><time>2026-04-19T09:23:03.001Z</time></trkpt><trkpt lat="40.470799803445786" lon="15.185103142700653"><ele>338.3333333333333</ele><time>2026-04-19T09:23:05.001Z</time></trkpt><trkpt lat="40.47080160348649" lon="15.185224627357355"><ele>337.66666666666663</ele><time>2026-04-19T09:23:07.001Z</time></trkpt><trkpt lat="40.470799096723354" lon="15.185339977233376"><ele>337.0</ele><time>2026-04-19T09:23:09.001Z</time></trkpt><trkpt lat="40.47080534095709" lon="15.18546823321752"><ele>337.0</ele><time>2026-04-19T09:23:11.001Z</time></trkpt><trkpt lat="40.47081758815821" lon="15.185564102076128"><ele>337.0</ele><time>2026-04-19T09:23:13.001Z</time></trkpt><trkpt lat="40.47082246855557" lon="15.185684695806094"><ele>337.0</ele><time>2026-04-19T09:23:15.001Z</time></trkpt><trkpt lat="40.470869483017545" lon="15.185804916370857"><ele>337.0</ele><time>2026-04-19T09:23:17.001Z</time></trkpt><trkpt lat="40.47091883003311" lon="15.18592346794637"><ele>337.0</ele><time>2026-04-19T09:23:19.001Z</time></trkpt><trkpt lat="40.47094810133605" lon="15.186035907563014"><ele>335.5</ele><time>2026-04-19T09:23:21.001Z</time></trkpt><trkpt lat="40.47097765846979" lon="15.186140753429653"><ele>334.0</ele><time>2026-04-19T09:23:23.001Z</time></trkpt><trkpt lat="40.471010323476996" lon="15.18623651415217"><ele>332.5</ele><time>2026-04-19T09:23:25.001Z</time></trkpt><trkpt lat="40.471058275465175" lon="15.186331127931195"><ele>331.0</ele><time>2026-04-19T09:23:27.001Z</time></trkpt><trkpt lat="40.47110908079106" lon="15.18642011747999"><ele>329.5</ele><time>2026-04-19T09:23:29.001Z</time></trkpt><trkpt lat="40.471158205367495" lon="15.186524302027605"><ele>328.0</ele><time>2026-04-19T09:23:31.001Z</time></trkpt><trkpt lat="40.47121191535755" lon="15.186624322977247"><ele>325.0</ele><time>2026-04-19T09:23:33.001Z</time></trkpt><trkpt lat="40.471280961083906" lon="15.186699804386597"><ele>322.0</ele><time>2026-04-19T09:23:35.001Z</time></trkpt><trkpt lat="40.4713432889266" lon="15.186806423086523"><ele>319.0</ele><time>2026-04-19T09:23:37.001Z</time></trkpt><trkpt lat="40.47139917320776" lon="15.18691874734892"><ele>316.0</ele><time>2026-04-19T09:23:39.001Z</time></trkpt><trkpt lat="40.471416717873176" lon="15.18701638944177"><ele>313.0</ele><time>2026-04-19T09:23:41.001Z</time></trkpt><trkpt lat="40.471449680836415" lon="15.18709357476502"><ele>310.0</ele><time>2026-04-19T09:23:43.001Z</time></trkpt><trkpt lat="40.47148763894799" lon="15.187201712726871"><ele>310.0</ele><time>2026-04-19T09:23:45.001Z</time></trkpt><trkpt lat="40.47151332937233" lon="15.187328683123393"><ele>310.0</ele><time>2026-04-19T09:23:47.001Z</time></trkpt><trkpt lat="40.471575354993824" lon="15.187437133067146"><ele>310.0</ele><time>2026-04-19T09:23:49.001Z</time></trkpt><trkpt lat="40.47165086947558" lon="15.187562904197916"><ele>310.0</ele><time>2026-04-19T09:23:51.002Z</time></trkpt><trkpt lat="40.47166274569869" lon="15.187734647982868"><ele>310.0</ele><time>2026-04-19T09:23:53.002Z</time></trkpt><trkpt lat="40.47166777286024" lon="15.187863850737392"><ele>310.0</ele><time>2026-04-19T09:23:54.999Z</time></trkpt><trkpt lat="40.47165652345524" lon="15.188005009830457"><ele>310.0</ele><time>2026-04-19T09:23:56.999Z</time></trkpt><trkpt lat="40.47161577436024" lon="15.188125367822678"><ele>310.0</ele><time>2026-04-19T09:23:58.999Z</time></trkpt><trkpt lat="40.47155066531588" lon="15.18821555823676"><ele>310.0</ele><time>2026-04-19T09:24:00.999Z</time></trkpt><trkpt lat="40.471490372793625" lon="15.188323969336254"><ele>308.0</ele><time>2026-04-19T09:24:03Z</time></trkpt><trkpt lat="40.471446029857624" lon="15.188436787695993"><ele>306.0</ele><time>2026-04-19T09:24:04.999Z</time></trkpt><trkpt lat="40.471408452909905" lon="15.188570503296507"><ele>304.0</ele><time>2026-04-19T09:24:07Z</time></trkpt><trkpt lat="40.47138707788662" lon="15.188726500175445"><ele>302.0</ele><time>2026-04-19T09:24:09Z</time></trkpt><trkpt lat="40.471369154806" lon="15.188883851311616"><ele>300.0</ele><time>2026-04-19T09:24:11Z</time></trkpt><trkpt lat="40.471337711795364" lon="15.18904554271039"><ele>297.8</ele><time>2026-04-19T09:24:13Z</time></trkpt><trkpt lat="40.47131532696877" lon="15.189183653554094"><ele>295.6</ele><time>2026-04-19T09:24:15Z</time></trkpt><trkpt lat="40.47127058303734" lon="15.189310131303326"><ele>293.4</ele><time>2026-04-19T09:24:17Z</time></trkpt><trkpt lat="40.471238990370956" lon="15.189382604009092"><ele>291.2</ele><time>2026-04-19T09:24:18Z</time></trkpt><trkpt lat="40.47117642245132" lon="15.189528597316999"><ele>289.0</ele><time>2026-04-19T09:24:20Z</time></trkpt><trkpt lat="40.471143391622775" lon="15.189602021244747"><ele>289.0</ele><time>2026-04-19T09:24:21Z</time></trkpt><trkpt lat="40.471108625461234" lon="15.189679237596861"><ele>289.0</ele><time>2026-04-19T09:24:22Z</time></trkpt><trkpt lat="40.471064392456974" lon="15.189760041161932"><ele>289.0</ele><time>2026-04-19T09:24:23Z</time></trkpt><trkpt lat="40.47100929182173" lon="15.189840494428678"><ele>289.0</ele><time>2026-04-19T09:24:24Z</time></trkpt><trkpt lat="40.47094839412624" lon="15.189914680892125"><ele>289.0</ele><time>2026-04-19T09:24:25Z</time></trkpt><trkpt lat="40.47089308717931" lon="15.189972328865869"><ele>289.0</ele><time>2026-04-19T09:24:26Z</time></trkpt><trkpt lat="40.47083489979147" lon="15.190024253246904"><ele>287.8333333333333</ele><time>2026-04-19T09:24:27Z</time></trkpt><trkpt lat="40.470774875303434" lon="15.190051323189278"><ele>286.66666666666663</ele><time>2026-04-19T09:24:28Z</time></trkpt><trkpt lat="40.47070748593949" lon="15.190070769390212"><ele>285.5</ele><time>2026-04-19T09:24:29Z</time></trkpt><trkpt lat="40.470641630251194" lon="15.19006969366436"><ele>284.3333333333333</ele><time>2026-04-19T09:24:30Z</time></trkpt><trkpt lat="40.470572588522515" lon="15.190065278347072"><ele>283.1666666666667</ele><time>2026-04-19T09:24:31Z</time></trkpt><trkpt lat="40.47047920006259" lon="15.190050284688049"><ele>282.0</ele><time>2026-04-19T09:24:33Z</time></trkpt><trkpt lat="40.470431308115295" lon="15.190225180542987"><ele>280.0</ele><time>2026-04-19T09:24:35Z</time></trkpt><trkpt lat="40.47039636028328" lon="15.190344124559022"><ele>278.0</ele><time>2026-04-19T09:24:36Z</time></trkpt><trkpt lat="40.470330055108256" lon="15.190487305268347"><ele>276.0</ele><time>2026-04-19T09:24:37Z</time></trkpt><trkpt lat="40.470279645937" lon="15.190640739594597"><ele>274.0</ele><time>2026-04-19T09:24:38Z</time></trkpt><trkpt lat="40.470237802639694" lon="15.190794162017133"><ele>273.75</ele><time>2026-04-19T09:24:39Z</time></trkpt><trkpt lat="40.47019379726919" lon="15.190963675182786"><ele>273.5</ele><time>2026-04-19T09:24:40Z</time></trkpt><trkpt lat="40.470175285148315" lon="15.191118469002875"><ele>273.25</ele><time>2026-04-19T09:24:41Z</time></trkpt><trkpt lat="40.470132585768184" lon="15.191238968235789"><ele>273.0</ele><time>2026-04-19T09:24:42Z</time></trkpt><trkpt lat="40.4700563510967" lon="15.191347300640292"><ele>273.0</ele><time>2026-04-19T09:24:43Z</time></trkpt><trkpt lat="40.4699844096607" lon="15.191467037601873"><ele>273.0</ele><time>2026-04-19T09:24:44Z</time></trkpt><trkpt lat="40.46990611458562" lon="15.191597161909769"><ele>273.0</ele><time>2026-04-19T09:24:45Z</time></trkpt><trkpt lat="40.46985290747023" lon="15.191750900717674"><ele>273.0</ele><time>2026-04-19T09:24:46Z</time></trkpt><trkpt lat="40.46979691369536" lon="15.191877202286765"><ele>272.8</ele><time>2026-04-19T09:24:47Z</time></trkpt><trkpt lat="40.469740673899096" lon="15.192004618076274"><ele>272.6</ele><time>2026-04-19T09:24:48Z</time></trkpt><trkpt lat="40.469663846590954" lon="15.192134605089743"><ele>272.4</ele><time>2026-04-19T09:24:49Z</time></trkpt><trkpt lat="40.469585194101384" lon="15.192245352309094"><ele>272.2</ele><time>2026-04-19T09:24:50Z</time></trkpt><trkpt lat="40.46952483687079" lon="15.192336336280976"><ele>272.0</ele><time>2026-04-19T09:24:51Z</time></trkpt><trkpt lat="40.469459839469295" lon="15.1923911422013"><ele>272.71428571428567</ele><time>2026-04-19T09:24:52Z</time></trkpt><trkpt lat="40.469397922358034" lon="15.192415179796347"><ele>273.42857142857144</ele><time>2026-04-19T09:24:53Z</time></trkpt><trkpt lat="40.46931277098466" lon="15.192421113952788"><ele>274.1428571428571</ele><time>2026-04-19T09:24:55.001Z</time></trkpt><trkpt lat="40.4692513367765" lon="15.192392500082622"><ele>274.85714285714283</ele><time>2026-04-19T09:24:58.001Z</time></trkpt><trkpt lat="40.46918908634779" lon="15.192404985584602"><ele>275.57142857142856</ele><time>2026-04-19T09:25:02.001Z</time></trkpt><trkpt lat="40.469130965756975" lon="15.192461677687055"><ele>276.2857142857143</ele><time>2026-04-19T09:25:04.001Z</time></trkpt><trkpt lat="40.46906256957806" lon="15.192485183670504"><ele>277.0</ele><time>2026-04-19T09:25:06.001Z</time></trkpt><trkpt lat="40.46898350039054" lon="15.192509789749666"><ele>277.0</ele><time>2026-04-19T09:25:09.001Z</time></trkpt><trkpt lat="40.46890407319821" lon="15.192534506894743"><ele>277.0</ele><time>2026-04-19T09:25:12.001Z</time></trkpt><trkpt lat="40.46882147792192" lon="15.192560209832559"><ele>277.0</ele><time>2026-04-19T09:25:15.001Z</time></trkpt><trkpt lat="40.46869573157668" lon="15.192083591536717"><ele>275.0</ele><time>2026-04-19T09:25:17.001Z</time></trkpt><trkpt lat="40.4686202969848" lon="15.192041969952472"><ele>273.0</ele><time>2026-04-19T09:25:52.001Z</time></trkpt><trkpt lat="40.468550688746106" lon="15.192015715932227"><ele>271.0</ele><time>2026-04-19T09:25:55.001Z</time></trkpt><trkpt lat="40.46846475297949" lon="15.19199057288363"><ele>269.0</ele><time>2026-04-19T09:25:58.001Z</time></trkpt><trkpt lat="40.468395589058694" lon="15.191921018132499"><ele>267.0</ele><time>2026-04-19T09:26:01Z</time></trkpt><trkpt lat="40.46833702706488" lon="15.191855006042754"><ele>265.0</ele><time>2026-04-19T09:26:04Z</time></trkpt><trkpt lat="40.468283492152686" lon="15.191767376564652"><ele>265.0</ele><time>2026-04-19T09:26:08Z</time></trkpt><trkpt lat="40.46825727828185" lon="15.191667712516429"><ele>265.0</ele><time>2026-04-19T09:26:11Z</time></trkpt><trkpt lat="40.468225292228226" lon="15.191582434285"><ele>265.0</ele><time>2026-04-19T09:26:29Z</time></trkpt><trkpt lat="40.46819461905826" lon="15.191503662293162"><ele>265.0</ele><time>2026-04-19T09:26:39Z</time></trkpt><trkpt lat="40.46816093072729" lon="15.191411437942106"><ele>265.0</ele><time>2026-04-19T09:26:52Z</time></trkpt><trkpt lat="40.4681370671057" lon="15.191327522133488"><ele>265.0</ele><time>2026-04-19T09:27:19.001Z</time></trkpt><trkpt lat="40.46806836360524" lon="15.191190434963314"><ele>263.2857142857143</ele><time>2026-04-19T09:29:23.001Z</time></trkpt><trkpt lat="40.46804281732335" lon="15.191106673513595"><ele>261.57142857142856</ele><time>2026-04-19T09:29:32.001Z</time></trkpt><trkpt lat="40.468011387557056" lon="15.191034304167298"><ele>259.8571428571429</ele><time>2026-04-19T09:29:53.002Z</time></trkpt><trkpt lat="40.467978162383496" lon="15.190951223106993"><ele>258.1428571428571</ele><time>2026-04-19T09:31:06.001Z</time></trkpt><trkpt lat="40.46794645960526" lon="15.19085599218597"><ele>256.42857142857144</ele><time>2026-04-19T09:31:11.001Z</time></trkpt><trkpt lat="40.46790985256516" lon="15.190777180803074"><ele>254.71428571428575</ele><time>2026-04-19T09:31:15.001Z</time></trkpt><trkpt lat="40.46786586924609" lon="15.190701687091218"><ele>253.00000000000003</ele><time>2026-04-19T09:31:21.001Z</time></trkpt><trkpt lat="40.46784650547188" lon="15.190616724103405"><ele>249.66666666666666</ele><time>2026-04-19T09:31:26.001Z</time></trkpt><trkpt lat="40.467818648323295" lon="15.190540474926058"><ele>246.33333333333331</ele><time>2026-04-19T09:31:31.001Z</time></trkpt><trkpt lat="40.467785345078724" lon="15.190461079194801"><ele>243.0</ele><time>2026-04-19T09:31:34.001Z</time></trkpt><trkpt lat="40.467717241995544" lon="15.19044425553674"><ele>239.66666666666669</ele><time>2026-04-19T09:32:06.002Z</time></trkpt><trkpt lat="40.46762949223131" lon="15.1904560501825"><ele>236.33333333333334</ele><time>2026-04-19T09:32:09.002Z</time></trkpt><trkpt lat="40.467544984446015" lon="15.190450479088842"><ele>233.0</ele><time>2026-04-19T09:32:11.002Z</time></trkpt><trkpt lat="40.46745947215203" lon="15.19044705322271"><ele>233.00000000000003</ele><time>2026-04-19T09:32:14.002Z</time></trkpt><trkpt lat="40.467392539345546" lon="15.19043364317568"><ele>233.0</ele><time>2026-04-19T09:34:01.001Z</time></trkpt><trkpt lat="40.467302595224545" lon="15.190412893955394"><ele>233.0</ele><time>2026-04-19T09:34:04.001Z</time></trkpt><trkpt lat="40.467209840119374" lon="15.190367709248711"><ele>233.0</ele><time>2026-04-19T09:34:07.001Z</time></trkpt><trkpt lat="40.4671435074567" lon="15.190300695620163"><ele>233.00000000000003</ele><time>2026-04-19T09:34:09.001Z</time></trkpt><trkpt lat="40.46708427598123" lon="15.190228432262856"><ele>233.0</ele><time>2026-04-19T09:34:11.002Z</time></trkpt><trkpt lat="40.46703155535216" lon="15.190124059415615"><ele>230.60000000000002</ele><time>2026-04-19T09:34:13.002Z</time></trkpt><trkpt lat="40.46697925650966" lon="15.189989448199851"><ele>228.20000000000002</ele><time>2026-04-19T09:34:15.002Z</time></trkpt><trkpt lat="40.466930792733585" lon="15.18988179993293"><ele>225.8</ele><time>2026-04-19T09:34:17.002Z</time></trkpt><trkpt lat="40.466890825807965" lon="15.189765032357688"><ele>223.4</ele><time>2026-04-19T09:34:19.002Z</time></trkpt><trkpt lat="40.466868402242326" lon="15.18965752850637"><ele>221.0</ele><time>2026-04-19T09:34:21.002Z</time></trkpt><trkpt lat="40.46686835332157" lon="15.189537216656289"><ele>221.00000000000003</ele><time>2026-04-19T09:34:23.002Z</time></trkpt><trkpt lat="40.466844548169156" lon="15.189438419505288"><ele>221.0</ele><time>2026-04-19T09:34:25Z</time></trkpt><trkpt lat="40.46681972349836" lon="15.189353147787166"><ele>221.0</ele><time>2026-04-19T09:34:27Z</time></trkpt><trkpt lat="40.46680964549443" lon="15.189233793274838"><ele>221.0</ele><time>2026-04-19T09:34:29Z</time></trkpt><trkpt lat="40.46683476572648" lon="15.189127914657305"><ele>221.00000000000003</ele><time>2026-04-19T09:34:31Z</time></trkpt><trkpt lat="40.46681934318326" lon="15.189045982067874"><ele>221.0</ele><time>2026-04-19T09:34:34Z</time></trkpt><trkpt lat="40.466748425492426" lon="15.1890275011098"><ele>221.00000000000003</ele><time>2026-04-19T09:34:38Z</time></trkpt><trkpt lat="40.4666577583357" lon="15.189037112244119"><ele>221.0</ele><time>2026-04-19T09:34:40Z</time></trkpt><trkpt lat="40.46659102359805" lon="15.189051569343162"><ele>221.0</ele><time>2026-04-19T09:34:41Z</time></trkpt><trkpt lat="40.46649483310572" lon="15.189056777723774"><ele>221.0</ele><time>2026-04-19T09:34:43Z</time></trkpt><trkpt lat="40.466424641323336" lon="15.189017284856641"><ele>221.00000000000003</ele><time>2026-04-19T09:34:45Z</time></trkpt><trkpt lat="40.46636282603117" lon="15.188967677949265"><ele>221.0</ele><time>2026-04-19T09:34:47Z</time></trkpt><trkpt lat="40.46628818805467" lon="15.188919916817014"><ele>219.00000000000003</ele><time>2026-04-19T09:34:49Z</time></trkpt><trkpt lat="40.46621141197509" lon="15.188892175763913"><ele>217.0</ele><time>2026-04-19T09:34:51Z</time></trkpt><trkpt lat="40.46614852737384" lon="15.188866427546223"><ele>215.0</ele><time>2026-04-19T09:34:53Z</time></trkpt><trkpt lat="40.466094953465095" lon="15.188809076093095"><ele>213.0</ele><time>2026-04-19T09:34:55Z</time></trkpt><trkpt lat="40.4660217313744" lon="15.18872198866405"><ele>211.00000000000003</ele><time>2026-04-19T09:34:57Z</time></trkpt><trkpt lat="40.465924756724085" lon="15.188635458159894"><ele>209.0</ele><time>2026-04-19T09:34:59Z</time></trkpt><trkpt lat="40.46587414870351" lon="15.188582224211794"><ele>209.00000000000003</ele><time>2026-04-19T09:35:01Z</time></trkpt><trkpt lat="40.46579902268346" lon="15.188520101366208"><ele>209.0</ele><time>2026-04-19T09:35:04Z</time></trkpt><trkpt lat="40.46573586658616" lon="15.18845773670363"><ele>209.0</ele><time>2026-04-19T09:35:07Z</time></trkpt><trkpt lat="40.46567719671481" lon="15.18840061456607"><ele>209.0</ele><time>2026-04-19T09:35:09.001Z</time></trkpt><trkpt lat="40.46563286910667" lon="15.188316012560266"><ele>209.00000000000003</ele><time>2026-04-19T09:35:11.001Z</time></trkpt><trkpt lat="40.46560427401309" lon="15.188221196732915"><ele>209.0</ele><time>2026-04-19T09:35:18.001Z</time></trkpt><trkpt lat="40.465578570973385" lon="15.188122777948081"><ele>209.71428571428572</ele><time>2026-04-19T09:35:22.001Z</time></trkpt><trkpt lat="40.46553547764503" lon="15.188040760931427"><ele>210.42857142857142</ele><time>2026-04-19T09:35:57.001Z</time></trkpt><trkpt lat="40.465500708223544" lon="15.187959733906144"><ele>211.14285714285717</ele><time>2026-04-19T09:36:01.001Z</time></trkpt><trkpt lat="40.46545227103219" lon="15.187882325669134"><ele>211.85714285714286</ele><time>2026-04-19T09:36:04.001Z</time></trkpt><trkpt lat="40.46541155825443" lon="15.187816021227565"><ele>212.57142857142858</ele><time>2026-04-19T09:36:07.002Z</time></trkpt><trkpt lat="40.465356032534416" lon="15.18772504091581"><ele>213.2857142857143</ele><time>2026-04-19T09:36:10.002Z</time></trkpt><trkpt lat="40.465318774288924" lon="15.187649744557591"><ele>214.0</ele><time>2026-04-19T09:36:12.002Z</time></trkpt><trkpt lat="40.46527529274334" lon="15.187580535839817"><ele>209.79999999999998</ele><time>2026-04-19T09:36:14.002Z</time></trkpt><trkpt lat="40.46518441915422" lon="15.187548654144441"><ele>205.59999999999997</ele><time>2026-04-19T09:36:17.002Z</time></trkpt><trkpt lat="40.46507920335455" lon="15.187537883264152"><ele>201.4</ele><time>2026-04-19T09:36:19.002Z</time></trkpt><trkpt lat="40.464959360067276" lon="15.187522140806811"><ele>197.2</ele><time>2026-04-19T09:36:21.002Z</time></trkpt><trkpt lat="40.464891187441964" lon="15.18750288640767"><ele>193.0</ele><time>2026-04-19T09:36:22.002Z</time></trkpt><trkpt lat="40.46477657104389" lon="15.187461053713157"><ele>193.0</ele><time>2026-04-19T09:36:24.002Z</time></trkpt><trkpt lat="40.46471492334929" lon="15.187444136136126"><ele>193.0</ele><time>2026-04-19T09:36:25.002Z</time></trkpt><trkpt lat="40.464610308074526" lon="15.187473637058694"><ele>193.0</ele><time>2026-04-19T09:36:27.002Z</time></trkpt><trkpt lat="40.464506154161725" lon="15.187572039514937"><ele>193.0</ele><time>2026-04-19T09:36:29.002Z</time></trkpt><trkpt lat="40.4643953750509" lon="15.187570235589451"><ele>193.0</ele><time>2026-04-19T09:36:31Z</time></trkpt><trkpt lat="40.464291255841246" lon="15.187518311565178"><ele>192.0</ele><time>2026-04-19T09:36:33Z</time></trkpt><trkpt lat="40.464206558998754" lon="15.187442457311048"><ele>191.0</ele><time>2026-04-19T09:36:35Z</time></trkpt><trkpt lat="40.46415322909761" lon="15.187288842004149"><ele>190.0</ele><time>2026-04-19T09:36:37Z</time></trkpt><trkpt lat="40.464133608289536" lon="15.187201903980032"><ele>189.0</ele><time>2026-04-19T09:36:38Z</time></trkpt><trkpt lat="40.4641016950203" lon="15.187114776281007"><ele>188.0</ele><time>2026-04-19T09:36:39Z</time></trkpt><trkpt lat="40.46405583104037" lon="15.187031947967373"><ele>190.4</ele><time>2026-04-19T09:36:40Z</time></trkpt><trkpt lat="40.46400082513326" lon="15.18696546441552"><ele>192.8</ele><time>2026-04-19T09:36:41Z</time></trkpt><trkpt lat="40.463914241472345" lon="15.186892688136924"><ele>195.2</ele><time>2026-04-19T09:36:43Z</time></trkpt><trkpt lat="40.46383569938007" lon="15.186863636423842"><ele>197.6</ele><time>2026-04-19T09:36:50Z</time></trkpt><trkpt lat="40.46371552930975" lon="15.186831695794424"><ele>200.0</ele><time>2026-04-19T09:36:52Z</time></trkpt><trkpt lat="40.46360891259921" lon="15.186810903732843"><ele>200.0</ele><time>2026-04-19T09:36:54Z</time></trkpt><trkpt lat="40.46351500605549" lon="15.186792543895365"><ele>200.0</ele><time>2026-04-19T09:36:56Z</time></trkpt><trkpt lat="40.463428172036565" lon="15.186813728450959"><ele>200.0</ele><time>2026-04-19T09:37:04Z</time></trkpt><trkpt lat="40.463344041210014" lon="15.186911004294197"><ele>200.0</ele><time>2026-04-19T09:37:06.001Z</time></trkpt><trkpt lat="40.46329277531777" lon="15.186974532222774"><ele>200.0</ele><time>2026-04-19T09:37:07.001Z</time></trkpt><trkpt lat="40.46320520062031" lon="15.187087459278205"><ele>200.00000000000003</ele><time>2026-04-19T09:37:09.001Z</time></trkpt><trkpt lat="40.463142060643854" lon="15.18712965129665"><ele>200.0</ele><time>2026-04-19T09:37:10.001Z</time></trkpt><trkpt lat="40.46306331357586" lon="15.187161754845812"><ele>200.0</ele><time>2026-04-19T09:37:11.001Z</time></trkpt><trkpt lat="40.462977849983346" lon="15.187183333912161"><ele>200.0</ele><time>2026-04-19T09:37:12.001Z</time></trkpt><trkpt lat="40.46289829162255" lon="15.187200347515489"><ele>200.00000000000003</ele><time>2026-04-19T09:37:13.001Z</time></trkpt><trkpt lat="40.462824540133944" lon="15.187220341221309"><ele>200.0</ele><time>2026-04-19T09:37:14.001Z</time></trkpt><trkpt lat="40.46275282525815" lon="15.187235513813642"><ele>200.50000000000003</ele><time>2026-04-19T09:37:15.001Z</time></trkpt><trkpt lat="40.462688018390615" lon="15.187260993731591"><ele>201.0</ele><time>2026-04-19T09:37:16.001Z</time></trkpt><trkpt lat="40.462626600442874" lon="15.187295041431113"><ele>201.5</ele><time>2026-04-19T09:37:17.001Z</time></trkpt><trkpt lat="40.46257773738927" lon="15.187352127236338"><ele>202.0</ele><time>2026-04-19T09:37:18.001Z</time></trkpt><trkpt lat="40.46251877035796" lon="15.187499656078922"><ele>202.50000000000003</ele><time>2026-04-19T09:37:20.001Z</time></trkpt><trkpt lat="40.46249796749798" lon="15.187578813153182"><ele>203.0</ele><time>2026-04-19T09:37:21.001Z</time></trkpt><trkpt lat="40.462415921684645" lon="15.187682722399868"><ele>202.50000000000003</ele><time>2026-04-19T09:37:23.001Z</time></trkpt><trkpt lat="40.462353136121926" lon="15.187711495060764"><ele>202.0</ele><time>2026-04-19T09:37:24.001Z</time></trkpt><trkpt lat="40.462281498002916" lon="15.187742447742187"><ele>201.5</ele><time>2026-04-19T09:37:25.001Z</time></trkpt><trkpt lat="40.462211887742015" lon="15.187756012086027"><ele>201.0</ele><time>2026-04-19T09:37:26.001Z</time></trkpt><trkpt lat="40.46210301717918" lon="15.187715010422806"><ele>200.50000000000003</ele><time>2026-04-19T09:37:28.001Z</time></trkpt><trkpt lat="40.46203686914513" lon="15.187671587600116"><ele>200.0</ele><time>2026-04-19T09:37:29.001Z</time></trkpt><trkpt lat="40.461979458311035" lon="15.187618580635212"><ele>200.0</ele><time>2026-04-19T09:37:30.001Z</time></trkpt><trkpt lat="40.461904024396084" lon="15.187491211346465"><ele>200.0</ele><time>2026-04-19T09:37:32.001Z</time></trkpt><trkpt lat="40.46181925228253" lon="15.1874225472619"><ele>200.0</ele><time>2026-04-19T09:37:34.001Z</time></trkpt><trkpt lat="40.46167948236914" lon="15.187450075670611"><ele>200.0</ele><time>2026-04-19T09:37:36.001Z</time></trkpt><trkpt lat="40.46158477460487" lon="15.187479659429764"><ele>200.0</ele><time>2026-04-19T09:37:37.001Z</time></trkpt><trkpt lat="40.46149978218679" lon="15.18751857911247"><ele>200.0</ele><time>2026-04-19T09:37:38.001Z</time></trkpt><trkpt lat="40.46140947598247" lon="15.187566181232121"><ele>200.0</ele><time>2026-04-19T09:37:39.001Z</time></trkpt><trkpt lat="40.46132525240913" lon="15.187624496041503"><ele>200.0</ele><time>2026-04-19T09:37:40.001Z</time></trkpt><trkpt lat="40.4612376905761" lon="15.187686884056207"><ele>200.0</ele><time>2026-04-19T09:37:41.001Z</time></trkpt><trkpt lat="40.46116493492221" lon="15.187739007094997"><ele>201.83333333333334</ele><time>2026-04-19T09:37:42.001Z</time></trkpt><trkpt lat="40.46109364787138" lon="15.187779015901434"><ele>203.66666666666669</ele><time>2026-04-19T09:37:43.001Z</time></trkpt><trkpt lat="40.461015736676764" lon="15.187807205242311"><ele>205.5</ele><time>2026-04-19T09:37:44.001Z</time></trkpt><trkpt lat="40.460934874442174" lon="15.18781929356683"><ele>207.33333333333331</ele><time>2026-04-19T09:37:45.001Z</time></trkpt><trkpt lat="40.46085788459896" lon="15.187818972242948"><ele>209.16666666666666</ele><time>2026-04-19T09:37:46.001Z</time></trkpt><trkpt lat="40.46077763250337" lon="15.187817400813037"><ele>211.0</ele><time>2026-04-19T09:37:47.001Z</time></trkpt><trkpt lat="40.460696640537996" lon="15.187812603499147"><ele>210.99999999999997</ele><time>2026-04-19T09:37:48.001Z</time></trkpt><trkpt lat="40.46063048271238" lon="15.187793223443636"><ele>211.0</ele><time>2026-04-19T09:37:49.001Z</time></trkpt><trkpt lat="40.46054904910716" lon="15.187772436956559"><ele>211.0</ele><time>2026-04-19T09:37:50.001Z</time></trkpt><trkpt lat="40.46048015408441" lon="15.18779979467054"><ele>211.0</ele><time>2026-04-19T09:37:51.001Z</time></trkpt><trkpt lat="40.460411599858595" lon="15.187770682593786"><ele>210.99999999999997</ele><time>2026-04-19T09:37:52.001Z</time></trkpt><trkpt lat="40.46028953272603" lon="15.187706717526455"><ele>211.0</ele><time>2026-04-19T09:37:54.001Z</time></trkpt><trkpt lat="40.46021528631765" lon="15.187717829363637"><ele>211.4</ele><time>2026-04-19T09:37:55.001Z</time></trkpt><trkpt lat="40.460130619869894" lon="15.187740240080329"><ele>211.8</ele><time>2026-04-19T09:37:56.001Z</time></trkpt><trkpt lat="40.46005814200308" lon="15.187746102931357"><ele>212.20000000000002</ele><time>2026-04-19T09:37:57.001Z</time></trkpt><trkpt lat="40.45995148693409" lon="15.187789317827251"><ele>212.60000000000002</ele><time>2026-04-19T09:37:59.001Z</time></trkpt><trkpt lat="40.45983805536934" lon="15.187855901123939"><ele>213.0</ele><time>2026-04-19T09:38:01.001Z</time></trkpt><trkpt lat="40.45977622892315" lon="15.187881589680801"><ele>213.0</ele><time>2026-04-19T09:38:02.001Z</time></trkpt><trkpt lat="40.459713888952976" lon="15.187907989941099"><ele>213.0</ele><time>2026-04-19T09:38:03.001Z</time></trkpt><trkpt lat="40.45964940107702" lon="15.187930808751208"><ele>213.0</ele><time>2026-04-19T09:38:04.002Z</time></trkpt><trkpt lat="40.459566670197376" lon="15.187962346436313"><ele>213.0</ele><time>2026-04-19T09:38:05.002Z</time></trkpt><trkpt lat="40.4594760330637" lon="15.187970716093588"><ele>213.0</ele><time>2026-04-19T09:38:06.002Z</time></trkpt><trkpt lat="40.45940617057935" lon="15.187989191960414"><ele>213.0</ele><time>2026-04-19T09:38:07.002Z</time></trkpt><trkpt lat="40.45933700982581" lon="15.18800392203942"><ele>212.8</ele><time>2026-04-19T09:38:08.002Z</time></trkpt><trkpt lat="40.45924000943996" lon="15.187951433504558"><ele>212.60000000000002</ele><time>2026-04-19T09:38:10.002Z</time></trkpt><trkpt lat="40.45919847313516" lon="15.187887672033257"><ele>212.39999999999998</ele><time>2026-04-19T09:38:22.002Z</time></trkpt><trkpt lat="40.45928264506703" lon="15.187724995717607"><ele>212.2</ele><time>2026-04-19T09:38:25.002Z</time></trkpt><trkpt lat="40.45933497038328" lon="15.187663117078923"><ele>212.0</ele><time>2026-04-19T09:38:26.002Z</time></trkpt><trkpt lat="40.45937644112109" lon="15.187600288975943"><ele>212.0</ele><time>2026-04-19T09:38:27.002Z</time></trkpt><trkpt lat="40.45943579259218" lon="15.18750212614972"><ele>212.0</ele><time>2026-04-19T09:38:29.002Z</time></trkpt><trkpt lat="40.45949238328015" lon="15.187398055194548"><ele>212.0</ele><time>2026-04-19T09:38:31.002Z</time></trkpt><trkpt lat="40.45952956027777" lon="15.187329686248374"><ele>211.0</ele><time>2026-04-19T09:38:33.002Z</time></trkpt><trkpt lat="40.45957550955353" lon="15.187245184976584"><ele>211.0</ele><time>2026-04-19T09:38:36.002Z</time></trkpt></trkseg><trkseg><trkpt lat="40.459580538469346" lon="15.187241188681636"><ele>210.99999999999997</ele><time>2026-04-19T09:52:02Z</time></trkpt><trkpt lat="40.45952932916042" lon="15.187297479330772"><ele>211.0</ele><time>2026-04-19T09:52:04Z</time></trkpt><trkpt lat="40.45948953840441" lon="15.187373272471149"><ele>211.0</ele><time>2026-04-19T09:52:06Z</time></trkpt><trkpt lat="40.45944381764645" lon="15.187444437933717"><ele>211.0</ele><time>2026-04-19T09:52:08Z</time></trkpt><trkpt lat="40.459404699271104" lon="15.187509560065223"><ele>210.99999999999997</ele><time>2026-04-19T09:52:10Z</time></trkpt><trkpt lat="40.45932944019926" lon="15.187633090628701"><ele>211.0</ele><time>2026-04-19T09:52:20Z</time></trkpt><trkpt lat="40.459280957334464" lon="15.187713616251354"><ele>211.16666666666666</ele><time>2026-04-19T09:52:21Z</time></trkpt><trkpt lat="40.45923353364942" lon="15.187780574199337"><ele>211.33333333333331</ele><time>2026-04-19T09:52:22Z</time></trkpt><trkpt lat="40.45918409192734" lon="15.187854010028522"><ele>211.5</ele><time>2026-04-19T09:52:23Z</time></trkpt><trkpt lat="40.459116272309274" lon="15.187912218764252"><ele>211.66666666666669</ele><time>2026-04-19T09:52:24Z</time></trkpt><trkpt lat="40.459049910328226" lon="15.187978760771525"><ele>211.83333333333334</ele><time>2026-04-19T09:52:25Z</time></trkpt><trkpt lat="40.45898051236901" lon="15.1880484443178"><ele>212.0</ele><time>2026-04-19T09:52:26Z</time></trkpt><trkpt lat="40.45889155897145" lon="15.18813674299993"><ele>211.0</ele><time>2026-04-19T09:52:27Z</time></trkpt><trkpt lat="40.458819334644616" lon="15.188233245506511"><ele>210.0</ele><time>2026-04-19T09:52:28Z</time></trkpt><trkpt lat="40.458740096635374" lon="15.188305527576844"><ele>209.0</ele><time>2026-04-19T09:52:29Z</time></trkpt><trkpt lat="40.458671320324335" lon="15.188412114097856"><ele>208.0</ele><time>2026-04-19T09:52:30Z</time></trkpt><trkpt lat="40.458622108734204" lon="15.188542915831098"><ele>207.0</ele><time>2026-04-19T09:52:31Z</time></trkpt><trkpt lat="40.45859755964695" lon="15.188677109482365"><ele>206.6</ele><time>2026-04-19T09:52:32Z</time></trkpt><trkpt lat="40.45858003374705" lon="15.18881965452843"><ele>206.2</ele><time>2026-04-19T09:52:33Z</time></trkpt><trkpt lat="40.458578517806544" lon="15.188955312883284"><ele>205.8</ele><time>2026-04-19T09:52:34Z</time></trkpt><trkpt lat="40.458584391863965" lon="15.189088044163631"><ele>205.4</ele><time>2026-04-19T09:52:35Z</time></trkpt><trkpt lat="40.45858864070623" lon="15.189210476266073"><ele>205.0</ele><time>2026-04-19T09:52:36Z</time></trkpt><trkpt lat="40.45858760780472" lon="15.189324116297067"><ele>204.99999999999997</ele><time>2026-04-19T09:52:37Z</time></trkpt><trkpt lat="40.45860335297251" lon="15.189423650150431"><ele>205.0</ele><time>2026-04-19T09:52:38Z</time></trkpt><trkpt lat="40.45861811581642" lon="15.189531302249634"><ele>205.0</ele><time>2026-04-19T09:52:39Z</time></trkpt><trkpt lat="40.45862480781146" lon="15.189644561882897"><ele>205.0</ele><time>2026-04-19T09:52:40Z</time></trkpt><trkpt lat="40.458627442686314" lon="15.189735986158302"><ele>204.99999999999997</ele><time>2026-04-19T09:52:41Z</time></trkpt><trkpt lat="40.45862233779214" lon="15.189864954289163"><ele>205.0</ele><time>2026-04-19T09:52:43Z</time></trkpt><trkpt lat="40.45872267502464" lon="15.189939812282029"><ele>204.49999999999997</ele><time>2026-04-19T09:52:48Z</time></trkpt><trkpt lat="40.458824450984416" lon="15.189897798753151"><ele>204.0</ele><time>2026-04-19T09:52:50Z</time></trkpt><trkpt lat="40.45893084551611" lon="15.18992991142381"><ele>203.5</ele><time>2026-04-19T09:52:52Z</time></trkpt><trkpt lat="40.458973728949246" lon="15.189991944243207"><ele>203.0</ele><time>2026-04-19T09:52:53Z</time></trkpt><trkpt lat="40.4590298189434" lon="15.19003100398167"><ele>202.49999999999997</ele><time>2026-04-19T09:52:54Z</time></trkpt><trkpt lat="40.45909058433353" lon="15.190073319550576"><ele>202.0</ele><time>2026-04-19T09:52:55Z</time></trkpt><trkpt lat="40.45918687271935" lon="15.190135308982814"><ele>201.99999999999997</ele><time>2026-04-19T09:52:57Z</time></trkpt><trkpt lat="40.459271183289495" lon="15.190153886976109"><ele>202.0</ele><time>2026-04-19T09:52:59Z</time></trkpt><trkpt lat="40.45933266658525" lon="15.19011173946034"><ele>202.0</ele><time>2026-04-19T09:53:00Z</time></trkpt><trkpt lat="40.45937969051972" lon="15.190009017353455"><ele>202.0</ele><time>2026-04-19T09:53:01Z</time></trkpt><trkpt lat="40.4594290002423" lon="15.189936363745453"><ele>201.99999999999997</ele><time>2026-04-19T09:53:02Z</time></trkpt><trkpt lat="40.45948306399612" lon="15.18987155912625"><ele>202.0</ele><time>2026-04-19T09:53:03Z</time></trkpt><trkpt lat="40.45955335214544" lon="15.189817912726571"><ele>201.16666666666666</ele><time>2026-04-19T09:53:04Z</time></trkpt><trkpt lat="40.459629983386975" lon="15.189772365846691"><ele>200.33333333333331</ele><time>2026-04-19T09:53:05Z</time></trkpt><trkpt lat="40.45970768782002" lon="15.189732687797065"><ele>199.5</ele><time>2026-04-19T09:53:06Z</time></trkpt><trkpt lat="40.45978219252188" lon="15.189696844716183"><ele>198.66666666666669</ele><time>2026-04-19T09:53:07Z</time></trkpt><trkpt lat="40.45984877320728" lon="15.18964794368756"><ele>197.83333333333334</ele><time>2026-04-19T09:53:08Z</time></trkpt><trkpt lat="40.45991579399572" lon="15.189615672781208"><ele>197.0</ele><time>2026-04-19T09:53:09Z</time></trkpt><trkpt lat="40.459989699286794" lon="15.189609934007928"><ele>197.00000000000003</ele><time>2026-04-19T09:53:10Z</time></trkpt><trkpt lat="40.46005390647904" lon="15.18959536373244"><ele>197.0</ele><time>2026-04-19T09:53:11Z</time></trkpt><trkpt lat="40.46015309095044" lon="15.189611538297921"><ele>197.0</ele><time>2026-04-19T09:53:13Z</time></trkpt><trkpt lat="40.46021647060939" lon="15.189697972115999"><ele>197.0</ele><time>2026-04-19T09:53:15Z</time></trkpt><trkpt lat="40.46026815310232" lon="15.189766107445603"><ele>197.00000000000003</ele><time>2026-04-19T09:53:22.999Z</time></trkpt><trkpt lat="40.46030273878803" lon="15.18985449665419"><ele>197.0</ele><time>2026-04-19T09:53:24.999Z</time></trkpt><trkpt lat="40.46036866171766" lon="15.189906453614142"><ele>195.39999999999998</ele><time>2026-04-19T09:53:26.999Z</time></trkpt><trkpt lat="40.460431118936356" lon="15.189986153655418"><ele>193.79999999999998</ele><time>2026-04-19T09:53:28.999Z</time></trkpt><trkpt lat="40.46053401165874" lon="15.189916755011131"><ele>192.2</ele><time>2026-04-19T09:53:29.999Z</time></trkpt><trkpt lat="40.460636233600646" lon="15.189933085379716"><ele>190.6</ele><time>2026-04-19T09:53:31.999Z</time></trkpt><trkpt lat="40.46072797233699" lon="15.189932750932597"><ele>189.0</ele><time>2026-04-19T09:53:33.999Z</time></trkpt><trkpt lat="40.460819989490254" lon="15.189979209085278"><ele>187.0</ele><time>2026-04-19T09:53:35.999Z</time></trkpt><trkpt lat="40.46087954641921" lon="15.19004080351147"><ele>185.0</ele><time>2026-04-19T09:53:37.999Z</time></trkpt><trkpt lat="40.46094455988879" lon="15.19008629548535"><ele>183.0</ele><time>2026-04-19T09:53:39.999Z</time></trkpt><trkpt lat="40.46102491590453" lon="15.190086601460838"><ele>181.0</ele><time>2026-04-19T09:53:41.999Z</time></trkpt><trkpt lat="40.46109978296314" lon="15.190069820855213"><ele>179.0</ele><time>2026-04-19T09:53:43.999Z</time></trkpt><trkpt lat="40.46116935028051" lon="15.19003549760919"><ele>177.0</ele><time>2026-04-19T09:53:45.999Z</time></trkpt><trkpt lat="40.46128747876742" lon="15.19000605236574"><ele>176.16666666666666</ele><time>2026-04-19T09:53:47.999Z</time></trkpt><trkpt lat="40.46138265440581" lon="15.189984163566306"><ele>175.33333333333334</ele><time>2026-04-19T09:53:49.999Z</time></trkpt><trkpt lat="40.461453595300505" lon="15.189977280873377"><ele>174.5</ele><time>2026-04-19T09:53:51.999Z</time></trkpt><trkpt lat="40.46152027418347" lon="15.18998698996305"><ele>173.66666666666669</ele><time>2026-04-19T09:53:53.999Z</time></trkpt><trkpt lat="40.461595938902896" lon="15.190057863952076"><ele>172.83333333333334</ele><time>2026-04-19T09:53:56.999Z</time></trkpt><trkpt lat="40.46166525654879" lon="15.190146499614615"><ele>172.0</ele><time>2026-04-19T09:53:59.999Z</time></trkpt><trkpt lat="40.46173663717652" lon="15.190214391746736"><ele>172.0</ele><time>2026-04-19T09:54:01.999Z</time></trkpt><trkpt lat="40.46181293952368" lon="15.190280749970213"><ele>172.0</ele><time>2026-04-19T09:54:03.999Z</time></trkpt><trkpt lat="40.46190971750843" lon="15.190347646638525"><ele>172.0</ele><time>2026-04-19T09:54:05.999Z</time></trkpt><trkpt lat="40.46198102914783" lon="15.190421096092596"><ele>172.0</ele><time>2026-04-19T09:54:07.999Z</time></trkpt><trkpt lat="40.46202603884594" lon="15.19054133479172"><ele>172.0</ele><time>2026-04-19T09:54:09.999Z</time></trkpt><trkpt lat="40.46205981590912" lon="15.190699648299182"><ele>170.0</ele><time>2026-04-19T09:54:11.999Z</time></trkpt><trkpt lat="40.46207394162043" lon="15.190783023311655"><ele>168.0</ele><time>2026-04-19T09:54:12.999Z</time></trkpt><trkpt lat="40.46209003500381" lon="15.190924918796584"><ele>166.0</ele><time>2026-04-19T09:54:14.999Z</time></trkpt><trkpt lat="40.462098202018616" lon="15.191034213719659"><ele>164.0</ele><time>2026-04-19T09:54:16.999Z</time></trkpt><trkpt lat="40.462102803524495" lon="15.191137402134046"><ele>162.0</ele><time>2026-04-19T09:54:18.999Z</time></trkpt><trkpt lat="40.46210289025509" lon="15.191256105637965"><ele>160.0</ele><time>2026-04-19T09:54:20.999Z</time></trkpt><trkpt lat="40.46213656916818" lon="15.19137521313045"><ele>158.2</ele><time>2026-04-19T09:54:22.999Z</time></trkpt><trkpt lat="40.462190380687716" lon="15.191475217518722"><ele>156.4</ele><time>2026-04-19T09:54:24.999Z</time></trkpt><trkpt lat="40.462249105404574" lon="15.191585078826181"><ele>154.6</ele><time>2026-04-19T09:54:27Z</time></trkpt><trkpt lat="40.46228781740097" lon="15.191687775961412"><ele>152.8</ele><time>2026-04-19T09:54:29Z</time></trkpt><trkpt lat="40.46229657835514" lon="15.191803885957972"><ele>151.0</ele><time>2026-04-19T09:54:31Z</time></trkpt><trkpt lat="40.46227737226114" lon="15.191950411294618"><ele>149.2</ele><time>2026-04-19T09:54:33Z</time></trkpt><trkpt lat="40.462278011322425" lon="15.192093613799615"><ele>147.39999999999998</ele><time>2026-04-19T09:54:35Z</time></trkpt><trkpt lat="40.462295371639335" lon="15.192234803755136"><ele>145.6</ele><time>2026-04-19T09:54:37Z</time></trkpt><trkpt lat="40.46230756289942" lon="15.192358570390825"><ele>143.79999999999998</ele><time>2026-04-19T09:54:39Z</time></trkpt><trkpt lat="40.462344004588516" lon="15.192443780521659"><ele>142.0</ele><time>2026-04-19T09:54:41Z</time></trkpt><trkpt lat="40.462445633759685" lon="15.192478930466343"><ele>140.0</ele><time>2026-04-19T09:54:44Z</time></trkpt><trkpt lat="40.46255502476864" lon="15.19246871911479"><ele>138.0</ele><time>2026-04-19T09:54:46Z</time></trkpt><trkpt lat="40.46266125852524" lon="15.192453273643315"><ele>136.0</ele><time>2026-04-19T09:54:48Z</time></trkpt><trkpt lat="40.462768631151064" lon="15.192406290412183"><ele>134.0</ele><time>2026-04-19T09:54:50Z</time></trkpt><trkpt lat="40.46288576577984" lon="15.192368360287928"><ele>138.0</ele><time>2026-04-19T09:54:52Z</time></trkpt><trkpt lat="40.462992660351894" lon="15.192322407069721"><ele>142.0</ele><time>2026-04-19T09:54:54Z</time></trkpt><trkpt lat="40.463096446722716" lon="15.192260668688377"><ele>146.0</ele><time>2026-04-19T09:54:56Z</time></trkpt><trkpt lat="40.46314076028057" lon="15.192176889212707"><ele>150.0</ele><time>2026-04-19T09:54:58Z</time></trkpt><trkpt lat="40.46316960112588" lon="15.192077346839447"><ele>154.0</ele><time>2026-04-19T09:55:00Z</time></trkpt><trkpt lat="40.46321636184251" lon="15.191936684329239"><ele>154.0</ele><time>2026-04-19T09:55:02Z</time></trkpt><trkpt lat="40.46326879824161" lon="15.191812251794042"><ele>154.0</ele><time>2026-04-19T09:55:04Z</time></trkpt><trkpt lat="40.46332655123194" lon="15.191712960958013"><ele>154.0</ele><time>2026-04-19T09:55:06Z</time></trkpt><trkpt lat="40.46339743059472" lon="15.191673652494313"><ele>154.0</ele><time>2026-04-19T09:55:08Z</time></trkpt><trkpt lat="40.4634920274518" lon="15.191610539226843"><ele>154.0</ele><time>2026-04-19T09:55:10Z</time></trkpt><trkpt lat="40.46358500103836" lon="15.191530019642054"><ele>154.6</ele><time>2026-04-19T09:55:12Z</time></trkpt><trkpt lat="40.46366620888448" lon="15.191437463742332"><ele>155.2</ele><time>2026-04-19T09:55:14Z</time></trkpt><trkpt lat="40.46373880240533" lon="15.191333732421993"><ele>155.79999999999998</ele><time>2026-04-19T09:55:16Z</time></trkpt><trkpt lat="40.46379401017941" lon="15.191218378472426"><ele>156.4</ele><time>2026-04-19T09:55:18Z</time></trkpt><trkpt lat="40.463848646217414" lon="15.191175997348113"><ele>157.0</ele><time>2026-04-19T09:55:20Z</time></trkpt><trkpt lat="40.46392740913643" lon="15.191179703464174"><ele>160.16666666666669</ele><time>2026-04-19T09:55:22Z</time></trkpt><trkpt lat="40.46400285492187" lon="15.191179382772834"><ele>163.33333333333334</ele><time>2026-04-19T09:55:24Z</time></trkpt><trkpt lat="40.46406718091829" lon="15.19126185895239"><ele>166.5</ele><time>2026-04-19T09:55:26.998Z</time></trkpt><trkpt lat="40.46410291921847" lon="15.191345983935646"><ele>169.66666666666666</ele><time>2026-04-19T09:55:28.998Z</time></trkpt><trkpt lat="40.464136928285136" lon="15.191426201928893"><ele>172.83333333333331</ele><time>2026-04-19T09:55:30.998Z</time></trkpt><trkpt lat="40.46418129707728" lon="15.191508763843668"><ele>176.0</ele><time>2026-04-19T09:55:32.998Z</time></trkpt><trkpt lat="40.46420713376204" lon="15.191596573363924"><ele>176.4</ele><time>2026-04-19T09:55:34.998Z</time></trkpt><trkpt lat="40.4642640371131" lon="15.191693643791119"><ele>176.8</ele><time>2026-04-19T10:00:56.001Z</time></trkpt><trkpt lat="40.46434840665909" lon="15.191709909766896"><ele>177.20000000000002</ele><time>2026-04-19T10:00:59.001Z</time></trkpt><trkpt lat="40.46445889086646" lon="15.19172760788284"><ele>177.60000000000002</ele><time>2026-04-19T10:01:01.001Z</time></trkpt><trkpt lat="40.46452299106003" lon="15.19172573047206"><ele>178.0</ele><time>2026-04-19T10:01:02.001Z</time></trkpt><trkpt lat="40.4646224551995" lon="15.191710540663482"><ele>179.83333333333334</ele><time>2026-04-19T10:01:04.001Z</time></trkpt><trkpt lat="40.464705282588156" lon="15.191655066216407"><ele>181.66666666666669</ele><time>2026-04-19T10:01:06.001Z</time></trkpt><trkpt lat="40.46479942719932" lon="15.191604827201406"><ele>183.5</ele><time>2026-04-19T10:01:08.001Z</time></trkpt><trkpt lat="40.46487472409916" lon="15.191562498901927"><ele>185.33333333333334</ele><time>2026-04-19T10:01:10.001Z</time></trkpt><trkpt lat="40.46492917976042" lon="15.191610058802713"><ele>187.16666666666666</ele><time>2026-04-19T10:01:25.001Z</time></trkpt><trkpt lat="40.464968404331685" lon="15.191714518944922"><ele>189.0</ele><time>2026-04-19T10:01:28.001Z</time></trkpt><trkpt lat="40.46500835937849" lon="15.19181249558347"><ele>189.0</ele><time>2026-04-19T10:01:31.001Z</time></trkpt><trkpt lat="40.46504844039079" lon="15.19189574377656"><ele>189.0</ele><time>2026-04-19T10:01:33.001Z</time></trkpt><trkpt lat="40.4651396686028" lon="15.191970662406055"><ele>189.0</ele><time>2026-04-19T10:01:36.001Z</time></trkpt><trkpt lat="40.46519748790061" lon="15.192052557152627"><ele>189.0</ele><time>2026-04-19T10:01:39.001Z</time></trkpt><trkpt lat="40.46521811566965" lon="15.19214126191236"><ele>189.0</ele><time>2026-04-19T10:01:41.001Z</time></trkpt><trkpt lat="40.46521343715629" lon="15.192264019089222"><ele>189.0</ele><time>2026-04-19T10:01:43.001Z</time></trkpt><trkpt lat="40.46519579849808" lon="15.192408606613473"><ele>189.0</ele><time>2026-04-19T10:01:45.001Z</time></trkpt><trkpt lat="40.465226129261026" lon="15.192573522183393"><ele>189.0</ele><time>2026-04-19T10:01:47.001Z</time></trkpt><trkpt lat="40.465246447025876" lon="15.192711978756025"><ele>189.0</ele><time>2026-04-19T10:01:49.001Z</time></trkpt><trkpt lat="40.465278014912464" lon="15.192808108748155"><ele>189.0</ele><time>2026-04-19T10:01:51.001Z</time></trkpt><trkpt lat="40.46528472757099" lon="15.192910593418214"><ele>189.0</ele><time>2026-04-19T10:01:53.001Z</time></trkpt><trkpt lat="40.46529436793139" lon="15.193027274372108"><ele>189.0</ele><time>2026-04-19T10:01:55.001Z</time></trkpt><trkpt lat="40.465320863989554" lon="15.193123806953954"><ele>189.0</ele><time>2026-04-19T10:01:57.001Z</time></trkpt><trkpt lat="40.46532493742363" lon="15.19320786855753"><ele>189.0</ele><time>2026-04-19T10:01:59.001Z</time></trkpt><trkpt lat="40.46533455952447" lon="15.193294615954372"><ele>189.0</ele><time>2026-04-19T10:02:01.001Z</time></trkpt><trkpt lat="40.465368572200994" lon="15.193414393303808"><ele>189.0</ele><time>2026-04-19T10:02:03.001Z</time></trkpt><trkpt lat="40.465420842628134" lon="15.193495272123634"><ele>189.0</ele><time>2026-04-19T10:02:05.001Z</time></trkpt><trkpt lat="40.465483358053476" lon="15.193541567645497"><ele>189.66666666666666</ele><time>2026-04-19T10:02:07.001Z</time></trkpt><trkpt lat="40.46553005240854" lon="15.193629939123438"><ele>190.33333333333331</ele><time>2026-04-19T10:02:09.001Z</time></trkpt><trkpt lat="40.465567243810526" lon="15.193705457268623"><ele>191.0</ele><time>2026-04-19T10:02:11.001Z</time></trkpt><trkpt lat="40.465618365071364" lon="15.193822015375536"><ele>191.66666666666666</ele><time>2026-04-19T10:02:13.001Z</time></trkpt><trkpt lat="40.465651306995525" lon="15.193934176576471"><ele>192.33333333333331</ele><time>2026-04-19T10:02:15.001Z</time></trkpt><trkpt lat="40.465682754214846" lon="15.194063108904272"><ele>193.0</ele><time>2026-04-19T10:02:17.001Z</time></trkpt><trkpt lat="40.46570530013185" lon="15.194140468914716"><ele>193.0</ele><time>2026-04-19T10:02:18.001Z</time></trkpt><trkpt lat="40.46574589737348" lon="15.194291659133153"><ele>193.0</ele><time>2026-04-19T10:02:20.001Z</time></trkpt><trkpt lat="40.46577115854488" lon="15.19443065742574"><ele>193.0</ele><time>2026-04-19T10:02:22.001Z</time></trkpt><trkpt lat="40.465794111723724" lon="15.194561844703017"><ele>193.0</ele><time>2026-04-19T10:02:24.001Z</time></trkpt><trkpt lat="40.46580686627423" lon="15.194691752180855"><ele>193.0</ele><time>2026-04-19T10:02:26.001Z</time></trkpt><trkpt lat="40.465845900031766" lon="15.194820739032725"><ele>191.8</ele><time>2026-04-19T10:02:28.001Z</time></trkpt><trkpt lat="40.46587666048558" lon="15.194908477793142"><ele>190.60000000000002</ele><time>2026-04-19T10:02:29.001Z</time></trkpt><trkpt lat="40.46590632929584" lon="15.194997688815851"><ele>189.39999999999998</ele><time>2026-04-19T10:02:30.001Z</time></trkpt><trkpt lat="40.4659521092265" lon="15.195144168234268"><ele>188.2</ele><time>2026-04-19T10:02:32.001Z</time></trkpt><trkpt lat="40.465997941868906" lon="15.195291142805123"><ele>187.0</ele><time>2026-04-19T10:02:34.001Z</time></trkpt><trkpt lat="40.466020708422576" lon="15.195410650971173"><ele>187.0</ele><time>2026-04-19T10:02:36.001Z</time></trkpt><trkpt lat="40.46598829729791" lon="15.195490308185184"><ele>187.0</ele><time>2026-04-19T10:02:39.001Z</time></trkpt><trkpt lat="40.46588637206871" lon="15.195552242287995"><ele>187.0</ele><time>2026-04-19T10:02:41.001Z</time></trkpt><trkpt lat="40.46581990323913" lon="15.195584295428926"><ele>187.0</ele><time>2026-04-19T10:02:42.001Z</time></trkpt><trkpt lat="40.465747300291426" lon="15.195613418041544"><ele>187.0</ele><time>2026-04-19T10:02:43.001Z</time></trkpt><trkpt lat="40.465670951702656" lon="15.19564997345413"><ele>187.0</ele><time>2026-04-19T10:02:44.001Z</time></trkpt><trkpt lat="40.46560253482466" lon="15.195688145363299"><ele>186.33333333333334</ele><time>2026-04-19T10:02:45.001Z</time></trkpt><trkpt lat="40.465534110335284" lon="15.195727392685589"><ele>185.66666666666669</ele><time>2026-04-19T10:02:46.001Z</time></trkpt><trkpt lat="40.46546080480605" lon="15.195764645071856"><ele>185.0</ele><time>2026-04-19T10:02:47.001Z</time></trkpt><trkpt lat="40.465391422136406" lon="15.195799558193816"><ele>184.33333333333334</ele><time>2026-04-19T10:02:48.001Z</time></trkpt><trkpt lat="40.46530570726692" lon="15.195854073066378"><ele>183.66666666666666</ele><time>2026-04-19T10:02:50.001Z</time></trkpt><trkpt lat="40.46521552762556" lon="15.195903257389704"><ele>183.0</ele><time>2026-04-19T10:02:52.001Z</time></trkpt><trkpt lat="40.46511541616507" lon="15.19595811818919"><ele>180.4</ele><time>2026-04-19T10:02:54.001Z</time></trkpt><trkpt lat="40.46501554237042" lon="15.1960242567284"><ele>177.8</ele><time>2026-04-19T10:02:56.001Z</time></trkpt><trkpt lat="40.46492193022661" lon="15.196077043523228"><ele>175.2</ele><time>2026-04-19T10:02:58.001Z</time></trkpt><trkpt lat="40.4648191173039" lon="15.196124559480033"><ele>172.6</ele><time>2026-04-19T10:03:00.001Z</time></trkpt><trkpt lat="40.464745273787585" lon="15.196147090859327"><ele>170.0</ele><time>2026-04-19T10:03:02.001Z</time></trkpt><trkpt lat="40.464680481485054" lon="15.196172489389397"><ele>166.4</ele><time>2026-04-19T10:03:04.001Z</time></trkpt><trkpt lat="40.4646055626598" lon="15.196191182436348"><ele>162.8</ele><time>2026-04-19T10:03:06.001Z</time></trkpt><trkpt lat="40.46450184239906" lon="15.196213687419272"><ele>159.2</ele><time>2026-04-19T10:03:08.001Z</time></trkpt><trkpt lat="40.464397809303456" lon="15.196238181601329"><ele>155.6</ele><time>2026-04-19T10:03:10.001Z</time></trkpt><trkpt lat="40.464306789343226" lon="15.196271963288963"><ele>152.0</ele><time>2026-04-19T10:03:12.001Z</time></trkpt><trkpt lat="40.4642211458042" lon="15.196323826285663"><ele>152.0</ele><time>2026-04-19T10:03:14.001Z</time></trkpt><trkpt lat="40.464142443849234" lon="15.196351682504789"><ele>152.0</ele><time>2026-04-19T10:03:16.001Z</time></trkpt><trkpt lat="40.464056626970006" lon="15.196382834318905"><ele>152.0</ele><time>2026-04-19T10:03:18.001Z</time></trkpt><trkpt lat="40.463991977853226" lon="15.196396931147847"><ele>152.0</ele><time>2026-04-19T10:03:19.001Z</time></trkpt><trkpt lat="40.46387084704348" lon="15.196424821002042"><ele>152.0</ele><time>2026-04-19T10:03:21.001Z</time></trkpt><trkpt lat="40.463773192556204" lon="15.196460334287448"><ele>147.79999999999998</ele><time>2026-04-19T10:03:23.001Z</time></trkpt><trkpt lat="40.4636631014268" lon="15.196490745686814"><ele>143.6</ele><time>2026-04-19T10:03:25.001Z</time></trkpt><trkpt lat="40.46356722063741" lon="15.196519955256397"><ele>139.39999999999998</ele><time>2026-04-19T10:03:27.001Z</time></trkpt><trkpt lat="40.463460309185415" lon="15.196543638647524"><ele>135.2</ele><time>2026-04-19T10:03:29.001Z</time></trkpt><trkpt lat="40.463360514519316" lon="15.196570413256186"><ele>131.0</ele><time>2026-04-19T10:03:31.001Z</time></trkpt><trkpt lat="40.46328972371994" lon="15.196583909599648"><ele>131.0</ele><time>2026-04-19T10:03:33.001Z</time></trkpt><trkpt lat="40.46321164942291" lon="15.196611637090877"><ele>131.0</ele><time>2026-04-19T10:03:35.001Z</time></trkpt><trkpt lat="40.463102193276406" lon="15.196622874072752"><ele>131.0</ele><time>2026-04-19T10:03:37.001Z</time></trkpt><trkpt lat="40.463015632287494" lon="15.196656060748596"><ele>131.0</ele><time>2026-04-19T10:03:39.001Z</time></trkpt><trkpt lat="40.462916782706735" lon="15.196675024209183"><ele>131.0</ele><time>2026-04-19T10:03:41.001Z</time></trkpt><trkpt lat="40.462803225560116" lon="15.196696356613693"><ele>128.66666666666666</ele><time>2026-04-19T10:03:43.001Z</time></trkpt><trkpt lat="40.46271526563618" lon="15.196708110254566"><ele>126.33333333333333</ele><time>2026-04-19T10:03:45.001Z</time></trkpt><trkpt lat="40.46264492365624" lon="15.196716580394323"><ele>124.0</ele><time>2026-04-19T10:03:47.001Z</time></trkpt><trkpt lat="40.462575879937035" lon="15.196754995658752"><ele>121.66666666666666</ele><time>2026-04-19T10:03:50Z</time></trkpt><trkpt lat="40.462541733799" lon="15.196855843962824"><ele>119.33333333333333</ele><time>2026-04-19T10:03:53Z</time></trkpt><trkpt lat="40.462517716268835" lon="15.19695109899112"><ele>117.0</ele><time>2026-04-19T10:03:55Z</time></trkpt><trkpt lat="40.4624423415246" lon="15.196953042774382"><ele>117.0</ele><time>2026-04-19T10:04:13Z</time></trkpt><trkpt lat="40.4624004219129" lon="15.19685457527227"><ele>116.99999999999999</ele><time>2026-04-19T10:04:15Z</time></trkpt><trkpt lat="40.46237249608449" lon="15.196766312343826"><ele>116.99999999999999</ele><time>2026-04-19T10:04:16Z</time></trkpt><trkpt lat="40.46232836104559" lon="15.196646174240724"><ele>117.0</ele><time>2026-04-19T10:04:18Z</time></trkpt><trkpt lat="40.462275128034584" lon="15.196509199836543"><ele>117.0</ele><time>2026-04-19T10:04:20Z</time></trkpt><trkpt lat="40.46225339669049" lon="15.19639930067973"><ele>116.8</ele><time>2026-04-19T10:04:22Z</time></trkpt><trkpt lat="40.46227795171784" lon="15.196307231581573"><ele>116.6</ele><time>2026-04-19T10:04:24Z</time></trkpt><trkpt lat="40.462331731158564" lon="15.196227374030299"><ele>116.39999999999999</ele><time>2026-04-19T10:04:26Z</time></trkpt><trkpt lat="40.46238667991627" lon="15.19611161473397"><ele>116.19999999999999</ele><time>2026-04-19T10:04:28Z</time></trkpt><trkpt lat="40.46242398633419" lon="15.195960168911935"><ele>116.0</ele><time>2026-04-19T10:04:30Z</time></trkpt><trkpt lat="40.462433590770615" lon="15.195825466819493"><ele>116.49999999999999</ele><time>2026-04-19T10:04:32Z</time></trkpt><trkpt lat="40.46241343970947" lon="15.195664015911483"><ele>117.0</ele><time>2026-04-19T10:04:34Z</time></trkpt><trkpt lat="40.462391288201154" lon="15.195518746998674"><ele>117.5</ele><time>2026-04-19T10:04:36Z</time></trkpt><trkpt lat="40.462402039085454" lon="15.195433134705556"><ele>118.0</ele><time>2026-04-19T10:04:38Z</time></trkpt><trkpt lat="40.46235904571196" lon="15.195366886758237"><ele>118.49999999999999</ele><time>2026-04-19T10:04:47Z</time></trkpt><trkpt lat="40.462285379516764" lon="15.1953555219232"><ele>119.0</ele><time>2026-04-19T10:04:49Z</time></trkpt><trkpt lat="40.462218758448884" lon="15.195363510057335"><ele>119.0</ele><time>2026-04-19T10:04:51Z</time></trkpt><trkpt lat="40.46214863596458" lon="15.195382041633593"><ele>119.0</ele><time>2026-04-19T10:04:54Z</time></trkpt><trkpt lat="40.46208540892343" lon="15.195393359289046"><ele>119.0</ele><time>2026-04-19T10:04:58Z</time></trkpt><trkpt lat="40.46201095275413" lon="15.195452330907656"><ele>119.0</ele><time>2026-04-19T10:05:02Z</time></trkpt><trkpt lat="40.461982355493845" lon="15.195538388043026"><ele>119.0</ele><time>2026-04-19T10:05:04Z</time></trkpt><trkpt lat="40.46194617139562" lon="15.195610540201104"><ele>119.0</ele><time>2026-04-19T10:05:06Z</time></trkpt><trkpt lat="40.46190643634908" lon="15.19569989118527"><ele>119.0</ele><time>2026-04-19T10:05:08Z</time></trkpt><trkpt lat="40.461864749456566" lon="15.195781444521577"><ele>120.28571428571428</ele><time>2026-04-19T10:05:12Z</time></trkpt><trkpt lat="40.46182928787148" lon="15.195864057942929"><ele>121.57142857142857</ele><time>2026-04-19T10:05:15Z</time></trkpt><trkpt lat="40.461798979186305" lon="15.195937837955897"><ele>122.85714285714286</ele><time>2026-04-19T10:05:16Z</time></trkpt><trkpt lat="40.46176021990328" lon="15.196006116114486"><ele>124.14285714285714</ele><time>2026-04-19T10:05:18Z</time></trkpt><trkpt lat="40.461718787101695" lon="15.196093986815754"><ele>125.42857142857142</ele><time>2026-04-19T10:05:20Z</time></trkpt><trkpt lat="40.46166944038939" lon="15.196186539424286"><ele>126.71428571428571</ele><time>2026-04-19T10:05:22Z</time></trkpt><trkpt lat="40.46161533822728" lon="15.196262837986001"><ele>128.0</ele><time>2026-04-19T10:05:24Z</time></trkpt><trkpt lat="40.46157516484855" lon="15.196350565589858"><ele>127.99999999999999</ele><time>2026-04-19T10:05:27Z</time></trkpt><trkpt lat="40.46153393862349" lon="15.196445781142376"><ele>128.0</ele><time>2026-04-19T10:05:29Z</time></trkpt><trkpt lat="40.46148951261877" lon="15.196581067459137"><ele>128.0</ele><time>2026-04-19T10:05:31Z</time></trkpt><trkpt lat="40.4614561546871" lon="15.196668800380397"><ele>128.0</ele><time>2026-04-19T10:05:33Z</time></trkpt><trkpt lat="40.46142441243288" lon="15.19675706559734"><ele>127.99999999999999</ele><time>2026-04-19T10:05:35Z</time></trkpt><trkpt lat="40.46139515569179" lon="15.196843622374622"><ele>128.0</ele><time>2026-04-19T10:05:37Z</time></trkpt><trkpt lat="40.461352488779845" lon="15.196945310319096"><ele>127.99999999999999</ele><time>2026-04-19T10:05:40Z</time></trkpt><trkpt lat="40.46129445473181" lon="15.197032721419005"><ele>128.0</ele><time>2026-04-19T10:05:42Z</time></trkpt><trkpt lat="40.46124463645673" lon="15.197093601582564"><ele>128.0</ele><time>2026-04-19T10:05:46Z</time></trkpt><trkpt lat="40.46118100998824" lon="15.19706105123221"><ele>128.0</ele><time>2026-04-19T10:05:52Z</time></trkpt><trkpt lat="40.461110675127244" lon="15.196966024348272"><ele>127.99999999999999</ele><time>2026-04-19T10:05:54.999Z</time></trkpt><trkpt lat="40.46104319311794" lon="15.196868299641414"><ele>128.0</ele><time>2026-04-19T10:05:56.999Z</time></trkpt><trkpt lat="40.460948388223095" lon="15.196718189103656"><ele>132.0</ele><time>2026-04-19T10:05:58.999Z</time></trkpt><trkpt lat="40.460869542917614" lon="15.19660653685811"><ele>136.0</ele><time>2026-04-19T10:06:00.999Z</time></trkpt><trkpt lat="40.460830144927066" lon="15.196521674696271"><ele>140.0</ele><time>2026-04-19T10:06:02.999Z</time></trkpt><trkpt lat="40.46078601342517" lon="15.19645376353537"><ele>144.0</ele><time>2026-04-19T10:06:05.999Z</time></trkpt><trkpt lat="40.46076158889319" lon="15.196369014333312"><ele>148.0</ele><time>2026-04-19T10:06:12.999Z</time></trkpt><trkpt lat="40.460724906051404" lon="15.196224589331482"><ele>152.0</ele><time>2026-04-19T10:06:15Z</time></trkpt><trkpt lat="40.46069177423324" lon="15.19607676433236"><ele>153.0</ele><time>2026-04-19T10:06:17Z</time></trkpt><trkpt lat="40.460677741264824" lon="15.195943530784904"><ele>154.0</ele><time>2026-04-19T10:06:19Z</time></trkpt><trkpt lat="40.46061829935094" lon="15.19584099976638"><ele>155.0</ele><time>2026-04-19T10:06:21Z</time></trkpt><trkpt lat="40.46049813535636" lon="15.195773272915924"><ele>156.0</ele><time>2026-04-19T10:06:23Z</time></trkpt><trkpt lat="40.46043351189714" lon="15.195750907958345"><ele>157.0</ele><time>2026-04-19T10:06:24Z</time></trkpt><trkpt lat="40.460369356384746" lon="15.19572263048517"><ele>159.39999999999998</ele><time>2026-04-19T10:06:25Z</time></trkpt><trkpt lat="40.46028659834625" lon="15.195690892314165"><ele>161.79999999999998</ele><time>2026-04-19T10:06:27Z</time></trkpt><trkpt lat="40.46019742253726" lon="15.195658385367729"><ele>164.2</ele><time>2026-04-19T10:06:30Z</time></trkpt><trkpt lat="40.460183120608534" lon="15.195473227491224"><ele>166.6</ele><time>2026-04-19T10:06:31Z</time></trkpt><trkpt lat="40.460155122755154" lon="15.195341926260577"><ele>169.0</ele><time>2026-04-19T10:06:32Z</time></trkpt><trkpt lat="40.460136034928816" lon="15.19520940018156"><ele>170.66666666666669</ele><time>2026-04-19T10:06:33Z</time></trkpt><trkpt lat="40.46011887709433" lon="15.195092412220463"><ele>172.33333333333334</ele><time>2026-04-19T10:06:34Z</time></trkpt><trkpt lat="40.46010111508101" lon="15.194972347529035"><ele>174.0</ele><time>2026-04-19T10:06:35Z</time></trkpt><trkpt lat="40.46006761623346" lon="15.194867289728972"><ele>175.66666666666666</ele><time>2026-04-19T10:06:36Z</time></trkpt><trkpt lat="40.46002293554735" lon="15.19477393868965"><ele>177.33333333333331</ele><time>2026-04-19T10:06:37Z</time></trkpt><trkpt lat="40.45996303577398" lon="15.19468391035545"><ele>179.0</ele><time>2026-04-19T10:06:38Z</time></trkpt><trkpt lat="40.45991089020796" lon="15.194560304000547"><ele>180.16666666666666</ele><time>2026-04-19T10:06:39Z</time></trkpt><trkpt lat="40.45984833691141" lon="15.194473018276968"><ele>181.33333333333331</ele><time>2026-04-19T10:06:40Z</time></trkpt><trkpt lat="40.45981124506928" lon="15.194397654767698"><ele>182.5</ele><time>2026-04-19T10:06:41Z</time></trkpt><trkpt lat="40.459772865109" lon="15.194321238876487"><ele>183.66666666666666</ele><time>2026-04-19T10:06:42Z</time></trkpt><trkpt lat="40.45971756775722" lon="15.194221859036352"><ele>184.83333333333334</ele><time>2026-04-19T10:06:43Z</time></trkpt><trkpt lat="40.45966654117709" lon="15.194121732578976"><ele>186.0</ele><time>2026-04-19T10:06:44Z</time></trkpt><trkpt lat="40.45961507823632" lon="15.19403154110831"><ele>189.16666666666666</ele><time>2026-04-19T10:06:45Z</time></trkpt><trkpt lat="40.45956895143958" lon="15.193944900550493"><ele>192.33333333333331</ele><time>2026-04-19T10:06:46Z</time></trkpt><trkpt lat="40.459517086900654" lon="15.193858464047047"><ele>195.5</ele><time>2026-04-19T10:06:48Z</time></trkpt><trkpt lat="40.459467621005835" lon="15.193771321979868"><ele>198.66666666666666</ele><time>2026-04-19T10:06:50Z</time></trkpt><trkpt lat="40.45942502128284" lon="15.1936966802529"><ele>201.83333333333331</ele><time>2026-04-19T10:06:53Z</time></trkpt><trkpt lat="40.45930910600968" lon="15.193760985572407"><ele>205.0</ele><time>2026-04-19T10:06:54Z</time></trkpt><trkpt lat="40.459238152713986" lon="15.193819845779807"><ele>204.99999999999997</ele><time>2026-04-19T10:06:55Z</time></trkpt><trkpt lat="40.45915874447069" lon="15.19387355049405"><ele>205.0</ele><time>2026-04-19T10:06:56Z</time></trkpt><trkpt lat="40.459065123577396" lon="15.193921779960272"><ele>205.0</ele><time>2026-04-19T10:06:57Z</time></trkpt><trkpt lat="40.458986641572686" lon="15.193930894902271"><ele>205.0</ele><time>2026-04-19T10:06:58Z</time></trkpt><trkpt lat="40.45890813549502" lon="15.193903014714925"><ele>204.99999999999997</ele><time>2026-04-19T10:06:59Z</time></trkpt><trkpt lat="40.45882725586274" lon="15.19387571863206"><ele>205.0</ele><time>2026-04-19T10:07:00Z</time></trkpt><trkpt lat="40.458723982634964" lon="15.193825988014595"><ele>208.0</ele><time>2026-04-19T10:07:01Z</time></trkpt><trkpt lat="40.45863487473045" lon="15.193782774559192"><ele>211.0</ele><time>2026-04-19T10:07:02Z</time></trkpt><trkpt lat="40.458561925178685" lon="15.193679875837503"><ele>214.0</ele><time>2026-04-19T10:07:03Z</time></trkpt><trkpt lat="40.45850484327239" lon="15.1936003975547"><ele>217.0</ele><time>2026-04-19T10:07:04Z</time></trkpt><trkpt lat="40.45844927387991" lon="15.193528546120108"><ele>220.0</ele><time>2026-04-19T10:07:05Z</time></trkpt><trkpt lat="40.45837789665067" lon="15.193462820580823"><ele>219.99999999999997</ele><time>2026-04-19T10:07:06Z</time></trkpt><trkpt lat="40.45830824535034" lon="15.193406763237961"><ele>220.0</ele><time>2026-04-19T10:07:07Z</time></trkpt><trkpt lat="40.458250889599256" lon="15.193352048061572"><ele>220.0</ele><time>2026-04-19T10:07:08Z</time></trkpt><trkpt lat="40.45817345380769" lon="15.193288815899749"><ele>220.0</ele><time>2026-04-19T10:07:10Z</time></trkpt><trkpt lat="40.458130976296644" lon="15.19319184842046"><ele>219.99999999999997</ele><time>2026-04-19T10:07:13Z</time></trkpt><trkpt lat="40.458055692587216" lon="15.193182739227236"><ele>220.0</ele><time>2026-04-19T10:07:15Z</time></trkpt><trkpt lat="40.45801677321438" lon="15.193537202673713"><ele>220.66666666666666</ele><time>2026-04-19T10:07:16Z</time></trkpt><trkpt lat="40.45794426759988" lon="15.193655190409837"><ele>221.33333333333331</ele><time>2026-04-19T10:07:18Z</time></trkpt><trkpt lat="40.45786695772971" lon="15.19378677409068"><ele>222.0</ele><time>2026-04-19T10:07:20Z</time></trkpt><trkpt lat="40.457835683175766" lon="15.19386403461396"><ele>222.66666666666669</ele><time>2026-04-19T10:07:21Z</time></trkpt><trkpt lat="40.457813167857466" lon="15.19394271180404"><ele>223.33333333333334</ele><time>2026-04-19T10:07:22Z</time></trkpt><trkpt lat="40.45779472886116" lon="15.194029621556513"><ele>224.0</ele><time>2026-04-19T10:07:23Z</time></trkpt><trkpt lat="40.45777089425682" lon="15.194120539673758"><ele>224.0</ele><time>2026-04-19T10:07:24Z</time></trkpt><trkpt lat="40.457740205438" lon="15.194218327228658"><ele>224.0</ele><time>2026-04-19T10:07:25Z</time></trkpt><trkpt lat="40.457712248327866" lon="15.194304194056159"><ele>224.0</ele><time>2026-04-19T10:07:26Z</time></trkpt><trkpt lat="40.457688006369864" lon="15.194395788466798"><ele>224.0</ele><time>2026-04-19T10:07:27Z</time></trkpt><trkpt lat="40.457673920936" lon="15.194480377514031"><ele>224.0</ele><time>2026-04-19T10:07:28Z</time></trkpt><trkpt lat="40.457660458074315" lon="15.194572786646939"><ele>224.0</ele><time>2026-04-19T10:07:29Z</time></trkpt><trkpt lat="40.45764789707435" lon="15.194656423755234"><ele>224.0</ele><time>2026-04-19T10:07:30Z</time></trkpt><trkpt lat="40.45761556001922" lon="15.194805604761177"><ele>222.79999999999998</ele><time>2026-04-19T10:07:32Z</time></trkpt><trkpt lat="40.45758270121611" lon="15.19495474095952"><ele>221.59999999999997</ele><time>2026-04-19T10:07:34Z</time></trkpt><trkpt lat="40.4575447635208" lon="15.195078512567989"><ele>220.4</ele><time>2026-04-19T10:07:36Z</time></trkpt><trkpt lat="40.457566127847656" lon="15.19523591020703"><ele>219.2</ele><time>2026-04-19T10:07:38Z</time></trkpt><trkpt lat="40.457595794250096" lon="15.195342730695645"><ele>218.0</ele><time>2026-04-19T10:07:39Z</time></trkpt><trkpt lat="40.45762675303063" lon="15.195461054375548"><ele>218.00000000000003</ele><time>2026-04-19T10:07:40Z</time></trkpt><trkpt lat="40.45762841643417" lon="15.195551968085395"><ele>218.0</ele><time>2026-04-19T10:07:41Z</time></trkpt><trkpt lat="40.457630653248486" lon="15.195635578068314"><ele>218.0</ele><time>2026-04-19T10:07:42Z</time></trkpt><trkpt lat="40.45766315393512" lon="15.195759762363537"><ele>218.0</ele><time>2026-04-19T10:07:44Z</time></trkpt><trkpt lat="40.45774231278711" lon="15.195870324453272"><ele>218.00000000000003</ele><time>2026-04-19T10:07:46Z</time></trkpt><trkpt lat="40.45779173871879" lon="15.195935432287435"><ele>218.0</ele><time>2026-04-19T10:07:47Z</time></trkpt><trkpt lat="40.45783852046976" lon="15.196000493182158"><ele>217.66666666666669</ele><time>2026-04-19T10:07:48Z</time></trkpt><trkpt lat="40.457881574924876" lon="15.196062883297069"><ele>217.33333333333334</ele><time>2026-04-19T10:07:49Z</time></trkpt><trkpt lat="40.4579241377278" lon="15.196126781186457"><ele>217.0</ele><time>2026-04-19T10:07:50Z</time></trkpt><trkpt lat="40.45799218121872" lon="15.196253800415187"><ele>216.66666666666669</ele><time>2026-04-19T10:07:52Z</time></trkpt><trkpt lat="40.4580675933909" lon="15.196347689697289"><ele>216.33333333333334</ele><time>2026-04-19T10:07:54Z</time></trkpt><trkpt lat="40.45810827693398" lon="15.196431237910916"><ele>216.0</ele><time>2026-04-19T10:07:57Z</time></trkpt><trkpt lat="40.45811677595059" lon="15.196533322813634"><ele>212.83333333333334</ele><time>2026-04-19T10:08:00Z</time></trkpt><trkpt lat="40.458099720132104" lon="15.196639809952314"><ele>209.66666666666669</ele><time>2026-04-19T10:08:02.999Z</time></trkpt><trkpt lat="40.45808442390945" lon="15.196762143743806"><ele>206.5</ele><time>2026-04-19T10:08:05.999Z</time></trkpt><trkpt lat="40.45805912574346" lon="15.196880127963915"><ele>203.33333333333334</ele><time>2026-04-19T10:08:08.999Z</time></trkpt><trkpt lat="40.45804548336115" lon="15.19699477628792"><ele>200.16666666666669</ele><time>2026-04-19T10:08:11.999Z</time></trkpt><trkpt lat="40.45804013368953" lon="15.197079949536148"><ele>197.0</ele><time>2026-04-19T10:08:13.999Z</time></trkpt><trkpt lat="40.458029690469715" lon="15.197165897124798"><ele>197.0</ele><time>2026-04-19T10:08:17.999Z</time></trkpt><trkpt lat="40.45801910036757" lon="15.19725284897991"><ele>197.0</ele><time>2026-04-19T10:08:23.999Z</time></trkpt><trkpt lat="40.45800606567994" lon="15.19733478311709"><ele>197.0</ele><time>2026-04-19T10:08:32.999Z</time></trkpt><trkpt lat="40.45797757417946" lon="15.197422813243243"><ele>197.0</ele><time>2026-04-19T10:08:38Z</time></trkpt><trkpt lat="40.45789315784706" lon="15.197466498592597"><ele>197.0</ele><time>2026-04-19T10:08:41Z</time></trkpt><trkpt lat="40.45782728955808" lon="15.19749423397583"><ele>197.0</ele><time>2026-04-19T10:08:43Z</time></trkpt><trkpt lat="40.45775863174761" lon="15.197517755379629"><ele>197.0</ele><time>2026-04-19T10:08:52Z</time></trkpt><trkpt lat="40.457661540641574" lon="15.197566898421861"><ele>194.8</ele><time>2026-04-19T10:08:54Z</time></trkpt><trkpt lat="40.457546165135774" lon="15.197617617578633"><ele>192.6</ele><time>2026-04-19T10:08:56Z</time></trkpt><trkpt lat="40.4574879873524" lon="15.197680088030618"><ele>190.4</ele><time>2026-04-19T10:08:57Z</time></trkpt><trkpt lat="40.45744233616163" lon="15.197763015052407"><ele>188.20000000000002</ele><time>2026-04-19T10:08:58Z</time></trkpt><trkpt lat="40.457439840307096" lon="15.197878227412719"><ele>186.0</ele><time>2026-04-19T10:08:59Z</time></trkpt><trkpt lat="40.457482132782" lon="15.197991746613228"><ele>186.0</ele><time>2026-04-19T10:09:00Z</time></trkpt><trkpt lat="40.45750650821997" lon="15.198112241722447"><ele>186.0</ele><time>2026-04-19T10:09:01Z</time></trkpt><trkpt lat="40.45752583929876" lon="15.198221620497826"><ele>186.0</ele><time>2026-04-19T10:09:02Z</time></trkpt><trkpt lat="40.45753925731687" lon="15.198323731020064"><ele>186.0</ele><time>2026-04-19T10:09:03Z</time></trkpt><trkpt lat="40.457547566977915" lon="15.198422825628478"><ele>186.0</ele><time>2026-04-19T10:09:04Z</time></trkpt><trkpt lat="40.45755079365198" lon="15.19851711529377"><ele>186.0</ele><time>2026-04-19T10:09:05Z</time></trkpt><trkpt lat="40.45752071297526" lon="15.198671204692099"><ele>184.5</ele><time>2026-04-19T10:09:07Z</time></trkpt><trkpt lat="40.457470456825455" lon="15.198759375598993"><ele>183.0</ele><time>2026-04-19T10:09:08Z</time></trkpt><trkpt lat="40.457417943073736" lon="15.198839803032037"><ele>181.5</ele><time>2026-04-19T10:09:09Z</time></trkpt><trkpt lat="40.45735918886159" lon="15.198921005153856"><ele>180.0</ele><time>2026-04-19T10:09:10Z</time></trkpt><trkpt lat="40.45729940423551" lon="15.199023128107987"><ele>178.5</ele><time>2026-04-19T10:09:11Z</time></trkpt><trkpt lat="40.45725688374661" lon="15.199121875580724"><ele>177.0</ele><time>2026-04-19T10:09:12Z</time></trkpt><trkpt lat="40.457236184145145" lon="15.199277241121735"><ele>175.8</ele><time>2026-04-19T10:09:14Z</time></trkpt><trkpt lat="40.45726304732084" lon="15.199381590678666"><ele>174.6</ele><time>2026-04-19T10:09:15Z</time></trkpt><trkpt lat="40.457296819750795" lon="15.199483593493467"><ele>173.4</ele><time>2026-04-19T10:09:16Z</time></trkpt><trkpt lat="40.457345925035376" lon="15.199613359172353"><ele>172.20000000000002</ele><time>2026-04-19T10:09:17Z</time></trkpt><trkpt lat="40.457401376516174" lon="15.199771664199602"><ele>171.0</ele><time>2026-04-19T10:09:18Z</time></trkpt><trkpt lat="40.457451002559786" lon="15.19993585061231"><ele>171.0</ele><time>2026-04-19T10:09:19Z</time></trkpt><trkpt lat="40.45748937648302" lon="15.200092960724406"><ele>171.0</ele><time>2026-04-19T10:09:20Z</time></trkpt><trkpt lat="40.457517092933706" lon="15.200225374751236"><ele>171.0</ele><time>2026-04-19T10:09:21Z</time></trkpt><trkpt lat="40.45753776517359" lon="15.200348213557108"><ele>171.0</ele><time>2026-04-19T10:09:22Z</time></trkpt><trkpt lat="40.457541024570254" lon="15.200454441590937"><ele>171.0</ele><time>2026-04-19T10:09:23Z</time></trkpt><trkpt lat="40.45752970044933" lon="15.200561298156206"><ele>170.66666666666666</ele><time>2026-04-19T10:09:24Z</time></trkpt><trkpt lat="40.457518266932624" lon="15.20068223381651"><ele>170.33333333333334</ele><time>2026-04-19T10:09:25Z</time></trkpt><trkpt lat="40.457507275192114" lon="15.200798497595768"><ele>170.0</ele><time>2026-04-19T10:09:26Z</time></trkpt><trkpt lat="40.45749869109759" lon="15.200910926448707"><ele>169.66666666666669</ele><time>2026-04-19T10:09:27Z</time></trkpt><trkpt lat="40.45747705876788" lon="15.201012443393786"><ele>169.33333333333334</ele><time>2026-04-19T10:09:28Z</time></trkpt><trkpt lat="40.45743679024624" lon="15.201106381430003"><ele>169.0</ele><time>2026-04-19T10:09:29Z</time></trkpt><trkpt lat="40.45740499387524" lon="15.201209285945513"><ele>169.0</ele><time>2026-04-19T10:09:30Z</time></trkpt><trkpt lat="40.45736859958117" lon="15.20132534892803"><ele>169.0</ele><time>2026-04-19T10:09:32Z</time></trkpt><trkpt lat="40.45733003050328" lon="15.201435601352367"><ele>169.0</ele><time>2026-04-19T10:09:35Z</time></trkpt><trkpt lat="40.45729415401474" lon="15.201528258881293"><ele>169.0</ele><time>2026-04-19T10:09:37Z</time></trkpt><trkpt lat="40.45723764605611" lon="15.201642720023568"><ele>169.0</ele><time>2026-04-19T10:09:39Z</time></trkpt><trkpt lat="40.45718254775995" lon="15.201759504064409"><ele>167.0</ele><time>2026-04-19T10:09:41Z</time></trkpt><trkpt lat="40.45712170110325" lon="15.201882485462843"><ele>165.0</ele><time>2026-04-19T10:09:43Z</time></trkpt><trkpt lat="40.45707225668091" lon="15.201994579388192"><ele>163.0</ele><time>2026-04-19T10:09:45Z</time></trkpt><trkpt lat="40.45704248827906" lon="15.202100038511825"><ele>161.0</ele><time>2026-04-19T10:09:47Z</time></trkpt><trkpt lat="40.45702393791877" lon="15.202203956461322"><ele>159.0</ele><time>2026-04-19T10:09:49Z</time></trkpt><trkpt lat="40.457015757039805" lon="15.20235024375395"><ele>156.0</ele><time>2026-04-19T10:09:51Z</time></trkpt><trkpt lat="40.45701734053112" lon="15.202434290947767"><ele>153.0</ele><time>2026-04-19T10:09:52Z</time></trkpt><trkpt lat="40.45700544070149" lon="15.202584891907302"><ele>150.0</ele><time>2026-04-19T10:09:54Z</time></trkpt><trkpt lat="40.45698050852436" lon="15.20272460742054"><ele>147.0</ele><time>2026-04-19T10:09:56Z</time></trkpt><trkpt lat="40.45694523234954" lon="15.20282808561966"><ele>144.0</ele><time>2026-04-19T10:09:58Z</time></trkpt><trkpt lat="40.456914327950514" lon="15.202942970933186"><ele>144.0</ele><time>2026-04-19T10:10:00Z</time></trkpt><trkpt lat="40.45688547521424" lon="15.203053112793432"><ele>144.0</ele><time>2026-04-19T10:10:02.001Z</time></trkpt><trkpt lat="40.45685798260752" lon="15.20316952713584"><ele>144.0</ele><time>2026-04-19T10:10:04.001Z</time></trkpt><trkpt lat="40.45678529284374" lon="15.203333370325945"><ele>144.0</ele><time>2026-04-19T10:10:06.001Z</time></trkpt><trkpt lat="40.45673432311683" lon="15.203466644932544"><ele>144.0</ele><time>2026-04-19T10:10:06.998Z</time></trkpt><trkpt lat="40.45669945504099" lon="15.203592986818586"><ele>142.16666666666666</ele><time>2026-04-19T10:10:07.998Z</time></trkpt><trkpt lat="40.45666446923762" lon="15.203711538010356"><ele>140.33333333333334</ele><time>2026-04-19T10:10:08.999Z</time></trkpt><trkpt lat="40.4566041318444" lon="15.203811322539856"><ele>138.5</ele><time>2026-04-19T10:10:09.999Z</time></trkpt><trkpt lat="40.45655429687048" lon="15.203913424063856"><ele>136.66666666666669</ele><time>2026-04-19T10:10:10.999Z</time></trkpt><trkpt lat="40.45652993771551" lon="15.203993037917494"><ele>134.83333333333334</ele><time>2026-04-19T10:10:11.999Z</time></trkpt><trkpt lat="40.456540790099375" lon="15.204087894760642"><ele>133.0</ele><time>2026-04-19T10:10:12.999Z</time></trkpt><trkpt lat="40.456570910368264" lon="15.204169428384052"><ele>131.0</ele><time>2026-04-19T10:10:13.999Z</time></trkpt><trkpt lat="40.45662992529018" lon="15.20427588820824"><ele>129.0</ele><time>2026-04-19T10:10:14.999Z</time></trkpt><trkpt lat="40.45667770780519" lon="15.204396590337128"><ele>127.00000000000001</ele><time>2026-04-19T10:10:15.999Z</time></trkpt><trkpt lat="40.4566975562103" lon="15.204516369614279"><ele>125.0</ele><time>2026-04-19T10:10:16.999Z</time></trkpt><trkpt lat="40.456721115174744" lon="15.204629009845462"><ele>123.0</ele><time>2026-04-19T10:10:17.999Z</time></trkpt><trkpt lat="40.45672233960818" lon="15.20472288228995"><ele>121.0</ele><time>2026-04-19T10:10:18.999Z</time></trkpt><trkpt lat="40.45670849636067" lon="15.204831875472898"><ele>119.00000000000001</ele><time>2026-04-19T10:10:19.999Z</time></trkpt><trkpt lat="40.45668455789521" lon="15.204967580447065"><ele>117.00000000000001</ele><time>2026-04-19T10:10:20.999Z</time></trkpt><trkpt lat="40.45666792788567" lon="15.205115204868413"><ele>115.0</ele><time>2026-04-19T10:10:21.999Z</time></trkpt><trkpt lat="40.456656094615695" lon="15.205251872464105"><ele>113.0</ele><time>2026-04-19T10:10:22.999Z</time></trkpt><trkpt lat="40.45666601961527" lon="15.205379776962074"><ele>112.99999999999999</ele><time>2026-04-19T10:10:23.999Z</time></trkpt><trkpt lat="40.4566462846793" lon="15.205496197679384"><ele>113.0</ele><time>2026-04-19T10:10:24.999Z</time></trkpt><trkpt lat="40.456658824048645" lon="15.20560895720388"><ele>113.0</ele><time>2026-04-19T10:10:25.999Z</time></trkpt><trkpt lat="40.45665305999681" lon="15.205716993707778"><ele>113.0</ele><time>2026-04-19T10:10:26.999Z</time></trkpt><trkpt lat="40.4566463715579" lon="15.205829967145934"><ele>112.99999999999999</ele><time>2026-04-19T10:10:27.999Z</time></trkpt><trkpt lat="40.45663148962553" lon="15.20591469349601"><ele>113.0</ele><time>2026-04-19T10:10:28.999Z</time></trkpt><trkpt lat="40.456565414896545" lon="15.206004516855844"><ele>111.5</ele><time>2026-04-19T10:10:30.999Z</time></trkpt><trkpt lat="40.45652034233401" lon="15.206063042040796"><ele>110.0</ele><time>2026-04-19T10:10:33.999Z</time></trkpt><trkpt lat="40.456626156345195" lon="15.206241551208972"><ele>108.5</ele><time>2026-04-19T10:10:38.999Z</time></trkpt><trkpt lat="40.456577849372295" lon="15.206350804139058"><ele>107.0</ele><time>2026-04-19T10:10:40Z</time></trkpt><trkpt lat="40.456535715044524" lon="15.206501830094798"><ele>106.33333333333333</ele><time>2026-04-19T10:10:42Z</time></trkpt><trkpt lat="40.45650426794994" lon="15.206575588048425"><ele>105.66666666666666</ele><time>2026-04-19T10:10:43Z</time></trkpt><trkpt lat="40.45644114494376" lon="15.206736976456199"><ele>105.0</ele><time>2026-04-19T10:10:45Z</time></trkpt><trkpt lat="40.45640793271064" lon="15.206835927163072"><ele>104.33333333333334</ele><time>2026-04-19T10:10:46Z</time></trkpt><trkpt lat="40.456372155055575" lon="15.206929108653924"><ele>103.66666666666667</ele><time>2026-04-19T10:10:47Z</time></trkpt><trkpt lat="40.45634794490614" lon="15.207031161806535"><ele>103.0</ele><time>2026-04-19T10:10:48Z</time></trkpt><trkpt lat="40.45632313663999" lon="15.207132998144106"><ele>103.00000000000001</ele><time>2026-04-19T10:10:49Z</time></trkpt><trkpt lat="40.456311039009286" lon="15.207230644798914"><ele>103.0</ele><time>2026-04-19T10:10:50Z</time></trkpt><trkpt lat="40.456307996742424" lon="15.207328691325438"><ele>103.0</ele><time>2026-04-19T10:10:51Z</time></trkpt><trkpt lat="40.45631134980897" lon="15.207413745457936"><ele>103.0</ele><time>2026-04-19T10:10:52Z</time></trkpt><trkpt lat="40.45632247081238" lon="15.207563913265211"><ele>103.00000000000001</ele><time>2026-04-19T10:10:54Z</time></trkpt><trkpt lat="40.4562734686629" lon="15.207672729344408"><ele>103.0</ele><time>2026-04-19T10:10:56Z</time></trkpt><trkpt lat="40.45617273915672" lon="15.207692040677681"><ele>101.16666666666667</ele><time>2026-04-19T10:10:58Z</time></trkpt><trkpt lat="40.45611985666048" lon="15.207741551897149"><ele>99.33333333333334</ele><time>2026-04-19T10:10:59Z</time></trkpt><trkpt lat="40.45602713158707" lon="15.207784717361632"><ele>97.5</ele><time>2026-04-19T10:11:01Z</time></trkpt><trkpt lat="40.4559573409146" lon="15.207824530447256"><ele>95.66666666666667</ele><time>2026-04-19T10:11:03Z</time></trkpt><trkpt lat="40.45588533489958" lon="15.20786480838215"><ele>93.83333333333334</ele><time>2026-04-19T10:11:05Z</time></trkpt><trkpt lat="40.455822974732456" lon="15.207916266320384"><ele>92.0</ele><time>2026-04-19T10:11:07Z</time></trkpt><trkpt lat="40.455735640402494" lon="15.207959936710742"><ele>92.0</ele><time>2026-04-19T10:11:09Z</time></trkpt><trkpt lat="40.45565929081571" lon="15.208036065418163"><ele>92.0</ele><time>2026-04-19T10:11:11Z</time></trkpt><trkpt lat="40.45559184958829" lon="15.208103622555248"><ele>92.0</ele><time>2026-04-19T10:11:13Z</time></trkpt><trkpt lat="40.45550619470737" lon="15.208178564965403"><ele>92.0</ele><time>2026-04-19T10:11:15Z</time></trkpt><trkpt lat="40.45539075077925" lon="15.208217103591455"><ele>92.0</ele><time>2026-04-19T10:11:17Z</time></trkpt><trkpt lat="40.45532826682148" lon="15.208182111645899"><ele>92.16666666666667</ele><time>2026-04-19T10:11:18Z</time></trkpt><trkpt lat="40.45520450424155" lon="15.208204306115885"><ele>92.33333333333334</ele><time>2026-04-19T10:11:20Z</time></trkpt><trkpt lat="40.45513296698557" lon="15.20821460277409"><ele>92.5</ele><time>2026-04-19T10:11:21Z</time></trkpt><trkpt lat="40.4550600966117" lon="15.208229590554193"><ele>92.66666666666667</ele><time>2026-04-19T10:11:22Z</time></trkpt><trkpt lat="40.454977176260655" lon="15.208263842886836"><ele>92.83333333333333</ele><time>2026-04-19T10:11:23Z</time></trkpt><trkpt lat="40.4548996467231" lon="15.208270541777914"><ele>93.0</ele><time>2026-04-19T10:11:24Z</time></trkpt><trkpt lat="40.454812048888435" lon="15.208294454870671"><ele>93.0</ele><time>2026-04-19T10:11:25Z</time></trkpt><trkpt lat="40.45472733685892" lon="15.208312579360163"><ele>93.0</ele><time>2026-04-19T10:11:26Z</time></trkpt><trkpt lat="40.454650885961314" lon="15.208328130910308"><ele>93.0</ele><time>2026-04-19T10:11:27Z</time></trkpt><trkpt lat="40.45458043579578" lon="15.208370317552152"><ele>93.0</ele><time>2026-04-19T10:11:28Z</time></trkpt><trkpt lat="40.45451628523629" lon="15.20840816877673"><ele>93.0</ele><time>2026-04-19T10:11:29Z</time></trkpt><trkpt lat="40.45438938174203" lon="15.208425400127783"><ele>93.0</ele><time>2026-04-19T10:11:31Z</time></trkpt><trkpt lat="40.454299757877614" lon="15.208472885906476"><ele>92.83333333333333</ele><time>2026-04-19T10:11:33Z</time></trkpt><trkpt lat="40.4542703170982" lon="15.208560251018723"><ele>92.66666666666667</ele><time>2026-04-19T10:11:34Z</time></trkpt><trkpt lat="40.454263390794054" lon="15.20867377807024"><ele>92.5</ele><time>2026-04-19T10:11:35Z</time></trkpt><trkpt lat="40.45425740066865" lon="15.208771539192654"><ele>92.33333333333334</ele><time>2026-04-19T10:11:36Z</time></trkpt><trkpt lat="40.45424703470461" lon="15.20888688326815"><ele>92.16666666666667</ele><time>2026-04-19T10:11:38Z</time></trkpt><trkpt lat="40.454146536876856" lon="15.208914805422015"><ele>92.0</ele><time>2026-04-19T10:11:40.001Z</time></trkpt><trkpt lat="40.454086866849174" lon="15.208857993284273"><ele>92.0</ele><time>2026-04-19T10:11:41.001Z</time></trkpt><trkpt lat="40.454007235148644" lon="15.208834007811308"><ele>92.0</ele><time>2026-04-19T10:11:42.001Z</time></trkpt><trkpt lat="40.45392215240864" lon="15.20883006069367"><ele>92.0</ele><time>2026-04-19T10:11:43.001Z</time></trkpt><trkpt lat="40.453854674111405" lon="15.208816518961845"><ele>92.0</ele><time>2026-04-19T10:11:44.001Z</time></trkpt><trkpt lat="40.4537818477691" lon="15.20880188739402"><ele>92.0</ele><time>2026-04-19T10:11:45.001Z</time></trkpt><trkpt lat="40.453704153277805" lon="15.208783987215128"><ele>92.0</ele><time>2026-04-19T10:11:46.001Z</time></trkpt><trkpt lat="40.453615173097745" lon="15.208774630434378"><ele>91.6</ele><time>2026-04-19T10:11:47.001Z</time></trkpt><trkpt lat="40.45352577442036" lon="15.208737957840524"><ele>91.19999999999999</ele><time>2026-04-19T10:11:48.001Z</time></trkpt><trkpt lat="40.453431947453645" lon="15.208739332561683"><ele>90.8</ele><time>2026-04-19T10:11:49.001Z</time></trkpt><trkpt lat="40.45333539098101" lon="15.208717707664938"><ele>90.4</ele><time>2026-04-19T10:11:50.001Z</time></trkpt><trkpt lat="40.45323617739119" lon="15.208700697562403"><ele>90.0</ele><time>2026-04-19T10:11:51.001Z</time></trkpt><trkpt lat="40.45314515963449" lon="15.20867913946533"><ele>90.0</ele><time>2026-04-19T10:11:52.001Z</time></trkpt><trkpt lat="40.453067303555805" lon="15.208667274861345"><ele>90.0</ele><time>2026-04-19T10:11:53.001Z</time></trkpt><trkpt lat="40.45297699236025" lon="15.208650216723957"><ele>90.0</ele><time>2026-04-19T10:11:54.001Z</time></trkpt><trkpt lat="40.45288899588797" lon="15.208630376462603"><ele>90.0</ele><time>2026-04-19T10:11:55.001Z</time></trkpt><trkpt lat="40.452799737011446" lon="15.208613826047072"><ele>90.0</ele><time>2026-04-19T10:11:56.001Z</time></trkpt><trkpt lat="40.45272401674991" lon="15.20860156076964"><ele>90.0</ele><time>2026-04-19T10:11:57.001Z</time></trkpt><trkpt lat="40.452640984200336" lon="15.208581869168633"><ele>90.2</ele><time>2026-04-19T10:11:58.001Z</time></trkpt><trkpt lat="40.45255174887068" lon="15.208564133121058"><ele>90.4</ele><time>2026-04-19T10:11:59.001Z</time></trkpt><trkpt lat="40.452456708289986" lon="15.208545313770308"><ele>90.6</ele><time>2026-04-19T10:12:00.001Z</time></trkpt><trkpt lat="40.45234952891386" lon="15.208523400792911"><ele>90.8</ele><time>2026-04-19T10:12:01.001Z</time></trkpt><trkpt lat="40.45225582815876" lon="15.20850411215622"><ele>91.0</ele><time>2026-04-19T10:12:02.001Z</time></trkpt><trkpt lat="40.45216500404772" lon="15.208485922661437"><ele>91.0</ele><time>2026-04-19T10:12:03.001Z</time></trkpt><trkpt lat="40.45206428158359" lon="15.208467092313194"><ele>91.0</ele><time>2026-04-19T10:12:04.001Z</time></trkpt><trkpt lat="40.45196037075126" lon="15.208450649240246"><ele>91.0</ele><time>2026-04-19T10:12:05.001Z</time></trkpt><trkpt lat="40.451854419829175" lon="15.20843566743474"><ele>91.0</ele><time>2026-04-19T10:12:06.001Z</time></trkpt><trkpt lat="40.45175938273492" lon="15.208426314834224"><ele>91.0</ele><time>2026-04-19T10:12:07.001Z</time></trkpt><trkpt lat="40.45166537901861" lon="15.20841270245167"><ele>91.0</ele><time>2026-04-19T10:12:08.001Z</time></trkpt><trkpt lat="40.45157822915232" lon="15.2083804254273"><ele>91.0</ele><time>2026-04-19T10:12:09.001Z</time></trkpt><trkpt lat="40.451476769936086" lon="15.208387753179037"><ele>91.0</ele><time>2026-04-19T10:12:10.001Z</time></trkpt><trkpt lat="40.451385037702565" lon="15.208374243677042"><ele>91.0</ele><time>2026-04-19T10:12:11.001Z</time></trkpt><trkpt lat="40.451291821556495" lon="15.208361383450082"><ele>91.0</ele><time>2026-04-19T10:12:12.001Z</time></trkpt><trkpt lat="40.45119503263504" lon="15.208351492285018"><ele>91.16666666666666</ele><time>2026-04-19T10:12:12.999Z</time></trkpt><trkpt lat="40.45110841334822" lon="15.208328991517948"><ele>91.33333333333333</ele><time>2026-04-19T10:12:13.999Z</time></trkpt><trkpt lat="40.45102605336154" lon="15.208328991518147"><ele>91.5</ele><time>2026-04-19T10:12:14.999Z</time></trkpt><trkpt lat="40.4509522702146" lon="15.208328991517716"><ele>91.66666666666667</ele><time>2026-04-19T10:12:15.999Z</time></trkpt><trkpt lat="40.450874541030196" lon="15.208320195834773"><ele>91.83333333333334</ele><time>2026-04-19T10:12:17.999Z</time></trkpt><trkpt lat="40.45086087025814" lon="15.208192415708798"><ele>92.0</ele><time>2026-04-19T10:12:19.999Z</time></trkpt><trkpt lat="40.450887227425234" lon="15.208016440217651"><ele>92.6</ele><time>2026-04-19T10:12:21.999Z</time></trkpt><trkpt lat="40.45089948554091" lon="15.207901454280588"><ele>93.19999999999999</ele><time>2026-04-19T10:12:22.999Z</time></trkpt><trkpt lat="40.45090449623772" lon="15.207809341634956"><ele>93.8</ele><time>2026-04-19T10:12:23.999Z</time></trkpt><trkpt lat="40.45090003882708" lon="15.207701960551637"><ele>94.4</ele><time>2026-04-19T10:12:24.999Z</time></trkpt><trkpt lat="40.450894062428965" lon="15.207616036750942"><ele>95.0</ele><time>2026-04-19T10:12:25.999Z</time></trkpt><trkpt lat="40.450882635940076" lon="15.207369711963912"><ele>95.0</ele><time>2026-04-19T10:12:27.999Z</time></trkpt><trkpt lat="40.45070777960073" lon="15.207541416620248"><ele>95.0</ele><time>2026-04-19T10:12:29Z</time></trkpt><trkpt lat="40.4506271751047" lon="15.20764140819219"><ele>95.0</ele><time>2026-04-19T10:12:31Z</time></trkpt><trkpt lat="40.45056005937133" lon="15.207746618876588"><ele>95.0</ele><time>2026-04-19T10:12:32Z</time></trkpt><trkpt lat="40.45048579823196" lon="15.207889183116995"><ele>94.75</ele><time>2026-04-19T10:12:33Z</time></trkpt><trkpt lat="40.4504074438091" lon="15.20803931685835"><ele>94.5</ele><time>2026-04-19T10:12:34Z</time></trkpt><trkpt lat="40.45033665620562" lon="15.208169814207338"><ele>94.25</ele><time>2026-04-19T10:12:35Z</time></trkpt><trkpt lat="40.45025030608891" lon="15.2082548523835"><ele>94.0</ele><time>2026-04-19T10:12:36Z</time></trkpt><trkpt lat="40.45014863162933" lon="15.208325685640062"><ele>94.0</ele><time>2026-04-19T10:12:37Z</time></trkpt><trkpt lat="40.45002838064418" lon="15.208402151719302"><ele>94.0</ele><time>2026-04-19T10:12:38Z</time></trkpt><trkpt lat="40.4499227591343" lon="15.208469121251106"><ele>94.0</ele><time>2026-04-19T10:12:39Z</time></trkpt><trkpt lat="40.44982973119835" lon="15.208528713415284"><ele>94.0</ele><time>2026-04-19T10:12:40Z</time></trkpt><trkpt lat="40.44974199089159" lon="15.208584918314001"><ele>94.0</ele><time>2026-04-19T10:12:41Z</time></trkpt><trkpt lat="40.44965969059486" lon="15.208637638427584"><ele>94.0</ele><time>2026-04-19T10:12:42Z</time></trkpt><trkpt lat="40.449588404212044" lon="15.208707034386869"><ele>94.0</ele><time>2026-04-19T10:12:43Z</time></trkpt><trkpt lat="40.44951560354687" lon="15.208742065642284"><ele>94.0</ele><time>2026-04-19T10:12:44Z</time></trkpt><trkpt lat="40.44944860014311" lon="15.20878343921817"><ele>94.0</ele><time>2026-04-19T10:12:45Z</time></trkpt><trkpt lat="40.449386241149824" lon="15.208821397753098"><ele>94.0</ele><time>2026-04-19T10:12:46Z</time></trkpt><trkpt lat="40.449319016829776" lon="15.208983376902104"><ele>94.4</ele><time>2026-04-19T10:12:48Z</time></trkpt><trkpt lat="40.449295520443435" lon="15.209101190295293"><ele>94.80000000000001</ele><time>2026-04-19T10:12:49Z</time></trkpt><trkpt lat="40.44927219402326" lon="15.20923012594033"><ele>95.19999999999999</ele><time>2026-04-19T10:12:50Z</time></trkpt><trkpt lat="40.449250465703145" lon="15.209364600332561"><ele>95.6</ele><time>2026-04-19T10:12:51Z</time></trkpt><trkpt lat="40.44923525992494" lon="15.209483361642578"><ele>96.0</ele><time>2026-04-19T10:12:52Z</time></trkpt><trkpt lat="40.449222553287065" lon="15.20959931950187"><ele>96.0</ele><time>2026-04-19T10:12:53Z</time></trkpt><trkpt lat="40.449209679391856" lon="15.209727949955258"><ele>96.0</ele><time>2026-04-19T10:12:54Z</time></trkpt><trkpt lat="40.449192703850386" lon="15.209853314735607"><ele>96.0</ele><time>2026-04-19T10:12:55Z</time></trkpt><trkpt lat="40.449174696240945" lon="15.209984724218732"><ele>96.0</ele><time>2026-04-19T10:12:56Z</time></trkpt><trkpt lat="40.449166806038605" lon="15.210116157533626"><ele>96.0</ele><time>2026-04-19T10:12:57Z</time></trkpt><trkpt lat="40.449148655453904" lon="15.210239204544992"><ele>95.8</ele><time>2026-04-19T10:12:58Z</time></trkpt><trkpt lat="40.44913260245738" lon="15.210352788817389"><ele>95.6</ele><time>2026-04-19T10:12:59Z</time></trkpt><trkpt lat="40.44912451618644" lon="15.210476614315564"><ele>95.4</ele><time>2026-04-19T10:13:00Z</time></trkpt><trkpt lat="40.4491021329172" lon="15.21062043306674"><ele>95.2</ele><time>2026-04-19T10:13:01Z</time></trkpt><trkpt lat="40.44906863454449" lon="15.210769594065782"><ele>95.0</ele><time>2026-04-19T10:13:02Z</time></trkpt><trkpt lat="40.44903390025319" lon="15.210920193526798"><ele>95.0</ele><time>2026-04-19T10:13:03Z</time></trkpt><trkpt lat="40.4490157201728" lon="15.211071853226208"><ele>95.0</ele><time>2026-04-19T10:13:04Z</time></trkpt><trkpt lat="40.44900636900329" lon="15.211228757015508"><ele>95.0</ele><time>2026-04-19T10:13:05Z</time></trkpt><trkpt lat="40.44900115962656" lon="15.21137869141488"><ele>95.0</ele><time>2026-04-19T10:13:06Z</time></trkpt><trkpt lat="40.44900071227047" lon="15.211515745151024"><ele>95.0</ele><time>2026-04-19T10:13:07Z</time></trkpt><trkpt lat="40.44899636892302" lon="15.211645099377137"><ele>95.0</ele><time>2026-04-19T10:13:08Z</time></trkpt><trkpt lat="40.44899352581919" lon="15.211770142970751"><ele>95.0</ele><time>2026-04-19T10:13:09Z</time></trkpt><trkpt lat="40.44899271803114" lon="15.211890379469164"><ele>95.0</ele><time>2026-04-19T10:13:10Z</time></trkpt><trkpt lat="40.44898959629318" lon="15.212006179774468"><ele>95.0</ele><time>2026-04-19T10:13:11Z</time></trkpt><trkpt lat="40.44899026867063" lon="15.212109625129814"><ele>95.0</ele><time>2026-04-19T10:13:12Z</time></trkpt><trkpt lat="40.44898702366904" lon="15.212217863430334"><ele>95.0</ele><time>2026-04-19T10:13:13.001Z</time></trkpt><trkpt lat="40.44899727108667" lon="15.212336956841867"><ele>95.0</ele><time>2026-04-19T10:13:14.001Z</time></trkpt><trkpt lat="40.449022060274736" lon="15.212463472616609"><ele>95.0</ele><time>2026-04-19T10:13:15.001Z</time></trkpt><trkpt lat="40.44906875179671" lon="15.21257399226682"><ele>95.0</ele><time>2026-04-19T10:13:16.001Z</time></trkpt><trkpt lat="40.44911379517958" lon="15.212676334647522"><ele>95.0</ele><time>2026-04-19T10:13:17.001Z</time></trkpt><trkpt lat="40.44915382910022" lon="15.212776472604254"><ele>95.0</ele><time>2026-04-19T10:13:18.001Z</time></trkpt><trkpt lat="40.44918811216531" lon="15.212871949421748"><ele>95.0</ele><time>2026-04-19T10:13:19.001Z</time></trkpt><trkpt lat="40.44922237888477" lon="15.212973250378619"><ele>95.0</ele><time>2026-04-19T10:13:20.001Z</time></trkpt><trkpt lat="40.44927636034073" lon="15.21312402771374"><ele>95.0</ele><time>2026-04-19T10:13:22.001Z</time></trkpt><trkpt lat="40.449310473148564" lon="15.213221805977316"><ele>95.6</ele><time>2026-04-19T10:13:23.001Z</time></trkpt><trkpt lat="40.44934750013912" lon="15.213346564322382"><ele>96.2</ele><time>2026-04-19T10:13:24.001Z</time></trkpt><trkpt lat="40.44938845514197" lon="15.213478198064925"><ele>96.80000000000001</ele><time>2026-04-19T10:13:25.001Z</time></trkpt><trkpt lat="40.44942868009745" lon="15.213615609099874"><ele>97.4</ele><time>2026-04-19T10:13:26.001Z</time></trkpt><trkpt lat="40.44947088274142" lon="15.213761794900014"><ele>98.0</ele><time>2026-04-19T10:13:27.001Z</time></trkpt><trkpt lat="40.44950436820813" lon="15.21389206780074"><ele>98.75</ele><time>2026-04-19T10:13:28.001Z</time></trkpt><trkpt lat="40.44953733429437" lon="15.214039406415097"><ele>99.5</ele><time>2026-04-19T10:13:29.001Z</time></trkpt><trkpt lat="40.449570541364395" lon="15.214194750421028"><ele>100.25</ele><time>2026-04-19T10:13:30.001Z</time></trkpt><trkpt lat="40.44960311595103" lon="15.214355748608178"><ele>101.0</ele><time>2026-04-19T10:13:31.001Z</time></trkpt><trkpt lat="40.4496334961574" lon="15.214522326332032"><ele>99.4</ele><time>2026-04-19T10:13:32.001Z</time></trkpt><trkpt lat="40.44965599970493" lon="15.214668019793999"><ele>97.8</ele><time>2026-04-19T10:13:33.001Z</time></trkpt><trkpt lat="40.44968118736827" lon="15.214805951601962"><ele>96.2</ele><time>2026-04-19T10:13:34.001Z</time></trkpt><trkpt lat="40.449705492270596" lon="15.214945822971673"><ele>94.60000000000001</ele><time>2026-04-19T10:13:35.001Z</time></trkpt><trkpt lat="40.449732577133524" lon="15.215091799016054"><ele>93.0</ele><time>2026-04-19T10:13:36.001Z</time></trkpt><trkpt lat="40.44975308442784" lon="15.215231296725271"><ele>93.0</ele><time>2026-04-19T10:13:37.001Z</time></trkpt><trkpt lat="40.4497767239843" lon="15.215346172051488"><ele>93.0</ele><time>2026-04-19T10:13:38.001Z</time></trkpt><trkpt lat="40.44981275236098" lon="15.215473814029698"><ele>93.0</ele><time>2026-04-19T10:13:39.001Z</time></trkpt><trkpt lat="40.44985808643695" lon="15.215600536438002"><ele>93.0</ele><time>2026-04-19T10:13:40.001Z</time></trkpt><trkpt lat="40.44990321985737" lon="15.215722825573184"><ele>93.0</ele><time>2026-04-19T10:13:41.001Z</time></trkpt><trkpt lat="40.449940270093315" lon="15.215839957191534"><ele>93.16666666666667</ele><time>2026-04-19T10:13:42.001Z</time></trkpt><trkpt lat="40.4499794946522" lon="15.215949486027005"><ele>93.33333333333333</ele><time>2026-04-19T10:13:43.001Z</time></trkpt><trkpt lat="40.450013353728664" lon="15.216069741279934"><ele>93.5</ele><time>2026-04-19T10:13:44.001Z</time></trkpt><trkpt lat="40.450032769632585" lon="15.216173924149858"><ele>93.66666666666666</ele><time>2026-04-19T10:13:45.001Z</time></trkpt><trkpt lat="40.450031530215725" lon="15.2162742363731"><ele>93.83333333333333</ele><time>2026-04-19T10:13:46.001Z</time></trkpt><trkpt lat="40.44998765012429" lon="15.216368399062848"><ele>94.0</ele><time>2026-04-19T10:13:47.001Z</time></trkpt><trkpt lat="40.449935459271906" lon="15.216475044319075"><ele>94.25</ele><time>2026-04-19T10:13:48.001Z</time></trkpt><trkpt lat="40.44986198827726" lon="15.216613977780366"><ele>94.5</ele><time>2026-04-19T10:13:49.001Z</time></trkpt><trkpt lat="40.44978430341102" lon="15.216755704502399"><ele>94.75</ele><time>2026-04-19T10:13:50.001Z</time></trkpt><trkpt lat="40.44971024751785" lon="15.21689962903836"><ele>95.0</ele><time>2026-04-19T10:13:51.001Z</time></trkpt><trkpt lat="40.44965000496742" lon="15.217015701170421"><ele>96.2</ele><time>2026-04-19T10:13:52.001Z</time></trkpt><trkpt lat="40.44958164834538" lon="15.217090252553339"><ele>97.4</ele><time>2026-04-19T10:13:53.001Z</time></trkpt><trkpt lat="40.44951622492776" lon="15.21717778048555"><ele>98.6</ele><time>2026-04-19T10:13:54.001Z</time></trkpt><trkpt lat="40.44943028033318" lon="15.217273482562055"><ele>99.8</ele><time>2026-04-19T10:13:55.001Z</time></trkpt><trkpt lat="40.44932783152881" lon="15.21738440762202"><ele>101.0</ele><time>2026-04-19T10:13:56.001Z</time></trkpt><trkpt lat="40.44923771345479" lon="15.217527876142885"><ele>101.0</ele><time>2026-04-19T10:13:57.001Z</time></trkpt><trkpt lat="40.449135507431485" lon="15.217657020448268"><ele>101.0</ele><time>2026-04-19T10:13:58.001Z</time></trkpt><trkpt lat="40.44904148498371" lon="15.21776092389405"><ele>101.0</ele><time>2026-04-19T10:13:59.001Z</time></trkpt><trkpt lat="40.448953351161265" lon="15.217862551683451"><ele>101.0</ele><time>2026-04-19T10:14:00.001Z</time></trkpt><trkpt lat="40.44886452352916" lon="15.217922383869807"><ele>102.19999999999999</ele><time>2026-04-19T10:14:01.001Z</time></trkpt><trkpt lat="40.44878349633589" lon="15.217987236304072"><ele>103.39999999999999</ele><time>2026-04-19T10:14:02.001Z</time></trkpt><trkpt lat="40.4487111713317" lon="15.218027883704245"><ele>104.6</ele><time>2026-04-19T10:14:03.001Z</time></trkpt><trkpt lat="40.44862549426496" lon="15.21804396408924"><ele>105.8</ele><time>2026-04-19T10:14:04.001Z</time></trkpt><trkpt lat="40.44851797917982" lon="15.218044508180352"><ele>107.0</ele><time>2026-04-19T10:14:05.001Z</time></trkpt><trkpt lat="40.448423201172204" lon="15.218031054671386"><ele>107.0</ele><time>2026-04-19T10:14:06.001Z</time></trkpt><trkpt lat="40.44835189922451" lon="15.218021603220693"><ele>106.99999999999999</ele><time>2026-04-19T10:14:07.001Z</time></trkpt><trkpt lat="40.44830146116422" lon="15.217944919647643"><ele>106.99999999999999</ele><time>2026-04-19T10:14:08.001Z</time></trkpt><trkpt lat="40.448256146748015" lon="15.217847430811158"><ele>107.0</ele><time>2026-04-19T10:14:09.001Z</time></trkpt><trkpt lat="40.44822338709646" lon="15.217724344412089"><ele>107.0</ele><time>2026-04-19T10:14:10.001Z</time></trkpt><trkpt lat="40.448153531629316" lon="15.21758595318145"><ele>107.0</ele><time>2026-04-19T10:14:11.001Z</time></trkpt><trkpt lat="40.44804379497593" lon="15.217489495788225"><ele>107.0</ele><time>2026-04-19T10:14:12.001Z</time></trkpt><trkpt lat="40.44794450991496" lon="15.217410369074098"><ele>107.0</ele><time>2026-04-19T10:14:13.002Z</time></trkpt><trkpt lat="40.4478392424415" lon="15.217360449439647"><ele>107.0</ele><time>2026-04-19T10:14:14.002Z</time></trkpt><trkpt lat="40.447729889347904" lon="15.217332898736945"><ele>108.19999999999999</ele><time>2026-04-19T10:14:15.002Z</time></trkpt><trkpt lat="40.44762944859909" lon="15.21729168059529"><ele>109.39999999999999</ele><time>2026-04-19T10:14:16.002Z</time></trkpt><trkpt lat="40.44752158770226" lon="15.217277501649736"><ele>110.60000000000001</ele><time>2026-04-19T10:14:17.002Z</time></trkpt><trkpt lat="40.447405147796786" lon="15.217293636517255"><ele>111.80000000000001</ele><time>2026-04-19T10:14:18.002Z</time></trkpt><trkpt lat="40.44731357669902" lon="15.217352256208725"><ele>113.0</ele><time>2026-04-19T10:14:19Z</time></trkpt><trkpt lat="40.44722572093078" lon="15.217398651526441"><ele>114.75</ele><time>2026-04-19T10:14:20Z</time></trkpt><trkpt lat="40.447136401724585" lon="15.217446829844826"><ele>116.5</ele><time>2026-04-19T10:14:21Z</time></trkpt><trkpt lat="40.44705310057436" lon="15.217562529352398"><ele>118.25</ele><time>2026-04-19T10:14:22Z</time></trkpt><trkpt lat="40.44695886537911" lon="15.217691615079683"><ele>120.0</ele><time>2026-04-19T10:14:23Z</time></trkpt><trkpt lat="40.44686032511749" lon="15.217835047406883"><ele>120.0</ele><time>2026-04-19T10:14:24Z</time></trkpt><trkpt lat="40.44674544628028" lon="15.217969756020887"><ele>120.0</ele><time>2026-04-19T10:14:25Z</time></trkpt><trkpt lat="40.44664163760902" lon="15.218112785409541"><ele>120.0</ele><time>2026-04-19T10:14:26Z</time></trkpt><trkpt lat="40.44654789463596" lon="15.218247208976903"><ele>120.0</ele><time>2026-04-19T10:14:27Z</time></trkpt><trkpt lat="40.44645375356218" lon="15.218382934985785"><ele>120.0</ele><time>2026-04-19T10:14:28Z</time></trkpt><trkpt lat="40.44636680171297" lon="15.218518462469007"><ele>120.0</ele><time>2026-04-19T10:14:29Z</time></trkpt><trkpt lat="40.44629719486472" lon="15.218655916519634"><ele>120.0</ele><time>2026-04-19T10:14:30Z</time></trkpt><trkpt lat="40.446222759614734" lon="15.218776002367216"><ele>120.0</ele><time>2026-04-19T10:14:31Z</time></trkpt><trkpt lat="40.44616513426211" lon="15.21889713616877"><ele>120.75</ele><time>2026-04-19T10:14:32Z</time></trkpt><trkpt lat="40.44611422679862" lon="15.219034052099477"><ele>121.5</ele><time>2026-04-19T10:14:33Z</time></trkpt><trkpt lat="40.44606104358293" lon="15.219179125389598"><ele>122.25</ele><time>2026-04-19T10:14:34Z</time></trkpt><trkpt lat="40.44600528483445" lon="15.21933240580506"><ele>123.0</ele><time>2026-04-19T10:14:35Z</time></trkpt><trkpt lat="40.445954040680654" lon="15.219486573285513"><ele>123.0</ele><time>2026-04-19T10:14:36Z</time></trkpt><trkpt lat="40.44591019859099" lon="15.219628766253807"><ele>123.00000000000001</ele><time>2026-04-19T10:14:37Z</time></trkpt><trkpt lat="40.44587459096349" lon="15.219760387066355"><ele>123.00000000000001</ele><time>2026-04-19T10:14:38Z</time></trkpt><trkpt lat="40.445845100135664" lon="15.219877945867433"><ele>123.0</ele><time>2026-04-19T10:14:39Z</time></trkpt><trkpt lat="40.44582060632273" lon="15.219981386888453"><ele>123.0</ele><time>2026-04-19T10:14:40Z</time></trkpt><trkpt lat="40.44578632602812" lon="15.220117160493785"><ele>120.0</ele><time>2026-04-19T10:14:42Z</time></trkpt><trkpt lat="40.446443957308745" lon="15.220309678993797"><ele>120.0</ele><time>2026-04-19T10:18:16.002Z</time></trkpt><trkpt lat="40.44651584905883" lon="15.22031176518728"><ele>120.0</ele><time>2026-04-19T10:18:18.002Z</time></trkpt><trkpt lat="40.446638964342824" lon="15.220343545882919"><ele>120.0</ele><time>2026-04-19T10:18:20.002Z</time></trkpt><trkpt lat="40.44671492499776" lon="15.22036835608654"><ele>120.0</ele><time>2026-04-19T10:18:21.002Z</time></trkpt><trkpt lat="40.44678016772387" lon="15.220387397784027"><ele>120.0</ele><time>2026-04-19T10:18:22.002Z</time></trkpt><trkpt lat="40.44689314909926" lon="15.220433587942022"><ele>120.0</ele><time>2026-04-19T10:18:24.002Z</time></trkpt><trkpt lat="40.44699668907572" lon="15.220534250202693"><ele>120.0</ele><time>2026-04-19T10:18:26.002Z</time></trkpt><trkpt lat="40.447054710943725" lon="15.220610233797526"><ele>120.0</ele><time>2026-04-19T10:18:27.002Z</time></trkpt><trkpt lat="40.447120107596746" lon="15.220686531758073"><ele>120.0</ele><time>2026-04-19T10:18:28.002Z</time></trkpt><trkpt lat="40.447184793283924" lon="15.220733650879968"><ele>120.0</ele><time>2026-04-19T10:18:29.002Z</time></trkpt><trkpt lat="40.44725017200829" lon="15.220781304170924"><ele>120.0</ele><time>2026-04-19T10:18:30.002Z</time></trkpt><trkpt lat="40.44730986759955" lon="15.220840148685033"><ele>119.83333333333333</ele><time>2026-04-19T10:18:31.002Z</time></trkpt><trkpt lat="40.44736685190496" lon="15.220885207629212"><ele>119.66666666666666</ele><time>2026-04-19T10:18:32.002Z</time></trkpt><trkpt lat="40.44742433288879" lon="15.220929070397034"><ele>119.5</ele><time>2026-04-19T10:18:33.002Z</time></trkpt><trkpt lat="40.44752490576811" lon="15.221032438074285"><ele>119.33333333333333</ele><time>2026-04-19T10:18:35.002Z</time></trkpt><trkpt lat="40.44760885511623" lon="15.221082062834318"><ele>119.16666666666666</ele><time>2026-04-19T10:18:37.002Z</time></trkpt><trkpt lat="40.44767004995978" lon="15.221152789423114"><ele>119.0</ele><time>2026-04-19T10:20:10.001Z</time></trkpt><trkpt lat="40.44773310297335" lon="15.22119759623826"><ele>119.0</ele><time>2026-04-19T10:21:23.001Z</time></trkpt><trkpt lat="40.44766298108763" lon="15.221168283778555"><ele>119.0</ele><time>2026-04-19T10:21:26.001Z</time></trkpt><trkpt lat="40.447523690650215" lon="15.221144938566102"><ele>119.0</ele><time>2026-04-19T10:21:28.001Z</time></trkpt><trkpt lat="40.44744684189432" lon="15.221074414776774"><ele>119.0</ele><time>2026-04-19T10:21:29.001Z</time></trkpt><trkpt lat="40.44739388028153" lon="15.221023138789224"><ele>119.0</ele><time>2026-04-19T10:21:30.001Z</time></trkpt><trkpt lat="40.44729115229292" lon="15.220917428214639"><ele>119.0</ele><time>2026-04-19T10:21:32.001Z</time></trkpt><trkpt lat="40.44723150958385" lon="15.220856057272846"><ele>119.0</ele><time>2026-04-19T10:21:33.001Z</time></trkpt><trkpt lat="40.447130975617675" lon="15.220752609683288"><ele>119.0</ele><time>2026-04-19T10:21:35.001Z</time></trkpt><trkpt lat="40.447050035883436" lon="15.220669324191983"><ele>119.0</ele><time>2026-04-19T10:21:36.001Z</time></trkpt><trkpt lat="40.44700791653035" lon="15.220554160975388"><ele>119.0</ele><time>2026-04-19T10:21:37.001Z</time></trkpt><trkpt lat="40.44694704110988" lon="15.220491304488325"><ele>119.16666666666666</ele><time>2026-04-19T10:21:38.001Z</time></trkpt><trkpt lat="40.44687939118795" lon="15.22045062433418"><ele>119.33333333333333</ele><time>2026-04-19T10:21:39.001Z</time></trkpt><trkpt lat="40.44678586292036" lon="15.220417550791787"><ele>119.5</ele><time>2026-04-19T10:21:40.001Z</time></trkpt><trkpt lat="40.44671575758181" lon="15.220341145650112"><ele>119.66666666666666</ele><time>2026-04-19T10:21:41.001Z</time></trkpt><trkpt lat="40.44663076172708" lon="15.220315232468247"><ele>119.83333333333333</ele><time>2026-04-19T10:21:42.001Z</time></trkpt><trkpt lat="40.44654683461407" lon="15.220292296872174"><ele>120.0</ele><time>2026-04-19T10:21:43.001Z</time></trkpt><trkpt lat="40.44645991252414" lon="15.220274859111557"><ele>120.0</ele><time>2026-04-19T10:21:44.001Z</time></trkpt><trkpt lat="40.44637099902113" lon="15.220263822912482"><ele>120.0</ele><time>2026-04-19T10:21:45.001Z</time></trkpt><trkpt lat="40.44628186593651" lon="15.220263400985873"><ele>120.0</ele><time>2026-04-19T10:21:46.001Z</time></trkpt><trkpt lat="40.44619437733659" lon="15.220270329110308"><ele>120.0</ele><time>2026-04-19T10:21:47.001Z</time></trkpt><trkpt lat="40.44611214684576" lon="15.220292992183474"><ele>120.0</ele><time>2026-04-19T10:21:48.001Z</time></trkpt><trkpt lat="40.44603302899845" lon="15.220315246369744"><ele>120.0</ele><time>2026-04-19T10:21:49.001Z</time></trkpt><trkpt lat="40.44596400191426" lon="15.220327595167868"><ele>120.5</ele><time>2026-04-19T10:21:50.001Z</time></trkpt><trkpt lat="40.44589447543031" lon="15.220347249865345"><ele>121.0</ele><time>2026-04-19T10:21:51.001Z</time></trkpt><trkpt lat="40.44579968327422" lon="15.220370528267743"><ele>121.5</ele><time>2026-04-19T10:21:53.001Z</time></trkpt><trkpt lat="40.4458392478582" lon="15.220090116450558"><ele>122.0</ele><time>2026-04-19T10:26:50Z</time></trkpt><trkpt lat="40.44586821384225" lon="15.219984760285238"><ele>121.99999999999999</ele><time>2026-04-19T10:26:51Z</time></trkpt><trkpt lat="40.44588712605329" lon="15.219885990011685"><ele>122.0</ele><time>2026-04-19T10:26:52Z</time></trkpt><trkpt lat="40.44588880246821" lon="15.219790296574581"><ele>122.0</ele><time>2026-04-19T10:26:53Z</time></trkpt><trkpt lat="40.44591278798952" lon="15.219695803729543"><ele>122.0</ele><time>2026-04-19T10:26:54Z</time></trkpt><trkpt lat="40.4459533808134" lon="15.219609482206195"><ele>121.99999999999999</ele><time>2026-04-19T10:26:55Z</time></trkpt><trkpt lat="40.445973159128584" lon="15.2195119526354"><ele>122.0</ele><time>2026-04-19T10:26:56Z</time></trkpt><trkpt lat="40.446002857163094" lon="15.219420994604162"><ele>121.99999999999999</ele><time>2026-04-19T10:26:57Z</time></trkpt><trkpt lat="40.446034621379845" lon="15.219320987003139"><ele>122.0</ele><time>2026-04-19T10:26:58Z</time></trkpt><trkpt lat="40.44607051034009" lon="15.21921151713357"><ele>122.0</ele><time>2026-04-19T10:26:59Z</time></trkpt><trkpt lat="40.44610476050023" lon="15.219114954423231"><ele>122.0</ele><time>2026-04-19T10:27:00Z</time></trkpt><trkpt lat="40.44613766588405" lon="15.219031125294363"><ele>121.99999999999999</ele><time>2026-04-19T10:27:01Z</time></trkpt><trkpt lat="40.446178808681466" lon="15.218954102616204"><ele>122.0</ele><time>2026-04-19T10:27:02Z</time></trkpt><trkpt lat="40.44621280193539" lon="15.218866215936167"><ele>122.0</ele><time>2026-04-19T10:27:03Z</time></trkpt><trkpt lat="40.4462593872778" lon="15.218774451361293"><ele>121.99999999999999</ele><time>2026-04-19T10:27:04Z</time></trkpt><trkpt lat="40.44630883579872" lon="15.218689022548281"><ele>121.99999999999999</ele><time>2026-04-19T10:27:05Z</time></trkpt><trkpt lat="40.44637409720772" lon="15.218594897393924"><ele>122.0</ele><time>2026-04-19T10:27:06Z</time></trkpt><trkpt lat="40.446439648594165" lon="15.218496577358568"><ele>122.0</ele><time>2026-04-19T10:27:07Z</time></trkpt><trkpt lat="40.44650960452657" lon="15.218394250735226"><ele>122.19999999999999</ele><time>2026-04-19T10:27:08Z</time></trkpt><trkpt lat="40.44657805255261" lon="15.218287590698095"><ele>122.39999999999999</ele><time>2026-04-19T10:27:09Z</time></trkpt><trkpt lat="40.44664488233014" lon="15.218184724469735"><ele>122.60000000000001</ele><time>2026-04-19T10:27:10Z</time></trkpt><trkpt lat="40.446714159461706" lon="15.218084722843292"><ele>122.80000000000001</ele><time>2026-04-19T10:27:11Z</time></trkpt><trkpt lat="40.446780977732374" lon="15.217990861947142"><ele>123.0</ele><time>2026-04-19T10:27:12Z</time></trkpt><trkpt lat="40.44684156103487" lon="15.217904962721262"><ele>123.0</ele><time>2026-04-19T10:27:13Z</time></trkpt><trkpt lat="40.44689853579136" lon="15.217827608431614"><ele>123.0</ele><time>2026-04-19T10:27:14Z</time></trkpt><trkpt lat="40.4469524830556" lon="15.217755281938159"><ele>123.0</ele><time>2026-04-19T10:27:15Z</time></trkpt><trkpt lat="40.44700747405559" lon="15.217668859379906"><ele>123.0</ele><time>2026-04-19T10:27:16Z</time></trkpt><trkpt lat="40.44706082623906" lon="15.217594892768807"><ele>123.0</ele><time>2026-04-19T10:27:17Z</time></trkpt><trkpt lat="40.447117271241815" lon="15.217530102275353"><ele>123.0</ele><time>2026-04-19T10:27:18Z</time></trkpt><trkpt lat="40.44717173433268" lon="15.217473580274886"><ele>122.5</ele><time>2026-04-19T10:27:19Z</time></trkpt><trkpt lat="40.447228490485365" lon="15.21743092664442"><ele>122.0</ele><time>2026-04-19T10:27:20Z</time></trkpt><trkpt lat="40.44729510339341" lon="15.217384436611455"><ele>121.5</ele><time>2026-04-19T10:27:21Z</time></trkpt><trkpt lat="40.44737806965013" lon="15.217349663684795"><ele>121.0</ele><time>2026-04-19T10:27:22Z</time></trkpt><trkpt lat="40.44746796988367" lon="15.217330667364937"><ele>120.5</ele><time>2026-04-19T10:27:23Z</time></trkpt><trkpt lat="40.44755336018148" lon="15.217325294712433"><ele>120.0</ele><time>2026-04-19T10:27:24Z</time></trkpt><trkpt lat="40.447630256549964" lon="15.217329811847902"><ele>120.0</ele><time>2026-04-19T10:27:25Z</time></trkpt><trkpt lat="40.447720052129455" lon="15.21734001197884"><ele>120.0</ele><time>2026-04-19T10:27:26Z</time></trkpt><trkpt lat="40.44780979385613" lon="15.21737066951841"><ele>120.0</ele><time>2026-04-19T10:27:27Z</time></trkpt><trkpt lat="40.44788861873811" lon="15.217435372519969"><ele>120.0</ele><time>2026-04-19T10:27:28Z</time></trkpt><trkpt lat="40.447966325312734" lon="15.217482909906881"><ele>120.0</ele><time>2026-04-19T10:27:29Z</time></trkpt><trkpt lat="40.44804340312022" lon="15.217520401374497"><ele>120.0</ele><time>2026-04-19T10:27:30Z</time></trkpt><trkpt lat="40.44811692575786" lon="15.217599902826455"><ele>117.83333333333333</ele><time>2026-04-19T10:27:31Z</time></trkpt><trkpt lat="40.44818116468207" lon="15.217686968365074"><ele>115.66666666666666</ele><time>2026-04-19T10:27:32Z</time></trkpt><trkpt lat="40.44821355395742" lon="15.217797820292578"><ele>113.5</ele><time>2026-04-19T10:27:33Z</time></trkpt><trkpt lat="40.44826722592121" lon="15.217899281742408"><ele>111.33333333333333</ele><time>2026-04-19T10:27:34Z</time></trkpt><trkpt lat="40.44830842638388" lon="15.217989563512457"><ele>109.16666666666666</ele><time>2026-04-19T10:27:35Z</time></trkpt><trkpt lat="40.44836738504236" lon="15.218047780657736"><ele>107.0</ele><time>2026-04-19T10:27:36Z</time></trkpt><trkpt lat="40.448450746910595" lon="15.218080879710753"><ele>107.0</ele><time>2026-04-19T10:27:37Z</time></trkpt><trkpt lat="40.44855102427483" lon="15.218087325960798"><ele>106.99999999999999</ele><time>2026-04-19T10:27:38Z</time></trkpt><trkpt lat="40.44865710388194" lon="15.218080752884802"><ele>106.99999999999999</ele><time>2026-04-19T10:27:39Z</time></trkpt><trkpt lat="40.44874721636014" lon="15.218056807517009"><ele>107.0</ele><time>2026-04-19T10:27:40Z</time></trkpt><trkpt lat="40.44883066067893" lon="15.218007178875508"><ele>107.0</ele><time>2026-04-19T10:27:41Z</time></trkpt><trkpt lat="40.4489183974701" lon="15.217927019797843"><ele>105.5</ele><time>2026-04-19T10:27:42Z</time></trkpt><trkpt lat="40.449017947902846" lon="15.217819185254418"><ele>104.0</ele><time>2026-04-19T10:27:43Z</time></trkpt><trkpt lat="40.44912015583863" lon="15.217697420340434"><ele>102.5</ele><time>2026-04-19T10:27:44Z</time></trkpt><trkpt lat="40.449210180459566" lon="15.217595438177034"><ele>101.0</ele><time>2026-04-19T10:27:45Z</time></trkpt><trkpt lat="40.44929057398024" lon="15.217486060639493"><ele>101.0</ele><time>2026-04-19T10:27:46Z</time></trkpt><trkpt lat="40.44937573127375" lon="15.217387462716795"><ele>101.0</ele><time>2026-04-19T10:27:47Z</time></trkpt><trkpt lat="40.44945238197106" lon="15.217298452360659"><ele>101.0</ele><time>2026-04-19T10:27:48Z</time></trkpt><trkpt lat="40.44953171579553" lon="15.217221994041271"><ele>101.0</ele><time>2026-04-19T10:27:49Z</time></trkpt><trkpt lat="40.44959836014089" lon="15.217130097223745"><ele>101.0</ele><time>2026-04-19T10:27:50Z</time></trkpt><trkpt lat="40.44964747019789" lon="15.2170520035582"><ele>99.8</ele><time>2026-04-19T10:27:51Z</time></trkpt><trkpt lat="40.44970023832932" lon="15.216944091597698"><ele>98.6</ele><time>2026-04-19T10:27:52Z</time></trkpt><trkpt lat="40.44976859020383" lon="15.216840455227388"><ele>97.4</ele><time>2026-04-19T10:27:53Z</time></trkpt><trkpt lat="40.449822072571806" lon="15.216736546697572"><ele>96.2</ele><time>2026-04-19T10:27:54Z</time></trkpt><trkpt lat="40.44987888890742" lon="15.216636668699113"><ele>95.0</ele><time>2026-04-19T10:27:55Z</time></trkpt><trkpt lat="40.44993329617773" lon="15.216547675417502"><ele>94.8</ele><time>2026-04-19T10:27:56Z</time></trkpt><trkpt lat="40.4499798988992" lon="15.216464084261247"><ele>94.6</ele><time>2026-04-19T10:27:57Z</time></trkpt><trkpt lat="40.45001931365075" lon="15.21637348389392"><ele>94.4</ele><time>2026-04-19T10:27:58Z</time></trkpt><trkpt lat="40.4500548081756" lon="15.21628834791617"><ele>94.2</ele><time>2026-04-19T10:27:59Z</time></trkpt><trkpt lat="40.450078558794594" lon="15.216150266771018"><ele>94.0</ele><time>2026-04-19T10:28:00Z</time></trkpt><trkpt lat="40.450048888383435" lon="15.216011166246643"><ele>94.0</ele><time>2026-04-19T10:28:01Z</time></trkpt><trkpt lat="40.449998915420075" lon="15.215873396450775"><ele>94.0</ele><time>2026-04-19T10:28:02Z</time></trkpt><trkpt lat="40.449942380066744" lon="15.215724713574762"><ele>94.0</ele><time>2026-04-19T10:28:03Z</time></trkpt><trkpt lat="40.44988068554669" lon="15.215559623010897"><ele>94.0</ele><time>2026-04-19T10:28:04Z</time></trkpt><trkpt lat="40.44983007203233" lon="15.215414645878315"><ele>93.75</ele><time>2026-04-19T10:28:05Z</time></trkpt><trkpt lat="40.44979595266405" lon="15.215283273760475"><ele>93.5</ele><time>2026-04-19T10:28:06Z</time></trkpt><trkpt lat="40.44976395921035" lon="15.215129379843566"><ele>93.25</ele><time>2026-04-19T10:28:07Z</time></trkpt><trkpt lat="40.449731146760215" lon="15.214949310992175"><ele>93.0</ele><time>2026-04-19T10:28:08Z</time></trkpt><trkpt lat="40.4496957446872" lon="15.214749277049503"><ele>93.0</ele><time>2026-04-19T10:28:09Z</time></trkpt><trkpt lat="40.44966502158494" lon="15.214553591730814"><ele>93.0</ele><time>2026-04-19T10:28:10Z</time></trkpt><trkpt lat="40.44962445032947" lon="15.214377691391444"><ele>93.0</ele><time>2026-04-19T10:28:11Z</time></trkpt><trkpt lat="40.44959995229923" lon="15.214187735418037"><ele>93.0</ele><time>2026-04-19T10:28:12Z</time></trkpt><trkpt lat="40.4495471083965" lon="15.214019487190912"><ele>94.25</ele><time>2026-04-19T10:28:13Z</time></trkpt><trkpt lat="40.44952543932385" lon="15.213847745225838"><ele>95.5</ele><time>2026-04-19T10:28:14Z</time></trkpt><trkpt lat="40.44948546628333" lon="15.21368565352393"><ele>96.75</ele><time>2026-04-19T10:28:15Z</time></trkpt><trkpt lat="40.44944056567128" lon="15.213516107120443"><ele>98.0</ele><time>2026-04-19T10:28:16Z</time></trkpt><trkpt lat="40.4493906823669" lon="15.21333540790009"><ele>98.0</ele><time>2026-04-19T10:28:17Z</time></trkpt><trkpt lat="40.44933752486318" lon="15.213168709821813"><ele>98.0</ele><time>2026-04-19T10:28:18Z</time></trkpt><trkpt lat="40.44927900625946" lon="15.213025225300623"><ele>98.0</ele><time>2026-04-19T10:28:19Z</time></trkpt><trkpt lat="40.449206614933686" lon="15.212887008797175"><ele>98.0</ele><time>2026-04-19T10:28:20Z</time></trkpt><trkpt lat="40.449157951004324" lon="15.21272854349346"><ele>97.4</ele><time>2026-04-19T10:28:21Z</time></trkpt><trkpt lat="40.449098224701814" lon="15.212593065567"><ele>96.80000000000001</ele><time>2026-04-19T10:28:22Z</time></trkpt><trkpt lat="40.44905318080612" lon="15.212465434985768"><ele>96.2</ele><time>2026-04-19T10:28:23Z</time></trkpt><trkpt lat="40.44903180529458" lon="15.21232986389996"><ele>95.6</ele><time>2026-04-19T10:28:24Z</time></trkpt><trkpt lat="40.449015856069444" lon="15.21220799956281"><ele>95.0</ele><time>2026-04-19T10:28:25Z</time></trkpt><trkpt lat="40.44901523946123" lon="15.212062383677006"><ele>95.0</ele><time>2026-04-19T10:28:26Z</time></trkpt><trkpt lat="40.44900909095856" lon="15.211889385480205"><ele>95.0</ele><time>2026-04-19T10:28:27Z</time></trkpt><trkpt lat="40.44901651297251" lon="15.211721248173589"><ele>95.0</ele><time>2026-04-19T10:28:28Z</time></trkpt><trkpt lat="40.44901931711705" lon="15.211576578748188"><ele>95.0</ele><time>2026-04-19T10:28:29Z</time></trkpt><trkpt lat="40.4490228190283" lon="15.211443166284297"><ele>95.0</ele><time>2026-04-19T10:28:30Z</time></trkpt><trkpt lat="40.449025136308855" lon="15.211305376831652"><ele>95.0</ele><time>2026-04-19T10:28:31Z</time></trkpt><trkpt lat="40.449031151633285" lon="15.211168727997302"><ele>95.0</ele><time>2026-04-19T10:28:32Z</time></trkpt><trkpt lat="40.44903928022941" lon="15.21103610805505"><ele>95.0</ele><time>2026-04-19T10:28:33Z</time></trkpt><trkpt lat="40.449056917579995" lon="15.2109063729484"><ele>95.0</ele><time>2026-04-19T10:28:34Z</time></trkpt><trkpt lat="40.44908456145378" lon="15.210763823112046"><ele>95.0</ele><time>2026-04-19T10:28:35Z</time></trkpt><trkpt lat="40.44912370411075" lon="15.210614511227162"><ele>95.0</ele><time>2026-04-19T10:28:36Z</time></trkpt><trkpt lat="40.4491570666238" lon="15.210444591969454"><ele>95.0</ele><time>2026-04-19T10:28:37Z</time></trkpt><trkpt lat="40.44918231799982" lon="15.21027777051039"><ele>95.0</ele><time>2026-04-19T10:28:38Z</time></trkpt><trkpt lat="40.449197912479455" lon="15.210121477786517"><ele>95.0</ele><time>2026-04-19T10:28:39Z</time></trkpt><trkpt lat="40.449203226018106" lon="15.20995399688537"><ele>95.0</ele><time>2026-04-19T10:28:40Z</time></trkpt><trkpt lat="40.44923204479573" lon="15.20979437368168"><ele>95.0</ele><time>2026-04-19T10:28:41Z</time></trkpt><trkpt lat="40.44925095780426" lon="15.209649651753315"><ele>95.0</ele><time>2026-04-19T10:28:42Z</time></trkpt><trkpt lat="40.44927024326139" lon="15.209502079723048"><ele>95.2</ele><time>2026-04-19T10:28:43Z</time></trkpt><trkpt lat="40.449273659138754" lon="15.209350491571366"><ele>95.4</ele><time>2026-04-19T10:28:44Z</time></trkpt><trkpt lat="40.44930044464062" lon="15.209210791881"><ele>95.6</ele><time>2026-04-19T10:28:45Z</time></trkpt><trkpt lat="40.449314761620336" lon="15.209088892876164"><ele>95.8</ele><time>2026-04-19T10:28:46Z</time></trkpt><trkpt lat="40.44933597536828" lon="15.208980444732955"><ele>96.0</ele><time>2026-04-19T10:28:47Z</time></trkpt><trkpt lat="40.449361557031025" lon="15.208886698615023"><ele>96.0</ele><time>2026-04-19T10:28:48Z</time></trkpt><trkpt lat="40.449405002891275" lon="15.208821427461586"><ele>96.0</ele><time>2026-04-19T10:28:49Z</time></trkpt><trkpt lat="40.449463396803665" lon="15.208786113620482"><ele>96.0</ele><time>2026-04-19T10:28:50Z</time></trkpt><trkpt lat="40.449551923046926" lon="15.208745606187643"><ele>96.0</ele><time>2026-04-19T10:28:51Z</time></trkpt><trkpt lat="40.449650670323614" lon="15.20869332627862"><ele>96.0</ele><time>2026-04-19T10:28:52Z</time></trkpt><trkpt lat="40.44974858413652" lon="15.208629071110531"><ele>96.0</ele><time>2026-04-19T10:28:53Z</time></trkpt><trkpt lat="40.44984933129125" lon="15.208558886705918"><ele>95.6</ele><time>2026-04-19T10:28:54Z</time></trkpt><trkpt lat="40.44995112594895" lon="15.208493951350517"><ele>95.19999999999999</ele><time>2026-04-19T10:28:55Z</time></trkpt><trkpt lat="40.45004513569617" lon="15.208432558673028"><ele>94.80000000000001</ele><time>2026-04-19T10:28:56Z</time></trkpt><trkpt lat="40.45013456005596" lon="15.208371736778423"><ele>94.4</ele><time>2026-04-19T10:28:57Z</time></trkpt><trkpt lat="40.45021019428877" lon="15.208321852931785"><ele>94.0</ele><time>2026-04-19T10:28:58Z</time></trkpt><trkpt lat="40.45027950300317" lon="15.208266240485752"><ele>94.0</ele><time>2026-04-19T10:28:59Z</time></trkpt><trkpt lat="40.45034060194781" lon="15.208188519605383"><ele>94.0</ele><time>2026-04-19T10:29:00Z</time></trkpt><trkpt lat="40.4503963060775" lon="15.208098110862146"><ele>94.0</ele><time>2026-04-19T10:29:00.999Z</time></trkpt><trkpt lat="40.450468022857514" lon="15.20800180993212"><ele>94.0</ele><time>2026-04-19T10:29:01.999Z</time></trkpt><trkpt lat="40.450516990836675" lon="15.207904517523396"><ele>94.0</ele><time>2026-04-19T10:29:02.999Z</time></trkpt><trkpt lat="40.45055879245145" lon="15.207821463462928"><ele>94.0</ele><time>2026-04-19T10:29:03.999Z</time></trkpt><trkpt lat="40.45058406406094" lon="15.207732391030836"><ele>94.2</ele><time>2026-04-19T10:29:04.999Z</time></trkpt><trkpt lat="40.45065958161063" lon="15.207620281647051"><ele>94.4</ele><time>2026-04-19T10:29:06.999Z</time></trkpt><trkpt lat="40.45072199774421" lon="15.207547287105726"><ele>94.6</ele><time>2026-04-19T10:29:08.999Z</time></trkpt><trkpt lat="40.45079654874658" lon="15.207612034551639"><ele>94.8</ele><time>2026-04-19T10:29:10.999Z</time></trkpt><trkpt lat="40.4508308514723" lon="15.207731963410223"><ele>95.0</ele><time>2026-04-19T10:29:12.999Z</time></trkpt><trkpt lat="40.4508637816866" lon="15.207816387596186"><ele>95.0</ele><time>2026-04-19T10:29:13.999Z</time></trkpt><trkpt lat="40.450858031626396" lon="15.20797472633218"><ele>95.0</ele><time>2026-04-19T10:29:15.999Z</time></trkpt><trkpt lat="40.45084846430505" lon="15.208075426049593"><ele>95.0</ele><time>2026-04-19T10:29:16.999Z</time></trkpt><trkpt lat="40.45085377577367" lon="15.208174790669599"><ele>95.0</ele><time>2026-04-19T10:29:17.999Z</time></trkpt><trkpt lat="40.45085524313229" lon="15.2082588518937"><ele>95.0</ele><time>2026-04-19T10:29:18.999Z</time></trkpt><trkpt lat="40.450897471323266" lon="15.20836304679807"><ele>95.0</ele><time>2026-04-19T10:29:22Z</time></trkpt><trkpt lat="40.45100119670205" lon="15.208372603431009"><ele>94.4</ele><time>2026-04-19T10:29:24Z</time></trkpt><trkpt lat="40.45110113263411" lon="15.208359458820507"><ele>93.8</ele><time>2026-04-19T10:29:26Z</time></trkpt><trkpt lat="40.45120024748607" lon="15.208377753463825"><ele>93.19999999999999</ele><time>2026-04-19T10:29:28Z</time></trkpt><trkpt lat="40.45129756196458" lon="15.208366933147394"><ele>92.6</ele><time>2026-04-19T10:29:30Z</time></trkpt><trkpt lat="40.4514068782705" lon="15.208402304338211"><ele>92.0</ele><time>2026-04-19T10:29:32Z</time></trkpt><trkpt lat="40.451539778789794" lon="15.208398473499871"><ele>91.83333333333334</ele><time>2026-04-19T10:29:34Z</time></trkpt><trkpt lat="40.4516175280836" lon="15.208410819303392"><ele>91.66666666666667</ele><time>2026-04-19T10:29:35Z</time></trkpt><trkpt lat="40.451689000693015" lon="15.20842185168645"><ele>91.5</ele><time>2026-04-19T10:29:36Z</time></trkpt><trkpt lat="40.45177199100537" lon="15.20843032838998"><ele>91.33333333333333</ele><time>2026-04-19T10:29:37Z</time></trkpt><trkpt lat="40.45185553222552" lon="15.20844067848712"><ele>91.16666666666666</ele><time>2026-04-19T10:29:38Z</time></trkpt><trkpt lat="40.45195513857906" lon="15.208457095029297"><ele>91.0</ele><time>2026-04-19T10:29:39Z</time></trkpt><trkpt lat="40.45204793625544" lon="15.208473787972615"><ele>91.0</ele><time>2026-04-19T10:29:40Z</time></trkpt><trkpt lat="40.4521442201772" lon="15.208495304856124"><ele>91.0</ele><time>2026-04-19T10:29:41Z</time></trkpt><trkpt lat="40.452248422430756" lon="15.208511229452144"><ele>91.0</ele><time>2026-04-19T10:29:42Z</time></trkpt><trkpt lat="40.45234128054973" lon="15.208530621195573"><ele>91.0</ele><time>2026-04-19T10:29:43Z</time></trkpt><trkpt lat="40.452441724788336" lon="15.208550235119255"><ele>91.0</ele><time>2026-04-19T10:29:44Z</time></trkpt><trkpt lat="40.45253835065781" lon="15.208569684593963"><ele>91.0</ele><time>2026-04-19T10:29:45Z</time></trkpt><trkpt lat="40.452632388209516" lon="15.20858795170314"><ele>91.0</ele><time>2026-04-19T10:29:46Z</time></trkpt><trkpt lat="40.4527386736242" lon="15.208612750160656"><ele>91.0</ele><time>2026-04-19T10:29:47Z</time></trkpt><trkpt lat="40.452843417533494" lon="15.208634833399211"><ele>91.0</ele><time>2026-04-19T10:29:48Z</time></trkpt><trkpt lat="40.45294570586171" lon="15.208651062835383"><ele>91.0</ele><time>2026-04-19T10:29:49Z</time></trkpt><trkpt lat="40.45305061514432" lon="15.208671425159773"><ele>90.8</ele><time>2026-04-19T10:29:50Z</time></trkpt><trkpt lat="40.453152998004" lon="15.208689740971025"><ele>90.6</ele><time>2026-04-19T10:29:51Z</time></trkpt><trkpt lat="40.4532534910208" lon="15.208730528343054"><ele>90.4</ele><time>2026-04-19T10:29:52Z</time></trkpt><trkpt lat="40.45334889049281" lon="15.208727309653138"><ele>90.2</ele><time>2026-04-19T10:29:53Z</time></trkpt><trkpt lat="40.453441957958624" lon="15.208756425630167"><ele>90.0</ele><time>2026-04-19T10:29:54Z</time></trkpt><trkpt lat="40.4535429699375" lon="15.20876966675309"><ele>90.0</ele><time>2026-04-19T10:29:55Z</time></trkpt><trkpt lat="40.45365303312988" lon="15.208783597460567"><ele>90.0</ele><time>2026-04-19T10:29:56Z</time></trkpt><trkpt lat="40.45375038568892" lon="15.208807118124335"><ele>90.0</ele><time>2026-04-19T10:29:57Z</time></trkpt><trkpt lat="40.45383721445542" lon="15.20882486679077"><ele>90.0</ele><time>2026-04-19T10:29:58Z</time></trkpt><trkpt lat="40.45390621532321" lon="15.208852921577042"><ele>90.0</ele><time>2026-04-19T10:29:59Z</time></trkpt><trkpt lat="40.453974226328356" lon="15.208868744566978"><ele>90.0</ele><time>2026-04-19T10:30:00Z</time></trkpt><trkpt lat="40.454035669015504" lon="15.208887330490276"><ele>90.4</ele><time>2026-04-19T10:30:01Z</time></trkpt><trkpt lat="40.45414456424795" lon="15.208922036174723"><ele>90.8</ele><time>2026-04-19T10:30:03Z</time></trkpt><trkpt lat="40.45424569236426" lon="15.208928810492694"><ele>91.19999999999999</ele><time>2026-04-19T10:30:05Z</time></trkpt><trkpt lat="40.45429742711146" lon="15.208791050783775"><ele>91.6</ele><time>2026-04-19T10:30:07Z</time></trkpt><trkpt lat="40.454301204325034" lon="15.208702728841034"><ele>92.0</ele><time>2026-04-19T10:30:08Z</time></trkpt><trkpt lat="40.45430025206076" lon="15.208612479817837"><ele>92.0</ele><time>2026-04-19T10:30:09Z</time></trkpt><trkpt lat="40.4543440408113" lon="15.208472848176147"><ele>92.0</ele><time>2026-04-19T10:30:11Z</time></trkpt><trkpt lat="40.454436196065615" lon="15.208476515185971"><ele>92.0</ele><time>2026-04-19T10:30:13Z</time></trkpt><trkpt lat="40.45452802134713" lon="15.208414595597839"><ele>92.0</ele><time>2026-04-19T10:30:15Z</time></trkpt><trkpt lat="40.4545878879647" lon="15.208388331406617"><ele>92.0</ele><time>2026-04-19T10:30:16Z</time></trkpt><trkpt lat="40.45466300689649" lon="15.20834968349125"><ele>92.16666666666667</ele><time>2026-04-19T10:30:17Z</time></trkpt><trkpt lat="40.4547408406681" lon="15.20833989472481"><ele>92.33333333333334</ele><time>2026-04-19T10:30:18Z</time></trkpt><trkpt lat="40.454806445765996" lon="15.208325009780951"><ele>92.5</ele><time>2026-04-19T10:30:19Z</time></trkpt><trkpt lat="40.454878182328734" lon="15.20831084118676"><ele>92.66666666666667</ele><time>2026-04-19T10:30:20Z</time></trkpt><trkpt lat="40.4549542104451" lon="15.208295755345068"><ele>92.83333333333333</ele><time>2026-04-19T10:30:21Z</time></trkpt><trkpt lat="40.45503174967127" lon="15.20826113762725"><ele>93.0</ele><time>2026-04-19T10:30:22Z</time></trkpt><trkpt lat="40.45510731833843" lon="15.208261020268818"><ele>93.0</ele><time>2026-04-19T10:30:23Z</time></trkpt><trkpt lat="40.45516993872745" lon="15.208223731687228"><ele>93.0</ele><time>2026-04-19T10:30:24Z</time></trkpt><trkpt lat="40.45529596153956" lon="15.208208356668434"><ele>93.0</ele><time>2026-04-19T10:30:26Z</time></trkpt><trkpt lat="40.45538763739458" lon="15.208220387643202"><ele>93.0</ele><time>2026-04-19T10:30:28Z</time></trkpt><trkpt lat="40.45540579270377" lon="15.208457774357143"><ele>93.0</ele><time>2026-04-19T10:30:37Z</time></trkpt><trkpt lat="40.45541974867018" lon="15.208542158190482"><ele>93.0</ele><time>2026-04-19T10:30:39Z</time></trkpt><trkpt lat="40.45543266894351" lon="15.208672282248815"><ele>93.0</ele><time>2026-04-19T10:30:42Z</time></trkpt><trkpt lat="40.455446077246904" lon="15.20875923249326"><ele>93.0</ele><time>2026-04-19T10:30:44Z</time></trkpt><trkpt lat="40.45546648523623" lon="15.208845741029483"><ele>93.0</ele><time>2026-04-19T10:30:46Z</time></trkpt><trkpt lat="40.45552367016088" lon="15.208886043044771"><ele>93.0</ele><time>2026-04-19T10:30:49Z</time></trkpt><trkpt lat="40.4556102299576" lon="15.208865290925953"><ele>93.0</ele><time>2026-04-19T10:30:59Z</time></trkpt><trkpt lat="40.45567519738371" lon="15.208857689653025"><ele>93.0</ele><time>2026-04-19T10:31:01Z</time></trkpt><trkpt lat="40.45575317532135" lon="15.208913956399476"><ele>93.0</ele><time>2026-04-19T10:31:04Z</time></trkpt><trkpt lat="40.45581311934438" lon="15.20898951167953"><ele>93.0</ele><time>2026-04-19T10:31:06.999Z</time></trkpt><trkpt lat="40.455868542362666" lon="15.209037847959982"><ele>93.0</ele><time>2026-04-19T10:31:08.999Z</time></trkpt><trkpt lat="40.45594374733359" lon="15.209097243990305"><ele>93.0</ele><time>2026-04-19T10:31:10.999Z</time></trkpt><trkpt lat="40.45601271516816" lon="15.209151221143799"><ele>92.66666666666667</ele><time>2026-04-19T10:31:15.999Z</time></trkpt><trkpt lat="40.456159773096054" lon="15.209165198612508"><ele>92.33333333333333</ele><time>2026-04-19T10:35:17.001Z</time></trkpt><trkpt lat="40.456228828032465" lon="15.2091162145946"><ele>92.0</ele><time>2026-04-19T10:35:20Z</time></trkpt><trkpt lat="40.45629645574483" lon="15.209072118384258"><ele>91.66666666666666</ele><time>2026-04-19T10:35:24Z</time></trkpt><trkpt lat="40.456358375028564" lon="15.209050062568258"><ele>91.33333333333333</ele><time>2026-04-19T10:35:27Z</time></trkpt><trkpt lat="40.456429106187365" lon="15.209035642285187"><ele>91.0</ele><time>2026-04-19T10:35:30Z</time></trkpt><trkpt lat="40.45648954678883" lon="15.209009876598577"><ele>91.0</ele><time>2026-04-19T10:35:42Z</time></trkpt><trkpt lat="40.456428597462796" lon="15.208988679165985"><ele>91.0</ele><time>2026-04-19T10:37:29.999Z</time></trkpt><trkpt lat="40.45634942942216" lon="15.209007051003512"><ele>91.0</ele><time>2026-04-19T10:37:33.999Z</time></trkpt><trkpt lat="40.45628566409255" lon="15.209034140265663"><ele>91.0</ele><time>2026-04-19T10:37:35.999Z</time></trkpt><trkpt lat="40.45620065732729" lon="15.209076654998594"><ele>91.0</ele><time>2026-04-19T10:37:38.999Z</time></trkpt><trkpt lat="40.45611106306579" lon="15.209128481380302"><ele>91.0</ele><time>2026-04-19T10:37:40.999Z</time></trkpt><trkpt lat="40.4560304386992" lon="15.209167249954904"><ele>91.0</ele><time>2026-04-19T10:37:43.999Z</time></trkpt><trkpt lat="40.45596646136636" lon="15.20912010079956"><ele>91.0</ele><time>2026-04-19T10:37:46.999Z</time></trkpt><trkpt lat="40.45589156119572" lon="15.209062758376437"><ele>91.0</ele><time>2026-04-19T10:37:49.999Z</time></trkpt><trkpt lat="40.45582121608076" lon="15.209004543266069"><ele>91.0</ele><time>2026-04-19T10:37:52.999Z</time></trkpt><trkpt lat="40.45576298932109" lon="15.208938759536531"><ele>91.0</ele><time>2026-04-19T10:37:56.999Z</time></trkpt><trkpt lat="40.455713916733465" lon="15.20885677044084"><ele>91.0</ele><time>2026-04-19T10:38:00Z</time></trkpt><trkpt lat="40.45570393047994" lon="15.208759928507893"><ele>91.4</ele><time>2026-04-19T10:38:02Z</time></trkpt><trkpt lat="40.455704293647216" lon="15.208625024523359"><ele>91.8</ele><time>2026-04-19T10:38:04Z</time></trkpt><trkpt lat="40.45570092518923" lon="15.208539449334696"><ele>92.2</ele><time>2026-04-19T10:38:06Z</time></trkpt><trkpt lat="40.45570007979307" lon="15.208421192403701"><ele>92.60000000000001</ele><time>2026-04-19T10:38:08Z</time></trkpt><trkpt lat="40.45570738543396" lon="15.208287689229001"><ele>93.0</ele><time>2026-04-19T10:38:10Z</time></trkpt><trkpt lat="40.455709703731166" lon="15.208162743177489"><ele>92.83333333333333</ele><time>2026-04-19T10:38:12Z</time></trkpt><trkpt lat="40.45572735198201" lon="15.208051620594045"><ele>92.66666666666667</ele><time>2026-04-19T10:38:14Z</time></trkpt><trkpt lat="40.45578912985749" lon="15.207973140039853"><ele>92.5</ele><time>2026-04-19T10:38:17Z</time></trkpt><trkpt lat="40.455852042419174" lon="15.207961961786001"><ele>92.33333333333334</ele><time>2026-04-19T10:38:19Z</time></trkpt><trkpt lat="40.45594512508702" lon="15.207920661416765"><ele>92.16666666666667</ele><time>2026-04-19T10:38:22Z</time></trkpt><trkpt lat="40.45600806019106" lon="15.207861943318825"><ele>92.0</ele><time>2026-04-19T10:38:24Z</time></trkpt><trkpt lat="40.456109574726476" lon="15.207762344317116"><ele>92.0</ele><time>2026-04-19T10:38:26Z</time></trkpt><trkpt lat="40.45622429117075" lon="15.207702018207428"><ele>92.0</ele><time>2026-04-19T10:38:28Z</time></trkpt><trkpt lat="40.45631743998734" lon="15.20764204513604"><ele>92.0</ele><time>2026-04-19T10:38:30Z</time></trkpt><trkpt lat="40.456343447091506" lon="15.207506642296089"><ele>92.0</ele><time>2026-04-19T10:38:32Z</time></trkpt><trkpt lat="40.456330345477525" lon="15.207424135583077"><ele>92.0</ele><time>2026-04-19T10:38:33Z</time></trkpt><trkpt lat="40.45634222025009" lon="15.207278053210532"><ele>93.83333333333334</ele><time>2026-04-19T10:38:35Z</time></trkpt><trkpt lat="40.4563483144598" lon="15.207184120847664"><ele>95.66666666666667</ele><time>2026-04-19T10:38:36Z</time></trkpt><trkpt lat="40.456366543352694" lon="15.207077925050825"><ele>97.5</ele><time>2026-04-19T10:38:37Z</time></trkpt><trkpt lat="40.45637771142894" lon="15.206968583816266"><ele>99.33333333333334</ele><time>2026-04-19T10:38:38Z</time></trkpt><trkpt lat="40.45641232308038" lon="15.206860591403919"><ele>101.16666666666667</ele><time>2026-04-19T10:38:39Z</time></trkpt><trkpt lat="40.456457985869285" lon="15.206742316493893"><ele>103.0</ele><time>2026-04-19T10:38:40Z</time></trkpt><trkpt lat="40.45649196975109" lon="15.20662064771805"><ele>103.0</ele><time>2026-04-19T10:38:41Z</time></trkpt><trkpt lat="40.456537302654375" lon="15.20651275452148"><ele>103.0</ele><time>2026-04-19T10:38:42Z</time></trkpt><trkpt lat="40.45657455345337" lon="15.206425981642237"><ele>103.0</ele><time>2026-04-19T10:38:43Z</time></trkpt><trkpt lat="40.45661287015971" lon="15.20632239254229"><ele>103.0</ele><time>2026-04-19T10:38:45Z</time></trkpt><trkpt lat="40.4566168862203" lon="15.20620516300887"><ele>103.0</ele><time>2026-04-19T10:38:47Z</time></trkpt><trkpt lat="40.456721919689215" lon="15.206169481814259"><ele>104.0</ele><time>2026-04-19T10:38:51Z</time></trkpt><trkpt lat="40.456809467656704" lon="15.206209743440299"><ele>105.0</ele><time>2026-04-19T10:38:52Z</time></trkpt><trkpt lat="40.456922018633456" lon="15.206248569393223"><ele>106.0</ele><time>2026-04-19T10:38:53Z</time></trkpt><trkpt lat="40.457050340334774" lon="15.206284384598243"><ele>107.0</ele><time>2026-04-19T10:38:54Z</time></trkpt><trkpt lat="40.45719157870627" lon="15.206320674514638"><ele>107.8</ele><time>2026-04-19T10:38:55Z</time></trkpt><trkpt lat="40.457309047385394" lon="15.206347287566745"><ele>108.6</ele><time>2026-04-19T10:38:56Z</time></trkpt><trkpt lat="40.45739259071935" lon="15.206329726999067"><ele>109.39999999999999</ele><time>2026-04-19T10:38:57Z</time></trkpt><trkpt lat="40.457496855984814" lon="15.206349650793285"><ele>110.19999999999999</ele><time>2026-04-19T10:38:58Z</time></trkpt><trkpt lat="40.45758338700899" lon="15.206347378673424"><ele>111.0</ele><time>2026-04-19T10:38:59Z</time></trkpt><trkpt lat="40.45765855657286" lon="15.206345242060056"><ele>111.0</ele><time>2026-04-19T10:39:00Z</time></trkpt><trkpt lat="40.45773941065618" lon="15.20633100812148"><ele>111.0</ele><time>2026-04-19T10:39:01Z</time></trkpt><trkpt lat="40.457840211309794" lon="15.206302057894113"><ele>111.0</ele><time>2026-04-19T10:39:02Z</time></trkpt><trkpt lat="40.457934378213295" lon="15.206275340288919"><ele>111.0</ele><time>2026-04-19T10:39:03Z</time></trkpt><trkpt lat="40.458019267979296" lon="15.20625799133182"><ele>111.0</ele><time>2026-04-19T10:39:04Z</time></trkpt><trkpt lat="40.45810200722057" lon="15.206259914295801"><ele>110.0</ele><time>2026-04-19T10:39:05Z</time></trkpt><trkpt lat="40.45818125319481" lon="15.20627141885958"><ele>109.0</ele><time>2026-04-19T10:39:06Z</time></trkpt><trkpt lat="40.45825464704187" lon="15.206299421235466"><ele>108.0</ele><time>2026-04-19T10:39:07Z</time></trkpt><trkpt lat="40.45834426896855" lon="15.206335592878547"><ele>107.0</ele><time>2026-04-19T10:39:08Z</time></trkpt><trkpt lat="40.45845656014892" lon="15.206369864983323"><ele>106.0</ele><time>2026-04-19T10:39:09Z</time></trkpt><trkpt lat="40.458580701424516" lon="15.206408671820181"><ele>106.0</ele><time>2026-04-19T10:39:10Z</time></trkpt><trkpt lat="40.458695130214664" lon="15.20644770544033"><ele>106.0</ele><time>2026-04-19T10:39:11Z</time></trkpt><trkpt lat="40.45880793057779" lon="15.206485759942172"><ele>106.0</ele><time>2026-04-19T10:39:12Z</time></trkpt><trkpt lat="40.45892124922887" lon="15.206515830880226"><ele>106.0</ele><time>2026-04-19T10:39:13Z</time></trkpt><trkpt lat="40.459040146264826" lon="15.20654407606925"><ele>102.5</ele><time>2026-04-19T10:39:14Z</time></trkpt><trkpt lat="40.45916575955177" lon="15.206577291860048"><ele>99.0</ele><time>2026-04-19T10:39:15Z</time></trkpt><trkpt lat="40.45927921453685" lon="15.206613178440573"><ele>95.5</ele><time>2026-04-19T10:39:16Z</time></trkpt><trkpt lat="40.45938628612398" lon="15.206647317011802"><ele>92.0</ele><time>2026-04-19T10:39:17Z</time></trkpt><trkpt lat="40.45949107583036" lon="15.206680237899846"><ele>92.0</ele><time>2026-04-19T10:39:18Z</time></trkpt><trkpt lat="40.45958900549389" lon="15.20670531936435"><ele>92.0</ele><time>2026-04-19T10:39:19Z</time></trkpt><trkpt lat="40.45968876457181" lon="15.206732073122968"><ele>92.0</ele><time>2026-04-19T10:39:20Z</time></trkpt><trkpt lat="40.459788056733714" lon="15.206756428196755"><ele>92.0</ele><time>2026-04-19T10:39:21Z</time></trkpt><trkpt lat="40.45989758717283" lon="15.206796497795516"><ele>92.0</ele><time>2026-04-19T10:39:22Z</time></trkpt><trkpt lat="40.46001608474057" lon="15.206833711010049"><ele>91.6</ele><time>2026-04-19T10:39:23Z</time></trkpt><trkpt lat="40.46012364302736" lon="15.206876245940757"><ele>91.19999999999999</ele><time>2026-04-19T10:39:24Z</time></trkpt><trkpt lat="40.4602284653922" lon="15.206917430593677"><ele>90.8</ele><time>2026-04-19T10:39:25Z</time></trkpt><trkpt lat="40.46031682679458" lon="15.206958239775748"><ele>90.4</ele><time>2026-04-19T10:39:26Z</time></trkpt><trkpt lat="40.46042186936729" lon="15.207010216652368"><ele>90.0</ele><time>2026-04-19T10:39:27Z</time></trkpt><trkpt lat="40.46052662381208" lon="15.207058762949307"><ele>89.4</ele><time>2026-04-19T10:39:28Z</time></trkpt><trkpt lat="40.460628634875356" lon="15.207104752212278"><ele>88.8</ele><time>2026-04-19T10:39:29Z</time></trkpt><trkpt lat="40.46073545227097" lon="15.207152016655925"><ele>88.19999999999999</ele><time>2026-04-19T10:39:30Z</time></trkpt><trkpt lat="40.460842551452686" lon="15.207198102665618"><ele>87.6</ele><time>2026-04-19T10:39:30.998Z</time></trkpt><trkpt lat="40.46094252676761" lon="15.207242405017876"><ele>87.0</ele><time>2026-04-19T10:39:31.998Z</time></trkpt><trkpt lat="40.461036549895944" lon="15.207295210217335"><ele>87.19999999999999</ele><time>2026-04-19T10:39:32.998Z</time></trkpt><trkpt lat="40.46113550355537" lon="15.20736797770688"><ele>87.4</ele><time>2026-04-19T10:39:33.998Z</time></trkpt><trkpt lat="40.46124144979648" lon="15.207442180938106"><ele>87.6</ele><time>2026-04-19T10:39:34.998Z</time></trkpt><trkpt lat="40.46132267872929" lon="15.207516197202025"><ele>87.80000000000001</ele><time>2026-04-19T10:39:35.998Z</time></trkpt><trkpt lat="40.46137972638878" lon="15.207596310424696"><ele>88.0</ele><time>2026-04-19T10:39:36.998Z</time></trkpt><trkpt lat="40.461420063004205" lon="15.20771752148269"><ele>89.0</ele><time>2026-04-19T10:39:38.998Z</time></trkpt><trkpt lat="40.461456631590956" lon="15.207873886131186"><ele>90.0</ele><time>2026-04-19T10:39:40.998Z</time></trkpt><trkpt lat="40.4614586499515" lon="15.20796350196066"><ele>91.0</ele><time>2026-04-19T10:39:41.998Z</time></trkpt><trkpt lat="40.4614513700856" lon="15.208115299390775"><ele>92.0</ele><time>2026-04-19T10:39:43.998Z</time></trkpt><trkpt lat="40.461465782352576" lon="15.20821421073648"><ele>93.0</ele><time>2026-04-19T10:40:10.999Z</time></trkpt><trkpt lat="40.461471287515465" lon="15.208374549040952"><ele>94.60000000000001</ele><time>2026-04-19T10:40:12.999Z</time></trkpt><trkpt lat="40.461471962182735" lon="15.208492878343536"><ele>96.2</ele><time>2026-04-19T10:40:13.999Z</time></trkpt><trkpt lat="40.461472938785356" lon="15.20861224072478"><ele>97.8</ele><time>2026-04-19T10:40:14.999Z</time></trkpt><trkpt lat="40.46146884229225" lon="15.208736946640043"><ele>99.4</ele><time>2026-04-19T10:40:16Z</time></trkpt><trkpt lat="40.46143703617883" lon="15.208843793706018"><ele>101.0</ele><time>2026-04-19T10:40:17Z</time></trkpt><trkpt lat="40.46138827038072" lon="15.208955450821517"><ele>100.75</ele><time>2026-04-19T10:40:18Z</time></trkpt><trkpt lat="40.46130707374958" lon="15.209056402434955"><ele>100.5</ele><time>2026-04-19T10:40:19Z</time></trkpt><trkpt lat="40.46121779687519" lon="15.209168914052047"><ele>100.25</ele><time>2026-04-19T10:40:20Z</time></trkpt><trkpt lat="40.46113382326155" lon="15.20931099553611"><ele>100.0</ele><time>2026-04-19T10:40:21Z</time></trkpt><trkpt lat="40.46103604018821" lon="15.209425389281748"><ele>100.0</ele><time>2026-04-19T10:40:22Z</time></trkpt><trkpt lat="40.46094302618942" lon="15.209545785752153"><ele>100.0</ele><time>2026-04-19T10:40:23Z</time></trkpt><trkpt lat="40.46086831967159" lon="15.209643734900027"><ele>100.0</ele><time>2026-04-19T10:40:24Z</time></trkpt><trkpt lat="40.460796074653494" lon="15.20972949017923"><ele>100.0</ele><time>2026-04-19T10:40:25Z</time></trkpt><trkpt lat="40.460734553277355" lon="15.209814709068635"><ele>100.0</ele><time>2026-04-19T10:40:26Z</time></trkpt><trkpt lat="40.46067646883417" lon="15.209920533982254"><ele>101.8</ele><time>2026-04-19T10:40:27Z</time></trkpt><trkpt lat="40.46063048080362" lon="15.210034493312923"><ele>103.6</ele><time>2026-04-19T10:40:28Z</time></trkpt><trkpt lat="40.46058958720629" lon="15.210160008105824"><ele>105.4</ele><time>2026-04-19T10:40:29Z</time></trkpt><trkpt lat="40.46054937951332" lon="15.210291883290413"><ele>107.2</ele><time>2026-04-19T10:40:30Z</time></trkpt><trkpt lat="40.46051406295712" lon="15.210432490860196"><ele>109.0</ele><time>2026-04-19T10:40:31Z</time></trkpt><trkpt lat="40.4604802165813" lon="15.210566738909588"><ele>109.75</ele><time>2026-04-19T10:40:32Z</time></trkpt><trkpt lat="40.46045410079596" lon="15.210706930880782"><ele>110.5</ele><time>2026-04-19T10:40:33Z</time></trkpt><trkpt lat="40.46042476674854" lon="15.210849455478503"><ele>111.25</ele><time>2026-04-19T10:40:34Z</time></trkpt><trkpt lat="40.46039898402036" lon="15.211008290672481"><ele>112.0</ele><time>2026-04-19T10:40:35Z</time></trkpt><trkpt lat="40.460370428021854" lon="15.211187671674706"><ele>110.5</ele><time>2026-04-19T10:40:36Z</time></trkpt><trkpt lat="40.460340258918166" lon="15.211356110514394"><ele>109.0</ele><time>2026-04-19T10:40:37Z</time></trkpt><trkpt lat="40.4603082116009" lon="15.211517436961937"><ele>107.5</ele><time>2026-04-19T10:40:38Z</time></trkpt><trkpt lat="40.46027693902106" lon="15.211669860420692"><ele>106.0</ele><time>2026-04-19T10:40:39Z</time></trkpt><trkpt lat="40.460246425887554" lon="15.2118176701101"><ele>106.0</ele><time>2026-04-19T10:40:40Z</time></trkpt><trkpt lat="40.46021770356754" lon="15.211962469090862"><ele>106.0</ele><time>2026-04-19T10:40:41Z</time></trkpt><trkpt lat="40.46020219368418" lon="15.212062267778169"><ele>106.0</ele><time>2026-04-19T10:40:42Z</time></trkpt><trkpt lat="40.460183574591305" lon="15.21221906860887"><ele>106.0</ele><time>2026-04-19T10:40:43Z</time></trkpt><trkpt lat="40.46018569723104" lon="15.212346187484501"><ele>106.0</ele><time>2026-04-19T10:40:44Z</time></trkpt><trkpt lat="40.46019398937909" lon="15.212504022456766"><ele>108.0</ele><time>2026-04-19T10:40:45Z</time></trkpt><trkpt lat="40.46024456059287" lon="15.21263930637749"><ele>110.0</ele><time>2026-04-19T10:40:46Z</time></trkpt><trkpt lat="40.46026921951157" lon="15.212786686576944"><ele>112.0</ele><time>2026-04-19T10:40:47Z</time></trkpt><trkpt lat="40.460272782602715" lon="15.212927380650044"><ele>114.0</ele><time>2026-04-19T10:40:48Z</time></trkpt><trkpt lat="40.46029277233372" lon="15.213104018066558"><ele>115.25</ele><time>2026-04-19T10:40:49Z</time></trkpt><trkpt lat="40.46030029034312" lon="15.213261331178611"><ele>116.5</ele><time>2026-04-19T10:40:50Z</time></trkpt><trkpt lat="40.46029950096817" lon="15.213411396162575"><ele>117.75</ele><time>2026-04-19T10:40:51Z</time></trkpt><trkpt lat="40.46029655110084" lon="15.21356055780743"><ele>119.0</ele><time>2026-04-19T10:40:52Z</time></trkpt><trkpt lat="40.46028153388824" lon="15.21371595488488"><ele>119.0</ele><time>2026-04-19T10:40:53Z</time></trkpt><trkpt lat="40.46026394644637" lon="15.213878972167624"><ele>119.0</ele><time>2026-04-19T10:40:54Z</time></trkpt><trkpt lat="40.46023811321175" lon="15.214029192184725"><ele>119.0</ele><time>2026-04-19T10:40:55Z</time></trkpt><trkpt lat="40.460194980268476" lon="15.214144387359058"><ele>119.0</ele><time>2026-04-19T10:40:56Z</time></trkpt><trkpt lat="40.460158660544785" lon="15.214241598561125"><ele>119.0</ele><time>2026-04-19T10:40:57Z</time></trkpt><trkpt lat="40.460119087691844" lon="15.21436468502417"><ele>120.0</ele><time>2026-04-19T10:40:58Z</time></trkpt><trkpt lat="40.460045124134226" lon="15.214474442301599"><ele>121.0</ele><time>2026-04-19T10:40:59Z</time></trkpt><trkpt lat="40.459969165574755" lon="15.214572392512222"><ele>122.0</ele><time>2026-04-19T10:41:00Z</time></trkpt><trkpt lat="40.4598806149412" lon="15.21467630317488"><ele>123.0</ele><time>2026-04-19T10:41:01Z</time></trkpt><trkpt lat="40.459793913310705" lon="15.214769529638685"><ele>124.0</ele><time>2026-04-19T10:41:02Z</time></trkpt><trkpt lat="40.459727798986314" lon="15.214853166924392"><ele>124.0</ele><time>2026-04-19T10:41:03Z</time></trkpt><trkpt lat="40.45967095777116" lon="15.214923858622747"><ele>124.0</ele><time>2026-04-19T10:41:04Z</time></trkpt><trkpt lat="40.45963836144967" lon="15.215004741203611"><ele>124.0</ele><time>2026-04-19T10:41:05Z</time></trkpt><trkpt lat="40.45957115195104" lon="15.215163552136838"><ele>124.0</ele><time>2026-04-19T10:41:07Z</time></trkpt><trkpt lat="40.45952876061727" lon="15.215256839127589"><ele>124.0</ele><time>2026-04-19T10:41:08Z</time></trkpt><trkpt lat="40.45947678145992" lon="15.21535692331394"><ele>124.5</ele><time>2026-04-19T10:41:09Z</time></trkpt><trkpt lat="40.45944203641739" lon="15.215490237692814"><ele>125.0</ele><time>2026-04-19T10:41:10Z</time></trkpt><trkpt lat="40.459412581552435" lon="15.215651960115087"><ele>125.5</ele><time>2026-04-19T10:41:11Z</time></trkpt><trkpt lat="40.45937035087979" lon="15.215821756370628"><ele>126.0</ele><time>2026-04-19T10:41:12Z</time></trkpt><trkpt lat="40.45933025826719" lon="15.215960957293964"><ele>127.0</ele><time>2026-04-19T10:41:13Z</time></trkpt><trkpt lat="40.459292483196286" lon="15.21608463383275"><ele>128.0</ele><time>2026-04-19T10:41:14Z</time></trkpt><trkpt lat="40.45926184755723" lon="15.216214630049231"><ele>129.0</ele><time>2026-04-19T10:41:16.001Z</time></trkpt><trkpt lat="40.45923583327518" lon="15.216332259979378"><ele>130.0</ele><time>2026-04-19T10:41:18.001Z</time></trkpt><trkpt lat="40.4592077204098" lon="15.216445405046256"><ele>131.0</ele><time>2026-04-19T10:41:20.001Z</time></trkpt><trkpt lat="40.45918346414373" lon="15.216567128261092"><ele>131.33333333333331</ele><time>2026-04-19T10:41:22.001Z</time></trkpt><trkpt lat="40.45917047342898" lon="15.2166503985902"><ele>131.66666666666666</ele><time>2026-04-19T10:41:23.001Z</time></trkpt><trkpt lat="40.459157505126484" lon="15.216735173789704"><ele>132.0</ele><time>2026-04-19T10:41:24.001Z</time></trkpt><trkpt lat="40.45912382759718" lon="15.216872951701227"><ele>132.33333333333334</ele><time>2026-04-19T10:41:26.001Z</time></trkpt><trkpt lat="40.459110390351796" lon="15.21696168921041"><ele>132.66666666666669</ele><time>2026-04-19T10:41:27.001Z</time></trkpt><trkpt lat="40.45909071385431" lon="15.2170970466005"><ele>133.0</ele><time>2026-04-19T10:41:29.001Z</time></trkpt><trkpt lat="40.459075050253844" lon="15.21720903908702"><ele>133.4</ele><time>2026-04-19T10:41:31.001Z</time></trkpt><trkpt lat="40.45906467285023" lon="15.217330411800917"><ele>133.8</ele><time>2026-04-19T10:41:33.001Z</time></trkpt><trkpt lat="40.45903175031754" lon="15.21749142551673"><ele>134.2</ele><time>2026-04-19T10:41:35.001Z</time></trkpt><trkpt lat="40.45900865932444" lon="15.217588828342402"><ele>134.6</ele><time>2026-04-19T10:41:36.001Z</time></trkpt><trkpt lat="40.45898308635202" lon="15.21769837317082"><ele>135.0</ele><time>2026-04-19T10:41:36.999Z</time></trkpt><trkpt lat="40.458956013833024" lon="15.21780212212943"><ele>135.0</ele><time>2026-04-19T10:41:37.999Z</time></trkpt><trkpt lat="40.458931804688284" lon="15.217896711782766"><ele>135.0</ele><time>2026-04-19T10:41:38.999Z</time></trkpt><trkpt lat="40.458889265401154" lon="15.217989385280836"><ele>135.0</ele><time>2026-04-19T10:41:39.999Z</time></trkpt><trkpt lat="40.45888107265659" lon="15.21809855387727"><ele>135.0</ele><time>2026-04-19T10:41:40.999Z</time></trkpt><trkpt lat="40.45886467286024" lon="15.218233778069866"><ele>135.0</ele><time>2026-04-19T10:41:41.999Z</time></trkpt><trkpt lat="40.458858785479826" lon="15.218386519453581"><ele>135.2</ele><time>2026-04-19T10:41:42.999Z</time></trkpt><trkpt lat="40.45885869278237" lon="15.218543812166851"><ele>135.4</ele><time>2026-04-19T10:41:43.999Z</time></trkpt><trkpt lat="40.4588584663788" lon="15.218682406482616"><ele>135.6</ele><time>2026-04-19T10:41:44.999Z</time></trkpt><trkpt lat="40.458856117151385" lon="15.21881528171702"><ele>135.8</ele><time>2026-04-19T10:41:45.999Z</time></trkpt><trkpt lat="40.45885320021431" lon="15.218952818967791"><ele>136.0</ele><time>2026-04-19T10:41:46.999Z</time></trkpt><trkpt lat="40.45884060473303" lon="15.219092820190598"><ele>136.0</ele><time>2026-04-19T10:41:47.999Z</time></trkpt><trkpt lat="40.45882963392439" lon="15.219221906906215"><ele>136.0</ele><time>2026-04-19T10:41:48.999Z</time></trkpt><trkpt lat="40.458818121226095" lon="15.219339440105214"><ele>136.0</ele><time>2026-04-19T10:41:49.999Z</time></trkpt><trkpt lat="40.45880707469813" lon="15.219446888775014"><ele>136.0</ele><time>2026-04-19T10:41:50.999Z</time></trkpt><trkpt lat="40.45879873702659" lon="15.219538084947292"><ele>136.0</ele><time>2026-04-19T10:41:51.999Z</time></trkpt><trkpt lat="40.4587952129052" lon="15.219653558723003"><ele>136.0</ele><time>2026-04-19T10:41:53.999Z</time></trkpt><trkpt lat="40.4589156121173" lon="15.219760936937766"><ele>136.0</ele><time>2026-04-19T10:41:56.999Z</time></trkpt><trkpt lat="40.45898561562367" lon="15.219763528344684"><ele>136.0</ele><time>2026-04-19T10:41:57.999Z</time></trkpt><trkpt lat="40.459062381150645" lon="15.21976192172069"><ele>136.0</ele><time>2026-04-19T10:41:58.999Z</time></trkpt><trkpt lat="40.45914532967461" lon="15.219752377886604"><ele>136.0</ele><time>2026-04-19T10:41:59.999Z</time></trkpt><trkpt lat="40.45923108513149" lon="15.219733723730645"><ele>136.0</ele><time>2026-04-19T10:42:00.999Z</time></trkpt><trkpt lat="40.45932002054186" lon="15.219715983085528"><ele>136.0</ele><time>2026-04-19T10:42:01.999Z</time></trkpt><trkpt lat="40.45941126151455" lon="15.219694816874107"><ele>136.0</ele><time>2026-04-19T10:42:03Z</time></trkpt><trkpt lat="40.45949742809732" lon="15.21965960010517"><ele>136.0</ele><time>2026-04-19T10:42:04Z</time></trkpt><trkpt lat="40.45957415889966" lon="15.219603912167901"><ele>136.0</ele><time>2026-04-19T10:42:05Z</time></trkpt><trkpt lat="40.459652002079565" lon="15.219547375255187"><ele>136.0</ele><time>2026-04-19T10:42:06Z</time></trkpt><trkpt lat="40.459731383518985" lon="15.219500512963373"><ele>136.0</ele><time>2026-04-19T10:42:07Z</time></trkpt><trkpt lat="40.45981087594767" lon="15.219464040388818"><ele>136.0</ele><time>2026-04-19T10:42:08Z</time></trkpt><trkpt lat="40.45989479640998" lon="15.219442348863497"><ele>134.16666666666669</ele><time>2026-04-19T10:42:09Z</time></trkpt><trkpt lat="40.45998536179914" lon="15.219460684748475"><ele>132.33333333333334</ele><time>2026-04-19T10:42:10Z</time></trkpt><trkpt lat="40.46007383549683" lon="15.21944670010164"><ele>130.5</ele><time>2026-04-19T10:42:11Z</time></trkpt><trkpt lat="40.46015728212599" lon="15.219455250303575"><ele>128.66666666666666</ele><time>2026-04-19T10:42:12Z</time></trkpt><trkpt lat="40.460232163794565" lon="15.219455917655125"><ele>126.83333333333333</ele><time>2026-04-19T10:42:13Z</time></trkpt><trkpt lat="40.4603043301617" lon="15.219456544270159"><ele>125.0</ele><time>2026-04-19T10:42:14Z</time></trkpt><trkpt lat="40.4603829099196" lon="15.21945887076571"><ele>125.99999999999999</ele><time>2026-04-19T10:42:15Z</time></trkpt><trkpt lat="40.46046301932682" lon="15.219479704101104"><ele>127.0</ele><time>2026-04-19T10:42:16Z</time></trkpt><trkpt lat="40.460548167851016" lon="15.219474153605898"><ele>128.0</ele><time>2026-04-19T10:42:17Z</time></trkpt><trkpt lat="40.460635428007635" lon="15.21949002741178"><ele>129.0</ele><time>2026-04-19T10:42:18Z</time></trkpt><trkpt lat="40.46072781349574" lon="15.219505545832146"><ele>130.0</ele><time>2026-04-19T10:42:19Z</time></trkpt><trkpt lat="40.46082011978303" lon="15.219538487186448"><ele>131.0</ele><time>2026-04-19T10:42:20Z</time></trkpt><trkpt lat="40.46090960755752" lon="15.219569874825082"><ele>131.0</ele><time>2026-04-19T10:42:21Z</time></trkpt><trkpt lat="40.46099345043577" lon="15.219617307317671"><ele>131.0</ele><time>2026-04-19T10:42:22Z</time></trkpt><trkpt lat="40.461059303751796" lon="15.219702364411857"><ele>131.0</ele><time>2026-04-19T10:42:23Z</time></trkpt><trkpt lat="40.46112772125208" lon="15.219791005629324"><ele>131.0</ele><time>2026-04-19T10:42:24Z</time></trkpt><trkpt lat="40.46118916286078" lon="15.219875723947602"><ele>131.0</ele><time>2026-04-19T10:42:25Z</time></trkpt><trkpt lat="40.46126187325593" lon="15.219949075837622"><ele>133.83333333333331</ele><time>2026-04-19T10:42:26Z</time></trkpt><trkpt lat="40.461310761443954" lon="15.220022920966827"><ele>136.66666666666666</ele><time>2026-04-19T10:42:27Z</time></trkpt><trkpt lat="40.461360189621224" lon="15.220090051363385"><ele>139.5</ele><time>2026-04-19T10:42:28Z</time></trkpt><trkpt lat="40.461409442617075" lon="15.220165869772874"><ele>142.33333333333334</ele><time>2026-04-19T10:42:29Z</time></trkpt><trkpt lat="40.46145750998886" lon="15.220242710149638"><ele>145.16666666666669</ele><time>2026-04-19T10:42:30Z</time></trkpt><trkpt lat="40.461510951265105" lon="15.220311675030041"><ele>148.0</ele><time>2026-04-19T10:42:31Z</time></trkpt><trkpt lat="40.46160567846214" lon="15.220442952727126"><ele>148.0</ele><time>2026-04-19T10:42:33Z</time></trkpt><trkpt lat="40.46168062832121" lon="15.220486958125315"><ele>148.0</ele><time>2026-04-19T10:42:34Z</time></trkpt><trkpt lat="40.46174200655784" lon="15.22052351794155"><ele>148.0</ele><time>2026-04-19T10:42:35Z</time></trkpt><trkpt lat="40.46183396458281" lon="15.220545888611467"><ele>148.0</ele><time>2026-04-19T10:42:37Z</time></trkpt><trkpt lat="40.461859563775896" lon="15.220639222629181"><ele>148.0</ele><time>2026-04-19T10:42:39Z</time></trkpt><trkpt lat="40.46179011971551" lon="15.220745826375817"><ele>148.0</ele><time>2026-04-19T10:42:41Z</time></trkpt><trkpt lat="40.46174866298302" lon="15.220837913274533"><ele>149.83333333333334</ele><time>2026-04-19T10:42:42Z</time></trkpt><trkpt lat="40.46169523757452" lon="15.220941488284495"><ele>151.66666666666669</ele><time>2026-04-19T10:42:43Z</time></trkpt><trkpt lat="40.4616441324433" lon="15.221040656549667"><ele>153.5</ele><time>2026-04-19T10:42:44Z</time></trkpt><trkpt lat="40.46160001939495" lon="15.221129714093657"><ele>155.33333333333334</ele><time>2026-04-19T10:42:45.001Z</time></trkpt><trkpt lat="40.46157254278735" lon="15.221224302991818"><ele>157.16666666666666</ele><time>2026-04-19T10:42:46.001Z</time></trkpt><trkpt lat="40.461518090467756" lon="15.221295780846967"><ele>159.0</ele><time>2026-04-19T10:42:47.001Z</time></trkpt><trkpt lat="40.46147654397763" lon="15.2213934273769"><ele>160.33333333333334</ele><time>2026-04-19T10:42:48.001Z</time></trkpt><trkpt lat="40.46146045192667" lon="15.22150477962332"><ele>161.66666666666666</ele><time>2026-04-19T10:42:49.001Z</time></trkpt><trkpt lat="40.46145383110014" lon="15.221606753613832"><ele>163.0</ele><time>2026-04-19T10:42:50.001Z</time></trkpt><trkpt lat="40.46143424030186" lon="15.221713668755246"><ele>164.33333333333331</ele><time>2026-04-19T10:42:51.001Z</time></trkpt><trkpt lat="40.4614484836434" lon="15.221821365577167"><ele>165.66666666666666</ele><time>2026-04-19T10:42:52.001Z</time></trkpt><trkpt lat="40.461449864712144" lon="15.221916769087175"><ele>167.0</ele><time>2026-04-19T10:42:53.001Z</time></trkpt><trkpt lat="40.46151776025588" lon="15.221977579233082"><ele>167.0</ele><time>2026-04-19T10:42:54.001Z</time></trkpt><trkpt lat="40.461560861473025" lon="15.222159816271553"><ele>167.0</ele><time>2026-04-19T10:42:56.001Z</time></trkpt><trkpt lat="40.461584391124816" lon="15.222259302431254"><ele>167.0</ele><time>2026-04-19T10:42:57.001Z</time></trkpt><trkpt lat="40.461605400441314" lon="15.22234813231307"><ele>167.0</ele><time>2026-04-19T10:42:58.001Z</time></trkpt><trkpt lat="40.46151790289141" lon="15.222470986885854"><ele>167.0</ele><time>2026-04-19T10:42:59.001Z</time></trkpt><trkpt lat="40.46156360568684" lon="15.222581395811462"><ele>168.0</ele><time>2026-04-19T10:43:00.001Z</time></trkpt><trkpt lat="40.4616000108529" lon="15.222664254397166"><ele>169.0</ele><time>2026-04-19T10:43:01.001Z</time></trkpt><trkpt lat="40.46164538662517" lon="15.222783989760192"><ele>170.0</ele><time>2026-04-19T10:43:03.001Z</time></trkpt><trkpt lat="40.461677711072085" lon="15.222905802667418"><ele>171.0</ele><time>2026-04-19T10:44:11.001Z</time></trkpt><trkpt lat="40.4617096448092" lon="15.223060826116892"><ele>172.0</ele><time>2026-04-19T10:44:13.001Z</time></trkpt><trkpt lat="40.46172135737063" lon="15.223181471212344"><ele>172.0</ele><time>2026-04-19T10:44:15.001Z</time></trkpt><trkpt lat="40.461713544682546" lon="15.223265563842705"><ele>172.0</ele><time>2026-04-19T10:44:17.001Z</time></trkpt><trkpt lat="40.46172776744488" lon="15.223132223608088"><ele>172.0</ele><time>2026-04-19T10:44:44.001Z</time></trkpt><trkpt lat="40.46169358594027" lon="15.222938103401782"><ele>172.0</ele><time>2026-04-19T10:44:46.001Z</time></trkpt><trkpt lat="40.46166417173967" lon="15.222811265712357"><ele>172.0</ele><time>2026-04-19T10:44:47.001Z</time></trkpt><trkpt lat="40.46161900040624" lon="15.222711447683562"><ele>172.0</ele><time>2026-04-19T10:44:48.001Z</time></trkpt><trkpt lat="40.46157453136474" lon="15.222603230790877"><ele>172.0</ele><time>2026-04-19T10:44:49.001Z</time></trkpt><trkpt lat="40.46152911079792" lon="15.222490526725869"><ele>172.0</ele><time>2026-04-19T10:44:50.001Z</time></trkpt><trkpt lat="40.46149642629406" lon="15.222392640391181"><ele>172.0</ele><time>2026-04-19T10:44:51.001Z</time></trkpt><trkpt lat="40.46146508341473" lon="15.222299258359213"><ele>172.0</ele><time>2026-04-19T10:44:52.001Z</time></trkpt><trkpt lat="40.461440296647346" lon="15.222162220387526"><ele>171.16666666666669</ele><time>2026-04-19T10:44:54.001Z</time></trkpt><trkpt lat="40.461444767725894" lon="15.22206846716931"><ele>170.33333333333334</ele><time>2026-04-19T10:44:55.001Z</time></trkpt><trkpt lat="40.461461695757635" lon="15.221910107726659"><ele>169.5</ele><time>2026-04-19T10:44:57.001Z</time></trkpt><trkpt lat="40.46146451206157" lon="15.221806021249103"><ele>168.66666666666666</ele><time>2026-04-19T10:44:58.001Z</time></trkpt><trkpt lat="40.46147026219706" lon="15.221705715389827"><ele>167.83333333333331</ele><time>2026-04-19T10:44:59.001Z</time></trkpt><trkpt lat="40.46147136576714" lon="15.221607845524039"><ele>167.0</ele><time>2026-04-19T10:45:00.001Z</time></trkpt><trkpt lat="40.461477428645296" lon="15.221510491591488"><ele>165.4</ele><time>2026-04-19T10:45:01.001Z</time></trkpt><trkpt lat="40.461504698149874" lon="15.221399487007725"><ele>163.79999999999998</ele><time>2026-04-19T10:45:02.001Z</time></trkpt><trkpt lat="40.461546443984794" lon="15.22129794335881"><ele>162.2</ele><time>2026-04-19T10:45:03.001Z</time></trkpt><trkpt lat="40.46160524861204" lon="15.221193570886053"><ele>160.6</ele><time>2026-04-19T10:45:04.001Z</time></trkpt><trkpt lat="40.461648488147304" lon="15.221078210147162"><ele>159.0</ele><time>2026-04-19T10:45:05.001Z</time></trkpt><trkpt lat="40.46170631118063" lon="15.22096680528657"><ele>159.0</ele><time>2026-04-19T10:45:06.001Z</time></trkpt><trkpt lat="40.46176550290979" lon="15.220849470522948"><ele>159.0</ele><time>2026-04-19T10:45:07.002Z</time></trkpt><trkpt lat="40.461803530409206" lon="15.220764488186601"><ele>159.0</ele><time>2026-04-19T10:45:08.002Z</time></trkpt><trkpt lat="40.46184704923111" lon="15.220685401148234"><ele>159.0</ele><time>2026-04-19T10:45:09.002Z</time></trkpt><trkpt lat="40.46187905761399" lon="15.220589872380982"><ele>159.0</ele><time>2026-04-19T10:45:11.002Z</time></trkpt><trkpt lat="40.46179999827826" lon="15.220488029571415"><ele>159.0</ele><time>2026-04-19T10:45:13.002Z</time></trkpt><trkpt lat="40.46172083980079" lon="15.2204629863562"><ele>156.8</ele><time>2026-04-19T10:45:14.002Z</time></trkpt><trkpt lat="40.46163086063651" lon="15.22043004690836"><ele>154.60000000000002</ele><time>2026-04-19T10:45:15.002Z</time></trkpt><trkpt lat="40.46156325018498" lon="15.220359671438729"><ele>152.4</ele><time>2026-04-19T10:45:16.002Z</time></trkpt><trkpt lat="40.46151052267209" lon="15.220269461568709"><ele>150.20000000000002</ele><time>2026-04-19T10:45:17.002Z</time></trkpt><trkpt lat="40.46144275558883" lon="15.220170762055615"><ele>148.0</ele><time>2026-04-19T10:45:18.002Z</time></trkpt><trkpt lat="40.461378593707344" lon="15.220077611464477"><ele>148.0</ele><time>2026-04-19T10:45:19.002Z</time></trkpt><trkpt lat="40.4613029820832" lon="15.219969716862463"><ele>148.0</ele><time>2026-04-19T10:45:20.002Z</time></trkpt><trkpt lat="40.46123118863287" lon="15.21987039911969"><ele>148.0</ele><time>2026-04-19T10:45:21.002Z</time></trkpt><trkpt lat="40.46115107920777" lon="15.21975989416753"><ele>148.0</ele><time>2026-04-19T10:45:22.002Z</time></trkpt><trkpt lat="40.46107675202454" lon="15.219668911494518"><ele>148.0</ele><time>2026-04-19T10:45:23.002Z</time></trkpt><trkpt lat="40.46100812247911" lon="15.219602468336188"><ele>145.16666666666669</ele><time>2026-04-19T10:45:24.002Z</time></trkpt><trkpt lat="40.460942142574005" lon="15.219560498847787"><ele>142.33333333333334</ele><time>2026-04-19T10:45:25.002Z</time></trkpt><trkpt lat="40.46086831794991" lon="15.219526085607642"><ele>139.5</ele><time>2026-04-19T10:45:26.002Z</time></trkpt><trkpt lat="40.46077775135257" lon="15.21949429308744"><ele>136.66666666666666</ele><time>2026-04-19T10:45:27.002Z</time></trkpt><trkpt lat="40.460694085313555" lon="15.219468795785653"><ele>133.83333333333331</ele><time>2026-04-19T10:45:28.002Z</time></trkpt><trkpt lat="40.46060639201232" lon="15.219451602705961"><ele>131.0</ele><time>2026-04-19T10:45:29.002Z</time></trkpt><trkpt lat="40.46052519421904" lon="15.219441811356331"><ele>129.8</ele><time>2026-04-19T10:45:30.002Z</time></trkpt><trkpt lat="40.460426160978884" lon="15.219451145853567"><ele>128.6</ele><time>2026-04-19T10:45:31.002Z</time></trkpt><trkpt lat="40.460336244615576" lon="15.219449209499222"><ele>127.4</ele><time>2026-04-19T10:45:32.002Z</time></trkpt><trkpt lat="40.46024159946534" lon="15.219444996793763"><ele>126.2</ele><time>2026-04-19T10:45:33.002Z</time></trkpt><trkpt lat="40.4601381870789" lon="15.219422287548099"><ele>125.0</ele><time>2026-04-19T10:45:34.002Z</time></trkpt><trkpt lat="40.460034560652545" lon="15.219418594852037"><ele>125.0</ele><time>2026-04-19T10:45:35.002Z</time></trkpt><trkpt lat="40.45992854612214" lon="15.219432014274025"><ele>125.0</ele><time>2026-04-19T10:45:36.002Z</time></trkpt><trkpt lat="40.459813898158735" lon="15.219438546223898"><ele>125.0</ele><time>2026-04-19T10:45:37.002Z</time></trkpt><trkpt lat="40.459719839117824" lon="15.219478613753521"><ele>125.0</ele><time>2026-04-19T10:45:38.002Z</time></trkpt><trkpt lat="40.45962814065316" lon="15.219546662468272"><ele>125.0</ele><time>2026-04-19T10:45:39.002Z</time></trkpt><trkpt lat="40.459525804021254" lon="15.219606009884002"><ele>127.2</ele><time>2026-04-19T10:45:40.002Z</time></trkpt><trkpt lat="40.4594271769083" lon="15.219662651413433"><ele>129.4</ele><time>2026-04-19T10:45:41.002Z</time></trkpt><trkpt lat="40.45932229115832" lon="15.219689658609848"><ele>131.6</ele><time>2026-04-19T10:45:42.002Z</time></trkpt><trkpt lat="40.45922414802973" lon="15.21970919674967"><ele>133.8</ele><time>2026-04-19T10:45:43.002Z</time></trkpt><trkpt lat="40.459104954094606" lon="15.219727357324274"><ele>136.0</ele><time>2026-04-19T10:45:44.002Z</time></trkpt><trkpt lat="40.45899704867111" lon="15.219730048710009"><ele>136.0</ele><time>2026-04-19T10:45:45.002Z</time></trkpt><trkpt lat="40.45890975727598" lon="15.219721364678126"><ele>136.0</ele><time>2026-04-19T10:45:46.002Z</time></trkpt><trkpt lat="40.4588185715652" lon="15.219697240260034"><ele>136.0</ele><time>2026-04-19T10:45:48.002Z</time></trkpt><trkpt lat="40.45893159311225" lon="15.21972470916349"><ele>136.0</ele><time>2026-04-19T10:45:56.001Z</time></trkpt><trkpt lat="40.45904457332457" lon="15.21973876212331"><ele>136.0</ele><time>2026-04-19T10:45:58.001Z</time></trkpt><trkpt lat="40.459108304957724" lon="15.219760034756758"><ele>136.0</ele><time>2026-04-19T10:45:59.001Z</time></trkpt><trkpt lat="40.45918221836185" lon="15.21972504245515"><ele>136.0</ele><time>2026-04-19T10:46:00.001Z</time></trkpt><trkpt lat="40.45926230838088" lon="15.219717286711068"><ele>136.0</ele><time>2026-04-19T10:46:01.001Z</time></trkpt><trkpt lat="40.459343312269" lon="15.219704605734007"><ele>136.0</ele><time>2026-04-19T10:46:02.001Z</time></trkpt><trkpt lat="40.459424840553844" lon="15.219690778123326"><ele>136.0</ele><time>2026-04-19T10:46:03.001Z</time></trkpt><trkpt lat="40.45949604124834" lon="15.219656476002694"><ele>136.0</ele><time>2026-04-19T10:46:04.001Z</time></trkpt><trkpt lat="40.45955545414656" lon="15.219611895189887"><ele>134.16666666666669</ele><time>2026-04-19T10:46:05.001Z</time></trkpt><trkpt lat="40.459626678970494" lon="15.21957191396938"><ele>132.33333333333334</ele><time>2026-04-19T10:46:06.001Z</time></trkpt><trkpt lat="40.45969116405455" lon="15.219527804518982"><ele>130.5</ele><time>2026-04-19T10:46:07.001Z</time></trkpt><trkpt lat="40.45975756640767" lon="15.219487806891832"><ele>128.66666666666666</ele><time>2026-04-19T10:46:08.001Z</time></trkpt><trkpt lat="40.45982931081467" lon="15.219460443335446"><ele>126.83333333333333</ele><time>2026-04-19T10:46:09.001Z</time></trkpt><trkpt lat="40.45991325184092" lon="15.219443510030823"><ele>125.0</ele><time>2026-04-19T10:46:10.001Z</time></trkpt><trkpt lat="40.46001738620827" lon="15.219455977012208"><ele>125.0</ele><time>2026-04-19T10:46:11.001Z</time></trkpt><trkpt lat="40.460106795636214" lon="15.219460787475782"><ele>125.0</ele><time>2026-04-19T10:46:12.001Z</time></trkpt><trkpt lat="40.46021371478938" lon="15.219464599504265"><ele>125.0</ele><time>2026-04-19T10:46:13.001Z</time></trkpt><trkpt lat="40.46031590726929" lon="15.219461545955344"><ele>125.0</ele><time>2026-04-19T10:46:14.001Z</time></trkpt><trkpt lat="40.460412922060144" lon="15.219468049603396"><ele>125.0</ele><time>2026-04-19T10:46:15.001Z</time></trkpt><trkpt lat="40.46051098000085" lon="15.219471899201753"><ele>126.2</ele><time>2026-04-19T10:46:16.001Z</time></trkpt><trkpt lat="40.46059652118561" lon="15.21949150180571"><ele>127.4</ele><time>2026-04-19T10:46:17.001Z</time></trkpt><trkpt lat="40.46069198875169" lon="15.219507120566105"><ele>128.6</ele><time>2026-04-19T10:46:18.001Z</time></trkpt><trkpt lat="40.46078351099059" lon="15.219532694230951"><ele>129.8</ele><time>2026-04-19T10:46:19.001Z</time></trkpt><trkpt lat="40.46088330894296" lon="15.219574735730914"><ele>131.0</ele><time>2026-04-19T10:46:20.001Z</time></trkpt><trkpt lat="40.46097683428815" lon="15.21961499652065"><ele>131.0</ele><time>2026-04-19T10:46:21.001Z</time></trkpt><trkpt lat="40.46104876145122" lon="15.219665620882141"><ele>131.0</ele><time>2026-04-19T10:46:22.001Z</time></trkpt><trkpt lat="40.46111564232169" lon="15.219756356679145"><ele>131.0</ele><time>2026-04-19T10:46:23.001Z</time></trkpt><trkpt lat="40.461197791102144" lon="15.219860100826466"><ele>131.0</ele><time>2026-04-19T10:46:24.001Z</time></trkpt><trkpt lat="40.46126754242756" lon="15.219984152358736"><ele>131.0</ele><time>2026-04-19T10:46:25.001Z</time></trkpt><trkpt lat="40.461345866362024" lon="15.220095234582882"><ele>134.4</ele><time>2026-04-19T10:46:26.001Z</time></trkpt><trkpt lat="40.46142371416975" lon="15.220186053565088"><ele>137.8</ele><time>2026-04-19T10:46:27.001Z</time></trkpt><trkpt lat="40.46147092082349" lon="15.220264345317318"><ele>141.20000000000002</ele><time>2026-04-19T10:46:28.001Z</time></trkpt><trkpt lat="40.461600189242205" lon="15.220158403015217"><ele>144.6</ele><time>2026-04-19T10:46:33.001Z</time></trkpt><trkpt lat="40.46163984620952" lon="15.22002349367171"><ele>148.0</ele><time>2026-04-19T10:46:35.001Z</time></trkpt><trkpt lat="40.46168164777126" lon="15.219861990008532"><ele>146.83333333333334</ele><time>2026-04-19T10:46:37.001Z</time></trkpt><trkpt lat="40.461706718736274" lon="15.219765782051624"><ele>145.66666666666669</ele><time>2026-04-19T10:46:38.001Z</time></trkpt><trkpt lat="40.461733811482915" lon="15.219647138613023"><ele>144.5</ele><time>2026-04-19T10:46:39.001Z</time></trkpt><trkpt lat="40.46176350824043" lon="15.219525853722741"><ele>143.33333333333334</ele><time>2026-04-19T10:46:40.001Z</time></trkpt><trkpt lat="40.46179184376515" lon="15.219407209331308"><ele>142.16666666666666</ele><time>2026-04-19T10:46:41.001Z</time></trkpt><trkpt lat="40.46181753976183" lon="15.219302003238907"><ele>141.0</ele><time>2026-04-19T10:46:42.001Z</time></trkpt><trkpt lat="40.461844058152025" lon="15.21918825698721"><ele>141.0</ele><time>2026-04-19T10:46:43.001Z</time></trkpt><trkpt lat="40.46187097153879" lon="15.219082940570392"><ele>141.0</ele><time>2026-04-19T10:46:44.001Z</time></trkpt><trkpt lat="40.46191315704547" lon="15.218912537787125"><ele>141.0</ele><time>2026-04-19T10:46:46.001Z</time></trkpt><trkpt lat="40.46194874709056" lon="15.218782653306441"><ele>141.0</ele><time>2026-04-19T10:46:48.001Z</time></trkpt><trkpt lat="40.46197322833919" lon="15.218684363178062"><ele>141.0</ele><time>2026-04-19T10:46:49.001Z</time></trkpt><trkpt lat="40.46200562559182" lon="15.218578959924091"><ele>140.0</ele><time>2026-04-19T10:46:50.001Z</time></trkpt><trkpt lat="40.46204920624932" lon="15.218495252652719"><ele>139.0</ele><time>2026-04-19T10:46:51.001Z</time></trkpt><trkpt lat="40.46206299517967" lon="15.218390797135491"><ele>138.0</ele><time>2026-04-19T10:46:52.001Z</time></trkpt><trkpt lat="40.462091995227574" lon="15.218290509220479"><ele>137.0</ele><time>2026-04-19T10:46:53.001Z</time></trkpt><trkpt lat="40.46211446791273" lon="15.218195056010126"><ele>136.0</ele><time>2026-04-19T10:46:54.001Z</time></trkpt><trkpt lat="40.462134297159764" lon="15.218105512931706"><ele>135.0</ele><time>2026-04-19T10:46:55.001Z</time></trkpt><trkpt lat="40.462168105501895" lon="15.218023553061792"><ele>134.5</ele><time>2026-04-19T10:46:56.001Z</time></trkpt><trkpt lat="40.46218748739994" lon="15.217940373353217"><ele>134.0</ele><time>2026-04-19T10:46:57.001Z</time></trkpt><trkpt lat="40.462216768539356" lon="15.217814710112496"><ele>133.5</ele><time>2026-04-19T10:46:59.001Z</time></trkpt><trkpt lat="40.46222506551949" lon="15.217715503157178"><ele>133.0</ele><time>2026-04-19T10:47:02.001Z</time></trkpt><trkpt lat="40.46225863307154" lon="15.217611213795387"><ele>132.5</ele><time>2026-04-19T10:47:45.002Z</time></trkpt><trkpt lat="40.46229769085326" lon="15.217482979546414"><ele>132.0</ele><time>2026-04-19T10:47:47.002Z</time></trkpt><trkpt lat="40.462321468567396" lon="15.217400508363747"><ele>132.0</ele><time>2026-04-19T10:47:48.002Z</time></trkpt><trkpt lat="40.46235953563048" lon="15.217333793337495"><ele>132.0</ele><time>2026-04-19T10:47:49.002Z</time></trkpt><trkpt lat="40.46244543041373" lon="15.217251674535346"><ele>132.0</ele><time>2026-04-19T10:47:51.002Z</time></trkpt><trkpt lat="40.46239929845502" lon="15.2171204160794"><ele>132.0</ele><time>2026-04-19T10:47:52.002Z</time></trkpt><trkpt lat="40.46241301039128" lon="15.21696692451463"><ele>132.0</ele><time>2026-04-19T10:47:54.002Z</time></trkpt><trkpt lat="40.462459234059494" lon="15.216857761452799"><ele>131.6</ele><time>2026-04-19T10:47:56.001Z</time></trkpt><trkpt lat="40.46249614508512" lon="15.216752318809865"><ele>131.2</ele><time>2026-04-19T10:47:58.001Z</time></trkpt><trkpt lat="40.462533984555265" lon="15.216651880488365"><ele>130.8</ele><time>2026-04-19T10:48:01.001Z</time></trkpt><trkpt lat="40.46255294848884" lon="15.2165399881268"><ele>130.4</ele><time>2026-04-19T10:48:03.001Z</time></trkpt><trkpt lat="40.462612889193146" lon="15.216482702445974"><ele>130.0</ele><time>2026-04-19T10:48:10.001Z</time></trkpt><trkpt lat="40.462724864185816" lon="15.216518851666798"><ele>129.66666666666669</ele><time>2026-04-19T10:48:12.001Z</time></trkpt><trkpt lat="40.462781096257466" lon="15.216558785311229"><ele>129.33333333333334</ele><time>2026-04-19T10:48:13.001Z</time></trkpt><trkpt lat="40.46286747827758" lon="15.216584483898453"><ele>129.0</ele><time>2026-04-19T10:48:15.001Z</time></trkpt><trkpt lat="40.462958442573495" lon="15.216613272619135"><ele>128.66666666666666</ele><time>2026-04-19T10:48:17.001Z</time></trkpt><trkpt lat="40.463038533249915" lon="15.216634049039751"><ele>128.33333333333331</ele><time>2026-04-19T10:48:19.001Z</time></trkpt><trkpt lat="40.46314985187223" lon="15.21664468878975"><ele>128.0</ele><time>2026-04-19T10:48:21.001Z</time></trkpt><trkpt lat="40.463212329168485" lon="15.21666336975643"><ele>128.0</ele><time>2026-04-19T10:48:22.001Z</time></trkpt><trkpt lat="40.46331218148649" lon="15.216708885180568"><ele>128.0</ele><time>2026-04-19T10:48:24.001Z</time></trkpt><trkpt lat="40.46340979130703" lon="15.216745160150653"><ele>128.0</ele><time>2026-04-19T10:48:26.001Z</time></trkpt><trkpt lat="40.463499997161705" lon="15.216795849370232"><ele>128.0</ele><time>2026-04-19T10:48:28.001Z</time></trkpt><trkpt lat="40.46359135449492" lon="15.216824298147019"><ele>128.0</ele><time>2026-04-19T10:48:30.001Z</time></trkpt><trkpt lat="40.46368155574046" lon="15.216859020991757"><ele>127.99999999999999</ele><time>2026-04-19T10:48:32.001Z</time></trkpt><trkpt lat="40.46376973616938" lon="15.216891200914082"><ele>128.0</ele><time>2026-04-19T10:48:35.001Z</time></trkpt><trkpt lat="40.46383709790703" lon="15.2169260326256"><ele>128.0</ele><time>2026-04-19T10:48:39.001Z</time></trkpt><trkpt lat="40.46378075537952" lon="15.21686787262878"><ele>128.0</ele><time>2026-04-19T10:49:13.001Z</time></trkpt><trkpt lat="40.463709268300526" lon="15.216849353103937"><ele>127.99999999999999</ele><time>2026-04-19T10:49:15.001Z</time></trkpt><trkpt lat="40.463625126996746" lon="15.216825523431677"><ele>128.0</ele><time>2026-04-19T10:49:17.001Z</time></trkpt><trkpt lat="40.46348244838741" lon="15.216767716266837"><ele>128.0</ele><time>2026-04-19T10:49:19.001Z</time></trkpt><trkpt lat="40.4633765624719" lon="15.216720657691292"><ele>128.0</ele><time>2026-04-19T10:49:21.001Z</time></trkpt><trkpt lat="40.46328679795087" lon="15.216685363914078"><ele>128.0</ele><time>2026-04-19T10:49:23.001Z</time></trkpt><trkpt lat="40.46320278236162" lon="15.216654764520456"><ele>128.0</ele><time>2026-04-19T10:49:25.001Z</time></trkpt><trkpt lat="40.463127009698354" lon="15.216629381853638"><ele>128.0</ele><time>2026-04-19T10:49:27.001Z</time></trkpt><trkpt lat="40.463039062071566" lon="15.216609921098895"><ele>128.0</ele><time>2026-04-19T10:49:29.001Z</time></trkpt><trkpt lat="40.46297206123949" lon="15.21658960310353"><ele>127.99999999999999</ele><time>2026-04-19T10:49:31.001Z</time></trkpt><trkpt lat="40.462892015532894" lon="15.216569051515654"><ele>128.0</ele><time>2026-04-19T10:49:34.001Z</time></trkpt><trkpt lat="40.46280389706898" lon="15.216544975802936"><ele>128.0</ele><time>2026-04-19T10:49:37.001Z</time></trkpt><trkpt lat="40.46273841846306" lon="15.216523221883032"><ele>127.99999999999999</ele><time>2026-04-19T10:49:39.001Z</time></trkpt><trkpt lat="40.462670876210716" lon="15.216496369633601"><ele>128.0</ele><time>2026-04-19T10:49:41.001Z</time></trkpt><trkpt lat="40.46260824448988" lon="15.216475956335"><ele>128.0</ele><time>2026-04-19T10:49:43.001Z</time></trkpt><trkpt lat="40.462535966209344" lon="15.216514298769509"><ele>127.80000000000001</ele><time>2026-04-19T10:49:46.001Z</time></trkpt><trkpt lat="40.46251149527714" lon="15.216625133624582"><ele>127.60000000000001</ele><time>2026-04-19T10:49:48.001Z</time></trkpt><trkpt lat="40.462485066252" lon="15.216748453992533"><ele>127.39999999999999</ele><time>2026-04-19T10:49:50.002Z</time></trkpt><trkpt lat="40.46244406029711" lon="15.216852343390208"><ele>127.19999999999999</ele><time>2026-04-19T10:49:52.002Z</time></trkpt><trkpt lat="40.46241418788493" lon="15.216947103510064"><ele>127.0</ele><time>2026-04-19T10:49:54.002Z</time></trkpt><trkpt lat="40.46239051265666" lon="15.21707164099171"><ele>127.00000000000001</ele><time>2026-04-19T10:49:56.002Z</time></trkpt><trkpt lat="40.46237859492687" lon="15.217187524145025"><ele>127.0</ele><time>2026-04-19T10:49:58.002Z</time></trkpt><trkpt lat="40.462344028637744" lon="15.2172945258724"><ele>127.0</ele><time>2026-04-19T10:50:00.002Z</time></trkpt><trkpt lat="40.46232195749535" lon="15.217372469757263"><ele>127.0</ele><time>2026-04-19T10:50:01Z</time></trkpt><trkpt lat="40.4622965247259" lon="15.217456648882596"><ele>127.00000000000001</ele><time>2026-04-19T10:50:02Z</time></trkpt><trkpt lat="40.46226265827936" lon="15.217550347427533"><ele>127.0</ele><time>2026-04-19T10:50:03Z</time></trkpt><trkpt lat="40.46222677532035" lon="15.217654569444976"><ele>128.0</ele><time>2026-04-19T10:50:04Z</time></trkpt><trkpt lat="40.462198403626054" lon="15.217774614819648"><ele>129.0</ele><time>2026-04-19T10:50:05Z</time></trkpt><trkpt lat="40.462172950498754" lon="15.217903625261506"><ele>130.0</ele><time>2026-04-19T10:50:06Z</time></trkpt><trkpt lat="40.4621427676793" lon="15.218030353482964"><ele>131.0</ele><time>2026-04-19T10:50:07Z</time></trkpt><trkpt lat="40.46211861642631" lon="15.21813988655889"><ele>132.0</ele><time>2026-04-19T10:50:08Z</time></trkpt><trkpt lat="40.4620792006758" lon="15.218242398646737"><ele>132.6</ele><time>2026-04-19T10:50:09Z</time></trkpt><trkpt lat="40.46204988712686" lon="15.218359329872436"><ele>133.2</ele><time>2026-04-19T10:50:10Z</time></trkpt><trkpt lat="40.462030264991824" lon="15.21849059556637"><ele>133.8</ele><time>2026-04-19T10:50:11Z</time></trkpt><trkpt lat="40.46198046926323" lon="15.218602467665571"><ele>134.4</ele><time>2026-04-19T10:50:12Z</time></trkpt><trkpt lat="40.4619427642615" lon="15.218723443951067"><ele>135.0</ele><time>2026-04-19T10:50:13Z</time></trkpt><trkpt lat="40.46191565108754" lon="15.21887986875027"><ele>135.0</ele><time>2026-04-19T10:50:15Z</time></trkpt><trkpt lat="40.461877723163916" lon="15.218963597243517"><ele>135.0</ele><time>2026-04-19T10:50:16Z</time></trkpt><trkpt lat="40.4618490616459" lon="15.219080843479544"><ele>135.0</ele><time>2026-04-19T10:50:17Z</time></trkpt><trkpt lat="40.46181178904606" lon="15.219230725935775"><ele>135.0</ele><time>2026-04-19T10:50:18Z</time></trkpt><trkpt lat="40.4617687898743" lon="15.219408210645968"><ele>135.0</ele><time>2026-04-19T10:50:19Z</time></trkpt><trkpt lat="40.461739420332144" lon="15.219592080250242"><ele>136.2</ele><time>2026-04-19T10:50:20Z</time></trkpt><trkpt lat="40.461700856083844" lon="15.219749294165407"><ele>137.4</ele><time>2026-04-19T10:50:21Z</time></trkpt><trkpt lat="40.46166431118554" lon="15.219894114566829"><ele>138.6</ele><time>2026-04-19T10:50:22Z</time></trkpt><trkpt lat="40.461618612206706" lon="15.220018308273511"><ele>139.8</ele><time>2026-04-19T10:50:23Z</time></trkpt><trkpt lat="40.46159073548627" lon="15.220119009870311"><ele>141.0</ele><time>2026-04-19T10:50:24Z</time></trkpt><trkpt lat="40.461538569697424" lon="15.220222887644873"><ele>142.4</ele><time>2026-04-19T10:50:26Z</time></trkpt><trkpt lat="40.46149010189025" lon="15.22027943429031"><ele>143.8</ele><time>2026-04-19T10:50:30Z</time></trkpt><trkpt lat="40.461582540009246" lon="15.220425409613437"><ele>145.20000000000002</ele><time>2026-04-19T10:50:33Z</time></trkpt><trkpt lat="40.4616778141386" lon="15.22046715667437"><ele>146.6</ele><time>2026-04-19T10:50:34Z</time></trkpt><trkpt lat="40.4617520791376" lon="15.220529517544412"><ele>148.0</ele><time>2026-04-19T10:50:35Z</time></trkpt><trkpt lat="40.46182626346765" lon="15.22055087903636"><ele>148.0</ele><time>2026-04-19T10:50:36Z</time></trkpt><trkpt lat="40.46191099711913" lon="15.220606739765476"><ele>148.0</ele><time>2026-04-19T10:50:39Z</time></trkpt><trkpt lat="40.461989428158766" lon="15.220579225699638"><ele>148.0</ele><time>2026-04-19T10:50:40Z</time></trkpt><trkpt lat="40.46206062304331" lon="15.220582873753957"><ele>148.0</ele><time>2026-04-19T10:50:41Z</time></trkpt><trkpt lat="40.462126895142575" lon="15.220622306689881"><ele>148.0</ele><time>2026-04-19T10:50:42Z</time></trkpt><trkpt lat="40.46222782195747" lon="15.220643972753304"><ele>148.0</ele><time>2026-04-19T10:50:44Z</time></trkpt><trkpt lat="40.46233305474832" lon="15.220727045310154"><ele>148.0</ele><time>2026-04-19T10:50:46Z</time></trkpt><trkpt lat="40.462429856323624" lon="15.22078337362874"><ele>148.0</ele><time>2026-04-19T10:50:48Z</time></trkpt><trkpt lat="40.46252756049212" lon="15.220816313611444"><ele>148.0</ele><time>2026-04-19T10:50:50Z</time></trkpt><trkpt lat="40.46260476474019" lon="15.220866357043883"><ele>148.0</ele><time>2026-04-19T10:50:52Z</time></trkpt><trkpt lat="40.462693328321265" lon="15.220914142604684"><ele>148.0</ele><time>2026-04-19T10:50:54Z</time></trkpt><trkpt lat="40.46276706485815" lon="15.220953728670153"><ele>148.0</ele><time>2026-04-19T10:50:56Z</time></trkpt><trkpt lat="40.462831012616945" lon="15.220986152511239"><ele>148.0</ele><time>2026-04-19T10:50:58Z</time></trkpt><trkpt lat="40.46290871555127" lon="15.221023717031963"><ele>148.0</ele><time>2026-04-19T10:51:00Z</time></trkpt><trkpt lat="40.46298499908136" lon="15.221069990926715"><ele>148.0</ele><time>2026-04-19T10:51:02Z</time></trkpt><trkpt lat="40.46304834939009" lon="15.221092954277934"><ele>148.0</ele><time>2026-04-19T10:51:04Z</time></trkpt><trkpt lat="40.463117983519304" lon="15.221100605080977"><ele>148.0</ele><time>2026-04-19T10:51:06Z</time></trkpt><trkpt lat="40.463179991186166" lon="15.221066358093761"><ele>148.0</ele><time>2026-04-19T10:51:08.001Z</time></trkpt><trkpt lat="40.463230743385" lon="15.221004572279536"><ele>146.20000000000002</ele><time>2026-04-19T10:51:13.001Z</time></trkpt><trkpt lat="40.46328652777909" lon="15.220932611054057"><ele>144.4</ele><time>2026-04-19T10:51:15.001Z</time></trkpt><trkpt lat="40.46336154130849" lon="15.220801907779586"><ele>142.60000000000002</ele><time>2026-04-19T10:51:17.001Z</time></trkpt><trkpt lat="40.46340885887416" lon="15.220737787922792"><ele>140.8</ele><time>2026-04-19T10:51:18.001Z</time></trkpt><trkpt lat="40.46347000179573" lon="15.220643917238563"><ele>139.0</ele><time>2026-04-19T10:51:19.001Z</time></trkpt><trkpt lat="40.463524961741136" lon="15.22054671821653"><ele>138.8</ele><time>2026-04-19T10:51:21.001Z</time></trkpt><trkpt lat="40.46358162233699" lon="15.220451292444158"><ele>138.60000000000002</ele><time>2026-04-19T10:51:23.001Z</time></trkpt><trkpt lat="40.46362681510022" lon="15.220313277460377"><ele>138.4</ele><time>2026-04-19T10:51:25.001Z</time></trkpt><trkpt lat="40.46367298092108" lon="15.220213831331106"><ele>138.20000000000002</ele><time>2026-04-19T10:51:26.001Z</time></trkpt><trkpt lat="40.46371764534432" lon="15.220122852420003"><ele>138.0</ele><time>2026-04-19T10:51:27.001Z</time></trkpt><trkpt lat="40.46375812021044" lon="15.22003493203041"><ele>137.4</ele><time>2026-04-19T10:51:28.001Z</time></trkpt><trkpt lat="40.46380469928358" lon="15.21996835548725"><ele>136.8</ele><time>2026-04-19T10:51:29.001Z</time></trkpt><trkpt lat="40.463875798535966" lon="15.219842257127453"><ele>136.2</ele><time>2026-04-19T10:51:31.001Z</time></trkpt><trkpt lat="40.46392568163023" lon="15.219723249049263"><ele>135.6</ele><time>2026-04-19T10:51:33.001Z</time></trkpt><trkpt lat="40.463994246638" lon="15.219634484595213"><ele>135.0</ele><time>2026-04-19T10:51:35.001Z</time></trkpt><trkpt lat="40.46405736475425" lon="15.219539415586185"><ele>135.0</ele><time>2026-04-19T10:51:37.001Z</time></trkpt><trkpt lat="40.46414982619077" lon="15.219475981442232"><ele>135.0</ele><time>2026-04-19T10:51:39.001Z</time></trkpt><trkpt lat="40.46421168700371" lon="15.219426474889818"><ele>135.0</ele><time>2026-04-19T10:51:42.001Z</time></trkpt><trkpt lat="40.46425874009465" lon="15.219367065466201"><ele>135.0</ele><time>2026-04-19T10:51:44.001Z</time></trkpt><trkpt lat="40.4641909109398" lon="15.219417227995354"><ele>135.0</ele><time>2026-04-19T10:52:52Z</time></trkpt><trkpt lat="40.464089721491845" lon="15.219506382262887"><ele>135.0</ele><time>2026-04-19T10:52:54Z</time></trkpt><trkpt lat="40.46396687110362" lon="15.219648224844045"><ele>135.0</ele><time>2026-04-19T10:52:56Z</time></trkpt><trkpt lat="40.46392976134775" lon="15.219743039280747"><ele>135.0</ele><time>2026-04-19T10:52:57Z</time></trkpt><trkpt lat="40.46388636370654" lon="15.219823845515554"><ele>135.0</ele><time>2026-04-19T10:52:58Z</time></trkpt><trkpt lat="40.46383932840722" lon="15.21990803781858"><ele>135.0</ele><time>2026-04-19T10:52:59Z</time></trkpt><trkpt lat="40.46377739844249" lon="15.219990232961344"><ele>135.0</ele><time>2026-04-19T10:53:00Z</time></trkpt><trkpt lat="40.46373410128479" lon="15.22008156808176"><ele>135.0</ele><time>2026-04-19T10:53:01Z</time></trkpt><trkpt lat="40.463706617313086" lon="15.220180372216163"><ele>135.5</ele><time>2026-04-19T10:53:02Z</time></trkpt><trkpt lat="40.46366618501583" lon="15.220271023939171"><ele>136.0</ele><time>2026-04-19T10:53:03Z</time></trkpt><trkpt lat="40.46361377291702" lon="15.220347124284258"><ele>136.5</ele><time>2026-04-19T10:53:04Z</time></trkpt><trkpt lat="40.46358733895973" lon="15.220439106812734"><ele>137.0</ele><time>2026-04-19T10:53:05Z</time></trkpt><trkpt lat="40.46355032979715" lon="15.220518001800162"><ele>137.5</ele><time>2026-04-19T10:53:06Z</time></trkpt><trkpt lat="40.46349875076026" lon="15.220593795486304"><ele>138.0</ele><time>2026-04-19T10:53:07Z</time></trkpt><trkpt lat="40.46344882088076" lon="15.220680997889982"><ele>138.16666666666666</ele><time>2026-04-19T10:53:08Z</time></trkpt><trkpt lat="40.463385597428875" lon="15.22076769962862"><ele>138.33333333333334</ele><time>2026-04-19T10:53:09Z</time></trkpt><trkpt lat="40.463333352787856" lon="15.220849990269999"><ele>138.5</ele><time>2026-04-19T10:53:10Z</time></trkpt><trkpt lat="40.46328654960251" lon="15.220921720739282"><ele>138.66666666666669</ele><time>2026-04-19T10:53:11Z</time></trkpt><trkpt lat="40.46324096408347" lon="15.220987991602021"><ele>138.83333333333334</ele><time>2026-04-19T10:53:12Z</time></trkpt><trkpt lat="40.463193191757775" lon="15.221045462615496"><ele>139.0</ele><time>2026-04-19T10:53:13Z</time></trkpt><trkpt lat="40.46340258981886" lon="15.221078982479135"><ele>139.0</ele><time>2026-04-19T10:53:31.001Z</time></trkpt><trkpt lat="40.46348945446021" lon="15.221072096604132"><ele>139.0</ele><time>2026-04-19T10:53:33.001Z</time></trkpt><trkpt lat="40.46362390642333" lon="15.221286624135487"><ele>139.0</ele><time>2026-04-19T10:53:36.001Z</time></trkpt><trkpt lat="40.46371423191056" lon="15.22132118800874"><ele>139.0</ele><time>2026-04-19T10:53:39.001Z</time></trkpt><trkpt lat="40.46377922825419" lon="15.221342375386905"><ele>140.5</ele><time>2026-04-19T10:53:41.001Z</time></trkpt><trkpt lat="40.463850772691" lon="15.22136682457864"><ele>142.0</ele><time>2026-04-19T10:53:43.001Z</time></trkpt><trkpt lat="40.46393053600493" lon="15.221391093197001"><ele>143.5</ele><time>2026-04-19T10:53:45.001Z</time></trkpt><trkpt lat="40.46401708014483" lon="15.221415309714633"><ele>145.0</ele><time>2026-04-19T10:53:47.001Z</time></trkpt><trkpt lat="40.46410279390401" lon="15.221455680801306"><ele>146.5</ele><time>2026-04-19T10:53:49.001Z</time></trkpt><trkpt lat="40.46420174890101" lon="15.221488467776915"><ele>148.0</ele><time>2026-04-19T10:53:51.001Z</time></trkpt><trkpt lat="40.46426973259186" lon="15.221523241471912"><ele>148.66666666666669</ele><time>2026-04-19T10:53:53.001Z</time></trkpt><trkpt lat="40.46430298957829" lon="15.221594225215346"><ele>149.33333333333334</ele><time>2026-04-19T10:53:57.001Z</time></trkpt><trkpt lat="40.46429395379222" lon="15.221698773573511"><ele>150.0</ele><time>2026-04-19T10:54:41Z</time></trkpt><trkpt lat="40.4642933807813" lon="15.221826822887351"><ele>150.66666666666666</ele><time>2026-04-19T10:54:43Z</time></trkpt><trkpt lat="40.46428230948479" lon="15.221936863532688"><ele>151.33333333333331</ele><time>2026-04-19T10:54:45Z</time></trkpt><trkpt lat="40.46427181761566" lon="15.222022119982928"><ele>152.0</ele><time>2026-04-19T10:54:47Z</time></trkpt><trkpt lat="40.46424038952372" lon="15.222131669776498"><ele>152.0</ele><time>2026-04-19T10:54:50Z</time></trkpt><trkpt lat="40.46422454570231" lon="15.222217268966048"><ele>152.0</ele><time>2026-04-19T10:55:23.001Z</time></trkpt><trkpt lat="40.46419675139718" lon="15.222320330197759"><ele>152.0</ele><time>2026-04-19T10:55:26.001Z</time></trkpt><trkpt lat="40.46417274942253" lon="15.222411125435118"><ele>152.0</ele><time>2026-04-19T10:55:28.001Z</time></trkpt><trkpt lat="40.46415216149692" lon="15.222508690774621"><ele>152.0</ele><time>2026-04-19T10:55:30.001Z</time></trkpt><trkpt lat="40.46413596749893" lon="15.222622294048412"><ele>152.0</ele><time>2026-04-19T10:55:32.001Z</time></trkpt><trkpt lat="40.464130988438555" lon="15.222734357548038"><ele>152.0</ele><time>2026-04-19T10:55:34.001Z</time></trkpt><trkpt lat="40.46412413241206" lon="15.22285909442007"><ele>152.0</ele><time>2026-04-19T10:55:36.001Z</time></trkpt><trkpt lat="40.46414748894392" lon="15.222995408269785"><ele>152.0</ele><time>2026-04-19T10:55:38.001Z</time></trkpt><trkpt lat="40.46418509159157" lon="15.223138257446024"><ele>152.0</ele><time>2026-04-19T10:55:40.001Z</time></trkpt><trkpt lat="40.46423167230682" lon="15.223271955593795"><ele>152.0</ele><time>2026-04-19T10:55:42.001Z</time></trkpt><trkpt lat="40.46426562745367" lon="15.223432439734482"><ele>152.0</ele><time>2026-04-19T10:55:44.001Z</time></trkpt><trkpt lat="40.464296716256264" lon="15.223523540096773"><ele>152.0</ele><time>2026-04-19T10:55:45.001Z</time></trkpt><trkpt lat="40.46433514680215" lon="15.223602821583091"><ele>152.0</ele><time>2026-04-19T10:55:46.001Z</time></trkpt><trkpt lat="40.46434882609353" lon="15.223690672586423"><ele>152.0</ele><time>2026-04-19T10:55:47.001Z</time></trkpt><trkpt lat="40.46435324403996" lon="15.223779798256327"><ele>152.0</ele><time>2026-04-19T10:55:48.001Z</time></trkpt><trkpt lat="40.46433772960217" lon="15.223950524867213"><ele>152.0</ele><time>2026-04-19T10:55:50.001Z</time></trkpt><trkpt lat="40.464316685513836" lon="15.22410096096644"><ele>152.5</ele><time>2026-04-19T10:55:52.001Z</time></trkpt><trkpt lat="40.46431572404474" lon="15.22424525420103"><ele>153.0</ele><time>2026-04-19T10:55:54.001Z</time></trkpt><trkpt lat="40.46433197809412" lon="15.224326232539237"><ele>153.5</ele><time>2026-04-19T10:55:55.001Z</time></trkpt><trkpt lat="40.46435204798948" lon="15.22441217422835"><ele>154.0</ele><time>2026-04-19T10:55:56.001Z</time></trkpt><trkpt lat="40.4643768441498" lon="15.224502038945584"><ele>154.5</ele><time>2026-04-19T10:55:57.001Z</time></trkpt><trkpt lat="40.464400747004476" lon="15.224593981404688"><ele>155.0</ele><time>2026-04-19T10:55:58.001Z</time></trkpt><trkpt lat="40.46442498562487" lon="15.224685742571406"><ele>155.0</ele><time>2026-04-19T10:55:59.001Z</time></trkpt><trkpt lat="40.46443882788832" lon="15.224794503111326"><ele>155.0</ele><time>2026-04-19T10:56:00.002Z</time></trkpt><trkpt lat="40.46447424963329" lon="15.224880991254741"><ele>155.0</ele><time>2026-04-19T10:56:01.002Z</time></trkpt><trkpt lat="40.464497809307154" lon="15.224977753018562"><ele>155.0</ele><time>2026-04-19T10:56:02.002Z</time></trkpt><trkpt lat="40.46450074560957" lon="15.225062316366495"><ele>155.0</ele><time>2026-04-19T10:56:03.002Z</time></trkpt><trkpt lat="40.464517143435934" lon="15.225152296700923"><ele>155.0</ele><time>2026-04-19T10:56:04.002Z</time></trkpt><trkpt lat="40.464529046181156" lon="15.225238726476373"><ele>155.0</ele><time>2026-04-19T10:56:05.002Z</time></trkpt><trkpt lat="40.464539655004536" lon="15.225333392260426"><ele>155.66666666666666</ele><time>2026-04-19T10:56:06.002Z</time></trkpt><trkpt lat="40.46454828095049" lon="15.225433007017926"><ele>156.33333333333331</ele><time>2026-04-19T10:56:07.002Z</time></trkpt><trkpt lat="40.46455163238088" lon="15.22552888399891"><ele>157.0</ele><time>2026-04-19T10:56:08.002Z</time></trkpt><trkpt lat="40.464537864031804" lon="15.225688631557759"><ele>157.66666666666666</ele><time>2026-04-19T10:56:10.002Z</time></trkpt><trkpt lat="40.464528663644806" lon="15.225772500568196"><ele>158.33333333333334</ele><time>2026-04-19T10:56:11.002Z</time></trkpt><trkpt lat="40.464522259105074" lon="15.225885740036615"><ele>159.0</ele><time>2026-04-19T10:56:13.002Z</time></trkpt><trkpt lat="40.4645354054107" lon="15.226018017261245"><ele>159.57142857142856</ele><time>2026-04-19T10:56:15.002Z</time></trkpt><trkpt lat="40.464534618446095" lon="15.226101976614029"><ele>160.14285714285717</ele><time>2026-04-19T10:56:16.002Z</time></trkpt><trkpt lat="40.46453428157098" lon="15.226192594034154"><ele>160.71428571428572</ele><time>2026-04-19T10:56:17.002Z</time></trkpt><trkpt lat="40.46451151591429" lon="15.226279825311844"><ele>161.28571428571428</ele><time>2026-04-19T10:56:18.002Z</time></trkpt><trkpt lat="40.46449282153032" lon="15.226366843801022"><ele>161.85714285714283</ele><time>2026-04-19T10:56:19Z</time></trkpt><trkpt lat="40.46447527884835" lon="15.226468136519802"><ele>162.42857142857144</ele><time>2026-04-19T10:56:20Z</time></trkpt><trkpt lat="40.46446567231271" lon="15.226564773817913"><ele>163.0</ele><time>2026-04-19T10:56:21Z</time></trkpt><trkpt lat="40.46445956411839" lon="15.226664213775008"><ele>164.0</ele><time>2026-04-19T10:56:22Z</time></trkpt><trkpt lat="40.464456840320615" lon="15.226765962157378"><ele>165.0</ele><time>2026-04-19T10:56:23Z</time></trkpt><trkpt lat="40.46446387504809" lon="15.226863402726433"><ele>166.0</ele><time>2026-04-19T10:56:24Z</time></trkpt><trkpt lat="40.46446256249463" lon="15.22695020820159"><ele>167.0</ele><time>2026-04-19T10:56:25Z</time></trkpt><trkpt lat="40.46448122208388" lon="15.227044884968741"><ele>168.0</ele><time>2026-04-19T10:56:26Z</time></trkpt><trkpt lat="40.46448415179307" lon="15.227138032752393"><ele>169.0</ele><time>2026-04-19T10:56:27Z</time></trkpt><trkpt lat="40.46449610659396" lon="15.227235379608208"><ele>170.0</ele><time>2026-04-19T10:56:28Z</time></trkpt><trkpt lat="40.464500653515" lon="15.227333319578117"><ele>171.16666666666666</ele><time>2026-04-19T10:56:29Z</time></trkpt><trkpt lat="40.46450934106027" lon="15.227437230725387"><ele>172.33333333333331</ele><time>2026-04-19T10:56:30Z</time></trkpt><trkpt lat="40.46451792387464" lon="15.227530874047181"><ele>173.5</ele><time>2026-04-19T10:56:31Z</time></trkpt><trkpt lat="40.46452574856508" lon="15.227653493723802"><ele>174.66666666666666</ele><time>2026-04-19T10:56:33Z</time></trkpt><trkpt lat="40.46452819868188" lon="15.227793718970334"><ele>175.83333333333334</ele><time>2026-04-19T10:56:35Z</time></trkpt><trkpt lat="40.464518656105206" lon="15.227880717155339"><ele>177.0</ele><time>2026-04-19T10:56:36Z</time></trkpt><trkpt lat="40.46451439747681" lon="15.227979886457085"><ele>177.0</ele><time>2026-04-19T10:56:37Z</time></trkpt><trkpt lat="40.46451457701524" lon="15.228083849048671"><ele>177.0</ele><time>2026-04-19T10:56:38Z</time></trkpt><trkpt lat="40.46452065162164" lon="15.22818850064926"><ele>177.0</ele><time>2026-04-19T10:56:39Z</time></trkpt><trkpt lat="40.464516652093835" lon="15.228307934400531"><ele>177.0</ele><time>2026-04-19T10:56:40Z</time></trkpt><trkpt lat="40.464505111948924" lon="15.228424141853237"><ele>177.0</ele><time>2026-04-19T10:56:41Z</time></trkpt><trkpt lat="40.464481707370766" lon="15.228527511070759"><ele>177.0</ele><time>2026-04-19T10:56:42Z</time></trkpt><trkpt lat="40.46447522813054" lon="15.22862299508935"><ele>178.16666666666666</ele><time>2026-04-19T10:56:43Z</time></trkpt><trkpt lat="40.46447347545256" lon="15.228707651264196"><ele>179.33333333333334</ele><time>2026-04-19T10:56:44Z</time></trkpt><trkpt lat="40.46449128277035" lon="15.22878860574053"><ele>180.5</ele><time>2026-04-19T10:56:45Z</time></trkpt><trkpt lat="40.46450018559805" lon="15.228884859363585"><ele>181.66666666666669</ele><time>2026-04-19T10:56:46Z</time></trkpt><trkpt lat="40.464526346543515" lon="15.228991602776118"><ele>182.83333333333334</ele><time>2026-04-19T10:56:47Z</time></trkpt><trkpt lat="40.46455566177175" lon="15.229106393655458"><ele>184.0</ele><time>2026-04-19T10:56:48Z</time></trkpt><trkpt lat="40.464580348970976" lon="15.229220786095178"><ele>183.66666666666669</ele><time>2026-04-19T10:56:49Z</time></trkpt><trkpt lat="40.46458853322949" lon="15.229340163013058"><ele>183.33333333333334</ele><time>2026-04-19T10:56:50Z</time></trkpt><trkpt lat="40.464625708346944" lon="15.229447816850108"><ele>183.0</ele><time>2026-04-19T10:56:51Z</time></trkpt><trkpt lat="40.464643340876265" lon="15.229536219836772"><ele>182.66666666666666</ele><time>2026-04-19T10:56:52Z</time></trkpt><trkpt lat="40.46463556339211" lon="15.229636648503389"><ele>182.33333333333331</ele><time>2026-04-19T10:56:53Z</time></trkpt><trkpt lat="40.464621119530364" lon="15.229783173168038"><ele>182.0</ele><time>2026-04-19T10:56:55Z</time></trkpt><trkpt lat="40.46457672705885" lon="15.22996163873924"><ele>184.6</ele><time>2026-04-19T10:56:57Z</time></trkpt><trkpt lat="40.4645403318852" lon="15.23006565486191"><ele>187.2</ele><time>2026-04-19T10:56:58Z</time></trkpt><trkpt lat="40.46449472347354" lon="15.230175324881168"><ele>189.8</ele><time>2026-04-19T10:56:59Z</time></trkpt><trkpt lat="40.46444553768197" lon="15.230291284082842"><ele>192.4</ele><time>2026-04-19T10:57:00Z</time></trkpt><trkpt lat="40.46439632487205" lon="15.230404684008827"><ele>195.0</ele><time>2026-04-19T10:57:01Z</time></trkpt><trkpt lat="40.46435278941732" lon="15.230492078364612"><ele>195.0</ele><time>2026-04-19T10:57:02Z</time></trkpt><trkpt lat="40.4643064513283" lon="15.23056684990196"><ele>195.0</ele><time>2026-04-19T10:57:03Z</time></trkpt><trkpt lat="40.4642615283538" lon="15.230671135099655"><ele>195.0</ele><time>2026-04-19T10:57:04Z</time></trkpt><trkpt lat="40.46419443192745" lon="15.230777293563941"><ele>195.0</ele><time>2026-04-19T10:57:05Z</time></trkpt><trkpt lat="40.46414792555557" lon="15.23086813470653"><ele>195.0</ele><time>2026-04-19T10:57:06Z</time></trkpt><trkpt lat="40.4640973263372" lon="15.230942709971867"><ele>195.0</ele><time>2026-04-19T10:57:07.001Z</time></trkpt><trkpt lat="40.46406887408034" lon="15.23103147045693"><ele>196.0</ele><time>2026-04-19T10:57:08.001Z</time></trkpt><trkpt lat="40.464034066260496" lon="15.23111612441965"><ele>197.0</ele><time>2026-04-19T10:57:09.001Z</time></trkpt><trkpt lat="40.463994911846676" lon="15.231207708538724"><ele>198.0</ele><time>2026-04-19T10:57:10.001Z</time></trkpt><trkpt lat="40.463959681425244" lon="15.231300872551659"><ele>199.0</ele><time>2026-04-19T10:57:11.001Z</time></trkpt><trkpt lat="40.46392309745924" lon="15.231390944849126"><ele>200.0</ele><time>2026-04-19T10:57:12.001Z</time></trkpt><trkpt lat="40.46388994741263" lon="15.231491192553076"><ele>201.0</ele><time>2026-04-19T10:57:13.001Z</time></trkpt><trkpt lat="40.46385290922574" lon="15.23160046590558"><ele>201.8</ele><time>2026-04-19T10:57:14.001Z</time></trkpt><trkpt lat="40.46381524205809" lon="15.231692492368882"><ele>202.60000000000002</ele><time>2026-04-19T10:57:15.001Z</time></trkpt><trkpt lat="40.46377887115908" lon="15.231769729264617"><ele>203.4</ele><time>2026-04-19T10:57:16.001Z</time></trkpt><trkpt lat="40.46371533002097" lon="15.231823026742894"><ele>204.2</ele><time>2026-04-19T10:57:17.001Z</time></trkpt><trkpt lat="40.463625879124194" lon="15.23198227677128"><ele>205.0</ele><time>2026-04-19T10:57:19.001Z</time></trkpt><trkpt lat="40.46357381509277" lon="15.232066401976537"><ele>205.49999999999997</ele><time>2026-04-19T10:57:20.001Z</time></trkpt><trkpt lat="40.463544100828834" lon="15.232158680484378"><ele>206.0</ele><time>2026-04-19T10:57:21.001Z</time></trkpt><trkpt lat="40.46352357170237" lon="15.23225857012117"><ele>206.5</ele><time>2026-04-19T10:57:22.001Z</time></trkpt><trkpt lat="40.46350356102426" lon="15.232366902005325"><ele>207.0</ele><time>2026-04-19T10:57:23.001Z</time></trkpt><trkpt lat="40.46347314989314" lon="15.232484070999481"><ele>207.49999999999997</ele><time>2026-04-19T10:57:24.001Z</time></trkpt><trkpt lat="40.46342979634448" lon="15.232599940491196"><ele>208.0</ele><time>2026-04-19T10:57:25.001Z</time></trkpt><trkpt lat="40.463392761963135" lon="15.232700398639246"><ele>209.60000000000002</ele><time>2026-04-19T10:57:26.001Z</time></trkpt><trkpt lat="40.46335350522884" lon="15.23279902375742"><ele>211.20000000000002</ele><time>2026-04-19T10:57:27.001Z</time></trkpt><trkpt lat="40.46331125008165" lon="15.232902740838703"><ele>212.8</ele><time>2026-04-19T10:57:28.001Z</time></trkpt><trkpt lat="40.463264263157576" lon="15.233015606113222"><ele>214.4</ele><time>2026-04-19T10:57:29.001Z</time></trkpt><trkpt lat="40.46322696752303" lon="15.233104550612241"><ele>216.0</ele><time>2026-04-19T10:57:30.001Z</time></trkpt><trkpt lat="40.463176933619245" lon="15.233222214086789"><ele>217.16666666666666</ele><time>2026-04-19T10:57:31.001Z</time></trkpt><trkpt lat="40.46314656849565" lon="15.233320950074932"><ele>218.33333333333331</ele><time>2026-04-19T10:57:32.001Z</time></trkpt><trkpt lat="40.46310791080992" lon="15.233413477088435"><ele>219.5</ele><time>2026-04-19T10:57:33.001Z</time></trkpt><trkpt lat="40.46307023008154" lon="15.233496477964032"><ele>220.66666666666666</ele><time>2026-04-19T10:57:34.001Z</time></trkpt><trkpt lat="40.46303828187637" lon="15.233578439971753"><ele>221.83333333333331</ele><time>2026-04-19T10:57:35.001Z</time></trkpt><trkpt lat="40.462992873614276" lon="15.233671103286312"><ele>223.0</ele><time>2026-04-19T10:57:36.001Z</time></trkpt><trkpt lat="40.462946270216435" lon="15.233753852822574"><ele>223.49999999999997</ele><time>2026-04-19T10:57:37.001Z</time></trkpt><trkpt lat="40.46290419029106" lon="15.233840400387297"><ele>224.0</ele><time>2026-04-19T10:57:38.001Z</time></trkpt><trkpt lat="40.462862090499875" lon="15.233933003552059"><ele>224.5</ele><time>2026-04-19T10:57:39.001Z</time></trkpt><trkpt lat="40.46280499759489" lon="15.234010667831168"><ele>225.0</ele><time>2026-04-19T10:57:40.001Z</time></trkpt><trkpt lat="40.462758896085745" lon="15.234105008689136"><ele>225.49999999999997</ele><time>2026-04-19T10:57:41.001Z</time></trkpt><trkpt lat="40.46270942558887" lon="15.234209990289598"><ele>226.0</ele><time>2026-04-19T10:57:42.001Z</time></trkpt><trkpt lat="40.46267085039039" lon="15.234293680352499"><ele>227.49999999999997</ele><time>2026-04-19T10:57:43.001Z</time></trkpt><trkpt lat="40.46262798286219" lon="15.234419904516958"><ele>229.0</ele><time>2026-04-19T10:57:45.001Z</time></trkpt><trkpt lat="40.462612849972125" lon="15.234516084549936"><ele>230.5</ele><time>2026-04-19T10:57:47.001Z</time></trkpt><trkpt lat="40.46257703574399" lon="15.234616545142591"><ele>232.0</ele><time>2026-04-19T10:57:49.001Z</time></trkpt><trkpt lat="40.4625023904793" lon="15.234661605747648"><ele>233.49999999999997</ele><time>2026-04-19T10:57:50.001Z</time></trkpt><trkpt lat="40.46243049268169" lon="15.234728048490465"><ele>235.0</ele><time>2026-04-19T10:57:51.001Z</time></trkpt><trkpt lat="40.46233556671102" lon="15.234788903720887"><ele>235.99999999999997</ele><time>2026-04-19T10:57:52.001Z</time></trkpt><trkpt lat="40.462274580713746" lon="15.23486340412712"><ele>237.0</ele><time>2026-04-19T10:57:53.001Z</time></trkpt><trkpt lat="40.46220987660711" lon="15.23491448237867"><ele>238.0</ele><time>2026-04-19T10:57:54.001Z</time></trkpt><trkpt lat="40.4621559671701" lon="15.234967549305752"><ele>239.0</ele><time>2026-04-19T10:57:55.001Z</time></trkpt><trkpt lat="40.462071100402575" lon="15.235018180711254"><ele>239.99999999999997</ele><time>2026-04-19T10:57:57.001Z</time></trkpt><trkpt lat="40.462010976563334" lon="15.23506739149606"><ele>241.0</ele><time>2026-04-19T10:58:16.002Z</time></trkpt><trkpt lat="40.46211276117939" lon="15.235352231216115"><ele>240.99999999999997</ele><time>2026-04-19T10:58:20.002Z</time></trkpt><trkpt lat="40.462136074373454" lon="15.235489993748764"><ele>241.0</ele><time>2026-04-19T10:58:22.002Z</time></trkpt><trkpt lat="40.46217156958967" lon="15.235580682829992"><ele>241.0</ele><time>2026-04-19T10:58:24.002Z</time></trkpt><trkpt lat="40.46223255937711" lon="15.235661996073237"><ele>241.0</ele><time>2026-04-19T10:58:25.999Z</time></trkpt><trkpt lat="40.46230158497122" lon="15.235736935571339"><ele>240.99999999999997</ele><time>2026-04-19T10:58:27.999Z</time></trkpt><trkpt lat="40.46235943928638" lon="15.235822027151782"><ele>241.0</ele><time>2026-04-19T10:58:29.999Z</time></trkpt><trkpt lat="40.46240304532104" lon="15.235896832456815"><ele>242.16666666666666</ele><time>2026-04-19T10:58:31.999Z</time></trkpt><trkpt lat="40.46245884229367" lon="15.235982797933547"><ele>243.33333333333331</ele><time>2026-04-19T10:58:34.999Z</time></trkpt><trkpt lat="40.4625001220516" lon="15.236077595768993"><ele>244.5</ele><time>2026-04-19T10:58:37.999Z</time></trkpt><trkpt lat="40.46254483342486" lon="15.236150934276726"><ele>245.66666666666669</ele><time>2026-04-19T10:58:41Z</time></trkpt><trkpt lat="40.462588436354594" lon="15.236215365608324"><ele>246.83333333333334</ele><time>2026-04-19T10:58:56Z</time></trkpt><trkpt lat="40.462651794761776" lon="15.236274763254201"><ele>248.0</ele><time>2026-04-19T10:59:00Z</time></trkpt><trkpt lat="40.46272047238402" lon="15.236328749473774"><ele>248.00000000000003</ele><time>2026-04-19T10:59:02Z</time></trkpt><trkpt lat="40.46278352726513" lon="15.236376076390691"><ele>248.0</ele><time>2026-04-19T10:59:04Z</time></trkpt><trkpt lat="40.46285789209396" lon="15.23644355476358"><ele>248.0</ele><time>2026-04-19T10:59:07Z</time></trkpt><trkpt lat="40.462906903260254" lon="15.236508719518454"><ele>248.0</ele><time>2026-04-19T10:59:09Z</time></trkpt><trkpt lat="40.46299097724264" lon="15.23661861735433"><ele>248.00000000000003</ele><time>2026-04-19T10:59:11Z</time></trkpt><trkpt lat="40.463039402966395" lon="15.236672312766414"><ele>248.0</ele><time>2026-04-19T10:59:12Z</time></trkpt><trkpt lat="40.46311887141567" lon="15.23675017698865"><ele>247.16666666666669</ele><time>2026-04-19T10:59:14Z</time></trkpt><trkpt lat="40.46316846660282" lon="15.236816249164923"><ele>246.33333333333334</ele><time>2026-04-19T10:59:16Z</time></trkpt><trkpt lat="40.46323661512775" lon="15.236910810925915"><ele>245.5</ele><time>2026-04-19T10:59:18Z</time></trkpt><trkpt lat="40.46328706006523" lon="15.23700987334154"><ele>244.66666666666669</ele><time>2026-04-19T10:59:20Z</time></trkpt><trkpt lat="40.46332968491376" lon="15.237087578554428"><ele>243.83333333333334</ele><time>2026-04-19T10:59:22.001Z</time></trkpt><trkpt lat="40.46337918098283" lon="15.237186556765854"><ele>243.0</ele><time>2026-04-19T10:59:25.001Z</time></trkpt><trkpt lat="40.46342178422706" lon="15.237255517622057"><ele>242.33333333333334</ele><time>2026-04-19T10:59:27.001Z</time></trkpt><trkpt lat="40.463484636301544" lon="15.237314245666342"><ele>241.66666666666669</ele><time>2026-04-19T10:59:29.001Z</time></trkpt><trkpt lat="40.46355969302123" lon="15.237379838870762"><ele>241.0</ele><time>2026-04-19T10:59:32.001Z</time></trkpt><trkpt lat="40.46363138007515" lon="15.237427561131955"><ele>240.33333333333334</ele><time>2026-04-19T10:59:35.001Z</time></trkpt><trkpt lat="40.46371474453846" lon="15.237428975000734"><ele>239.66666666666669</ele><time>2026-04-19T10:59:38.001Z</time></trkpt><trkpt lat="40.46379626408519" lon="15.237428952931266"><ele>239.0</ele><time>2026-04-19T10:59:41.001Z</time></trkpt><trkpt lat="40.46388679660732" lon="15.237408854228311"><ele>239.00000000000003</ele><time>2026-04-19T10:59:44.001Z</time></trkpt><trkpt lat="40.46395558347046" lon="15.237397289638647"><ele>239.0</ele><time>2026-04-19T10:59:46.001Z</time></trkpt><trkpt lat="40.4640395567405" lon="15.237380223931405"><ele>239.0</ele><time>2026-04-19T10:59:49.001Z</time></trkpt><trkpt lat="40.46412709452271" lon="15.23736569243232"><ele>239.0</ele><time>2026-04-19T10:59:52.001Z</time></trkpt><trkpt lat="40.46419944779749" lon="15.237351642791271"><ele>239.00000000000003</ele><time>2026-04-19T10:59:54.001Z</time></trkpt><trkpt lat="40.46424366728568" lon="15.237252361997145"><ele>239.0</ele><time>2026-04-19T10:59:56.001Z</time></trkpt><trkpt lat="40.46427769213145" lon="15.237171691323406"><ele>238.0</ele><time>2026-04-19T10:59:57.001Z</time></trkpt><trkpt lat="40.46434384632551" lon="15.237036201224178"><ele>236.99999999999997</ele><time>2026-04-19T10:59:59.001Z</time></trkpt><trkpt lat="40.464416911399965" lon="15.236919237033947"><ele>235.99999999999997</ele><time>2026-04-19T11:00:01.001Z</time></trkpt><trkpt lat="40.46447355933389" lon="15.23680880153014"><ele>235.0</ele><time>2026-04-19T11:00:03.001Z</time></trkpt><trkpt lat="40.464528681860585" lon="15.236759188430588"><ele>234.0</ele><time>2026-04-19T11:00:08.001Z</time></trkpt><trkpt lat="40.464596152483416" lon="15.236720381205735"><ele>233.0</ele><time>2026-04-19T11:00:10.001Z</time></trkpt><trkpt lat="40.4646883020333" lon="15.236704935694496"><ele>232.0</ele><time>2026-04-19T11:00:12.002Z</time></trkpt><trkpt lat="40.464777130369214" lon="15.23671633413742"><ele>231.0</ele><time>2026-04-19T11:00:15.002Z</time></trkpt><trkpt lat="40.46483994261956" lon="15.236738783941389"><ele>230.0</ele><time>2026-04-19T11:00:17.002Z</time></trkpt><trkpt lat="40.46491234316992" lon="15.236759868983354"><ele>229.0</ele><time>2026-04-19T11:00:19.002Z</time></trkpt><trkpt lat="40.464998381015086" lon="15.23679615718681"><ele>228.0</ele><time>2026-04-19T11:00:22.002Z</time></trkpt><trkpt lat="40.46506784960936" lon="15.236832103316459"><ele>228.0</ele><time>2026-04-19T11:00:24.002Z</time></trkpt><trkpt lat="40.4651385518368" lon="15.23685190209804"><ele>227.99999999999997</ele><time>2026-04-19T11:00:27.002Z</time></trkpt><trkpt lat="40.46521647683952" lon="15.236881158885101"><ele>228.0</ele><time>2026-04-19T11:02:14.002Z</time></trkpt><trkpt lat="40.46528458627744" lon="15.236933841121997"><ele>228.0</ele><time>2026-04-19T11:02:18.002Z</time></trkpt><trkpt lat="40.46533494859329" lon="15.236995316062288"><ele>227.99999999999997</ele><time>2026-04-19T11:02:36.002Z</time></trkpt><trkpt lat="40.46539312252768" lon="15.237060417407362"><ele>228.0</ele><time>2026-04-19T11:02:43Z</time></trkpt><trkpt lat="40.46544573436969" lon="15.237117217577941"><ele>228.0</ele><time>2026-04-19T11:03:22.001Z</time></trkpt><trkpt lat="40.46549054860539" lon="15.237178337670876"><ele>227.7142857142857</ele><time>2026-04-19T11:03:24.001Z</time></trkpt><trkpt lat="40.46554963421031" lon="15.237263206622776"><ele>227.4285714285714</ele><time>2026-04-19T11:03:27.001Z</time></trkpt><trkpt lat="40.465590612200266" lon="15.237342457068387"><ele>227.14285714285714</ele><time>2026-04-19T11:03:31.001Z</time></trkpt><trkpt lat="40.465635605114876" lon="15.237426831607237"><ele>226.85714285714283</ele><time>2026-04-19T11:03:35.001Z</time></trkpt><trkpt lat="40.46567888923287" lon="15.23748695472116"><ele>226.57142857142856</ele><time>2026-04-19T11:03:37.001Z</time></trkpt><trkpt lat="40.46572929443722" lon="15.237538341019173"><ele>226.28571428571428</ele><time>2026-04-19T11:03:39.001Z</time></trkpt><trkpt lat="40.46577924102225" lon="15.237598253588322"><ele>226.0</ele><time>2026-04-19T11:03:41.001Z</time></trkpt><trkpt lat="40.46584926035292" lon="15.237682588447221"><ele>225.99999999999997</ele><time>2026-04-19T11:03:44.001Z</time></trkpt><trkpt lat="40.46590612483579" lon="15.237741436014394"><ele>226.0</ele><time>2026-04-19T11:03:46.001Z</time></trkpt><trkpt lat="40.46598339244754" lon="15.237809977460286"><ele>226.0</ele><time>2026-04-19T11:03:49.001Z</time></trkpt><trkpt lat="40.466054905561506" lon="15.237873536599077"><ele>226.0</ele><time>2026-04-19T11:03:51.001Z</time></trkpt><trkpt lat="40.46611144406905" lon="15.237928054144364"><ele>225.99999999999997</ele><time>2026-04-19T11:03:53.001Z</time></trkpt><trkpt lat="40.46615692810584" lon="15.237994762395624"><ele>226.0</ele><time>2026-04-19T11:03:55.001Z</time></trkpt><trkpt lat="40.46620844807634" lon="15.238094208172063"><ele>225.83333333333331</ele><time>2026-04-19T11:03:58.001Z</time></trkpt><trkpt lat="40.46627496745746" lon="15.238174633659485"><ele>225.66666666666666</ele><time>2026-04-19T11:04:01.002Z</time></trkpt><trkpt lat="40.466352120358685" lon="15.238200192516803"><ele>225.5</ele><time>2026-04-19T11:04:03.002Z</time></trkpt><trkpt lat="40.466422652520016" lon="15.238192711630905"><ele>225.33333333333331</ele><time>2026-04-19T11:04:05.002Z</time></trkpt><trkpt lat="40.46653928652683" lon="15.238164958706555"><ele>225.16666666666666</ele><time>2026-04-19T11:04:07.002Z</time></trkpt><trkpt lat="40.46660399224997" lon="15.23813469272157"><ele>225.0</ele><time>2026-04-19T11:04:08.002Z</time></trkpt><trkpt lat="40.466663799295674" lon="15.23808927076273"><ele>225.0</ele><time>2026-04-19T11:04:09.002Z</time></trkpt><trkpt lat="40.46672862964269" lon="15.238048375688725"><ele>225.0</ele><time>2026-04-19T11:04:10.002Z</time></trkpt><trkpt lat="40.46679224960881" lon="15.238007357700365"><ele>225.0</ele><time>2026-04-19T11:04:11.002Z</time></trkpt><trkpt lat="40.46684912582927" lon="15.237968342452255"><ele>225.0</ele><time>2026-04-19T11:04:12.002Z</time></trkpt><trkpt lat="40.46693300155982" lon="15.237919803280775"><ele>225.0</ele><time>2026-04-19T11:04:14.002Z</time></trkpt><trkpt lat="40.46705135787415" lon="15.23787340923297"><ele>225.0</ele><time>2026-04-19T11:04:16.002Z</time></trkpt><trkpt lat="40.46715374989992" lon="15.237831283822164"><ele>226.0</ele><time>2026-04-19T11:04:18.002Z</time></trkpt><trkpt lat="40.4672759070427" lon="15.237806069984853"><ele>227.0</ele><time>2026-04-19T11:04:20.002Z</time></trkpt><trkpt lat="40.46738948588017" lon="15.23779601564306"><ele>228.0</ele><time>2026-04-19T11:04:22.002Z</time></trkpt><trkpt lat="40.46745579214196" lon="15.237794943718862"><ele>229.0</ele><time>2026-04-19T11:04:23.002Z</time></trkpt><trkpt lat="40.46757194063754" lon="15.237801350088171"><ele>230.0</ele><time>2026-04-19T11:04:25.002Z</time></trkpt><trkpt lat="40.46765731495773" lon="15.237799007202515"><ele>230.0</ele><time>2026-04-19T11:04:27.002Z</time></trkpt><trkpt lat="40.46776482998572" lon="15.237809069007469"><ele>230.0</ele><time>2026-04-19T11:04:29.002Z</time></trkpt><trkpt lat="40.467890706750836" lon="15.237821684572001"><ele>230.0</ele><time>2026-04-19T11:04:31.002Z</time></trkpt><trkpt lat="40.467958008411095" lon="15.237825341129225"><ele>230.0</ele><time>2026-04-19T11:04:32.002Z</time></trkpt><trkpt lat="40.46808172028323" lon="15.237830281395409"><ele>230.0</ele><time>2026-04-19T11:04:34.002Z</time></trkpt><trkpt lat="40.4681471497502" lon="15.237825659994625"><ele>230.2</ele><time>2026-04-19T11:04:35.002Z</time></trkpt><trkpt lat="40.468268457195094" lon="15.237833111699082"><ele>230.4</ele><time>2026-04-19T11:04:37.002Z</time></trkpt><trkpt lat="40.46836347202116" lon="15.237848435655112"><ele>230.60000000000002</ele><time>2026-04-19T11:04:40.002Z</time></trkpt><trkpt lat="40.46844076082985" lon="15.237878462044025"><ele>230.8</ele><time>2026-04-19T11:04:42.002Z</time></trkpt><trkpt lat="40.46847182554879" lon="15.237967442586138"><ele>231.0</ele><time>2026-04-19T11:04:52Z</time></trkpt><trkpt lat="40.468400568565094" lon="15.238011681114088"><ele>231.0</ele><time>2026-04-19T11:04:54Z</time></trkpt><trkpt lat="40.46833720330553" lon="15.238092709289333"><ele>231.00000000000003</ele><time>2026-04-19T11:04:57Z</time></trkpt><trkpt lat="40.46828281830978" lon="15.2381810632158"><ele>231.00000000000003</ele><time>2026-04-19T11:04:59Z</time></trkpt><trkpt lat="40.468185528093315" lon="15.238287681165335"><ele>231.0</ele><time>2026-04-19T11:05:01Z</time></trkpt><trkpt lat="40.46812632690563" lon="15.23832168401084"><ele>231.0</ele><time>2026-04-19T11:05:02Z</time></trkpt><trkpt lat="40.468054140213255" lon="15.238422654607609"><ele>231.66666666666666</ele><time>2026-04-19T11:05:04Z</time></trkpt><trkpt lat="40.46795829702115" lon="15.23851781981991"><ele>232.33333333333331</ele><time>2026-04-19T11:05:06Z</time></trkpt><trkpt lat="40.46789844372663" lon="15.238570454268002"><ele>233.0</ele><time>2026-04-19T11:05:07Z</time></trkpt><trkpt lat="40.467840137972885" lon="15.238630352673017"><ele>233.66666666666666</ele><time>2026-04-19T11:05:08Z</time></trkpt><trkpt lat="40.467774342775854" lon="15.23870498417751"><ele>234.33333333333331</ele><time>2026-04-19T11:05:09Z</time></trkpt><trkpt lat="40.46771102899777" lon="15.238782633413898"><ele>235.0</ele><time>2026-04-19T11:05:10Z</time></trkpt><trkpt lat="40.467651982449944" lon="15.238861745959541"><ele>235.33333333333331</ele><time>2026-04-19T11:05:11Z</time></trkpt><trkpt lat="40.46758769330155" lon="15.23894269456926"><ele>235.66666666666666</ele><time>2026-04-19T11:05:12Z</time></trkpt><trkpt lat="40.4675448995992" lon="15.239019397658726"><ele>236.0</ele><time>2026-04-19T11:05:13Z</time></trkpt><trkpt lat="40.46750538688303" lon="15.239088986448806"><ele>236.33333333333331</ele><time>2026-04-19T11:05:14Z</time></trkpt><trkpt lat="40.46742566792073" lon="15.239224755287609"><ele>236.66666666666666</ele><time>2026-04-19T11:05:16Z</time></trkpt><trkpt lat="40.467389153139614" lon="15.239297375203089"><ele>237.0</ele><time>2026-04-19T11:05:17Z</time></trkpt><trkpt lat="40.46734159098303" lon="15.239368715723334"><ele>238.0</ele><time>2026-04-19T11:05:18Z</time></trkpt><trkpt lat="40.46729456616205" lon="15.239450414959457"><ele>239.0</ele><time>2026-04-19T11:05:19Z</time></trkpt><trkpt lat="40.467246845680464" lon="15.239535658564614"><ele>240.0</ele><time>2026-04-19T11:05:20Z</time></trkpt><trkpt lat="40.467192895632124" lon="15.239628508553386"><ele>241.0</ele><time>2026-04-19T11:05:21Z</time></trkpt><trkpt lat="40.46714076323168" lon="15.239730187795121"><ele>242.0</ele><time>2026-04-19T11:05:22Z</time></trkpt><trkpt lat="40.46708051701639" lon="15.239838165638725"><ele>243.0</ele><time>2026-04-19T11:05:23Z</time></trkpt><trkpt lat="40.46701926787681" lon="15.239928039811202"><ele>244.5</ele><time>2026-04-19T11:05:24Z</time></trkpt><trkpt lat="40.466972298178405" lon="15.240016311046762"><ele>246.0</ele><time>2026-04-19T11:05:25Z</time></trkpt><trkpt lat="40.46692643746456" lon="15.24009409770871"><ele>247.5</ele><time>2026-04-19T11:05:26Z</time></trkpt><trkpt lat="40.46687391177345" lon="15.24017518480186"><ele>249.0</ele><time>2026-04-19T11:05:27Z</time></trkpt><trkpt lat="40.4668186303949" lon="15.24025550129701"><ele>250.5</ele><time>2026-04-19T11:05:28Z</time></trkpt><trkpt lat="40.46678281528866" lon="15.240324044285275"><ele>252.0</ele><time>2026-04-19T11:05:29Z</time></trkpt><trkpt lat="40.46674931615206" lon="15.240400702522312"><ele>252.0</ele><time>2026-04-19T11:05:30.001Z</time></trkpt><trkpt lat="40.466709462508156" lon="15.24048877681015"><ele>252.0</ele><time>2026-04-19T11:05:31.001Z</time></trkpt><trkpt lat="40.466673495233465" lon="15.240591877126061"><ele>252.0</ele><time>2026-04-19T11:05:32.001Z</time></trkpt><trkpt lat="40.46662898170242" lon="15.240697117626999"><ele>252.0</ele><time>2026-04-19T11:05:33.001Z</time></trkpt><trkpt lat="40.46658059911182" lon="15.240796294279978"><ele>252.0</ele><time>2026-04-19T11:05:34.001Z</time></trkpt><trkpt lat="40.4665346294553" lon="15.24088722581311"><ele>252.0</ele><time>2026-04-19T11:05:35.001Z</time></trkpt><trkpt lat="40.46649632043022" lon="15.240980585111611"><ele>252.83333333333334</ele><time>2026-04-19T11:05:36.001Z</time></trkpt><trkpt lat="40.46647438824073" lon="15.241081050221219"><ele>253.66666666666669</ele><time>2026-04-19T11:05:37.001Z</time></trkpt><trkpt lat="40.466459512412214" lon="15.241196968324608"><ele>254.5</ele><time>2026-04-19T11:05:38.001Z</time></trkpt><trkpt lat="40.466435132277745" lon="15.241295773586426"><ele>255.33333333333334</ele><time>2026-04-19T11:05:39.001Z</time></trkpt><trkpt lat="40.46641178511693" lon="15.241386090569872"><ele>256.1666666666667</ele><time>2026-04-19T11:05:40.001Z</time></trkpt><trkpt lat="40.46638165686879" lon="15.241520689468954"><ele>257.0</ele><time>2026-04-19T11:05:42.001Z</time></trkpt><trkpt lat="40.46634605466422" lon="15.241672445915505"><ele>257.83333333333337</ele><time>2026-04-19T11:05:44.001Z</time></trkpt><trkpt lat="40.466326356596845" lon="15.241751838329902"><ele>258.6666666666667</ele><time>2026-04-19T11:05:45.001Z</time></trkpt><trkpt lat="40.46627558352021" lon="15.241891818895493"><ele>259.5</ele><time>2026-04-19T11:05:47.001Z</time></trkpt><trkpt lat="40.46623408294297" lon="15.241954859872004"><ele>260.3333333333333</ele><time>2026-04-19T11:05:48.001Z</time></trkpt><trkpt lat="40.4661829709086" lon="15.242033948095061"><ele>261.16666666666663</ele><time>2026-04-19T11:05:49.001Z</time></trkpt><trkpt lat="40.46612571013345" lon="15.242121795014635"><ele>262.0</ele><time>2026-04-19T11:05:50.001Z</time></trkpt><trkpt lat="40.46608124510291" lon="15.242193305788415"><ele>264.6</ele><time>2026-04-19T11:05:51.001Z</time></trkpt><trkpt lat="40.46600830702569" lon="15.242316233052486"><ele>267.2</ele><time>2026-04-19T11:05:53.001Z</time></trkpt><trkpt lat="40.46592902010929" lon="15.242439028811383"><ele>269.8</ele><time>2026-04-19T11:05:55.001Z</time></trkpt><trkpt lat="40.465864954211355" lon="15.242513595441638"><ele>272.4</ele><time>2026-04-19T11:05:56.001Z</time></trkpt><trkpt lat="40.465790864288515" lon="15.242594935283304"><ele>275.0</ele><time>2026-04-19T11:05:57.001Z</time></trkpt><trkpt lat="40.465707235656595" lon="15.242646498885884"><ele>275.0</ele><time>2026-04-19T11:05:58.001Z</time></trkpt><trkpt lat="40.46565580854007" lon="15.242715642876593"><ele>275.0</ele><time>2026-04-19T11:05:59.001Z</time></trkpt><trkpt lat="40.46559498085734" lon="15.242766141612597"><ele>275.0</ele><time>2026-04-19T11:06:00.001Z</time></trkpt><trkpt lat="40.46551854268701" lon="15.242829272668768"><ele>275.0</ele><time>2026-04-19T11:06:01.001Z</time></trkpt><trkpt lat="40.465452532250914" lon="15.24288044703546"><ele>275.0</ele><time>2026-04-19T11:06:02.001Z</time></trkpt><trkpt lat="40.46538069455893" lon="15.242919522835818"><ele>275.0</ele><time>2026-04-19T11:06:03.001Z</time></trkpt><trkpt lat="40.465325298904055" lon="15.242984144127032"><ele>275.8</ele><time>2026-04-19T11:06:04.001Z</time></trkpt><trkpt lat="40.46526146809944" lon="15.243028205016097"><ele>276.6</ele><time>2026-04-19T11:06:05.001Z</time></trkpt><trkpt lat="40.46519827213824" lon="15.243065994912142"><ele>277.4</ele><time>2026-04-19T11:06:06.001Z</time></trkpt><trkpt lat="40.465087515846065" lon="15.243115055383175"><ele>278.2</ele><time>2026-04-19T11:06:08.001Z</time></trkpt><trkpt lat="40.464996424736476" lon="15.243150382630848"><ele>279.0</ele><time>2026-04-19T11:06:10.001Z</time></trkpt><trkpt lat="40.46488274518554" lon="15.243149368573025"><ele>280.5</ele><time>2026-04-19T11:06:12.001Z</time></trkpt><trkpt lat="40.46479936174786" lon="15.24315970853467"><ele>282.0</ele><time>2026-04-19T11:06:13.001Z</time></trkpt><trkpt lat="40.464725663521" lon="15.24317505365993"><ele>283.5</ele><time>2026-04-19T11:06:14.001Z</time></trkpt><trkpt lat="40.464656298931885" lon="15.243206102821985"><ele>285.0</ele><time>2026-04-19T11:06:15.001Z</time></trkpt><trkpt lat="40.464553068174375" lon="15.243264713321528"><ele>286.5</ele><time>2026-04-19T11:06:17.002Z</time></trkpt><trkpt lat="40.46449645319655" lon="15.243353866106506"><ele>288.0</ele><time>2026-04-19T11:06:19.002Z</time></trkpt><trkpt lat="40.46451314071057" lon="15.243439557118297"><ele>288.0</ele><time>2026-04-19T11:06:21.002Z</time></trkpt><trkpt lat="40.46455952867413" lon="15.24352745383557"><ele>288.0</ele><time>2026-04-19T11:06:23.002Z</time></trkpt><trkpt lat="40.46462127729183" lon="15.243647789848552"><ele>288.0</ele><time>2026-04-19T11:06:25.002Z</time></trkpt><trkpt lat="40.46464830589184" lon="15.243755296366922"><ele>288.0</ele><time>2026-04-19T11:06:27.002Z</time></trkpt><trkpt lat="40.46468481902154" lon="15.243861461849681"><ele>288.0</ele><time>2026-04-19T11:06:38.002Z</time></trkpt><trkpt lat="40.4647008148592" lon="15.243956085194823"><ele>288.0</ele><time>2026-04-19T11:06:40.002Z</time></trkpt><trkpt lat="40.46474793139651" lon="15.244097453644487"><ele>290.2</ele><time>2026-04-19T11:06:42.002Z</time></trkpt><trkpt lat="40.464772078539" lon="15.24422157224732"><ele>292.4</ele><time>2026-04-19T11:06:44.002Z</time></trkpt><trkpt lat="40.46476838626467" lon="15.244356191557324"><ele>294.59999999999997</ele><time>2026-04-19T11:06:46.002Z</time></trkpt><trkpt lat="40.464772434986024" lon="15.244515541635979"><ele>296.8</ele><time>2026-04-19T11:06:48.002Z</time></trkpt><trkpt lat="40.4647405959014" lon="15.24463043188435"><ele>299.0</ele><time>2026-04-19T11:06:49.999Z</time></trkpt><trkpt lat="40.464646511285565" lon="15.244671415108806"><ele>300.8</ele><time>2026-04-19T11:06:54Z</time></trkpt><trkpt lat="40.46455444842234" lon="15.244729628053493"><ele>302.59999999999997</ele><time>2026-04-19T11:06:56Z</time></trkpt><trkpt lat="40.464446992650046" lon="15.244799324028495"><ele>304.4</ele><time>2026-04-19T11:06:59Z</time></trkpt><trkpt lat="40.46439184373469" lon="15.244888577763172"><ele>306.2</ele><time>2026-04-19T11:07:00Z</time></trkpt><trkpt lat="40.46433853343047" lon="15.2449518256725"><ele>308.0</ele><time>2026-04-19T11:07:01Z</time></trkpt><trkpt lat="40.46427205083095" lon="15.245000504999327"><ele>309.83333333333337</ele><time>2026-04-19T11:07:03Z</time></trkpt><trkpt lat="40.464190246516665" lon="15.245040897190192"><ele>311.6666666666667</ele><time>2026-04-19T11:07:05Z</time></trkpt><trkpt lat="40.464125803714026" lon="15.245109615872703"><ele>313.5</ele><time>2026-04-19T11:07:07Z</time></trkpt><trkpt lat="40.464067389367706" lon="15.245198547543684"><ele>315.3333333333333</ele><time>2026-04-19T11:07:09Z</time></trkpt><trkpt lat="40.46403326855603" lon="15.245271370569712"><ele>317.16666666666663</ele><time>2026-04-19T11:07:10Z</time></trkpt><trkpt lat="40.46397614818996" lon="15.245397717020113"><ele>319.0</ele><time>2026-04-19T11:07:12Z</time></trkpt><trkpt lat="40.463917574047464" lon="15.245547344703496"><ele>321.0</ele><time>2026-04-19T11:07:14Z</time></trkpt><trkpt lat="40.463890055013174" lon="15.245667178253647"><ele>323.0</ele><time>2026-04-19T11:07:16Z</time></trkpt><trkpt lat="40.463831502319465" lon="15.24581321391437"><ele>325.0</ele><time>2026-04-19T11:07:18Z</time></trkpt><trkpt lat="40.46380510040934" lon="15.245891534301716"><ele>327.0</ele><time>2026-04-19T11:07:19Z</time></trkpt><trkpt lat="40.46374717978843" lon="15.245973188062347"><ele>329.0</ele><time>2026-04-19T11:07:21Z</time></trkpt><trkpt lat="40.463680626663596" lon="15.246064675084346"><ele>329.6666666666667</ele><time>2026-04-19T11:07:23Z</time></trkpt><trkpt lat="40.46363144276254" lon="15.246163113857834"><ele>330.33333333333337</ele><time>2026-04-19T11:07:25Z</time></trkpt><trkpt lat="40.46362387851638" lon="15.246307350511923"><ele>331.0</ele><time>2026-04-19T11:07:27Z</time></trkpt><trkpt lat="40.4635632297729" lon="15.246391700100325"><ele>331.6666666666667</ele><time>2026-04-19T11:07:29Z</time></trkpt><trkpt lat="40.463506895678584" lon="15.246444393767549"><ele>332.3333333333333</ele><time>2026-04-19T11:07:30Z</time></trkpt><trkpt lat="40.4634343246191" lon="15.246515705035145"><ele>333.0</ele><time>2026-04-19T11:07:31Z</time></trkpt><trkpt lat="40.463353678569725" lon="15.246590511699042"><ele>334.5</ele><time>2026-04-19T11:07:32Z</time></trkpt><trkpt lat="40.46329043946685" lon="15.246675662309942"><ele>336.0</ele><time>2026-04-19T11:07:33Z</time></trkpt><trkpt lat="40.463218107330164" lon="15.246716266852255"><ele>337.5</ele><time>2026-04-19T11:07:34.001Z</time></trkpt><trkpt lat="40.46315761425514" lon="15.246773934556453"><ele>339.0</ele><time>2026-04-19T11:07:35.001Z</time></trkpt><trkpt lat="40.463087934352814" lon="15.246847966365351"><ele>340.5</ele><time>2026-04-19T11:07:36.001Z</time></trkpt><trkpt lat="40.46303536209623" lon="15.246916475784712"><ele>342.0</ele><time>2026-04-19T11:07:37.001Z</time></trkpt><trkpt lat="40.46298311788762" lon="15.247000149329097"><ele>342.6666666666667</ele><time>2026-04-19T11:07:38.001Z</time></trkpt><trkpt lat="40.462943186430785" lon="15.247076528756297"><ele>343.3333333333333</ele><time>2026-04-19T11:07:39.001Z</time></trkpt><trkpt lat="40.46290379074849" lon="15.247173646756087"><ele>344.0</ele><time>2026-04-19T11:07:40.001Z</time></trkpt><trkpt lat="40.46286951680562" lon="15.247278042394319"><ele>344.66666666666663</ele><time>2026-04-19T11:07:41.001Z</time></trkpt><trkpt lat="40.46284630625714" lon="15.247366812234937"><ele>345.3333333333333</ele><time>2026-04-19T11:07:42.001Z</time></trkpt><trkpt lat="40.46282862805345" lon="15.24747048338333"><ele>346.0</ele><time>2026-04-19T11:07:43.001Z</time></trkpt><trkpt lat="40.462818690903006" lon="15.247569307245437"><ele>348.0</ele><time>2026-04-19T11:07:44.001Z</time></trkpt><trkpt lat="40.46281172336035" lon="15.247654487015858"><ele>350.0</ele><time>2026-04-19T11:07:45.001Z</time></trkpt><trkpt lat="40.46279706795383" lon="15.247776901536124"><ele>352.0</ele><time>2026-04-19T11:07:47.001Z</time></trkpt><trkpt lat="40.4627821281133" lon="15.247859411230385"><ele>354.0</ele><time>2026-04-19T11:07:59.001Z</time></trkpt><trkpt lat="40.46264244921963" lon="15.247857063878133"><ele>356.0</ele><time>2026-04-19T11:08:04.001Z</time></trkpt><trkpt lat="40.46257255711319" lon="15.247861973570217"><ele>358.0</ele><time>2026-04-19T11:08:05.001Z</time></trkpt><trkpt lat="40.46249772764238" lon="15.247842666819908"><ele>358.0</ele><time>2026-04-19T11:08:06.001Z</time></trkpt><trkpt lat="40.46239076990952" lon="15.24777500383406"><ele>358.0</ele><time>2026-04-19T11:08:08.001Z</time></trkpt><trkpt lat="40.46232250584156" lon="15.247715700599104"><ele>358.0</ele><time>2026-04-19T11:08:09.001Z</time></trkpt><trkpt lat="40.46227348328523" lon="15.24763307787755"><ele>358.0</ele><time>2026-04-19T11:08:10.001Z</time></trkpt><trkpt lat="40.462228938483236" lon="15.247571855436275"><ele>358.0</ele><time>2026-04-19T11:08:11.001Z</time></trkpt><trkpt lat="40.46218198597018" lon="15.247500192143361"><ele>358.0</ele><time>2026-04-19T11:08:12.001Z</time></trkpt><trkpt lat="40.46212727262545" lon="15.247406088102297"><ele>359.59999999999997</ele><time>2026-04-19T11:08:13.001Z</time></trkpt><trkpt lat="40.46205150256876" lon="15.24732021647804"><ele>361.2</ele><time>2026-04-19T11:08:14.001Z</time></trkpt><trkpt lat="40.46199355069008" lon="15.247238673688802"><ele>362.8</ele><time>2026-04-19T11:08:15.001Z</time></trkpt><trkpt lat="40.461931886544434" lon="15.24714164090367"><ele>364.4</ele><time>2026-04-19T11:08:16.001Z</time></trkpt><trkpt lat="40.46186716859231" lon="15.247057240791296"><ele>366.0</ele><time>2026-04-19T11:08:17.002Z</time></trkpt><trkpt lat="40.46180310264449" lon="15.246941886458913"><ele>366.0</ele><time>2026-04-19T11:08:18.002Z</time></trkpt><trkpt lat="40.461729272748606" lon="15.246844058956402"><ele>366.0</ele><time>2026-04-19T11:08:19.002Z</time></trkpt><trkpt lat="40.46165388663461" lon="15.246765550043994"><ele>366.0</ele><time>2026-04-19T11:08:20.002Z</time></trkpt><trkpt lat="40.46159018282132" lon="15.246692259968857"><ele>366.0</ele><time>2026-04-19T11:08:21.002Z</time></trkpt><trkpt lat="40.46152660594375" lon="15.246629578078695"><ele>366.0</ele><time>2026-04-19T11:08:22.002Z</time></trkpt><trkpt lat="40.461456411473826" lon="15.246578964810267"><ele>366.0</ele><time>2026-04-19T11:08:23.002Z</time></trkpt><trkpt lat="40.46139264501086" lon="15.246529989345024"><ele>366.0</ele><time>2026-04-19T11:08:24.002Z</time></trkpt><trkpt lat="40.461316642985196" lon="15.246522814155295"><ele>366.0</ele><time>2026-04-19T11:08:25.002Z</time></trkpt><trkpt lat="40.46122361107606" lon="15.246565486822686"><ele>366.0</ele><time>2026-04-19T11:08:26.002Z</time></trkpt><trkpt lat="40.46113004726387" lon="15.246585166209208"><ele>366.0</ele><time>2026-04-19T11:08:27.002Z</time></trkpt><trkpt lat="40.46105939993858" lon="15.246583496330757"><ele>366.0</ele><time>2026-04-19T11:08:28.002Z</time></trkpt><trkpt lat="40.46092300609487" lon="15.246524093602838"><ele>365.4</ele><time>2026-04-19T11:08:30.002Z</time></trkpt><trkpt lat="40.460819316566415" lon="15.246474360597999"><ele>364.8</ele><time>2026-04-19T11:08:31.002Z</time></trkpt><trkpt lat="40.46070133354688" lon="15.246434065416395"><ele>364.2</ele><time>2026-04-19T11:08:32.002Z</time></trkpt><trkpt lat="40.46060562470904" lon="15.246371544611641"><ele>363.59999999999997</ele><time>2026-04-19T11:08:33.002Z</time></trkpt><trkpt lat="40.46052322232216" lon="15.246332459569079"><ele>363.0</ele><time>2026-04-19T11:08:34.002Z</time></trkpt><trkpt lat="40.46044013183296" lon="15.246289922988543"><ele>365.71428571428567</ele><time>2026-04-19T11:08:35.002Z</time></trkpt><trkpt lat="40.46035673012427" lon="15.246268727310216"><ele>368.42857142857144</ele><time>2026-04-19T11:08:36.002Z</time></trkpt><trkpt lat="40.46026859453816" lon="15.246216481462621"><ele>371.1428571428571</ele><time>2026-04-19T11:08:37.002Z</time></trkpt><trkpt lat="40.460207730434604" lon="15.246188788255548"><ele>373.85714285714283</ele><time>2026-04-19T11:08:38.002Z</time></trkpt><trkpt lat="40.46014575196469" lon="15.24616438552856"><ele>376.57142857142856</ele><time>2026-04-19T11:08:39.002Z</time></trkpt><trkpt lat="40.46008397588428" lon="15.24613677091023"><ele>379.2857142857143</ele><time>2026-04-19T11:08:40.002Z</time></trkpt><trkpt lat="40.46001740363678" lon="15.246102319047752"><ele>382.0</ele><time>2026-04-19T11:08:52.002Z</time></trkpt><trkpt lat="40.45996106607962" lon="15.246063237024975"><ele>382.0</ele><time>2026-04-19T11:08:56Z</time></trkpt><trkpt lat="40.45994589679823" lon="15.246221474514542"><ele>382.0</ele><time>2026-04-19T11:08:58Z</time></trkpt><trkpt lat="40.4599561785543" lon="15.246366887659585"><ele>382.0</ele><time>2026-04-19T11:09:00Z</time></trkpt><trkpt lat="40.45996050040121" lon="15.246547272634603"><ele>382.0</ele><time>2026-04-19T11:09:02Z</time></trkpt><trkpt lat="40.459979582016516" lon="15.246659814160733"><ele>383.8333333333333</ele><time>2026-04-19T11:09:03Z</time></trkpt><trkpt lat="40.4600038568487" lon="15.246751069875478"><ele>385.66666666666663</ele><time>2026-04-19T11:09:04Z</time></trkpt><trkpt lat="40.46004471990608" lon="15.246841236561007"><ele>387.5</ele><time>2026-04-19T11:09:05Z</time></trkpt><trkpt lat="40.460092958493405" lon="15.246917711672866"><ele>389.3333333333333</ele><time>2026-04-19T11:09:06Z</time></trkpt><trkpt lat="40.46016014475815" lon="15.24699700789591"><ele>391.1666666666667</ele><time>2026-04-19T11:09:08Z</time></trkpt><trkpt lat="40.46023353990796" lon="15.24707650631265"><ele>393.0</ele><time>2026-04-19T11:09:11Z</time></trkpt><trkpt lat="40.46031749207065" lon="15.247139300675041"><ele>393.00000000000006</ele><time>2026-04-19T11:09:13Z</time></trkpt><trkpt lat="40.460369225776134" lon="15.247195945777417"><ele>393.0</ele><time>2026-04-19T11:09:14Z</time></trkpt><trkpt lat="40.46043401354097" lon="15.247271583285226"><ele>393.0</ele><time>2026-04-19T11:09:15.001Z</time></trkpt><trkpt lat="40.46049020271931" lon="15.24733222203355"><ele>393.0</ele><time>2026-04-19T11:09:16.001Z</time></trkpt><trkpt lat="40.46053515902982" lon="15.247399472084114"><ele>393.0</ele><time>2026-04-19T11:09:17.001Z</time></trkpt><trkpt lat="40.46056120983254" lon="15.247479629271004"><ele>393.00000000000006</ele><time>2026-04-19T11:09:18.001Z</time></trkpt><trkpt lat="40.460592435347344" lon="15.247576956429182"><ele>393.0</ele><time>2026-04-19T11:09:19.001Z</time></trkpt><trkpt lat="40.460631454228306" lon="15.247687966535073"><ele>392.6666666666667</ele><time>2026-04-19T11:09:20.001Z</time></trkpt><trkpt lat="40.460668036480804" lon="15.247803687481804"><ele>392.33333333333337</ele><time>2026-04-19T11:09:21.001Z</time></trkpt><trkpt lat="40.46070318463649" lon="15.247889599882031"><ele>392.0</ele><time>2026-04-19T11:09:22.001Z</time></trkpt><trkpt lat="40.46069865747688" lon="15.247998906030457"><ele>391.6666666666667</ele><time>2026-04-19T11:09:23.001Z</time></trkpt><trkpt lat="40.460691537367346" lon="15.248104907609331"><ele>391.33333333333337</ele><time>2026-04-19T11:09:24.001Z</time></trkpt><trkpt lat="40.46068771556104" lon="15.24820093091784"><ele>391.0</ele><time>2026-04-19T11:09:25.001Z</time></trkpt><trkpt lat="40.46070203035102" lon="15.248282337257214"><ele>392.1666666666667</ele><time>2026-04-19T11:09:26.001Z</time></trkpt><trkpt lat="40.46069943525296" lon="15.248440335372486"><ele>393.33333333333337</ele><time>2026-04-19T11:09:28.001Z</time></trkpt><trkpt lat="40.46073624236762" lon="15.248560313879029"><ele>394.5</ele><time>2026-04-19T11:09:30.001Z</time></trkpt><trkpt lat="40.460743831670335" lon="15.248643459689886"><ele>395.66666666666663</ele><time>2026-04-19T11:09:32.001Z</time></trkpt><trkpt lat="40.46074751697676" lon="15.248735433670378"><ele>396.8333333333333</ele><time>2026-04-19T11:09:34.001Z</time></trkpt><trkpt lat="40.46076382449365" lon="15.248857367502552"><ele>398.0</ele><time>2026-04-19T11:09:36.001Z</time></trkpt><trkpt lat="40.460821223056655" lon="15.249007945339978"><ele>398.79999999999995</ele><time>2026-04-19T11:09:38.001Z</time></trkpt><trkpt lat="40.46085859765735" lon="15.249134724648028"><ele>399.6</ele><time>2026-04-19T11:09:40.001Z</time></trkpt><trkpt lat="40.46085778479534" lon="15.249257728403471"><ele>400.4</ele><time>2026-04-19T11:09:42.001Z</time></trkpt><trkpt lat="40.46086093501385" lon="15.249389484060284"><ele>401.20000000000005</ele><time>2026-04-19T11:09:44.001Z</time></trkpt><trkpt lat="40.46085554091844" lon="15.249567832237846"><ele>402.0</ele><time>2026-04-19T11:09:46.001Z</time></trkpt><trkpt lat="40.46085867353686" lon="15.249678394257586"><ele>402.0</ele><time>2026-04-19T11:09:47.001Z</time></trkpt><trkpt lat="40.46088759534281" lon="15.249787996677135"><ele>402.0</ele><time>2026-04-19T11:09:48.001Z</time></trkpt><trkpt lat="40.460909133826284" lon="15.249874256254126"><ele>402.0</ele><time>2026-04-19T11:09:49.001Z</time></trkpt><trkpt lat="40.460919669656036" lon="15.24996289650388"><ele>402.0</ele><time>2026-04-19T11:09:50.001Z</time></trkpt><trkpt lat="40.46094790799525" lon="15.250050730505295"><ele>402.0</ele><time>2026-04-19T11:09:51.001Z</time></trkpt><trkpt lat="40.46098549970066" lon="15.250133295333173"><ele>402.0</ele><time>2026-04-19T11:09:52.001Z</time></trkpt><trkpt lat="40.46104708811652" lon="15.250214770181904"><ele>403.6666666666667</ele><time>2026-04-19T11:09:53.001Z</time></trkpt><trkpt lat="40.461064857297124" lon="15.25029648248679"><ele>405.33333333333337</ele><time>2026-04-19T11:09:54.001Z</time></trkpt><trkpt lat="40.461100856235454" lon="15.250456129667654"><ele>407.0</ele><time>2026-04-19T11:09:56.001Z</time></trkpt><trkpt lat="40.46111403259365" lon="15.250550401777275"><ele>408.6666666666667</ele><time>2026-04-19T11:09:57.001Z</time></trkpt><trkpt lat="40.461124861930685" lon="15.25069571948562"><ele>410.33333333333337</ele><time>2026-04-19T11:09:59.001Z</time></trkpt><trkpt lat="40.46112777228865" lon="15.250779087064831"><ele>412.0</ele><time>2026-04-19T11:10:00.001Z</time></trkpt><trkpt lat="40.46115694240695" lon="15.250948371094873"><ele>412.1666666666667</ele><time>2026-04-19T11:10:02.001Z</time></trkpt><trkpt lat="40.461173717038996" lon="15.251036079784766"><ele>412.33333333333337</ele><time>2026-04-19T11:10:03.001Z</time></trkpt><trkpt lat="40.4611820695195" lon="15.251129000896775"><ele>412.5</ele><time>2026-04-19T11:10:05.001Z</time></trkpt><trkpt lat="40.461214748094115" lon="15.251228966401227"><ele>412.66666666666663</ele><time>2026-04-19T11:10:07.002Z</time></trkpt><trkpt lat="40.461251295472465" lon="15.251303212127453"><ele>412.8333333333333</ele><time>2026-04-19T11:10:08.002Z</time></trkpt><trkpt lat="40.46128994387979" lon="15.25141643249653"><ele>413.0</ele><time>2026-04-19T11:10:09.002Z</time></trkpt><trkpt lat="40.46132446203879" lon="15.251553200766867"><ele>415.5</ele><time>2026-04-19T11:10:10.002Z</time></trkpt><trkpt lat="40.46134510952612" lon="15.251685446231827"><ele>418.0</ele><time>2026-04-19T11:10:11.002Z</time></trkpt><trkpt lat="40.46136806101066" lon="15.251847238295849"><ele>420.5</ele><time>2026-04-19T11:10:12.002Z</time></trkpt><trkpt lat="40.46139671523496" lon="15.252011433637298"><ele>423.0</ele><time>2026-04-19T11:10:13.002Z</time></trkpt><trkpt lat="40.46141632905376" lon="15.252139668142402"><ele>423.0</ele><time>2026-04-19T11:10:14.002Z</time></trkpt><trkpt lat="40.46144303845496" lon="15.252253767739049"><ele>423.0</ele><time>2026-04-19T11:10:15.002Z</time></trkpt><trkpt lat="40.46147326398457" lon="15.25236152001836"><ele>423.0</ele><time>2026-04-19T11:10:16.002Z</time></trkpt><trkpt lat="40.46149790332301" lon="15.25247688001969"><ele>423.0</ele><time>2026-04-19T11:10:17.002Z</time></trkpt><trkpt lat="40.46151273068458" lon="15.252570384618265"><ele>423.0</ele><time>2026-04-19T11:10:18.002Z</time></trkpt><trkpt lat="40.4615361329885" lon="15.252676218517314"><ele>423.0</ele><time>2026-04-19T11:10:19.002Z</time></trkpt><trkpt lat="40.46155528496322" lon="15.252783245988821"><ele>424.0</ele><time>2026-04-19T11:10:20.002Z</time></trkpt><trkpt lat="40.46157776386719" lon="15.252907599388047"><ele>425.0</ele><time>2026-04-19T11:10:21.002Z</time></trkpt><trkpt lat="40.46159356498189" lon="15.253034203152026"><ele>426.0</ele><time>2026-04-19T11:10:22.002Z</time></trkpt><trkpt lat="40.46160086377721" lon="15.253145354159336"><ele>427.0</ele><time>2026-04-19T11:10:23.002Z</time></trkpt><trkpt lat="40.46160662438474" lon="15.253251720268512"><ele>428.0</ele><time>2026-04-19T11:10:24.002Z</time></trkpt><trkpt lat="40.46160361354702" lon="15.25334521874221"><ele>429.0</ele><time>2026-04-19T11:10:25.002Z</time></trkpt><trkpt lat="40.461586304235745" lon="15.253429003836851"><ele>433.0</ele><time>2026-04-19T11:10:26.002Z</time></trkpt><trkpt lat="40.46153537712057" lon="15.25354018984165"><ele>433.0</ele><time>2026-04-19T11:10:28.002Z</time></trkpt></trkseg></trk></gpx>